<?xml version="1.0" encoding="UTF-8" standalone="no" ?>
<gpx xmlns="http://www.topografix.com/GPX/1/1" xmlns:xsi="http://www.w3.org/2001/XMLSchema-instance" xsi:schemaLocation="http://www.topografix.com/GPX/1/1 http://www.topografix.com/GPX/1/1/gpx.xsd" version="1.1" creator="VisuGPX - https://www.visugpx.com">
  <metadata>
    <name>Gare  de Mont Saint Vincent</name>
    <desc><![CDATA[Trace AlpineQuest 14/06/2020 06:28:44]]></desc>
  </metadata>
  <trk>
    <name><![CDATA[Gare  de Mont Saint Vincent_1]]></name>
    <trkseg>
      <trkpt lat="46.53784" lon="4.53363">
        <ele>240.6</ele>
        <time>2020-06-14T04:28:44Z</time>
      </trkpt>
      <trkpt lat="46.53777" lon="4.53361">
        <ele>239.6</ele>
        <time>2020-06-14T04:28:58Z</time>
      </trkpt>
      <trkpt lat="46.5377" lon="4.53355">
        <ele>241.6</ele>
        <time>2020-06-14T04:29:05Z</time>
      </trkpt>
      <trkpt lat="46.53769" lon="4.53345">
        <ele>239.6</ele>
        <time>2020-06-14T04:29:11Z</time>
      </trkpt>
      <trkpt lat="46.53766" lon="4.53334">
        <ele>245.6</ele>
        <time>2020-06-14T04:29:17Z</time>
      </trkpt>
      <trkpt lat="46.53764" lon="4.53323">
        <ele>246.6</ele>
        <time>2020-06-14T04:29:24Z</time>
      </trkpt>
      <trkpt lat="46.53756" lon="4.53321">
        <ele>247.6</ele>
        <time>2020-06-14T04:29:29Z</time>
      </trkpt>
      <trkpt lat="46.53748" lon="4.53322">
        <ele>246.6</ele>
        <time>2020-06-14T04:29:36Z</time>
      </trkpt>
      <trkpt lat="46.53741" lon="4.53324">
        <ele>241.6</ele>
        <time>2020-06-14T04:29:44Z</time>
      </trkpt>
      <trkpt lat="46.53733" lon="4.53324">
        <ele>240.6</ele>
        <time>2020-06-14T04:29:49Z</time>
      </trkpt>
      <trkpt lat="46.53723" lon="4.53328">
        <ele>239.6</ele>
        <time>2020-06-14T04:29:54Z</time>
      </trkpt>
      <trkpt lat="46.53716" lon="4.53324">
        <ele>238.6</ele>
        <time>2020-06-14T04:30:01Z</time>
      </trkpt>
      <trkpt lat="46.53709" lon="4.53324">
        <ele>236.6</ele>
        <time>2020-06-14T04:30:06Z</time>
      </trkpt>
      <trkpt lat="46.537" lon="4.53324">
        <ele>236.6</ele>
        <time>2020-06-14T04:30:11Z</time>
      </trkpt>
      <trkpt lat="46.53693" lon="4.53321">
        <ele>236.6</ele>
        <time>2020-06-14T04:30:16Z</time>
      </trkpt>
      <trkpt lat="46.53687" lon="4.5332">
        <ele>234.6</ele>
        <time>2020-06-14T04:30:22Z</time>
      </trkpt>
      <trkpt lat="46.53679" lon="4.53317">
        <ele>234.6</ele>
        <time>2020-06-14T04:30:27Z</time>
      </trkpt>
      <trkpt lat="46.53671" lon="4.53311">
        <ele>236.6</ele>
        <time>2020-06-14T04:30:32Z</time>
      </trkpt>
      <trkpt lat="46.53662" lon="4.53307">
        <ele>238.6</ele>
        <time>2020-06-14T04:30:37Z</time>
      </trkpt>
      <trkpt lat="46.53654" lon="4.533">
        <ele>244.6</ele>
        <time>2020-06-14T04:30:42Z</time>
      </trkpt>
      <trkpt lat="46.53647" lon="4.53293">
        <ele>244.6</ele>
        <time>2020-06-14T04:30:47Z</time>
      </trkpt>
      <trkpt lat="46.5364" lon="4.53287">
        <ele>245.6</ele>
        <time>2020-06-14T04:30:52Z</time>
      </trkpt>
      <trkpt lat="46.53632" lon="4.53281">
        <ele>244.6</ele>
        <time>2020-06-14T04:30:57Z</time>
      </trkpt>
      <trkpt lat="46.53626" lon="4.53277">
        <ele>245.6</ele>
        <time>2020-06-14T04:31:02Z</time>
      </trkpt>
      <trkpt lat="46.5362" lon="4.5327">
        <ele>247.6</ele>
        <time>2020-06-14T04:31:07Z</time>
      </trkpt>
      <trkpt lat="46.53612" lon="4.53269">
        <ele>245.6</ele>
        <time>2020-06-14T04:31:12Z</time>
      </trkpt>
      <trkpt lat="46.53604" lon="4.53261">
        <ele>246.6</ele>
        <time>2020-06-14T04:31:17Z</time>
      </trkpt>
      <trkpt lat="46.53597" lon="4.53259">
        <ele>245.6</ele>
        <time>2020-06-14T04:31:22Z</time>
      </trkpt>
      <trkpt lat="46.53591" lon="4.53252">
        <ele>247.6</ele>
        <time>2020-06-14T04:31:27Z</time>
      </trkpt>
      <trkpt lat="46.53584" lon="4.53247">
        <ele>247.6</ele>
        <time>2020-06-14T04:31:34Z</time>
      </trkpt>
      <trkpt lat="46.53578" lon="4.53241">
        <ele>247.6</ele>
        <time>2020-06-14T04:31:39Z</time>
      </trkpt>
      <trkpt lat="46.53571" lon="4.53235">
        <ele>246.6</ele>
        <time>2020-06-14T04:31:45Z</time>
      </trkpt>
      <trkpt lat="46.53564" lon="4.53228">
        <ele>248.6</ele>
        <time>2020-06-14T04:31:50Z</time>
      </trkpt>
      <trkpt lat="46.53557" lon="4.53229">
        <ele>246.6</ele>
        <time>2020-06-14T04:31:55Z</time>
      </trkpt>
      <trkpt lat="46.5355" lon="4.53224">
        <ele>246.6</ele>
        <time>2020-06-14T04:32:01Z</time>
      </trkpt>
      <trkpt lat="46.53544" lon="4.53218">
        <ele>247.6</ele>
        <time>2020-06-14T04:32:06Z</time>
      </trkpt>
      <trkpt lat="46.53538" lon="4.53213">
        <ele>245.6</ele>
        <time>2020-06-14T04:32:11Z</time>
      </trkpt>
      <trkpt lat="46.53532" lon="4.53207">
        <ele>248.6</ele>
        <time>2020-06-14T04:32:16Z</time>
      </trkpt>
      <trkpt lat="46.53526" lon="4.53201">
        <ele>247.6</ele>
        <time>2020-06-14T04:32:21Z</time>
      </trkpt>
      <trkpt lat="46.53519" lon="4.53196">
        <ele>248.6</ele>
        <time>2020-06-14T04:32:26Z</time>
      </trkpt>
      <trkpt lat="46.53512" lon="4.5319">
        <ele>249.599</ele>
        <time>2020-06-14T04:32:31Z</time>
      </trkpt>
      <trkpt lat="46.53506" lon="4.53181">
        <ele>249.599</ele>
        <time>2020-06-14T04:32:36Z</time>
      </trkpt>
      <trkpt lat="46.53499" lon="4.53178">
        <ele>250.599</ele>
        <time>2020-06-14T04:32:42Z</time>
      </trkpt>
      <trkpt lat="46.53491" lon="4.53175">
        <ele>246.599</ele>
        <time>2020-06-14T04:32:48Z</time>
      </trkpt>
      <trkpt lat="46.53483" lon="4.53172">
        <ele>246.599</ele>
        <time>2020-06-14T04:32:53Z</time>
      </trkpt>
      <trkpt lat="46.53476" lon="4.5317">
        <ele>249.599</ele>
        <time>2020-06-14T04:33:01Z</time>
      </trkpt>
      <trkpt lat="46.53469" lon="4.53164">
        <ele>248.599</ele>
        <time>2020-06-14T04:33:07Z</time>
      </trkpt>
      <trkpt lat="46.53462" lon="4.53159">
        <ele>247.599</ele>
        <time>2020-06-14T04:33:12Z</time>
      </trkpt>
      <trkpt lat="46.53455" lon="4.53158">
        <ele>245.599</ele>
        <time>2020-06-14T04:33:17Z</time>
      </trkpt>
      <trkpt lat="46.53447" lon="4.53153">
        <ele>245.599</ele>
        <time>2020-06-14T04:33:23Z</time>
      </trkpt>
      <trkpt lat="46.53442" lon="4.53145">
        <ele>243.599</ele>
        <time>2020-06-14T04:33:28Z</time>
      </trkpt>
      <trkpt lat="46.53435" lon="4.53143">
        <ele>243.599</ele>
        <time>2020-06-14T04:33:34Z</time>
      </trkpt>
      <trkpt lat="46.53429" lon="4.53137">
        <ele>243.599</ele>
        <time>2020-06-14T04:33:40Z</time>
      </trkpt>
      <trkpt lat="46.53423" lon="4.53131">
        <ele>244.599</ele>
        <time>2020-06-14T04:33:45Z</time>
      </trkpt>
      <trkpt lat="46.53419" lon="4.53123">
        <ele>243.599</ele>
        <time>2020-06-14T04:33:53Z</time>
      </trkpt>
      <trkpt lat="46.53418" lon="4.53111">
        <ele>246.599</ele>
        <time>2020-06-14T04:33:59Z</time>
      </trkpt>
      <trkpt lat="46.53413" lon="4.53098">
        <ele>252.599</ele>
        <time>2020-06-14T04:34:04Z</time>
      </trkpt>
      <trkpt lat="46.5341" lon="4.53083">
        <ele>260.599</ele>
        <time>2020-06-14T04:34:09Z</time>
      </trkpt>
      <trkpt lat="46.53406" lon="4.53074">
        <ele>258.599</ele>
        <time>2020-06-14T04:34:14Z</time>
      </trkpt>
      <trkpt lat="46.53404" lon="4.53064">
        <ele>258.599</ele>
        <time>2020-06-14T04:34:19Z</time>
      </trkpt>
      <trkpt lat="46.53402" lon="4.53053">
        <ele>259.599</ele>
        <time>2020-06-14T04:34:24Z</time>
      </trkpt>
      <trkpt lat="46.534" lon="4.53044">
        <ele>259.599</ele>
        <time>2020-06-14T04:34:29Z</time>
      </trkpt>
      <trkpt lat="46.53397" lon="4.53034">
        <ele>260.599</ele>
        <time>2020-06-14T04:34:34Z</time>
      </trkpt>
      <trkpt lat="46.53395" lon="4.53023">
        <ele>261.599</ele>
        <time>2020-06-14T04:34:39Z</time>
      </trkpt>
      <trkpt lat="46.53394" lon="4.53013">
        <ele>262.599</ele>
        <time>2020-06-14T04:34:44Z</time>
      </trkpt>
      <trkpt lat="46.53392" lon="4.53004">
        <ele>263.599</ele>
        <time>2020-06-14T04:34:49Z</time>
      </trkpt>
      <trkpt lat="46.53389" lon="4.52994">
        <ele>266.599</ele>
        <time>2020-06-14T04:34:54Z</time>
      </trkpt>
      <trkpt lat="46.53386" lon="4.52985">
        <ele>266.599</ele>
        <time>2020-06-14T04:34:59Z</time>
      </trkpt>
      <trkpt lat="46.53383" lon="4.52972">
        <ele>268.599</ele>
        <time>2020-06-14T04:35:04Z</time>
      </trkpt>
      <trkpt lat="46.53379" lon="4.52964">
        <ele>265.599</ele>
        <time>2020-06-14T04:35:11Z</time>
      </trkpt>
      <trkpt lat="46.53376" lon="4.52951">
        <ele>269.599</ele>
        <time>2020-06-14T04:35:16Z</time>
      </trkpt>
      <trkpt lat="46.53372" lon="4.52942">
        <ele>269.599</ele>
        <time>2020-06-14T04:35:21Z</time>
      </trkpt>
      <trkpt lat="46.53369" lon="4.52932">
        <ele>270.599</ele>
        <time>2020-06-14T04:35:26Z</time>
      </trkpt>
      <trkpt lat="46.53366" lon="4.52924">
        <ele>267.599</ele>
        <time>2020-06-14T04:35:32Z</time>
      </trkpt>
      <trkpt lat="46.53362" lon="4.52911">
        <ele>269.599</ele>
        <time>2020-06-14T04:35:37Z</time>
      </trkpt>
      <trkpt lat="46.53357" lon="4.52901">
        <ele>268.599</ele>
        <time>2020-06-14T04:35:42Z</time>
      </trkpt>
      <trkpt lat="46.53354" lon="4.52892">
        <ele>269.599</ele>
        <time>2020-06-14T04:35:47Z</time>
      </trkpt>
      <trkpt lat="46.53351" lon="4.52883">
        <ele>269.599</ele>
        <time>2020-06-14T04:35:52Z</time>
      </trkpt>
      <trkpt lat="46.53346" lon="4.52872">
        <ele>269.599</ele>
        <time>2020-06-14T04:35:57Z</time>
      </trkpt>
      <trkpt lat="46.53343" lon="4.52861">
        <ele>268.599</ele>
        <time>2020-06-14T04:36:02Z</time>
      </trkpt>
      <trkpt lat="46.53341" lon="4.5285">
        <ele>270.599</ele>
        <time>2020-06-14T04:36:07Z</time>
      </trkpt>
      <trkpt lat="46.53336" lon="4.52842">
        <ele>267.599</ele>
        <time>2020-06-14T04:36:16Z</time>
      </trkpt>
      <trkpt lat="46.53331" lon="4.52834">
        <ele>265.599</ele>
        <time>2020-06-14T04:36:22Z</time>
      </trkpt>
      <trkpt lat="46.53325" lon="4.52827">
        <ele>263.599</ele>
        <time>2020-06-14T04:36:27Z</time>
      </trkpt>
      <trkpt lat="46.53318" lon="4.52821">
        <ele>266.599</ele>
        <time>2020-06-14T04:36:33Z</time>
      </trkpt>
      <trkpt lat="46.53311" lon="4.52812">
        <ele>267.599</ele>
        <time>2020-06-14T04:36:38Z</time>
      </trkpt>
      <trkpt lat="46.53303" lon="4.5281">
        <ele>263.599</ele>
        <time>2020-06-14T04:36:44Z</time>
      </trkpt>
      <trkpt lat="46.53297" lon="4.52804">
        <ele>262.599</ele>
        <time>2020-06-14T04:36:49Z</time>
      </trkpt>
      <trkpt lat="46.5329" lon="4.528">
        <ele>262.599</ele>
        <time>2020-06-14T04:36:54Z</time>
      </trkpt>
      <trkpt lat="46.53284" lon="4.52797">
        <ele>260.599</ele>
        <time>2020-06-14T04:36:59Z</time>
      </trkpt>
      <trkpt lat="46.53277" lon="4.52793">
        <ele>261.599</ele>
        <time>2020-06-14T04:37:05Z</time>
      </trkpt>
      <trkpt lat="46.53271" lon="4.52786">
        <ele>262.599</ele>
        <time>2020-06-14T04:37:10Z</time>
      </trkpt>
      <trkpt lat="46.53264" lon="4.52779">
        <ele>262.599</ele>
        <time>2020-06-14T04:37:15Z</time>
      </trkpt>
      <trkpt lat="46.53257" lon="4.52772">
        <ele>262.598</ele>
        <time>2020-06-14T04:37:20Z</time>
      </trkpt>
      <trkpt lat="46.5325" lon="4.52767">
        <ele>260.598</ele>
        <time>2020-06-14T04:37:25Z</time>
      </trkpt>
      <trkpt lat="46.53243" lon="4.5276">
        <ele>258.598</ele>
        <time>2020-06-14T04:37:30Z</time>
      </trkpt>
      <trkpt lat="46.53236" lon="4.52754">
        <ele>259.598</ele>
        <time>2020-06-14T04:37:35Z</time>
      </trkpt>
      <trkpt lat="46.53229" lon="4.52748">
        <ele>261.598</ele>
        <time>2020-06-14T04:37:40Z</time>
      </trkpt>
      <trkpt lat="46.53222" lon="4.52742">
        <ele>264.598</ele>
        <time>2020-06-14T04:37:45Z</time>
      </trkpt>
      <trkpt lat="46.53221" lon="4.5273">
        <ele>264.598</ele>
        <time>2020-06-14T04:37:51Z</time>
      </trkpt>
      <trkpt lat="46.53224" lon="4.5272">
        <ele>264.598</ele>
        <time>2020-06-14T04:37:56Z</time>
      </trkpt>
      <trkpt lat="46.53228" lon="4.52713">
        <ele>263.598</ele>
        <time>2020-06-14T04:38:01Z</time>
      </trkpt>
      <trkpt lat="46.53232" lon="4.52704">
        <ele>264.598</ele>
        <time>2020-06-14T04:38:07Z</time>
      </trkpt>
      <trkpt lat="46.53233" lon="4.52693">
        <ele>263.598</ele>
        <time>2020-06-14T04:38:13Z</time>
      </trkpt>
      <trkpt lat="46.53232" lon="4.52681">
        <ele>262.598</ele>
        <time>2020-06-14T04:38:18Z</time>
      </trkpt>
      <trkpt lat="46.5323" lon="4.52671">
        <ele>262.598</ele>
        <time>2020-06-14T04:38:24Z</time>
      </trkpt>
      <trkpt lat="46.5323" lon="4.52658">
        <ele>262.598</ele>
        <time>2020-06-14T04:38:29Z</time>
      </trkpt>
      <trkpt lat="46.53229" lon="4.52648">
        <ele>260.598</ele>
        <time>2020-06-14T04:38:35Z</time>
      </trkpt>
      <trkpt lat="46.5323" lon="4.52635">
        <ele>260.598</ele>
        <time>2020-06-14T04:38:40Z</time>
      </trkpt>
      <trkpt lat="46.53229" lon="4.52625">
        <ele>259.598</ele>
        <time>2020-06-14T04:38:45Z</time>
      </trkpt>
      <trkpt lat="46.53228" lon="4.52615">
        <ele>259.598</ele>
        <time>2020-06-14T04:38:50Z</time>
      </trkpt>
      <trkpt lat="46.53229" lon="4.52603">
        <ele>260.598</ele>
        <time>2020-06-14T04:38:55Z</time>
      </trkpt>
      <trkpt lat="46.53226" lon="4.52591">
        <ele>260.598</ele>
        <time>2020-06-14T04:39:00Z</time>
      </trkpt>
      <trkpt lat="46.53226" lon="4.5258">
        <ele>258.598</ele>
        <time>2020-06-14T04:39:07Z</time>
      </trkpt>
      <trkpt lat="46.53224" lon="4.52569">
        <ele>260.598</ele>
        <time>2020-06-14T04:39:12Z</time>
      </trkpt>
      <trkpt lat="46.53224" lon="4.52559">
        <ele>261.598</ele>
        <time>2020-06-14T04:39:18Z</time>
      </trkpt>
      <trkpt lat="46.53224" lon="4.52547">
        <ele>260.598</ele>
        <time>2020-06-14T04:39:25Z</time>
      </trkpt>
      <trkpt lat="46.53224" lon="4.52537">
        <ele>262.598</ele>
        <time>2020-06-14T04:39:30Z</time>
      </trkpt>
      <trkpt lat="46.53224" lon="4.52527">
        <ele>266.598</ele>
        <time>2020-06-14T04:39:37Z</time>
      </trkpt>
      <trkpt lat="46.53227" lon="4.52519">
        <ele>264.598</ele>
        <time>2020-06-14T04:39:45Z</time>
      </trkpt>
      <trkpt lat="46.53233" lon="4.52513">
        <ele>262.598</ele>
        <time>2020-06-14T04:39:51Z</time>
      </trkpt>
      <trkpt lat="46.53238" lon="4.52505">
        <ele>261.598</ele>
        <time>2020-06-14T04:39:56Z</time>
      </trkpt>
      <trkpt lat="46.53245" lon="4.52502">
        <ele>265.598</ele>
        <time>2020-06-14T04:40:02Z</time>
      </trkpt>
      <trkpt lat="46.53253" lon="4.52497">
        <ele>265.598</ele>
        <time>2020-06-14T04:40:07Z</time>
      </trkpt>
      <trkpt lat="46.53265" lon="4.52492">
        <ele>267.598</ele>
        <time>2020-06-14T04:40:12Z</time>
      </trkpt>
      <trkpt lat="46.53271" lon="4.52489">
        <ele>268.598</ele>
        <time>2020-06-14T04:40:20Z</time>
      </trkpt>
      <trkpt lat="46.53277" lon="4.52481">
        <ele>269.598</ele>
        <time>2020-06-14T04:40:26Z</time>
      </trkpt>
      <trkpt lat="46.53282" lon="4.52471">
        <ele>270.598</ele>
        <time>2020-06-14T04:40:31Z</time>
      </trkpt>
      <trkpt lat="46.53287" lon="4.52466">
        <ele>269.598</ele>
        <time>2020-06-14T04:40:37Z</time>
      </trkpt>
      <trkpt lat="46.53289" lon="4.52454">
        <ele>272.598</ele>
        <time>2020-06-14T04:40:42Z</time>
      </trkpt>
      <trkpt lat="46.53294" lon="4.52445">
        <ele>272.598</ele>
        <time>2020-06-14T04:40:48Z</time>
      </trkpt>
      <trkpt lat="46.5329" lon="4.52433">
        <ele>271.598</ele>
        <time>2020-06-14T04:40:54Z</time>
      </trkpt>
      <trkpt lat="46.53295" lon="4.52422">
        <ele>274.598</ele>
        <time>2020-06-14T04:40:59Z</time>
      </trkpt>
      <trkpt lat="46.53294" lon="4.5241">
        <ele>269.598</ele>
        <time>2020-06-14T04:41:05Z</time>
      </trkpt>
      <trkpt lat="46.53295" lon="4.52401">
        <ele>275.598</ele>
        <time>2020-06-14T04:41:11Z</time>
      </trkpt>
      <trkpt lat="46.53296" lon="4.52389">
        <ele>272.598</ele>
        <time>2020-06-14T04:41:16Z</time>
      </trkpt>
      <trkpt lat="46.533" lon="4.52379">
        <ele>272.598</ele>
        <time>2020-06-14T04:41:21Z</time>
      </trkpt>
      <trkpt lat="46.53302" lon="4.5237">
        <ele>269.598</ele>
        <time>2020-06-14T04:41:26Z</time>
      </trkpt>
      <trkpt lat="46.53299" lon="4.5236">
        <ele>262.598</ele>
        <time>2020-06-14T04:41:31Z</time>
      </trkpt>
      <trkpt lat="46.53296" lon="4.5235">
        <ele>260.598</ele>
        <time>2020-06-14T04:41:37Z</time>
      </trkpt>
      <trkpt lat="46.53301" lon="4.52339">
        <ele>261.598</ele>
        <time>2020-06-14T04:41:42Z</time>
      </trkpt>
      <trkpt lat="46.533" lon="4.52327">
        <ele>265.598</ele>
        <time>2020-06-14T04:41:47Z</time>
      </trkpt>
      <trkpt lat="46.53295" lon="4.52319">
        <ele>268.598</ele>
        <time>2020-06-14T04:41:56Z</time>
      </trkpt>
      <trkpt lat="46.53287" lon="4.52313">
        <ele>268.598</ele>
        <time>2020-06-14T04:42:01Z</time>
      </trkpt>
      <trkpt lat="46.5328" lon="4.52309">
        <ele>266.598</ele>
        <time>2020-06-14T04:42:09Z</time>
      </trkpt>
      <trkpt lat="46.53274" lon="4.52303">
        <ele>265.598</ele>
        <time>2020-06-14T04:42:14Z</time>
      </trkpt>
      <trkpt lat="46.53268" lon="4.52298">
        <ele>263.598</ele>
        <time>2020-06-14T04:42:22Z</time>
      </trkpt>
      <trkpt lat="46.53264" lon="4.5229">
        <ele>255.598</ele>
        <time>2020-06-14T04:42:30Z</time>
      </trkpt>
      <trkpt lat="46.53256" lon="4.52284">
        <ele>254.598</ele>
        <time>2020-06-14T04:42:35Z</time>
      </trkpt>
      <trkpt lat="46.53247" lon="4.52277">
        <ele>260.598</ele>
        <time>2020-06-14T04:42:40Z</time>
      </trkpt>
      <trkpt lat="46.53242" lon="4.52272">
        <ele>260.598</ele>
        <time>2020-06-14T04:42:45Z</time>
      </trkpt>
      <trkpt lat="46.53236" lon="4.52267">
        <ele>261.598</ele>
        <time>2020-06-14T04:42:51Z</time>
      </trkpt>
      <trkpt lat="46.53231" lon="4.52259">
        <ele>259.598</ele>
        <time>2020-06-14T04:43:00Z</time>
      </trkpt>
      <trkpt lat="46.53226" lon="4.5225">
        <ele>257.598</ele>
        <time>2020-06-14T04:43:07Z</time>
      </trkpt>
      <trkpt lat="46.5322" lon="4.52244">
        <ele>256.598</ele>
        <time>2020-06-14T04:43:12Z</time>
      </trkpt>
      <trkpt lat="46.53216" lon="4.52237">
        <ele>257.598</ele>
        <time>2020-06-14T04:43:19Z</time>
      </trkpt>
      <trkpt lat="46.53209" lon="4.52234">
        <ele>255.598</ele>
        <time>2020-06-14T04:43:24Z</time>
      </trkpt>
      <trkpt lat="46.53201" lon="4.52225">
        <ele>256.598</ele>
        <time>2020-06-14T04:43:29Z</time>
      </trkpt>
      <trkpt lat="46.53194" lon="4.52223">
        <ele>256.598</ele>
        <time>2020-06-14T04:43:34Z</time>
      </trkpt>
      <trkpt lat="46.53184" lon="4.52218">
        <ele>260.598</ele>
        <time>2020-06-14T04:43:39Z</time>
      </trkpt>
      <trkpt lat="46.53175" lon="4.52206">
        <ele>268.598</ele>
        <time>2020-06-14T04:43:44Z</time>
      </trkpt>
      <trkpt lat="46.53169" lon="4.52201">
        <ele>268.598</ele>
        <time>2020-06-14T04:43:49Z</time>
      </trkpt>
      <trkpt lat="46.53162" lon="4.52192">
        <ele>269.598</ele>
        <time>2020-06-14T04:43:54Z</time>
      </trkpt>
      <trkpt lat="46.53159" lon="4.52183">
        <ele>269.598</ele>
        <time>2020-06-14T04:43:59Z</time>
      </trkpt>
      <trkpt lat="46.53154" lon="4.52176">
        <ele>270.598</ele>
        <time>2020-06-14T04:44:04Z</time>
      </trkpt>
      <trkpt lat="46.53148" lon="4.52171">
        <ele>268.598</ele>
        <time>2020-06-14T04:44:12Z</time>
      </trkpt>
      <trkpt lat="46.53144" lon="4.52159">
        <ele>266.598</ele>
        <time>2020-06-14T04:44:18Z</time>
      </trkpt>
      <trkpt lat="46.53143" lon="4.52146">
        <ele>267.598</ele>
        <time>2020-06-14T04:44:23Z</time>
      </trkpt>
      <trkpt lat="46.53143" lon="4.52136">
        <ele>267.598</ele>
        <time>2020-06-14T04:44:29Z</time>
      </trkpt>
      <trkpt lat="46.53143" lon="4.52125">
        <ele>268.598</ele>
        <time>2020-06-14T04:44:36Z</time>
      </trkpt>
      <trkpt lat="46.53142" lon="4.52116">
        <ele>268.598</ele>
        <time>2020-06-14T04:44:42Z</time>
      </trkpt>
      <trkpt lat="46.53142" lon="4.52106">
        <ele>269.598</ele>
        <time>2020-06-14T04:44:48Z</time>
      </trkpt>
      <trkpt lat="46.5314" lon="4.52096">
        <ele>270.598</ele>
        <time>2020-06-14T04:44:54Z</time>
      </trkpt>
      <trkpt lat="46.53139" lon="4.52086">
        <ele>269.598</ele>
        <time>2020-06-14T04:44:59Z</time>
      </trkpt>
      <trkpt lat="46.53137" lon="4.52074">
        <ele>273.598</ele>
        <time>2020-06-14T04:45:05Z</time>
      </trkpt>
      <trkpt lat="46.53136" lon="4.52062">
        <ele>274.598</ele>
        <time>2020-06-14T04:45:10Z</time>
      </trkpt>
      <trkpt lat="46.53135" lon="4.52052">
        <ele>273.598</ele>
        <time>2020-06-14T04:45:15Z</time>
      </trkpt>
      <trkpt lat="46.53134" lon="4.52041">
        <ele>272.598</ele>
        <time>2020-06-14T04:45:21Z</time>
      </trkpt>
      <trkpt lat="46.53134" lon="4.52031">
        <ele>272.598</ele>
        <time>2020-06-14T04:45:26Z</time>
      </trkpt>
      <trkpt lat="46.53134" lon="4.5202">
        <ele>272.598</ele>
        <time>2020-06-14T04:45:33Z</time>
      </trkpt>
      <trkpt lat="46.53136" lon="4.52009">
        <ele>272.598</ele>
        <time>2020-06-14T04:45:40Z</time>
      </trkpt>
      <trkpt lat="46.53136" lon="4.51999">
        <ele>274.598</ele>
        <time>2020-06-14T04:45:45Z</time>
      </trkpt>
      <trkpt lat="46.53134" lon="4.51988">
        <ele>274.598</ele>
        <time>2020-06-14T04:45:53Z</time>
      </trkpt>
      <trkpt lat="46.53134" lon="4.51977">
        <ele>276.598</ele>
        <time>2020-06-14T04:45:58Z</time>
      </trkpt>
      <trkpt lat="46.53134" lon="4.51967">
        <ele>278.598</ele>
        <time>2020-06-14T04:46:03Z</time>
      </trkpt>
      <trkpt lat="46.53133" lon="4.51957">
        <ele>280.598</ele>
        <time>2020-06-14T04:46:08Z</time>
      </trkpt>
      <trkpt lat="46.53133" lon="4.51946">
        <ele>281.598</ele>
        <time>2020-06-14T04:46:16Z</time>
      </trkpt>
      <trkpt lat="46.53129" lon="4.51937">
        <ele>277.598</ele>
        <time>2020-06-14T04:46:22Z</time>
      </trkpt>
      <trkpt lat="46.53126" lon="4.51928">
        <ele>273.598</ele>
        <time>2020-06-14T04:46:28Z</time>
      </trkpt>
      <trkpt lat="46.53125" lon="4.51918">
        <ele>275.598</ele>
        <time>2020-06-14T04:46:34Z</time>
      </trkpt>
      <trkpt lat="46.53125" lon="4.51909">
        <ele>278.597</ele>
        <time>2020-06-14T04:46:40Z</time>
      </trkpt>
      <trkpt lat="46.53125" lon="4.51896">
        <ele>280.597</ele>
        <time>2020-06-14T04:46:45Z</time>
      </trkpt>
      <trkpt lat="46.53122" lon="4.51883">
        <ele>279.597</ele>
        <time>2020-06-14T04:46:50Z</time>
      </trkpt>
      <trkpt lat="46.5312" lon="4.51867">
        <ele>281.597</ele>
        <time>2020-06-14T04:46:59Z</time>
      </trkpt>
      <trkpt lat="46.53117" lon="4.51849">
        <ele>287.597</ele>
        <time>2020-06-14T04:47:04Z</time>
      </trkpt>
      <trkpt lat="46.53113" lon="4.5184">
        <ele>284.597</ele>
        <time>2020-06-14T04:47:09Z</time>
      </trkpt>
      <trkpt lat="46.53112" lon="4.51826">
        <ele>284.597</ele>
        <time>2020-06-14T04:47:19Z</time>
      </trkpt>
      <trkpt lat="46.53111" lon="4.51813">
        <ele>286.597</ele>
        <time>2020-06-14T04:47:24Z</time>
      </trkpt>
      <trkpt lat="46.53112" lon="4.51804">
        <ele>285.597</ele>
        <time>2020-06-14T04:47:29Z</time>
      </trkpt>
      <trkpt lat="46.53118" lon="4.51798">
        <ele>278.597</ele>
        <time>2020-06-14T04:47:36Z</time>
      </trkpt>
      <trkpt lat="46.53122" lon="4.51789">
        <ele>282.597</ele>
        <time>2020-06-14T04:47:45Z</time>
      </trkpt>
      <trkpt lat="46.53126" lon="4.51782">
        <ele>281.597</ele>
        <time>2020-06-14T04:47:55Z</time>
      </trkpt>
      <trkpt lat="46.53135" lon="4.51774">
        <ele>283.597</ele>
        <time>2020-06-14T04:48:00Z</time>
      </trkpt>
      <trkpt lat="46.53141" lon="4.51767">
        <ele>282.597</ele>
        <time>2020-06-14T04:48:09Z</time>
      </trkpt>
      <trkpt lat="46.53151" lon="4.51762">
        <ele>288.597</ele>
        <time>2020-06-14T04:48:14Z</time>
      </trkpt>
      <trkpt lat="46.53155" lon="4.51754">
        <ele>289.597</ele>
        <time>2020-06-14T04:48:19Z</time>
      </trkpt>
      <trkpt lat="46.53163" lon="4.51755">
        <ele>287.597</ele>
        <time>2020-06-14T04:48:26Z</time>
      </trkpt>
      <trkpt lat="46.53171" lon="4.51753">
        <ele>286.598</ele>
        <time>2020-06-14T04:48:31Z</time>
      </trkpt>
      <trkpt lat="46.5318" lon="4.51752">
        <ele>288.598</ele>
        <time>2020-06-14T04:48:36Z</time>
      </trkpt>
      <trkpt lat="46.53185" lon="4.51746">
        <ele>288.598</ele>
        <time>2020-06-14T04:48:41Z</time>
      </trkpt>
      <trkpt lat="46.53193" lon="4.51741">
        <ele>285.598</ele>
        <time>2020-06-14T04:48:48Z</time>
      </trkpt>
      <trkpt lat="46.53203" lon="4.51753">
        <ele>289.598</ele>
        <time>2020-06-14T04:48:53Z</time>
      </trkpt>
      <trkpt lat="46.5321" lon="4.51759">
        <ele>289.598</ele>
        <time>2020-06-14T04:48:58Z</time>
      </trkpt>
      <trkpt lat="46.53213" lon="4.51748">
        <ele>284.598</ele>
        <time>2020-06-14T04:49:04Z</time>
      </trkpt>
      <trkpt lat="46.5322" lon="4.51741">
        <ele>283.598</ele>
        <time>2020-06-14T04:49:09Z</time>
      </trkpt>
      <trkpt lat="46.53227" lon="4.51741">
        <ele>284.598</ele>
        <time>2020-06-14T04:49:14Z</time>
      </trkpt>
      <trkpt lat="46.53236" lon="4.51741">
        <ele>287.598</ele>
        <time>2020-06-14T04:49:19Z</time>
      </trkpt>
      <trkpt lat="46.53244" lon="4.51734">
        <ele>289.598</ele>
        <time>2020-06-14T04:49:24Z</time>
      </trkpt>
      <trkpt lat="46.53251" lon="4.51737">
        <ele>287.598</ele>
        <time>2020-06-14T04:49:29Z</time>
      </trkpt>
      <trkpt lat="46.53259" lon="4.5174">
        <ele>289.598</ele>
        <time>2020-06-14T04:49:36Z</time>
      </trkpt>
      <trkpt lat="46.53266" lon="4.51738">
        <ele>286.598</ele>
        <time>2020-06-14T04:49:45Z</time>
      </trkpt>
      <trkpt lat="46.53272" lon="4.51735">
        <ele>285.598</ele>
        <time>2020-06-14T04:49:52Z</time>
      </trkpt>
      <trkpt lat="46.53281" lon="4.51732">
        <ele>288.598</ele>
        <time>2020-06-14T04:49:57Z</time>
      </trkpt>
      <trkpt lat="46.53288" lon="4.51728">
        <ele>289.598</ele>
        <time>2020-06-14T04:50:02Z</time>
      </trkpt>
      <trkpt lat="46.53295" lon="4.51726">
        <ele>288.598</ele>
        <time>2020-06-14T04:50:08Z</time>
      </trkpt>
      <trkpt lat="46.53303" lon="4.51722">
        <ele>290.598</ele>
        <time>2020-06-14T04:50:13Z</time>
      </trkpt>
      <trkpt lat="46.5331" lon="4.51716">
        <ele>290.598</ele>
        <time>2020-06-14T04:50:18Z</time>
      </trkpt>
      <trkpt lat="46.53316" lon="4.5171">
        <ele>289.598</ele>
        <time>2020-06-14T04:50:23Z</time>
      </trkpt>
      <trkpt lat="46.5332" lon="4.51701">
        <ele>287.598</ele>
        <time>2020-06-14T04:50:32Z</time>
      </trkpt>
      <trkpt lat="46.53326" lon="4.51696">
        <ele>287.598</ele>
        <time>2020-06-14T04:50:40Z</time>
      </trkpt>
      <trkpt lat="46.53328" lon="4.51685">
        <ele>287.598</ele>
        <time>2020-06-14T04:50:45Z</time>
      </trkpt>
      <trkpt lat="46.53336" lon="4.51683">
        <ele>288.598</ele>
        <time>2020-06-14T04:50:50Z</time>
      </trkpt>
      <trkpt lat="46.53342" lon="4.51678">
        <ele>290.598</ele>
        <time>2020-06-14T04:50:55Z</time>
      </trkpt>
      <trkpt lat="46.53346" lon="4.5167">
        <ele>292.598</ele>
        <time>2020-06-14T04:51:00Z</time>
      </trkpt>
      <trkpt lat="46.53359" lon="4.5166">
        <ele>288.598</ele>
        <time>2020-06-14T04:51:05Z</time>
      </trkpt>
      <trkpt lat="46.53363" lon="4.51653">
        <ele>285.598</ele>
        <time>2020-06-14T04:51:10Z</time>
      </trkpt>
      <trkpt lat="46.53379" lon="4.51645">
        <ele>290.598</ele>
        <time>2020-06-14T04:51:15Z</time>
      </trkpt>
      <trkpt lat="46.53386" lon="4.51639">
        <ele>290.598</ele>
        <time>2020-06-14T04:51:20Z</time>
      </trkpt>
      <trkpt lat="46.53394" lon="4.51631">
        <ele>290.598</ele>
        <time>2020-06-14T04:51:25Z</time>
      </trkpt>
      <trkpt lat="46.534" lon="4.51621">
        <ele>287.598</ele>
        <time>2020-06-14T04:51:30Z</time>
      </trkpt>
      <trkpt lat="46.53407" lon="4.51614">
        <ele>287.598</ele>
        <time>2020-06-14T04:51:35Z</time>
      </trkpt>
      <trkpt lat="46.53413" lon="4.51607">
        <ele>284.598</ele>
        <time>2020-06-14T04:51:41Z</time>
      </trkpt>
      <trkpt lat="46.5342" lon="4.51602">
        <ele>283.598</ele>
        <time>2020-06-14T04:51:46Z</time>
      </trkpt>
      <trkpt lat="46.53426" lon="4.51594">
        <ele>281.598</ele>
        <time>2020-06-14T04:51:53Z</time>
      </trkpt>
      <trkpt lat="46.53432" lon="4.51581">
        <ele>282.598</ele>
        <time>2020-06-14T04:51:58Z</time>
      </trkpt>
      <trkpt lat="46.53436" lon="4.5157">
        <ele>282.598</ele>
        <time>2020-06-14T04:52:03Z</time>
      </trkpt>
      <trkpt lat="46.53442" lon="4.51554">
        <ele>285.598</ele>
        <time>2020-06-14T04:52:08Z</time>
      </trkpt>
      <trkpt lat="46.53446" lon="4.51544">
        <ele>288.598</ele>
        <time>2020-06-14T04:52:13Z</time>
      </trkpt>
      <trkpt lat="46.53454" lon="4.51536">
        <ele>288.598</ele>
        <time>2020-06-14T04:52:18Z</time>
      </trkpt>
      <trkpt lat="46.5346" lon="4.5153">
        <ele>289.598</ele>
        <time>2020-06-14T04:52:23Z</time>
      </trkpt>
      <trkpt lat="46.53465" lon="4.51522">
        <ele>286.598</ele>
        <time>2020-06-14T04:52:29Z</time>
      </trkpt>
      <trkpt lat="46.53474" lon="4.51516">
        <ele>287.598</ele>
        <time>2020-06-14T04:52:34Z</time>
      </trkpt>
      <trkpt lat="46.5348" lon="4.51506">
        <ele>289.598</ele>
        <time>2020-06-14T04:52:39Z</time>
      </trkpt>
      <trkpt lat="46.53484" lon="4.51496">
        <ele>291.598</ele>
        <time>2020-06-14T04:52:49Z</time>
      </trkpt>
      <trkpt lat="46.53486" lon="4.51485">
        <ele>287.598</ele>
        <time>2020-06-14T04:52:55Z</time>
      </trkpt>
      <trkpt lat="46.53491" lon="4.51478">
        <ele>287.598</ele>
        <time>2020-06-14T04:53:00Z</time>
      </trkpt>
      <trkpt lat="46.53498" lon="4.51471">
        <ele>286.598</ele>
        <time>2020-06-14T04:53:05Z</time>
      </trkpt>
      <trkpt lat="46.53504" lon="4.51459">
        <ele>278.598</ele>
        <time>2020-06-14T04:53:10Z</time>
      </trkpt>
      <trkpt lat="46.53512" lon="4.5145">
        <ele>276.598</ele>
        <time>2020-06-14T04:53:15Z</time>
      </trkpt>
      <trkpt lat="46.53518" lon="4.51443">
        <ele>274.598</ele>
        <time>2020-06-14T04:53:20Z</time>
      </trkpt>
      <trkpt lat="46.53524" lon="4.51435">
        <ele>273.598</ele>
        <time>2020-06-14T04:53:26Z</time>
      </trkpt>
      <trkpt lat="46.53531" lon="4.51428">
        <ele>272.598</ele>
        <time>2020-06-14T04:53:31Z</time>
      </trkpt>
      <trkpt lat="46.53532" lon="4.51418">
        <ele>272.598</ele>
        <time>2020-06-14T04:53:38Z</time>
      </trkpt>
      <trkpt lat="46.53531" lon="4.51408">
        <ele>269.598</ele>
        <time>2020-06-14T04:53:46Z</time>
      </trkpt>
      <trkpt lat="46.53537" lon="4.51401">
        <ele>268.598</ele>
        <time>2020-06-14T04:53:51Z</time>
      </trkpt>
      <trkpt lat="46.53546" lon="4.51391">
        <ele>265.598</ele>
        <time>2020-06-14T04:53:56Z</time>
      </trkpt>
      <trkpt lat="46.5355" lon="4.51379">
        <ele>262.598</ele>
        <time>2020-06-14T04:54:01Z</time>
      </trkpt>
      <trkpt lat="46.53556" lon="4.51372">
        <ele>262.598</ele>
        <time>2020-06-14T04:54:06Z</time>
      </trkpt>
      <trkpt lat="46.53559" lon="4.51363">
        <ele>262.598</ele>
        <time>2020-06-14T04:54:11Z</time>
      </trkpt>
      <trkpt lat="46.53564" lon="4.51354">
        <ele>261.598</ele>
        <time>2020-06-14T04:54:16Z</time>
      </trkpt>
      <trkpt lat="46.53571" lon="4.51349">
        <ele>260.598</ele>
        <time>2020-06-14T04:54:21Z</time>
      </trkpt>
      <trkpt lat="46.53576" lon="4.51338">
        <ele>258.598</ele>
        <time>2020-06-14T04:54:28Z</time>
      </trkpt>
      <trkpt lat="46.53583" lon="4.51328">
        <ele>258.598</ele>
        <time>2020-06-14T04:54:33Z</time>
      </trkpt>
      <trkpt lat="46.53594" lon="4.51316">
        <ele>261.598</ele>
        <time>2020-06-14T04:54:38Z</time>
      </trkpt>
      <trkpt lat="46.53601" lon="4.51307">
        <ele>261.598</ele>
        <time>2020-06-14T04:54:43Z</time>
      </trkpt>
      <trkpt lat="46.53611" lon="4.51304">
        <ele>262.598</ele>
        <time>2020-06-14T04:54:48Z</time>
      </trkpt>
      <trkpt lat="46.53618" lon="4.513">
        <ele>262.598</ele>
        <time>2020-06-14T04:54:53Z</time>
      </trkpt>
      <trkpt lat="46.53626" lon="4.51299">
        <ele>262.598</ele>
        <time>2020-06-14T04:54:58Z</time>
      </trkpt>
      <trkpt lat="46.53634" lon="4.51297">
        <ele>261.598</ele>
        <time>2020-06-14T04:55:04Z</time>
      </trkpt>
      <trkpt lat="46.53644" lon="4.51298">
        <ele>266.598</ele>
        <time>2020-06-14T04:55:09Z</time>
      </trkpt>
      <trkpt lat="46.53651" lon="4.51299">
        <ele>265.598</ele>
        <time>2020-06-14T04:55:14Z</time>
      </trkpt>
      <trkpt lat="46.53661" lon="4.51302">
        <ele>265.599</ele>
        <time>2020-06-14T04:55:19Z</time>
      </trkpt>
      <trkpt lat="46.53668" lon="4.51302">
        <ele>268.599</ele>
        <time>2020-06-14T04:55:24Z</time>
      </trkpt>
      <trkpt lat="46.53679" lon="4.51298">
        <ele>269.599</ele>
        <time>2020-06-14T04:55:29Z</time>
      </trkpt>
      <trkpt lat="46.53682" lon="4.51288">
        <ele>268.599</ele>
        <time>2020-06-14T04:55:34Z</time>
      </trkpt>
      <trkpt lat="46.53686" lon="4.51279">
        <ele>264.599</ele>
        <time>2020-06-14T04:55:40Z</time>
      </trkpt>
      <trkpt lat="46.53687" lon="4.51268">
        <ele>264.599</ele>
        <time>2020-06-14T04:55:45Z</time>
      </trkpt>
      <trkpt lat="46.53687" lon="4.51253">
        <ele>265.599</ele>
        <time>2020-06-14T04:55:50Z</time>
      </trkpt>
      <trkpt lat="46.53691" lon="4.5124">
        <ele>266.599</ele>
        <time>2020-06-14T04:55:55Z</time>
      </trkpt>
      <trkpt lat="46.53696" lon="4.51232">
        <ele>263.599</ele>
        <time>2020-06-14T04:56:01Z</time>
      </trkpt>
      <trkpt lat="46.537" lon="4.5122">
        <ele>265.599</ele>
        <time>2020-06-14T04:56:06Z</time>
      </trkpt>
      <trkpt lat="46.53705" lon="4.51213">
        <ele>264.599</ele>
        <time>2020-06-14T04:56:11Z</time>
      </trkpt>
      <trkpt lat="46.53711" lon="4.51207">
        <ele>264.599</ele>
        <time>2020-06-14T04:56:16Z</time>
      </trkpt>
      <trkpt lat="46.53716" lon="4.51198">
        <ele>262.599</ele>
        <time>2020-06-14T04:56:21Z</time>
      </trkpt>
      <trkpt lat="46.53721" lon="4.51189">
        <ele>263.599</ele>
        <time>2020-06-14T04:56:26Z</time>
      </trkpt>
      <trkpt lat="46.53725" lon="4.5118">
        <ele>261.599</ele>
        <time>2020-06-14T04:56:31Z</time>
      </trkpt>
      <trkpt lat="46.53731" lon="4.5117">
        <ele>262.599</ele>
        <time>2020-06-14T04:56:36Z</time>
      </trkpt>
      <trkpt lat="46.53735" lon="4.51161">
        <ele>259.599</ele>
        <time>2020-06-14T04:56:41Z</time>
      </trkpt>
      <trkpt lat="46.53738" lon="4.51152">
        <ele>256.599</ele>
        <time>2020-06-14T04:56:46Z</time>
      </trkpt>
      <trkpt lat="46.53742" lon="4.51142">
        <ele>255.599</ele>
        <time>2020-06-14T04:56:51Z</time>
      </trkpt>
      <trkpt lat="46.53745" lon="4.51131">
        <ele>255.599</ele>
        <time>2020-06-14T04:56:56Z</time>
      </trkpt>
      <trkpt lat="46.53751" lon="4.5112">
        <ele>254.599</ele>
        <time>2020-06-14T04:57:01Z</time>
      </trkpt>
      <trkpt lat="46.53756" lon="4.51113">
        <ele>254.599</ele>
        <time>2020-06-14T04:57:06Z</time>
      </trkpt>
      <trkpt lat="46.53758" lon="4.51103">
        <ele>253.599</ele>
        <time>2020-06-14T04:57:12Z</time>
      </trkpt>
      <trkpt lat="46.53762" lon="4.51095">
        <ele>249.599</ele>
        <time>2020-06-14T04:57:17Z</time>
      </trkpt>
      <trkpt lat="46.53769" lon="4.51084">
        <ele>252.599</ele>
        <time>2020-06-14T04:57:22Z</time>
      </trkpt>
      <trkpt lat="46.53775" lon="4.51077">
        <ele>254.599</ele>
        <time>2020-06-14T04:57:27Z</time>
      </trkpt>
      <trkpt lat="46.53779" lon="4.51069">
        <ele>256.599</ele>
        <time>2020-06-14T04:57:32Z</time>
      </trkpt>
      <trkpt lat="46.53784" lon="4.51063">
        <ele>255.599</ele>
        <time>2020-06-14T04:57:37Z</time>
      </trkpt>
      <trkpt lat="46.53791" lon="4.51055">
        <ele>255.599</ele>
        <time>2020-06-14T04:57:42Z</time>
      </trkpt>
      <trkpt lat="46.53796" lon="4.51048">
        <ele>253.599</ele>
        <time>2020-06-14T04:57:50Z</time>
      </trkpt>
      <trkpt lat="46.53802" lon="4.51044">
        <ele>253.599</ele>
        <time>2020-06-14T04:57:55Z</time>
      </trkpt>
      <trkpt lat="46.53809" lon="4.51038">
        <ele>254.599</ele>
        <time>2020-06-14T04:58:01Z</time>
      </trkpt>
      <trkpt lat="46.53817" lon="4.51035">
        <ele>253.599</ele>
        <time>2020-06-14T04:58:09Z</time>
      </trkpt>
      <trkpt lat="46.53824" lon="4.51034">
        <ele>251.599</ele>
        <time>2020-06-14T04:58:16Z</time>
      </trkpt>
      <trkpt lat="46.53837" lon="4.51033">
        <ele>255.599</ele>
        <time>2020-06-14T04:58:21Z</time>
      </trkpt>
      <trkpt lat="46.53844" lon="4.51033">
        <ele>258.599</ele>
        <time>2020-06-14T04:58:26Z</time>
      </trkpt>
      <trkpt lat="46.53848" lon="4.51025">
        <ele>256.599</ele>
        <time>2020-06-14T04:58:31Z</time>
      </trkpt>
      <trkpt lat="46.53853" lon="4.51018">
        <ele>251.599</ele>
        <time>2020-06-14T04:58:37Z</time>
      </trkpt>
      <trkpt lat="46.53853" lon="4.51007">
        <ele>256.599</ele>
        <time>2020-06-14T04:58:45Z</time>
      </trkpt>
      <trkpt lat="46.53857" lon="4.51">
        <ele>258.599</ele>
        <time>2020-06-14T04:58:50Z</time>
      </trkpt>
      <trkpt lat="46.53854" lon="4.50992">
        <ele>257.599</ele>
        <time>2020-06-14T04:58:55Z</time>
      </trkpt>
      <trkpt lat="46.53863" lon="4.50982">
        <ele>257.599</ele>
        <time>2020-06-14T04:59:00Z</time>
      </trkpt>
      <trkpt lat="46.53875" lon="4.50972">
        <ele>257.599</ele>
        <time>2020-06-14T04:59:05Z</time>
      </trkpt>
      <trkpt lat="46.53878" lon="4.50963">
        <ele>257.599</ele>
        <time>2020-06-14T04:59:10Z</time>
      </trkpt>
      <trkpt lat="46.53881" lon="4.50953">
        <ele>258.599</ele>
        <time>2020-06-14T04:59:15Z</time>
      </trkpt>
      <trkpt lat="46.53881" lon="4.50941">
        <ele>260.599</ele>
        <time>2020-06-14T04:59:20Z</time>
      </trkpt>
      <trkpt lat="46.53878" lon="4.50927">
        <ele>262.599</ele>
        <time>2020-06-14T04:59:25Z</time>
      </trkpt>
      <trkpt lat="46.53876" lon="4.50909">
        <ele>263.599</ele>
        <time>2020-06-14T04:59:30Z</time>
      </trkpt>
      <trkpt lat="46.53875" lon="4.50897">
        <ele>263.599</ele>
        <time>2020-06-14T04:59:35Z</time>
      </trkpt>
      <trkpt lat="46.53874" lon="4.50885">
        <ele>262.599</ele>
        <time>2020-06-14T04:59:46Z</time>
      </trkpt>
      <trkpt lat="46.53871" lon="4.50874">
        <ele>263.599</ele>
        <time>2020-06-14T04:59:51Z</time>
      </trkpt>
      <trkpt lat="46.53871" lon="4.50864">
        <ele>263.599</ele>
        <time>2020-06-14T04:59:56Z</time>
      </trkpt>
      <trkpt lat="46.53869" lon="4.50855">
        <ele>263.599</ele>
        <time>2020-06-14T05:00:02Z</time>
      </trkpt>
      <trkpt lat="46.53864" lon="4.50846">
        <ele>263.599</ele>
        <time>2020-06-14T05:00:08Z</time>
      </trkpt>
      <trkpt lat="46.53856" lon="4.50837">
        <ele>263.599</ele>
        <time>2020-06-14T05:00:13Z</time>
      </trkpt>
      <trkpt lat="46.53852" lon="4.50828">
        <ele>263.599</ele>
        <time>2020-06-14T05:00:20Z</time>
      </trkpt>
      <trkpt lat="46.53844" lon="4.50818">
        <ele>262.599</ele>
        <time>2020-06-14T05:00:25Z</time>
      </trkpt>
      <trkpt lat="46.53838" lon="4.50809">
        <ele>261.599</ele>
        <time>2020-06-14T05:00:30Z</time>
      </trkpt>
      <trkpt lat="46.53833" lon="4.50802">
        <ele>261.599</ele>
        <time>2020-06-14T05:00:35Z</time>
      </trkpt>
      <trkpt lat="46.53827" lon="4.50793">
        <ele>261.599</ele>
        <time>2020-06-14T05:00:41Z</time>
      </trkpt>
      <trkpt lat="46.53821" lon="4.50786">
        <ele>259.599</ele>
        <time>2020-06-14T05:00:47Z</time>
      </trkpt>
      <trkpt lat="46.5382" lon="4.50776">
        <ele>259.599</ele>
        <time>2020-06-14T05:00:53Z</time>
      </trkpt>
      <trkpt lat="46.53816" lon="4.50769">
        <ele>253.599</ele>
        <time>2020-06-14T05:01:00Z</time>
      </trkpt>
      <trkpt lat="46.53812" lon="4.50759">
        <ele>255.599</ele>
        <time>2020-06-14T05:01:05Z</time>
      </trkpt>
      <trkpt lat="46.5381" lon="4.5075">
        <ele>255.599</ele>
        <time>2020-06-14T05:01:10Z</time>
      </trkpt>
      <trkpt lat="46.5381" lon="4.5074">
        <ele>257.599</ele>
        <time>2020-06-14T05:01:19Z</time>
      </trkpt>
      <trkpt lat="46.5381" lon="4.5073">
        <ele>257.599</ele>
        <time>2020-06-14T05:01:24Z</time>
      </trkpt>
      <trkpt lat="46.53808" lon="4.50717">
        <ele>258.598</ele>
        <time>2020-06-14T05:01:29Z</time>
      </trkpt>
      <trkpt lat="46.53809" lon="4.50703">
        <ele>261.598</ele>
        <time>2020-06-14T05:01:34Z</time>
      </trkpt>
      <trkpt lat="46.53811" lon="4.50691">
        <ele>264.598</ele>
        <time>2020-06-14T05:01:39Z</time>
      </trkpt>
      <trkpt lat="46.53811" lon="4.5068">
        <ele>266.598</ele>
        <time>2020-06-14T05:01:44Z</time>
      </trkpt>
      <trkpt lat="46.53815" lon="4.50669">
        <ele>263.598</ele>
        <time>2020-06-14T05:01:52Z</time>
      </trkpt>
      <trkpt lat="46.5382" lon="4.50662">
        <ele>262.598</ele>
        <time>2020-06-14T05:01:57Z</time>
      </trkpt>
      <trkpt lat="46.53827" lon="4.50658">
        <ele>262.599</ele>
        <time>2020-06-14T05:02:04Z</time>
      </trkpt>
      <trkpt lat="46.53832" lon="4.50651">
        <ele>262.599</ele>
        <time>2020-06-14T05:02:09Z</time>
      </trkpt>
      <trkpt lat="46.5384" lon="4.50644">
        <ele>265.599</ele>
        <time>2020-06-14T05:02:14Z</time>
      </trkpt>
      <trkpt lat="46.53845" lon="4.50634">
        <ele>265.599</ele>
        <time>2020-06-14T05:02:24Z</time>
      </trkpt>
      <trkpt lat="46.5385" lon="4.50627">
        <ele>264.599</ele>
        <time>2020-06-14T05:02:29Z</time>
      </trkpt>
      <trkpt lat="46.53855" lon="4.50617">
        <ele>264.599</ele>
        <time>2020-06-14T05:02:34Z</time>
      </trkpt>
      <trkpt lat="46.53861" lon="4.50611">
        <ele>263.599</ele>
        <time>2020-06-14T05:02:39Z</time>
      </trkpt>
      <trkpt lat="46.53862" lon="4.50597">
        <ele>264.599</ele>
        <time>2020-06-14T05:02:44Z</time>
      </trkpt>
      <trkpt lat="46.53864" lon="4.50587">
        <ele>262.599</ele>
        <time>2020-06-14T05:02:50Z</time>
      </trkpt>
      <trkpt lat="46.53866" lon="4.50576">
        <ele>257.599</ele>
        <time>2020-06-14T05:02:58Z</time>
      </trkpt>
      <trkpt lat="46.5387" lon="4.50559">
        <ele>262.599</ele>
        <time>2020-06-14T05:03:03Z</time>
      </trkpt>
      <trkpt lat="46.53874" lon="4.50548">
        <ele>256.599</ele>
        <time>2020-06-14T05:03:10Z</time>
      </trkpt>
      <trkpt lat="46.53877" lon="4.50538">
        <ele>255.599</ele>
        <time>2020-06-14T05:03:16Z</time>
      </trkpt>
      <trkpt lat="46.53878" lon="4.50525">
        <ele>256.599</ele>
        <time>2020-06-14T05:03:21Z</time>
      </trkpt>
      <trkpt lat="46.53878" lon="4.50511">
        <ele>257.599</ele>
        <time>2020-06-14T05:03:26Z</time>
      </trkpt>
      <trkpt lat="46.53877" lon="4.50497">
        <ele>259.599</ele>
        <time>2020-06-14T05:03:31Z</time>
      </trkpt>
      <trkpt lat="46.53876" lon="4.50481">
        <ele>261.599</ele>
        <time>2020-06-14T05:03:36Z</time>
      </trkpt>
      <trkpt lat="46.53873" lon="4.50471">
        <ele>260.598</ele>
        <time>2020-06-14T05:03:41Z</time>
      </trkpt>
      <trkpt lat="46.53871" lon="4.50461">
        <ele>263.598</ele>
        <time>2020-06-14T05:03:46Z</time>
      </trkpt>
      <trkpt lat="46.53867" lon="4.50452">
        <ele>260.598</ele>
        <time>2020-06-14T05:03:52Z</time>
      </trkpt>
      <trkpt lat="46.53864" lon="4.50442">
        <ele>261.598</ele>
        <time>2020-06-14T05:03:58Z</time>
      </trkpt>
      <trkpt lat="46.53863" lon="4.50433">
        <ele>261.598</ele>
        <time>2020-06-14T05:04:03Z</time>
      </trkpt>
      <trkpt lat="46.5386" lon="4.50423">
        <ele>261.598</ele>
        <time>2020-06-14T05:04:09Z</time>
      </trkpt>
      <trkpt lat="46.53859" lon="4.50411">
        <ele>263.598</ele>
        <time>2020-06-14T05:04:14Z</time>
      </trkpt>
      <trkpt lat="46.53855" lon="4.504">
        <ele>261.598</ele>
        <time>2020-06-14T05:04:19Z</time>
      </trkpt>
      <trkpt lat="46.53854" lon="4.50388">
        <ele>261.598</ele>
        <time>2020-06-14T05:04:24Z</time>
      </trkpt>
      <trkpt lat="46.53851" lon="4.50379">
        <ele>261.598</ele>
        <time>2020-06-14T05:04:29Z</time>
      </trkpt>
      <trkpt lat="46.53851" lon="4.50368">
        <ele>259.598</ele>
        <time>2020-06-14T05:04:35Z</time>
      </trkpt>
      <trkpt lat="46.53852" lon="4.50357">
        <ele>261.598</ele>
        <time>2020-06-14T05:04:40Z</time>
      </trkpt>
      <trkpt lat="46.53855" lon="4.50343">
        <ele>264.598</ele>
        <time>2020-06-14T05:04:45Z</time>
      </trkpt>
      <trkpt lat="46.53858" lon="4.50333">
        <ele>264.598</ele>
        <time>2020-06-14T05:04:50Z</time>
      </trkpt>
      <trkpt lat="46.53863" lon="4.50317">
        <ele>266.598</ele>
        <time>2020-06-14T05:04:55Z</time>
      </trkpt>
      <trkpt lat="46.5387" lon="4.50311">
        <ele>269.598</ele>
        <time>2020-06-14T05:05:00Z</time>
      </trkpt>
      <trkpt lat="46.53878" lon="4.50307">
        <ele>270.598</ele>
        <time>2020-06-14T05:05:05Z</time>
      </trkpt>
      <trkpt lat="46.53885" lon="4.50304">
        <ele>269.598</ele>
        <time>2020-06-14T05:05:11Z</time>
      </trkpt>
      <trkpt lat="46.53892" lon="4.50299">
        <ele>269.598</ele>
        <time>2020-06-14T05:05:16Z</time>
      </trkpt>
      <trkpt lat="46.53897" lon="4.50292">
        <ele>271.598</ele>
        <time>2020-06-14T05:05:21Z</time>
      </trkpt>
      <trkpt lat="46.53903" lon="4.50284">
        <ele>269.598</ele>
        <time>2020-06-14T05:05:26Z</time>
      </trkpt>
      <trkpt lat="46.53905" lon="4.50274">
        <ele>264.598</ele>
        <time>2020-06-14T05:05:32Z</time>
      </trkpt>
      <trkpt lat="46.53906" lon="4.50263">
        <ele>263.598</ele>
        <time>2020-06-14T05:05:37Z</time>
      </trkpt>
      <trkpt lat="46.53907" lon="4.50252">
        <ele>263.598</ele>
        <time>2020-06-14T05:05:42Z</time>
      </trkpt>
      <trkpt lat="46.53907" lon="4.5024">
        <ele>265.598</ele>
        <time>2020-06-14T05:05:47Z</time>
      </trkpt>
      <trkpt lat="46.53907" lon="4.50231">
        <ele>263.598</ele>
        <time>2020-06-14T05:05:52Z</time>
      </trkpt>
      <trkpt lat="46.53909" lon="4.5022">
        <ele>264.598</ele>
        <time>2020-06-14T05:05:57Z</time>
      </trkpt>
      <trkpt lat="46.53907" lon="4.50209">
        <ele>265.598</ele>
        <time>2020-06-14T05:06:03Z</time>
      </trkpt>
      <trkpt lat="46.53904" lon="4.50198">
        <ele>263.598</ele>
        <time>2020-06-14T05:06:08Z</time>
      </trkpt>
      <trkpt lat="46.53907" lon="4.50189">
        <ele>262.598</ele>
        <time>2020-06-14T05:06:13Z</time>
      </trkpt>
      <trkpt lat="46.53903" lon="4.50181">
        <ele>259.598</ele>
        <time>2020-06-14T05:06:18Z</time>
      </trkpt>
      <trkpt lat="46.53902" lon="4.50171">
        <ele>265.598</ele>
        <time>2020-06-14T05:07:17Z</time>
      </trkpt>
      <trkpt lat="46.53909" lon="4.50172">
        <ele>272.598</ele>
        <time>2020-06-14T05:08:26Z</time>
      </trkpt>
      <trkpt lat="46.53915" lon="4.50165">
        <ele>273.598</ele>
        <time>2020-06-14T05:08:31Z</time>
      </trkpt>
      <trkpt lat="46.53919" lon="4.50157">
        <ele>271.598</ele>
        <time>2020-06-14T05:08:40Z</time>
      </trkpt>
      <trkpt lat="46.53927" lon="4.50152">
        <ele>273.598</ele>
        <time>2020-06-14T05:08:47Z</time>
      </trkpt>
      <trkpt lat="46.53934" lon="4.50148">
        <ele>274.598</ele>
        <time>2020-06-14T05:08:56Z</time>
      </trkpt>
      <trkpt lat="46.5394" lon="4.50143">
        <ele>275.598</ele>
        <time>2020-06-14T05:09:02Z</time>
      </trkpt>
      <trkpt lat="46.53947" lon="4.50137">
        <ele>275.598</ele>
        <time>2020-06-14T05:09:07Z</time>
      </trkpt>
      <trkpt lat="46.53953" lon="4.50132">
        <ele>275.598</ele>
        <time>2020-06-14T05:09:13Z</time>
      </trkpt>
      <trkpt lat="46.5396" lon="4.50126">
        <ele>275.598</ele>
        <time>2020-06-14T05:09:20Z</time>
      </trkpt>
      <trkpt lat="46.53967" lon="4.50125">
        <ele>276.599</ele>
        <time>2020-06-14T05:09:26Z</time>
      </trkpt>
      <trkpt lat="46.53974" lon="4.50122">
        <ele>275.599</ele>
        <time>2020-06-14T05:09:33Z</time>
      </trkpt>
      <trkpt lat="46.53981" lon="4.50122">
        <ele>277.599</ele>
        <time>2020-06-14T05:09:38Z</time>
      </trkpt>
      <trkpt lat="46.53986" lon="4.50116">
        <ele>272.599</ele>
        <time>2020-06-14T05:09:43Z</time>
      </trkpt>
      <trkpt lat="46.53994" lon="4.50111">
        <ele>273.599</ele>
        <time>2020-06-14T05:09:49Z</time>
      </trkpt>
      <trkpt lat="46.54" lon="4.50105">
        <ele>273.599</ele>
        <time>2020-06-14T05:09:54Z</time>
      </trkpt>
      <trkpt lat="46.54004" lon="4.50098">
        <ele>272.599</ele>
        <time>2020-06-14T05:10:00Z</time>
      </trkpt>
      <trkpt lat="46.54006" lon="4.50088">
        <ele>275.599</ele>
        <time>2020-06-14T05:10:05Z</time>
      </trkpt>
      <trkpt lat="46.54008" lon="4.50078">
        <ele>271.599</ele>
        <time>2020-06-14T05:10:12Z</time>
      </trkpt>
      <trkpt lat="46.54011" lon="4.50068">
        <ele>272.599</ele>
        <time>2020-06-14T05:10:17Z</time>
      </trkpt>
      <trkpt lat="46.54009" lon="4.50057">
        <ele>275.599</ele>
        <time>2020-06-14T05:10:24Z</time>
      </trkpt>
      <trkpt lat="46.54009" lon="4.50048">
        <ele>278.599</ele>
        <time>2020-06-14T05:10:29Z</time>
      </trkpt>
      <trkpt lat="46.54011" lon="4.50035">
        <ele>279.599</ele>
        <time>2020-06-14T05:10:34Z</time>
      </trkpt>
      <trkpt lat="46.54011" lon="4.50025">
        <ele>278.599</ele>
        <time>2020-06-14T05:10:40Z</time>
      </trkpt>
      <trkpt lat="46.5401" lon="4.50015">
        <ele>276.599</ele>
        <time>2020-06-14T05:10:45Z</time>
      </trkpt>
      <trkpt lat="46.54012" lon="4.50005">
        <ele>277.599</ele>
        <time>2020-06-14T05:10:51Z</time>
      </trkpt>
      <trkpt lat="46.54013" lon="4.49996">
        <ele>277.599</ele>
        <time>2020-06-14T05:10:56Z</time>
      </trkpt>
      <trkpt lat="46.54013" lon="4.49985">
        <ele>277.599</ele>
        <time>2020-06-14T05:11:01Z</time>
      </trkpt>
      <trkpt lat="46.54013" lon="4.49975">
        <ele>281.599</ele>
        <time>2020-06-14T05:11:07Z</time>
      </trkpt>
      <trkpt lat="46.54015" lon="4.49965">
        <ele>282.599</ele>
        <time>2020-06-14T05:11:13Z</time>
      </trkpt>
      <trkpt lat="46.54016" lon="4.49956">
        <ele>284.599</ele>
        <time>2020-06-14T05:11:19Z</time>
      </trkpt>
      <trkpt lat="46.54015" lon="4.49946">
        <ele>285.599</ele>
        <time>2020-06-14T05:11:33Z</time>
      </trkpt>
      <trkpt lat="46.54009" lon="4.49942">
        <ele>287.598</ele>
        <time>2020-06-14T05:11:38Z</time>
      </trkpt>
      <trkpt lat="46.54" lon="4.49928">
        <ele>283.598</ele>
        <time>2020-06-14T05:11:43Z</time>
      </trkpt>
      <trkpt lat="46.53994" lon="4.49921">
        <ele>285.598</ele>
        <time>2020-06-14T05:11:52Z</time>
      </trkpt>
      <trkpt lat="46.53989" lon="4.4991">
        <ele>285.598</ele>
        <time>2020-06-14T05:11:57Z</time>
      </trkpt>
      <trkpt lat="46.53988" lon="4.499">
        <ele>288.598</ele>
        <time>2020-06-14T05:12:04Z</time>
      </trkpt>
      <trkpt lat="46.5399" lon="4.49891">
        <ele>291.598</ele>
        <time>2020-06-14T05:12:11Z</time>
      </trkpt>
      <trkpt lat="46.53994" lon="4.49882">
        <ele>294.598</ele>
        <time>2020-06-14T05:12:19Z</time>
      </trkpt>
      <trkpt lat="46.53997" lon="4.49874">
        <ele>293.598</ele>
        <time>2020-06-14T05:12:27Z</time>
      </trkpt>
      <trkpt lat="46.54002" lon="4.49866">
        <ele>296.598</ele>
        <time>2020-06-14T05:12:32Z</time>
      </trkpt>
      <trkpt lat="46.54005" lon="4.49857">
        <ele>295.598</ele>
        <time>2020-06-14T05:12:44Z</time>
      </trkpt>
      <trkpt lat="46.54007" lon="4.49846">
        <ele>296.598</ele>
        <time>2020-06-14T05:12:50Z</time>
      </trkpt>
      <trkpt lat="46.5401" lon="4.49837">
        <ele>296.598</ele>
        <time>2020-06-14T05:12:55Z</time>
      </trkpt>
      <trkpt lat="46.54014" lon="4.49829">
        <ele>296.598</ele>
        <time>2020-06-14T05:13:01Z</time>
      </trkpt>
      <trkpt lat="46.54017" lon="4.49819">
        <ele>301.598</ele>
        <time>2020-06-14T05:13:06Z</time>
      </trkpt>
      <trkpt lat="46.54021" lon="4.4981">
        <ele>301.598</ele>
        <time>2020-06-14T05:13:14Z</time>
      </trkpt>
      <trkpt lat="46.54022" lon="4.498">
        <ele>297.598</ele>
        <time>2020-06-14T05:13:20Z</time>
      </trkpt>
      <trkpt lat="46.54023" lon="4.4979">
        <ele>301.598</ele>
        <time>2020-06-14T05:13:26Z</time>
      </trkpt>
      <trkpt lat="46.54025" lon="4.4978">
        <ele>300.598</ele>
        <time>2020-06-14T05:13:33Z</time>
      </trkpt>
      <trkpt lat="46.54026" lon="4.4977">
        <ele>300.598</ele>
        <time>2020-06-14T05:13:40Z</time>
      </trkpt>
      <trkpt lat="46.54026" lon="4.4976">
        <ele>303.598</ele>
        <time>2020-06-14T05:13:45Z</time>
      </trkpt>
      <trkpt lat="46.54025" lon="4.49751">
        <ele>299.598</ele>
        <time>2020-06-14T05:13:54Z</time>
      </trkpt>
      <trkpt lat="46.54028" lon="4.49741">
        <ele>305.598</ele>
        <time>2020-06-14T05:13:59Z</time>
      </trkpt>
      <trkpt lat="46.54032" lon="4.49732">
        <ele>306.598</ele>
        <time>2020-06-14T05:14:05Z</time>
      </trkpt>
      <trkpt lat="46.54035" lon="4.49724">
        <ele>311.598</ele>
        <time>2020-06-14T05:14:10Z</time>
      </trkpt>
      <trkpt lat="46.54039" lon="4.49715">
        <ele>315.598</ele>
        <time>2020-06-14T05:14:17Z</time>
      </trkpt>
      <trkpt lat="46.54042" lon="4.49705">
        <ele>315.598</ele>
        <time>2020-06-14T05:14:24Z</time>
      </trkpt>
      <trkpt lat="46.54045" lon="4.49696">
        <ele>314.598</ele>
        <time>2020-06-14T05:14:31Z</time>
      </trkpt>
      <trkpt lat="46.54048" lon="4.49687">
        <ele>317.598</ele>
        <time>2020-06-14T05:14:38Z</time>
      </trkpt>
      <trkpt lat="46.54051" lon="4.49678">
        <ele>319.598</ele>
        <time>2020-06-14T05:14:43Z</time>
      </trkpt>
      <trkpt lat="46.54054" lon="4.49668">
        <ele>323.598</ele>
        <time>2020-06-14T05:14:49Z</time>
      </trkpt>
      <trkpt lat="46.54054" lon="4.49657">
        <ele>321.598</ele>
        <time>2020-06-14T05:14:55Z</time>
      </trkpt>
      <trkpt lat="46.54056" lon="4.49646">
        <ele>321.598</ele>
        <time>2020-06-14T05:15:02Z</time>
      </trkpt>
      <trkpt lat="46.54059" lon="4.49635">
        <ele>328.598</ele>
        <time>2020-06-14T05:15:08Z</time>
      </trkpt>
      <trkpt lat="46.54062" lon="4.49627">
        <ele>328.598</ele>
        <time>2020-06-14T05:15:14Z</time>
      </trkpt>
      <trkpt lat="46.54066" lon="4.49617">
        <ele>330.598</ele>
        <time>2020-06-14T05:15:19Z</time>
      </trkpt>
      <trkpt lat="46.54066" lon="4.49607">
        <ele>330.598</ele>
        <time>2020-06-14T05:15:24Z</time>
      </trkpt>
      <trkpt lat="46.54066" lon="4.49597">
        <ele>324.598</ele>
        <time>2020-06-14T05:15:31Z</time>
      </trkpt>
      <trkpt lat="46.54067" lon="4.49585">
        <ele>323.598</ele>
        <time>2020-06-14T05:15:37Z</time>
      </trkpt>
      <trkpt lat="46.54067" lon="4.49575">
        <ele>323.598</ele>
        <time>2020-06-14T05:15:42Z</time>
      </trkpt>
      <trkpt lat="46.54068" lon="4.49566">
        <ele>322.598</ele>
        <time>2020-06-14T05:15:48Z</time>
      </trkpt>
      <trkpt lat="46.5407" lon="4.49554">
        <ele>324.598</ele>
        <time>2020-06-14T05:15:53Z</time>
      </trkpt>
      <trkpt lat="46.54072" lon="4.49542">
        <ele>324.598</ele>
        <time>2020-06-14T05:15:58Z</time>
      </trkpt>
      <trkpt lat="46.54074" lon="4.49531">
        <ele>324.598</ele>
        <time>2020-06-14T05:16:06Z</time>
      </trkpt>
      <trkpt lat="46.54075" lon="4.49521">
        <ele>323.598</ele>
        <time>2020-06-14T05:16:11Z</time>
      </trkpt>
      <trkpt lat="46.54076" lon="4.49512">
        <ele>324.598</ele>
        <time>2020-06-14T05:16:16Z</time>
      </trkpt>
      <trkpt lat="46.54078" lon="4.49502">
        <ele>325.598</ele>
        <time>2020-06-14T05:16:21Z</time>
      </trkpt>
      <trkpt lat="46.54079" lon="4.49492">
        <ele>325.598</ele>
        <time>2020-06-14T05:16:26Z</time>
      </trkpt>
      <trkpt lat="46.54082" lon="4.49483">
        <ele>325.598</ele>
        <time>2020-06-14T05:16:31Z</time>
      </trkpt>
      <trkpt lat="46.54086" lon="4.49471">
        <ele>328.598</ele>
        <time>2020-06-14T05:16:36Z</time>
      </trkpt>
      <trkpt lat="46.5409" lon="4.49464">
        <ele>328.598</ele>
        <time>2020-06-14T05:16:41Z</time>
      </trkpt>
      <trkpt lat="46.54093" lon="4.49454">
        <ele>330.598</ele>
        <time>2020-06-14T05:16:46Z</time>
      </trkpt>
      <trkpt lat="46.54098" lon="4.49442">
        <ele>330.598</ele>
        <time>2020-06-14T05:16:51Z</time>
      </trkpt>
      <trkpt lat="46.54103" lon="4.49433">
        <ele>331.598</ele>
        <time>2020-06-14T05:16:56Z</time>
      </trkpt>
      <trkpt lat="46.54105" lon="4.49424">
        <ele>327.598</ele>
        <time>2020-06-14T05:17:02Z</time>
      </trkpt>
      <trkpt lat="46.5411" lon="4.49412">
        <ele>334.598</ele>
        <time>2020-06-14T05:17:07Z</time>
      </trkpt>
      <trkpt lat="46.54114" lon="4.49403">
        <ele>335.598</ele>
        <time>2020-06-14T05:17:12Z</time>
      </trkpt>
      <trkpt lat="46.54115" lon="4.49393">
        <ele>330.598</ele>
        <time>2020-06-14T05:17:18Z</time>
      </trkpt>
      <trkpt lat="46.54119" lon="4.49384">
        <ele>329.598</ele>
        <time>2020-06-14T05:17:24Z</time>
      </trkpt>
      <trkpt lat="46.54125" lon="4.49376">
        <ele>330.598</ele>
        <time>2020-06-14T05:17:29Z</time>
      </trkpt>
      <trkpt lat="46.5413" lon="4.49368">
        <ele>331.598</ele>
        <time>2020-06-14T05:17:34Z</time>
      </trkpt>
      <trkpt lat="46.54136" lon="4.49357">
        <ele>333.598</ele>
        <time>2020-06-14T05:17:39Z</time>
      </trkpt>
      <trkpt lat="46.54142" lon="4.49349">
        <ele>330.598</ele>
        <time>2020-06-14T05:17:47Z</time>
      </trkpt>
      <trkpt lat="46.54147" lon="4.49341">
        <ele>333.598</ele>
        <time>2020-06-14T05:17:52Z</time>
      </trkpt>
      <trkpt lat="46.54151" lon="4.49332">
        <ele>334.598</ele>
        <time>2020-06-14T05:17:57Z</time>
      </trkpt>
      <trkpt lat="46.54156" lon="4.49325">
        <ele>335.598</ele>
        <time>2020-06-14T05:18:02Z</time>
      </trkpt>
      <trkpt lat="46.54161" lon="4.49319">
        <ele>332.598</ele>
        <time>2020-06-14T05:18:07Z</time>
      </trkpt>
      <trkpt lat="46.54167" lon="4.49309">
        <ele>335.598</ele>
        <time>2020-06-14T05:18:12Z</time>
      </trkpt>
      <trkpt lat="46.54171" lon="4.49298">
        <ele>333.598</ele>
        <time>2020-06-14T05:18:17Z</time>
      </trkpt>
      <trkpt lat="46.54175" lon="4.4929">
        <ele>334.598</ele>
        <time>2020-06-14T05:18:22Z</time>
      </trkpt>
      <trkpt lat="46.54178" lon="4.49282">
        <ele>334.598</ele>
        <time>2020-06-14T05:18:28Z</time>
      </trkpt>
      <trkpt lat="46.54185" lon="4.49271">
        <ele>337.598</ele>
        <time>2020-06-14T05:18:33Z</time>
      </trkpt>
      <trkpt lat="46.54188" lon="4.49261">
        <ele>338.598</ele>
        <time>2020-06-14T05:18:39Z</time>
      </trkpt>
      <trkpt lat="46.54193" lon="4.49252">
        <ele>337.598</ele>
        <time>2020-06-14T05:18:45Z</time>
      </trkpt>
      <trkpt lat="46.54201" lon="4.49242">
        <ele>343.599</ele>
        <time>2020-06-14T05:18:50Z</time>
      </trkpt>
      <trkpt lat="46.54206" lon="4.49229">
        <ele>346.599</ele>
        <time>2020-06-14T05:18:55Z</time>
      </trkpt>
      <trkpt lat="46.5421" lon="4.4922">
        <ele>341.599</ele>
        <time>2020-06-14T05:19:01Z</time>
      </trkpt>
      <trkpt lat="46.54215" lon="4.49212">
        <ele>341.599</ele>
        <time>2020-06-14T05:19:08Z</time>
      </trkpt>
      <trkpt lat="46.54219" lon="4.49202">
        <ele>338.599</ele>
        <time>2020-06-14T05:19:14Z</time>
      </trkpt>
      <trkpt lat="46.54221" lon="4.49192">
        <ele>338.599</ele>
        <time>2020-06-14T05:19:19Z</time>
      </trkpt>
      <trkpt lat="46.54224" lon="4.49183">
        <ele>335.599</ele>
        <time>2020-06-14T05:19:25Z</time>
      </trkpt>
      <trkpt lat="46.54228" lon="4.49175">
        <ele>332.599</ele>
        <time>2020-06-14T05:19:31Z</time>
      </trkpt>
      <trkpt lat="46.54233" lon="4.49167">
        <ele>333.599</ele>
        <time>2020-06-14T05:19:36Z</time>
      </trkpt>
      <trkpt lat="46.54238" lon="4.49161">
        <ele>333.599</ele>
        <time>2020-06-14T05:19:41Z</time>
      </trkpt>
      <trkpt lat="46.54239" lon="4.49151">
        <ele>332.599</ele>
        <time>2020-06-14T05:19:47Z</time>
      </trkpt>
      <trkpt lat="46.54243" lon="4.49142">
        <ele>336.599</ele>
        <time>2020-06-14T05:19:52Z</time>
      </trkpt>
      <trkpt lat="46.54251" lon="4.49135">
        <ele>345.599</ele>
        <time>2020-06-14T05:19:57Z</time>
      </trkpt>
      <trkpt lat="46.54255" lon="4.49126">
        <ele>343.599</ele>
        <time>2020-06-14T05:20:03Z</time>
      </trkpt>
      <trkpt lat="46.54261" lon="4.49117">
        <ele>345.599</ele>
        <time>2020-06-14T05:20:08Z</time>
      </trkpt>
      <trkpt lat="46.54265" lon="4.49108">
        <ele>344.599</ele>
        <time>2020-06-14T05:20:14Z</time>
      </trkpt>
      <trkpt lat="46.54269" lon="4.491">
        <ele>343.599</ele>
        <time>2020-06-14T05:20:19Z</time>
      </trkpt>
      <trkpt lat="46.54272" lon="4.4909">
        <ele>342.599</ele>
        <time>2020-06-14T05:20:25Z</time>
      </trkpt>
      <trkpt lat="46.54277" lon="4.4908">
        <ele>343.599</ele>
        <time>2020-06-14T05:20:31Z</time>
      </trkpt>
      <trkpt lat="46.54283" lon="4.49071">
        <ele>343.599</ele>
        <time>2020-06-14T05:20:36Z</time>
      </trkpt>
      <trkpt lat="46.54287" lon="4.49062">
        <ele>342.599</ele>
        <time>2020-06-14T05:20:41Z</time>
      </trkpt>
      <trkpt lat="46.54292" lon="4.49051">
        <ele>341.599</ele>
        <time>2020-06-14T05:20:47Z</time>
      </trkpt>
      <trkpt lat="46.543" lon="4.49041">
        <ele>342.599</ele>
        <time>2020-06-14T05:20:52Z</time>
      </trkpt>
      <trkpt lat="46.54305" lon="4.49034">
        <ele>340.599</ele>
        <time>2020-06-14T05:20:58Z</time>
      </trkpt>
      <trkpt lat="46.54312" lon="4.49023">
        <ele>342.599</ele>
        <time>2020-06-14T05:21:03Z</time>
      </trkpt>
      <trkpt lat="46.54316" lon="4.49014">
        <ele>340.599</ele>
        <time>2020-06-14T05:21:08Z</time>
      </trkpt>
      <trkpt lat="46.54321" lon="4.49004">
        <ele>340.599</ele>
        <time>2020-06-14T05:21:13Z</time>
      </trkpt>
      <trkpt lat="46.54325" lon="4.48997">
        <ele>338.599</ele>
        <time>2020-06-14T05:21:20Z</time>
      </trkpt>
      <trkpt lat="46.54329" lon="4.48987">
        <ele>336.599</ele>
        <time>2020-06-14T05:21:26Z</time>
      </trkpt>
      <trkpt lat="46.54331" lon="4.48978">
        <ele>336.599</ele>
        <time>2020-06-14T05:21:32Z</time>
      </trkpt>
      <trkpt lat="46.54336" lon="4.4897">
        <ele>332.599</ele>
        <time>2020-06-14T05:21:38Z</time>
      </trkpt>
      <trkpt lat="46.54341" lon="4.48963">
        <ele>332.599</ele>
        <time>2020-06-14T05:21:43Z</time>
      </trkpt>
      <trkpt lat="46.54345" lon="4.48955">
        <ele>330.599</ele>
        <time>2020-06-14T05:21:48Z</time>
      </trkpt>
      <trkpt lat="46.54351" lon="4.48943">
        <ele>333.599</ele>
        <time>2020-06-14T05:21:53Z</time>
      </trkpt>
      <trkpt lat="46.54356" lon="4.48936">
        <ele>333.599</ele>
        <time>2020-06-14T05:21:58Z</time>
      </trkpt>
      <trkpt lat="46.54362" lon="4.4893">
        <ele>332.599</ele>
        <time>2020-06-14T05:22:05Z</time>
      </trkpt>
      <trkpt lat="46.54369" lon="4.4892">
        <ele>338.599</ele>
        <time>2020-06-14T05:22:10Z</time>
      </trkpt>
      <trkpt lat="46.54373" lon="4.4891">
        <ele>337.599</ele>
        <time>2020-06-14T05:22:15Z</time>
      </trkpt>
      <trkpt lat="46.5438" lon="4.48899">
        <ele>344.599</ele>
        <time>2020-06-14T05:22:20Z</time>
      </trkpt>
      <trkpt lat="46.54385" lon="4.48891">
        <ele>344.599</ele>
        <time>2020-06-14T05:22:25Z</time>
      </trkpt>
      <trkpt lat="46.54391" lon="4.48887">
        <ele>341.599</ele>
        <time>2020-06-14T05:22:33Z</time>
      </trkpt>
      <trkpt lat="46.544" lon="4.48878">
        <ele>342.599</ele>
        <time>2020-06-14T05:22:38Z</time>
      </trkpt>
      <trkpt lat="46.54404" lon="4.48871">
        <ele>341.599</ele>
        <time>2020-06-14T05:22:44Z</time>
      </trkpt>
      <trkpt lat="46.54411" lon="4.48863">
        <ele>345.599</ele>
        <time>2020-06-14T05:22:49Z</time>
      </trkpt>
      <trkpt lat="46.54415" lon="4.48854">
        <ele>346.599</ele>
        <time>2020-06-14T05:22:56Z</time>
      </trkpt>
      <trkpt lat="46.54421" lon="4.4885">
        <ele>346.599</ele>
        <time>2020-06-14T05:23:01Z</time>
      </trkpt>
      <trkpt lat="46.54425" lon="4.48843">
        <ele>345.599</ele>
        <time>2020-06-14T05:23:08Z</time>
      </trkpt>
      <trkpt lat="46.54433" lon="4.48834">
        <ele>341.599</ele>
        <time>2020-06-14T05:23:18Z</time>
      </trkpt>
      <trkpt lat="46.54438" lon="4.48827">
        <ele>347.599</ele>
        <time>2020-06-14T05:23:25Z</time>
      </trkpt>
      <trkpt lat="46.54443" lon="4.4882">
        <ele>350.599</ele>
        <time>2020-06-14T05:23:30Z</time>
      </trkpt>
      <trkpt lat="46.54447" lon="4.48812">
        <ele>348.599</ele>
        <time>2020-06-14T05:23:36Z</time>
      </trkpt>
      <trkpt lat="46.54453" lon="4.48805">
        <ele>346.599</ele>
        <time>2020-06-14T05:23:43Z</time>
      </trkpt>
      <trkpt lat="46.54458" lon="4.48798">
        <ele>344.599</ele>
        <time>2020-06-14T05:23:49Z</time>
      </trkpt>
      <trkpt lat="46.54464" lon="4.4879">
        <ele>348.599</ele>
        <time>2020-06-14T05:23:55Z</time>
      </trkpt>
      <trkpt lat="46.5447" lon="4.48784">
        <ele>348.599</ele>
        <time>2020-06-14T05:24:01Z</time>
      </trkpt>
      <trkpt lat="46.54476" lon="4.48776">
        <ele>350.599</ele>
        <time>2020-06-14T05:24:15Z</time>
      </trkpt>
      <trkpt lat="46.54483" lon="4.48766">
        <ele>349.599</ele>
        <time>2020-06-14T05:24:20Z</time>
      </trkpt>
      <trkpt lat="46.54489" lon="4.48759">
        <ele>352.599</ele>
        <time>2020-06-14T05:24:28Z</time>
      </trkpt>
      <trkpt lat="46.54494" lon="4.48752">
        <ele>351.599</ele>
        <time>2020-06-14T05:24:33Z</time>
      </trkpt>
      <trkpt lat="46.54499" lon="4.48745">
        <ele>349.599</ele>
        <time>2020-06-14T05:24:39Z</time>
      </trkpt>
      <trkpt lat="46.54505" lon="4.48741">
        <ele>349.599</ele>
        <time>2020-06-14T05:24:46Z</time>
      </trkpt>
      <trkpt lat="46.54512" lon="4.4874">
        <ele>352.599</ele>
        <time>2020-06-14T05:24:56Z</time>
      </trkpt>
      <trkpt lat="46.54519" lon="4.48734">
        <ele>350.599</ele>
        <time>2020-06-14T05:25:03Z</time>
      </trkpt>
      <trkpt lat="46.54526" lon="4.48734">
        <ele>350.599</ele>
        <time>2020-06-14T05:25:14Z</time>
      </trkpt>
      <trkpt lat="46.54534" lon="4.48735">
        <ele>353.599</ele>
        <time>2020-06-14T05:25:20Z</time>
      </trkpt>
      <trkpt lat="46.5454" lon="4.48736">
        <ele>355.599</ele>
        <time>2020-06-14T05:25:26Z</time>
      </trkpt>
      <trkpt lat="46.54546" lon="4.48729">
        <ele>352.599</ele>
        <time>2020-06-14T05:25:36Z</time>
      </trkpt>
      <trkpt lat="46.54551" lon="4.48721">
        <ele>355.599</ele>
        <time>2020-06-14T05:25:42Z</time>
      </trkpt>
      <trkpt lat="46.54555" lon="4.48714">
        <ele>358.599</ele>
        <time>2020-06-14T05:25:57Z</time>
      </trkpt>
      <trkpt lat="46.54559" lon="4.48702">
        <ele>360.599</ele>
        <time>2020-06-14T05:26:07Z</time>
      </trkpt>
      <trkpt lat="46.54565" lon="4.48687">
        <ele>365.599</ele>
        <time>2020-06-14T05:26:12Z</time>
      </trkpt>
      <trkpt lat="46.54568" lon="4.48677">
        <ele>362.599</ele>
        <time>2020-06-14T05:26:18Z</time>
      </trkpt>
      <trkpt lat="46.54569" lon="4.48668">
        <ele>363.599</ele>
        <time>2020-06-14T05:26:23Z</time>
      </trkpt>
      <trkpt lat="46.5457" lon="4.48657">
        <ele>364.599</ele>
        <time>2020-06-14T05:26:29Z</time>
      </trkpt>
      <trkpt lat="46.54573" lon="4.48646">
        <ele>368.599</ele>
        <time>2020-06-14T05:26:36Z</time>
      </trkpt>
      <trkpt lat="46.54572" lon="4.48636">
        <ele>368.599</ele>
        <time>2020-06-14T05:26:43Z</time>
      </trkpt>
      <trkpt lat="46.54573" lon="4.48626">
        <ele>367.599</ele>
        <time>2020-06-14T05:26:55Z</time>
      </trkpt>
      <trkpt lat="46.54577" lon="4.48617">
        <ele>368.599</ele>
        <time>2020-06-14T05:27:00Z</time>
      </trkpt>
      <trkpt lat="46.54582" lon="4.48609">
        <ele>371.599</ele>
        <time>2020-06-14T05:27:08Z</time>
      </trkpt>
      <trkpt lat="46.54588" lon="4.48601">
        <ele>371.599</ele>
        <time>2020-06-14T05:27:18Z</time>
      </trkpt>
      <trkpt lat="46.54594" lon="4.48595">
        <ele>371.599</ele>
        <time>2020-06-14T05:27:23Z</time>
      </trkpt>
      <trkpt lat="46.54597" lon="4.48587">
        <ele>373.599</ele>
        <time>2020-06-14T05:27:36Z</time>
      </trkpt>
      <trkpt lat="46.54602" lon="4.48578">
        <ele>377.599</ele>
        <time>2020-06-14T05:27:41Z</time>
      </trkpt>
      <trkpt lat="46.54607" lon="4.48571">
        <ele>377.599</ele>
        <time>2020-06-14T05:27:47Z</time>
      </trkpt>
      <trkpt lat="46.54612" lon="4.48562">
        <ele>380.599</ele>
        <time>2020-06-14T05:27:54Z</time>
      </trkpt>
      <trkpt lat="46.54616" lon="4.48555">
        <ele>380.599</ele>
        <time>2020-06-14T05:28:03Z</time>
      </trkpt>
      <trkpt lat="46.54622" lon="4.48549">
        <ele>382.599</ele>
        <time>2020-06-14T05:28:09Z</time>
      </trkpt>
      <trkpt lat="46.54627" lon="4.48543">
        <ele>383.599</ele>
        <time>2020-06-14T05:28:17Z</time>
      </trkpt>
      <trkpt lat="46.54632" lon="4.48536">
        <ele>382.599</ele>
        <time>2020-06-14T05:28:27Z</time>
      </trkpt>
      <trkpt lat="46.54637" lon="4.4853">
        <ele>386.599</ele>
        <time>2020-06-14T05:28:32Z</time>
      </trkpt>
      <trkpt lat="46.54643" lon="4.48523">
        <ele>387.599</ele>
        <time>2020-06-14T05:28:37Z</time>
      </trkpt>
      <trkpt lat="46.54649" lon="4.4852">
        <ele>388.599</ele>
        <time>2020-06-14T05:28:46Z</time>
      </trkpt>
      <trkpt lat="46.54655" lon="4.48515">
        <ele>390.599</ele>
        <time>2020-06-14T05:28:57Z</time>
      </trkpt>
      <trkpt lat="46.54668" lon="4.48503">
        <ele>390.599</ele>
        <time>2020-06-14T05:29:02Z</time>
      </trkpt>
      <trkpt lat="46.54673" lon="4.48496">
        <ele>392.599</ele>
        <time>2020-06-14T05:29:09Z</time>
      </trkpt>
      <trkpt lat="46.54678" lon="4.4849">
        <ele>392.599</ele>
        <time>2020-06-14T05:29:14Z</time>
      </trkpt>
      <trkpt lat="46.54684" lon="4.48484">
        <ele>393.599</ele>
        <time>2020-06-14T05:29:20Z</time>
      </trkpt>
      <trkpt lat="46.54689" lon="4.48477">
        <ele>393.599</ele>
        <time>2020-06-14T05:29:28Z</time>
      </trkpt>
      <trkpt lat="46.54694" lon="4.48471">
        <ele>390.599</ele>
        <time>2020-06-14T05:29:38Z</time>
      </trkpt>
      <trkpt lat="46.54699" lon="4.48461">
        <ele>392.599</ele>
        <time>2020-06-14T05:29:44Z</time>
      </trkpt>
      <trkpt lat="46.54703" lon="4.48453">
        <ele>392.599</ele>
        <time>2020-06-14T05:29:53Z</time>
      </trkpt>
      <trkpt lat="46.54704" lon="4.48444">
        <ele>393.599</ele>
        <time>2020-06-14T05:30:00Z</time>
      </trkpt>
      <trkpt lat="46.54709" lon="4.48437">
        <ele>393.599</ele>
        <time>2020-06-14T05:30:08Z</time>
      </trkpt>
      <trkpt lat="46.54712" lon="4.48427">
        <ele>395.599</ele>
        <time>2020-06-14T05:30:15Z</time>
      </trkpt>
      <trkpt lat="46.54717" lon="4.48419">
        <ele>396.599</ele>
        <time>2020-06-14T05:30:22Z</time>
      </trkpt>
      <trkpt lat="46.54718" lon="4.4841">
        <ele>395.599</ele>
        <time>2020-06-14T05:30:28Z</time>
      </trkpt>
      <trkpt lat="46.5472" lon="4.48401">
        <ele>396.599</ele>
        <time>2020-06-14T05:30:36Z</time>
      </trkpt>
      <trkpt lat="46.54724" lon="4.48391">
        <ele>399.599</ele>
        <time>2020-06-14T05:30:43Z</time>
      </trkpt>
      <trkpt lat="46.54728" lon="4.48382">
        <ele>401.599</ele>
        <time>2020-06-14T05:30:52Z</time>
      </trkpt>
      <trkpt lat="46.54731" lon="4.48374">
        <ele>401.599</ele>
        <time>2020-06-14T05:30:59Z</time>
      </trkpt>
      <trkpt lat="46.54732" lon="4.48365">
        <ele>401.599</ele>
        <time>2020-06-14T05:31:11Z</time>
      </trkpt>
      <trkpt lat="46.54737" lon="4.48357">
        <ele>401.599</ele>
        <time>2020-06-14T05:31:18Z</time>
      </trkpt>
      <trkpt lat="46.54741" lon="4.48348">
        <ele>402.599</ele>
        <time>2020-06-14T05:31:25Z</time>
      </trkpt>
      <trkpt lat="46.54742" lon="4.48338">
        <ele>402.599</ele>
        <time>2020-06-14T05:31:32Z</time>
      </trkpt>
      <trkpt lat="46.54746" lon="4.4833">
        <ele>403.599</ele>
        <time>2020-06-14T05:31:39Z</time>
      </trkpt>
      <trkpt lat="46.54751" lon="4.48322">
        <ele>404.599</ele>
        <time>2020-06-14T05:31:46Z</time>
      </trkpt>
      <trkpt lat="46.54756" lon="4.48315">
        <ele>399.599</ele>
        <time>2020-06-14T05:31:55Z</time>
      </trkpt>
      <trkpt lat="46.54763" lon="4.48311">
        <ele>404.599</ele>
        <time>2020-06-14T05:32:02Z</time>
      </trkpt>
      <trkpt lat="46.54768" lon="4.48306">
        <ele>405.599</ele>
        <time>2020-06-14T05:32:08Z</time>
      </trkpt>
      <trkpt lat="46.54775" lon="4.48303">
        <ele>407.599</ele>
        <time>2020-06-14T05:32:24Z</time>
      </trkpt>
      <trkpt lat="46.54785" lon="4.48305">
        <ele>413.599</ele>
        <time>2020-06-14T05:32:29Z</time>
      </trkpt>
      <trkpt lat="46.54792" lon="4.48299">
        <ele>414.599</ele>
        <time>2020-06-14T05:32:36Z</time>
      </trkpt>
      <trkpt lat="46.54799" lon="4.48304">
        <ele>419.599</ele>
        <time>2020-06-14T05:32:43Z</time>
      </trkpt>
      <trkpt lat="46.54806" lon="4.48307">
        <ele>415.599</ele>
        <time>2020-06-14T05:32:50Z</time>
      </trkpt>
      <trkpt lat="46.54812" lon="4.48313">
        <ele>414.6</ele>
        <time>2020-06-14T05:32:58Z</time>
      </trkpt>
      <trkpt lat="46.54816" lon="4.48323">
        <ele>420.6</ele>
        <time>2020-06-14T05:33:04Z</time>
      </trkpt>
      <trkpt lat="46.54822" lon="4.48329">
        <ele>417.6</ele>
        <time>2020-06-14T05:33:14Z</time>
      </trkpt>
      <trkpt lat="46.54828" lon="4.48334">
        <ele>416.6</ele>
        <time>2020-06-14T05:33:21Z</time>
      </trkpt>
      <trkpt lat="46.54834" lon="4.48331">
        <ele>420.6</ele>
        <time>2020-06-14T05:33:26Z</time>
      </trkpt>
      <trkpt lat="46.54841" lon="4.48335">
        <ele>420.6</ele>
        <time>2020-06-14T05:33:34Z</time>
      </trkpt>
      <trkpt lat="46.54848" lon="4.48337">
        <ele>422.6</ele>
        <time>2020-06-14T05:33:42Z</time>
      </trkpt>
      <trkpt lat="46.54854" lon="4.48338">
        <ele>422.6</ele>
        <time>2020-06-14T05:33:50Z</time>
      </trkpt>
      <trkpt lat="46.54859" lon="4.48332">
        <ele>421.6</ele>
        <time>2020-06-14T05:33:59Z</time>
      </trkpt>
      <trkpt lat="46.54864" lon="4.48326">
        <ele>422.6</ele>
        <time>2020-06-14T05:34:09Z</time>
      </trkpt>
      <trkpt lat="46.54864" lon="4.48316">
        <ele>425.6</ele>
        <time>2020-06-14T05:34:47Z</time>
      </trkpt>
      <trkpt lat="46.54867" lon="4.48308">
        <ele>424.6</ele>
        <time>2020-06-14T05:34:53Z</time>
      </trkpt>
      <trkpt lat="46.54871" lon="4.48298">
        <ele>426.6</ele>
        <time>2020-06-14T05:35:01Z</time>
      </trkpt>
      <trkpt lat="46.54876" lon="4.4829">
        <ele>422.6</ele>
        <time>2020-06-14T05:35:12Z</time>
      </trkpt>
      <trkpt lat="46.54881" lon="4.48285">
        <ele>425.6</ele>
        <time>2020-06-14T05:35:27Z</time>
      </trkpt>
      <trkpt lat="46.54884" lon="4.48276">
        <ele>427.6</ele>
        <time>2020-06-14T05:35:39Z</time>
      </trkpt>
      <trkpt lat="46.54891" lon="4.48273">
        <ele>429.6</ele>
        <time>2020-06-14T05:35:44Z</time>
      </trkpt>
      <trkpt lat="46.54898" lon="4.48269">
        <ele>432.6</ele>
        <time>2020-06-14T05:35:55Z</time>
      </trkpt>
      <trkpt lat="46.54904" lon="4.48263">
        <ele>434.6</ele>
        <time>2020-06-14T05:36:03Z</time>
      </trkpt>
      <trkpt lat="46.5491" lon="4.48256">
        <ele>434.6</ele>
        <time>2020-06-14T05:36:14Z</time>
      </trkpt>
      <trkpt lat="46.54914" lon="4.48248">
        <ele>435.6</ele>
        <time>2020-06-14T05:36:21Z</time>
      </trkpt>
      <trkpt lat="46.54916" lon="4.48239">
        <ele>433.6</ele>
        <time>2020-06-14T05:36:31Z</time>
      </trkpt>
      <trkpt lat="46.54912" lon="4.4823">
        <ele>436.6</ele>
        <time>2020-06-14T05:36:42Z</time>
      </trkpt>
      <trkpt lat="46.54906" lon="4.48225">
        <ele>438.6</ele>
        <time>2020-06-14T05:36:49Z</time>
      </trkpt>
      <trkpt lat="46.54901" lon="4.4822">
        <ele>441.6</ele>
        <time>2020-06-14T05:36:54Z</time>
      </trkpt>
      <trkpt lat="46.54896" lon="4.48212">
        <ele>439.6</ele>
        <time>2020-06-14T05:37:05Z</time>
      </trkpt>
      <trkpt lat="46.54893" lon="4.48223">
        <ele>442.6</ele>
        <time>2020-06-14T05:37:12Z</time>
      </trkpt>
      <trkpt lat="46.54891" lon="4.48213">
        <ele>444.6</ele>
        <time>2020-06-14T05:37:55Z</time>
      </trkpt>
      <trkpt lat="46.54887" lon="4.48203">
        <ele>440.6</ele>
        <time>2020-06-14T05:38:00Z</time>
      </trkpt>
      <trkpt lat="46.54879" lon="4.48201">
        <ele>444.6</ele>
        <time>2020-06-14T05:38:05Z</time>
      </trkpt>
      <trkpt lat="46.54879" lon="4.48203">
        <ele>443.6</ele>
        <time>2020-06-14T05:40:39Z</time>
      </trkpt>
      <trkpt lat="46.54877" lon="4.48193">
        <ele>440.6</ele>
        <time>2020-06-14T05:40:45Z</time>
      </trkpt>
      <trkpt lat="46.54877" lon="4.48184">
        <ele>437.6</ele>
        <time>2020-06-14T05:40:50Z</time>
      </trkpt>
      <trkpt lat="46.54869" lon="4.48177">
        <ele>441.6</ele>
        <time>2020-06-14T05:40:55Z</time>
      </trkpt>
      <trkpt lat="46.54867" lon="4.48166">
        <ele>437.6</ele>
        <time>2020-06-14T05:41:49Z</time>
      </trkpt>
      <trkpt lat="46.54863" lon="4.48157">
        <ele>435.6</ele>
        <time>2020-06-14T05:41:54Z</time>
      </trkpt>
      <trkpt lat="46.5486" lon="4.48147">
        <ele>436.6</ele>
        <time>2020-06-14T05:42:01Z</time>
      </trkpt>
      <trkpt lat="46.54854" lon="4.48141">
        <ele>436.6</ele>
        <time>2020-06-14T05:42:06Z</time>
      </trkpt>
      <trkpt lat="46.54851" lon="4.48134">
        <ele>436.599</ele>
        <time>2020-06-14T05:42:13Z</time>
      </trkpt>
      <trkpt lat="46.54845" lon="4.48126">
        <ele>436.599</ele>
        <time>2020-06-14T05:42:22Z</time>
      </trkpt>
      <trkpt lat="46.54844" lon="4.48115">
        <ele>434.599</ele>
        <time>2020-06-14T05:42:29Z</time>
      </trkpt>
      <trkpt lat="46.54837" lon="4.48105">
        <ele>437.599</ele>
        <time>2020-06-14T05:42:34Z</time>
      </trkpt>
      <trkpt lat="46.5483" lon="4.481">
        <ele>437.599</ele>
        <time>2020-06-14T05:42:39Z</time>
      </trkpt>
      <trkpt lat="46.54823" lon="4.48092">
        <ele>440.599</ele>
        <time>2020-06-14T05:42:44Z</time>
      </trkpt>
      <trkpt lat="46.54817" lon="4.48086">
        <ele>443.599</ele>
        <time>2020-06-14T05:42:50Z</time>
      </trkpt>
      <trkpt lat="46.54813" lon="4.48078">
        <ele>443.599</ele>
        <time>2020-06-14T05:42:56Z</time>
      </trkpt>
      <trkpt lat="46.54807" lon="4.48074">
        <ele>448.599</ele>
        <time>2020-06-14T05:43:04Z</time>
      </trkpt>
      <trkpt lat="46.54801" lon="4.4807">
        <ele>450.599</ele>
        <time>2020-06-14T05:43:10Z</time>
      </trkpt>
      <trkpt lat="46.54795" lon="4.48063">
        <ele>448.599</ele>
        <time>2020-06-14T05:43:16Z</time>
      </trkpt>
      <trkpt lat="46.54791" lon="4.48055">
        <ele>450.599</ele>
        <time>2020-06-14T05:43:22Z</time>
      </trkpt>
      <trkpt lat="46.54794" lon="4.48046">
        <ele>444.599</ele>
        <time>2020-06-14T05:43:37Z</time>
      </trkpt>
      <trkpt lat="46.5479" lon="4.48036">
        <ele>447.599</ele>
        <time>2020-06-14T05:43:42Z</time>
      </trkpt>
      <trkpt lat="46.54789" lon="4.48027">
        <ele>454.599</ele>
        <time>2020-06-14T05:43:48Z</time>
      </trkpt>
      <trkpt lat="46.54785" lon="4.48019">
        <ele>455.599</ele>
        <time>2020-06-14T05:43:55Z</time>
      </trkpt>
      <trkpt lat="46.54786" lon="4.48009">
        <ele>455.599</ele>
        <time>2020-06-14T05:44:00Z</time>
      </trkpt>
      <trkpt lat="46.54787" lon="4.47999">
        <ele>455.599</ele>
        <time>2020-06-14T05:44:07Z</time>
      </trkpt>
      <trkpt lat="46.54787" lon="4.47989">
        <ele>455.599</ele>
        <time>2020-06-14T05:44:14Z</time>
      </trkpt>
      <trkpt lat="46.54788" lon="4.47978">
        <ele>457.599</ele>
        <time>2020-06-14T05:44:22Z</time>
      </trkpt>
      <trkpt lat="46.54788" lon="4.47968">
        <ele>456.599</ele>
        <time>2020-06-14T05:44:30Z</time>
      </trkpt>
      <trkpt lat="46.54791" lon="4.47957">
        <ele>455.599</ele>
        <time>2020-06-14T05:44:37Z</time>
      </trkpt>
      <trkpt lat="46.5479" lon="4.47947">
        <ele>454.599</ele>
        <time>2020-06-14T05:44:43Z</time>
      </trkpt>
      <trkpt lat="46.54787" lon="4.47938">
        <ele>454.599</ele>
        <time>2020-06-14T05:44:48Z</time>
      </trkpt>
      <trkpt lat="46.5479" lon="4.47928">
        <ele>456.599</ele>
        <time>2020-06-14T05:44:53Z</time>
      </trkpt>
      <trkpt lat="46.54787" lon="4.47914">
        <ele>454.599</ele>
        <time>2020-06-14T05:44:58Z</time>
      </trkpt>
      <trkpt lat="46.54791" lon="4.47904">
        <ele>457.599</ele>
        <time>2020-06-14T05:45:05Z</time>
      </trkpt>
      <trkpt lat="46.54792" lon="4.47894">
        <ele>457.599</ele>
        <time>2020-06-14T05:45:11Z</time>
      </trkpt>
      <trkpt lat="46.54792" lon="4.47885">
        <ele>457.599</ele>
        <time>2020-06-14T05:45:18Z</time>
      </trkpt>
      <trkpt lat="46.54793" lon="4.47875">
        <ele>459.599</ele>
        <time>2020-06-14T05:45:23Z</time>
      </trkpt>
      <trkpt lat="46.54799" lon="4.47861">
        <ele>462.599</ele>
        <time>2020-06-14T05:45:28Z</time>
      </trkpt>
      <trkpt lat="46.54798" lon="4.47849">
        <ele>461.599</ele>
        <time>2020-06-14T05:45:36Z</time>
      </trkpt>
      <trkpt lat="46.54807" lon="4.47841">
        <ele>465.599</ele>
        <time>2020-06-14T05:45:41Z</time>
      </trkpt>
      <trkpt lat="46.5481" lon="4.47832">
        <ele>468.599</ele>
        <time>2020-06-14T05:45:46Z</time>
      </trkpt>
      <trkpt lat="46.54814" lon="4.47822">
        <ele>466.599</ele>
        <time>2020-06-14T05:45:56Z</time>
      </trkpt>
      <trkpt lat="46.54816" lon="4.47811">
        <ele>464.599</ele>
        <time>2020-06-14T05:46:04Z</time>
      </trkpt>
      <trkpt lat="46.54818" lon="4.47802">
        <ele>467.599</ele>
        <time>2020-06-14T05:46:10Z</time>
      </trkpt>
      <trkpt lat="46.54822" lon="4.47795">
        <ele>465.599</ele>
        <time>2020-06-14T05:46:15Z</time>
      </trkpt>
      <trkpt lat="46.54827" lon="4.47787">
        <ele>468.599</ele>
        <time>2020-06-14T05:46:20Z</time>
      </trkpt>
      <trkpt lat="46.54832" lon="4.4778">
        <ele>469.599</ele>
        <time>2020-06-14T05:46:26Z</time>
      </trkpt>
      <trkpt lat="46.54837" lon="4.47772">
        <ele>468.599</ele>
        <time>2020-06-14T05:46:33Z</time>
      </trkpt>
      <trkpt lat="46.5484" lon="4.47764">
        <ele>471.599</ele>
        <time>2020-06-14T05:46:38Z</time>
      </trkpt>
      <trkpt lat="46.54847" lon="4.47757">
        <ele>467.599</ele>
        <time>2020-06-14T05:46:44Z</time>
      </trkpt>
      <trkpt lat="46.54851" lon="4.47749">
        <ele>470.599</ele>
        <time>2020-06-14T05:46:50Z</time>
      </trkpt>
      <trkpt lat="46.54858" lon="4.47741">
        <ele>473.599</ele>
        <time>2020-06-14T05:46:55Z</time>
      </trkpt>
      <trkpt lat="46.54864" lon="4.47735">
        <ele>476.599</ele>
        <time>2020-06-14T05:47:00Z</time>
      </trkpt>
      <trkpt lat="46.54866" lon="4.47725">
        <ele>472.599</ele>
        <time>2020-06-14T05:47:07Z</time>
      </trkpt>
      <trkpt lat="46.54864" lon="4.47715">
        <ele>469.599</ele>
        <time>2020-06-14T05:47:12Z</time>
      </trkpt>
      <trkpt lat="46.54859" lon="4.47709">
        <ele>466.599</ele>
        <time>2020-06-14T05:47:18Z</time>
      </trkpt>
      <trkpt lat="46.54856" lon="4.47699">
        <ele>465.599</ele>
        <time>2020-06-14T05:47:23Z</time>
      </trkpt>
      <trkpt lat="46.54851" lon="4.4769">
        <ele>465.599</ele>
        <time>2020-06-14T05:47:28Z</time>
      </trkpt>
      <trkpt lat="46.54848" lon="4.47681">
        <ele>464.599</ele>
        <time>2020-06-14T05:47:34Z</time>
      </trkpt>
      <trkpt lat="46.54842" lon="4.47673">
        <ele>462.599</ele>
        <time>2020-06-14T05:47:39Z</time>
      </trkpt>
      <trkpt lat="46.5484" lon="4.47659">
        <ele>465.599</ele>
        <time>2020-06-14T05:47:44Z</time>
      </trkpt>
      <trkpt lat="46.54835" lon="4.47652">
        <ele>463.599</ele>
        <time>2020-06-14T05:47:50Z</time>
      </trkpt>
      <trkpt lat="46.54836" lon="4.47642">
        <ele>466.599</ele>
        <time>2020-06-14T05:47:55Z</time>
      </trkpt>
      <trkpt lat="46.54831" lon="4.47634">
        <ele>465.599</ele>
        <time>2020-06-14T05:48:01Z</time>
      </trkpt>
      <trkpt lat="46.54827" lon="4.47625">
        <ele>464.599</ele>
        <time>2020-06-14T05:48:07Z</time>
      </trkpt>
      <trkpt lat="46.54825" lon="4.47613">
        <ele>463.599</ele>
        <time>2020-06-14T05:48:12Z</time>
      </trkpt>
      <trkpt lat="46.54825" lon="4.47602">
        <ele>465.599</ele>
        <time>2020-06-14T05:48:17Z</time>
      </trkpt>
      <trkpt lat="46.54824" lon="4.4759">
        <ele>464.599</ele>
        <time>2020-06-14T05:48:22Z</time>
      </trkpt>
      <trkpt lat="46.54825" lon="4.47578">
        <ele>466.599</ele>
        <time>2020-06-14T05:48:27Z</time>
      </trkpt>
      <trkpt lat="46.54823" lon="4.47566">
        <ele>468.599</ele>
        <time>2020-06-14T05:48:32Z</time>
      </trkpt>
      <trkpt lat="46.5482" lon="4.47556">
        <ele>469.599</ele>
        <time>2020-06-14T05:48:37Z</time>
      </trkpt>
      <trkpt lat="46.54819" lon="4.47545">
        <ele>468.599</ele>
        <time>2020-06-14T05:48:42Z</time>
      </trkpt>
      <trkpt lat="46.54813" lon="4.47538">
        <ele>468.599</ele>
        <time>2020-06-14T05:48:47Z</time>
      </trkpt>
      <trkpt lat="46.54807" lon="4.4753">
        <ele>468.599</ele>
        <time>2020-06-14T05:48:54Z</time>
      </trkpt>
      <trkpt lat="46.54802" lon="4.47521">
        <ele>468.599</ele>
        <time>2020-06-14T05:48:59Z</time>
      </trkpt>
      <trkpt lat="46.548" lon="4.47511">
        <ele>467.599</ele>
        <time>2020-06-14T05:49:05Z</time>
      </trkpt>
      <trkpt lat="46.54798" lon="4.47501">
        <ele>466.599</ele>
        <time>2020-06-14T05:49:10Z</time>
      </trkpt>
      <trkpt lat="46.54798" lon="4.47491">
        <ele>468.599</ele>
        <time>2020-06-14T05:49:15Z</time>
      </trkpt>
      <trkpt lat="46.54797" lon="4.4748">
        <ele>467.599</ele>
        <time>2020-06-14T05:49:20Z</time>
      </trkpt>
      <trkpt lat="46.54797" lon="4.4747">
        <ele>468.599</ele>
        <time>2020-06-14T05:49:25Z</time>
      </trkpt>
      <trkpt lat="46.54796" lon="4.47461">
        <ele>466.599</ele>
        <time>2020-06-14T05:49:30Z</time>
      </trkpt>
      <trkpt lat="46.54793" lon="4.47451">
        <ele>465.599</ele>
        <time>2020-06-14T05:49:35Z</time>
      </trkpt>
      <trkpt lat="46.54791" lon="4.47441">
        <ele>463.599</ele>
        <time>2020-06-14T05:49:43Z</time>
      </trkpt>
      <trkpt lat="46.54796" lon="4.47428">
        <ele>466.599</ele>
        <time>2020-06-14T05:49:48Z</time>
      </trkpt>
      <trkpt lat="46.54799" lon="4.47415">
        <ele>469.599</ele>
        <time>2020-06-14T05:49:53Z</time>
      </trkpt>
      <trkpt lat="46.54803" lon="4.47403">
        <ele>473.599</ele>
        <time>2020-06-14T05:49:58Z</time>
      </trkpt>
      <trkpt lat="46.54806" lon="4.47393">
        <ele>470.599</ele>
        <time>2020-06-14T05:50:05Z</time>
      </trkpt>
      <trkpt lat="46.54809" lon="4.47382">
        <ele>468.599</ele>
        <time>2020-06-14T05:50:11Z</time>
      </trkpt>
      <trkpt lat="46.54807" lon="4.47371">
        <ele>465.599</ele>
        <time>2020-06-14T05:50:18Z</time>
      </trkpt>
      <trkpt lat="46.54808" lon="4.47361">
        <ele>466.599</ele>
        <time>2020-06-14T05:50:23Z</time>
      </trkpt>
      <trkpt lat="46.54811" lon="4.4735">
        <ele>467.599</ele>
        <time>2020-06-14T05:50:28Z</time>
      </trkpt>
      <trkpt lat="46.54813" lon="4.47339">
        <ele>467.599</ele>
        <time>2020-06-14T05:50:33Z</time>
      </trkpt>
      <trkpt lat="46.54816" lon="4.47327">
        <ele>467.599</ele>
        <time>2020-06-14T05:50:38Z</time>
      </trkpt>
      <trkpt lat="46.54818" lon="4.47316">
        <ele>464.599</ele>
        <time>2020-06-14T05:50:43Z</time>
      </trkpt>
      <trkpt lat="46.54818" lon="4.47306">
        <ele>460.599</ele>
        <time>2020-06-14T05:50:50Z</time>
      </trkpt>
      <trkpt lat="46.54817" lon="4.47294">
        <ele>458.599</ele>
        <time>2020-06-14T05:50:56Z</time>
      </trkpt>
      <trkpt lat="46.54816" lon="4.47283">
        <ele>459.599</ele>
        <time>2020-06-14T05:51:01Z</time>
      </trkpt>
      <trkpt lat="46.54813" lon="4.47272">
        <ele>460.599</ele>
        <time>2020-06-14T05:51:06Z</time>
      </trkpt>
      <trkpt lat="46.5481" lon="4.47263">
        <ele>458.599</ele>
        <time>2020-06-14T05:51:12Z</time>
      </trkpt>
      <trkpt lat="46.54808" lon="4.47244">
        <ele>462.599</ele>
        <time>2020-06-14T05:51:17Z</time>
      </trkpt>
      <trkpt lat="46.54806" lon="4.47234">
        <ele>464.599</ele>
        <time>2020-06-14T05:51:23Z</time>
      </trkpt>
      <trkpt lat="46.54807" lon="4.47222">
        <ele>465.599</ele>
        <time>2020-06-14T05:51:28Z</time>
      </trkpt>
      <trkpt lat="46.54806" lon="4.47212">
        <ele>467.599</ele>
        <time>2020-06-14T05:51:33Z</time>
      </trkpt>
      <trkpt lat="46.54807" lon="4.47203">
        <ele>468.599</ele>
        <time>2020-06-14T05:51:40Z</time>
      </trkpt>
      <trkpt lat="46.54807" lon="4.47192">
        <ele>467.599</ele>
        <time>2020-06-14T05:51:45Z</time>
      </trkpt>
      <trkpt lat="46.54805" lon="4.47182">
        <ele>465.599</ele>
        <time>2020-06-14T05:51:50Z</time>
      </trkpt>
      <trkpt lat="46.54806" lon="4.4717">
        <ele>463.599</ele>
        <time>2020-06-14T05:51:55Z</time>
      </trkpt>
      <trkpt lat="46.54808" lon="4.47161">
        <ele>463.599</ele>
        <time>2020-06-14T05:52:00Z</time>
      </trkpt>
      <trkpt lat="46.54809" lon="4.47149">
        <ele>463.599</ele>
        <time>2020-06-14T05:52:05Z</time>
      </trkpt>
      <trkpt lat="46.54809" lon="4.47139">
        <ele>459.599</ele>
        <time>2020-06-14T05:52:10Z</time>
      </trkpt>
      <trkpt lat="46.54811" lon="4.47129">
        <ele>458.599</ele>
        <time>2020-06-14T05:52:16Z</time>
      </trkpt>
      <trkpt lat="46.54811" lon="4.47117">
        <ele>458.599</ele>
        <time>2020-06-14T05:52:21Z</time>
      </trkpt>
      <trkpt lat="46.54812" lon="4.47106">
        <ele>459.599</ele>
        <time>2020-06-14T05:52:27Z</time>
      </trkpt>
      <trkpt lat="46.54813" lon="4.47093">
        <ele>457.599</ele>
        <time>2020-06-14T05:52:32Z</time>
      </trkpt>
      <trkpt lat="46.54814" lon="4.47083">
        <ele>456.599</ele>
        <time>2020-06-14T05:52:37Z</time>
      </trkpt>
      <trkpt lat="46.54815" lon="4.47071">
        <ele>456.599</ele>
        <time>2020-06-14T05:52:42Z</time>
      </trkpt>
      <trkpt lat="46.54817" lon="4.47059">
        <ele>459.599</ele>
        <time>2020-06-14T05:52:47Z</time>
      </trkpt>
      <trkpt lat="46.5482" lon="4.4705">
        <ele>461.599</ele>
        <time>2020-06-14T05:52:53Z</time>
      </trkpt>
      <trkpt lat="46.54826" lon="4.47037">
        <ele>462.599</ele>
        <time>2020-06-14T05:52:58Z</time>
      </trkpt>
      <trkpt lat="46.54827" lon="4.47026">
        <ele>462.599</ele>
        <time>2020-06-14T05:53:04Z</time>
      </trkpt>
      <trkpt lat="46.54831" lon="4.47018">
        <ele>458.599</ele>
        <time>2020-06-14T05:53:10Z</time>
      </trkpt>
      <trkpt lat="46.54833" lon="4.47008">
        <ele>458.599</ele>
        <time>2020-06-14T05:53:15Z</time>
      </trkpt>
      <trkpt lat="46.54834" lon="4.46996">
        <ele>457.599</ele>
        <time>2020-06-14T05:53:20Z</time>
      </trkpt>
      <trkpt lat="46.54837" lon="4.46985">
        <ele>457.599</ele>
        <time>2020-06-14T05:53:25Z</time>
      </trkpt>
      <trkpt lat="46.5484" lon="4.46976">
        <ele>457.599</ele>
        <time>2020-06-14T05:53:31Z</time>
      </trkpt>
      <trkpt lat="46.54847" lon="4.46971">
        <ele>457.599</ele>
        <time>2020-06-14T05:53:41Z</time>
      </trkpt>
      <trkpt lat="46.54855" lon="4.46969">
        <ele>457.599</ele>
        <time>2020-06-14T05:53:49Z</time>
      </trkpt>
      <trkpt lat="46.54862" lon="4.46971">
        <ele>457.599</ele>
        <time>2020-06-14T05:54:21Z</time>
      </trkpt>
      <trkpt lat="46.54869" lon="4.46969">
        <ele>458.599</ele>
        <time>2020-06-14T05:54:26Z</time>
      </trkpt>
      <trkpt lat="46.54875" lon="4.46966">
        <ele>454.599</ele>
        <time>2020-06-14T05:54:31Z</time>
      </trkpt>
      <trkpt lat="46.54883" lon="4.46966">
        <ele>453.599</ele>
        <time>2020-06-14T05:54:38Z</time>
      </trkpt>
      <trkpt lat="46.54891" lon="4.46964">
        <ele>450.599</ele>
        <time>2020-06-14T05:54:44Z</time>
      </trkpt>
      <trkpt lat="46.54899" lon="4.46961">
        <ele>449.599</ele>
        <time>2020-06-14T05:54:49Z</time>
      </trkpt>
      <trkpt lat="46.54908" lon="4.46958">
        <ele>450.599</ele>
        <time>2020-06-14T05:54:56Z</time>
      </trkpt>
      <trkpt lat="46.54919" lon="4.46956">
        <ele>453.599</ele>
        <time>2020-06-14T05:55:01Z</time>
      </trkpt>
      <trkpt lat="46.54927" lon="4.46956">
        <ele>454.599</ele>
        <time>2020-06-14T05:55:08Z</time>
      </trkpt>
      <trkpt lat="46.54933" lon="4.46952">
        <ele>452.599</ele>
        <time>2020-06-14T05:55:13Z</time>
      </trkpt>
      <trkpt lat="46.54939" lon="4.46947">
        <ele>449.599</ele>
        <time>2020-06-14T05:55:18Z</time>
      </trkpt>
      <trkpt lat="46.54946" lon="4.46946">
        <ele>450.599</ele>
        <time>2020-06-14T05:55:23Z</time>
      </trkpt>
      <trkpt lat="46.54954" lon="4.46945">
        <ele>449.599</ele>
        <time>2020-06-14T05:55:29Z</time>
      </trkpt>
      <trkpt lat="46.54965" lon="4.46943">
        <ele>449.599</ele>
        <time>2020-06-14T05:55:34Z</time>
      </trkpt>
      <trkpt lat="46.54973" lon="4.4694">
        <ele>449.599</ele>
        <time>2020-06-14T05:55:39Z</time>
      </trkpt>
      <trkpt lat="46.54982" lon="4.46939">
        <ele>450.599</ele>
        <time>2020-06-14T05:55:45Z</time>
      </trkpt>
      <trkpt lat="46.54989" lon="4.46935">
        <ele>449.599</ele>
        <time>2020-06-14T05:55:52Z</time>
      </trkpt>
      <trkpt lat="46.54998" lon="4.4693">
        <ele>446.599</ele>
        <time>2020-06-14T05:55:57Z</time>
      </trkpt>
      <trkpt lat="46.55005" lon="4.46929">
        <ele>446.599</ele>
        <time>2020-06-14T05:56:02Z</time>
      </trkpt>
      <trkpt lat="46.55012" lon="4.46927">
        <ele>445.599</ele>
        <time>2020-06-14T05:56:07Z</time>
      </trkpt>
      <trkpt lat="46.55017" lon="4.4692">
        <ele>441.599</ele>
        <time>2020-06-14T05:56:15Z</time>
      </trkpt>
      <trkpt lat="46.55024" lon="4.46916">
        <ele>439.599</ele>
        <time>2020-06-14T05:56:21Z</time>
      </trkpt>
      <trkpt lat="46.55033" lon="4.46913">
        <ele>440.599</ele>
        <time>2020-06-14T05:56:29Z</time>
      </trkpt>
      <trkpt lat="46.55045" lon="4.46914">
        <ele>444.599</ele>
        <time>2020-06-14T05:56:34Z</time>
      </trkpt>
      <trkpt lat="46.55052" lon="4.46916">
        <ele>448.599</ele>
        <time>2020-06-14T05:56:40Z</time>
      </trkpt>
      <trkpt lat="46.55059" lon="4.46919">
        <ele>445.599</ele>
        <time>2020-06-14T05:56:45Z</time>
      </trkpt>
      <trkpt lat="46.55069" lon="4.46919">
        <ele>447.599</ele>
        <time>2020-06-14T05:56:50Z</time>
      </trkpt>
      <trkpt lat="46.55076" lon="4.46925">
        <ele>450.599</ele>
        <time>2020-06-14T05:56:55Z</time>
      </trkpt>
      <trkpt lat="46.55083" lon="4.46925">
        <ele>449.599</ele>
        <time>2020-06-14T05:57:01Z</time>
      </trkpt>
      <trkpt lat="46.55093" lon="4.46922">
        <ele>449.599</ele>
        <time>2020-06-14T05:57:07Z</time>
      </trkpt>
      <trkpt lat="46.55103" lon="4.46918">
        <ele>447.599</ele>
        <time>2020-06-14T05:57:12Z</time>
      </trkpt>
      <trkpt lat="46.5511" lon="4.46918">
        <ele>449.599</ele>
        <time>2020-06-14T05:57:17Z</time>
      </trkpt>
      <trkpt lat="46.55116" lon="4.46922">
        <ele>451.599</ele>
        <time>2020-06-14T05:57:22Z</time>
      </trkpt>
      <trkpt lat="46.55124" lon="4.46922">
        <ele>452.599</ele>
        <time>2020-06-14T05:57:28Z</time>
      </trkpt>
      <trkpt lat="46.55131" lon="4.46919">
        <ele>448.599</ele>
        <time>2020-06-14T05:57:33Z</time>
      </trkpt>
      <trkpt lat="46.55139" lon="4.46918">
        <ele>446.599</ele>
        <time>2020-06-14T05:57:41Z</time>
      </trkpt>
      <trkpt lat="46.55146" lon="4.46917">
        <ele>446.599</ele>
        <time>2020-06-14T05:57:46Z</time>
      </trkpt>
      <trkpt lat="46.55155" lon="4.46914">
        <ele>447.599</ele>
        <time>2020-06-14T05:57:51Z</time>
      </trkpt>
      <trkpt lat="46.55162" lon="4.46913">
        <ele>442.599</ele>
        <time>2020-06-14T05:57:56Z</time>
      </trkpt>
      <trkpt lat="46.55169" lon="4.46912">
        <ele>442.599</ele>
        <time>2020-06-14T05:58:01Z</time>
      </trkpt>
      <trkpt lat="46.55176" lon="4.46911">
        <ele>438.6</ele>
        <time>2020-06-14T05:58:07Z</time>
      </trkpt>
      <trkpt lat="46.55187" lon="4.46912">
        <ele>442.6</ele>
        <time>2020-06-14T05:58:12Z</time>
      </trkpt>
      <trkpt lat="46.55194" lon="4.46912">
        <ele>440.6</ele>
        <time>2020-06-14T05:58:19Z</time>
      </trkpt>
      <trkpt lat="46.55203" lon="4.46915">
        <ele>439.6</ele>
        <time>2020-06-14T05:58:24Z</time>
      </trkpt>
      <trkpt lat="46.5521" lon="4.46916">
        <ele>435.6</ele>
        <time>2020-06-14T05:58:29Z</time>
      </trkpt>
      <trkpt lat="46.55221" lon="4.46915">
        <ele>438.6</ele>
        <time>2020-06-14T05:58:34Z</time>
      </trkpt>
      <trkpt lat="46.55229" lon="4.46914">
        <ele>438.6</ele>
        <time>2020-06-14T05:58:39Z</time>
      </trkpt>
      <trkpt lat="46.55235" lon="4.46913">
        <ele>435.6</ele>
        <time>2020-06-14T05:58:44Z</time>
      </trkpt>
      <trkpt lat="46.55244" lon="4.46911">
        <ele>434.6</ele>
        <time>2020-06-14T05:58:49Z</time>
      </trkpt>
      <trkpt lat="46.55252" lon="4.46911">
        <ele>432.6</ele>
        <time>2020-06-14T05:58:54Z</time>
      </trkpt>
      <trkpt lat="46.55259" lon="4.46909">
        <ele>432.6</ele>
        <time>2020-06-14T05:58:59Z</time>
      </trkpt>
      <trkpt lat="46.55266" lon="4.46903">
        <ele>432.6</ele>
        <time>2020-06-14T05:59:06Z</time>
      </trkpt>
      <trkpt lat="46.55274" lon="4.46901">
        <ele>434.6</ele>
        <time>2020-06-14T05:59:11Z</time>
      </trkpt>
      <trkpt lat="46.55282" lon="4.46901">
        <ele>435.6</ele>
        <time>2020-06-14T05:59:17Z</time>
      </trkpt>
      <trkpt lat="46.5529" lon="4.469">
        <ele>433.6</ele>
        <time>2020-06-14T05:59:22Z</time>
      </trkpt>
      <trkpt lat="46.55296" lon="4.46893">
        <ele>432.6</ele>
        <time>2020-06-14T05:59:29Z</time>
      </trkpt>
      <trkpt lat="46.55303" lon="4.46895">
        <ele>431.6</ele>
        <time>2020-06-14T05:59:35Z</time>
      </trkpt>
      <trkpt lat="46.5531" lon="4.46895">
        <ele>436.6</ele>
        <time>2020-06-14T05:59:41Z</time>
      </trkpt>
      <trkpt lat="46.55318" lon="4.46895">
        <ele>434.6</ele>
        <time>2020-06-14T05:59:46Z</time>
      </trkpt>
      <trkpt lat="46.55326" lon="4.46896">
        <ele>433.6</ele>
        <time>2020-06-14T05:59:51Z</time>
      </trkpt>
      <trkpt lat="46.55333" lon="4.46896">
        <ele>432.6</ele>
        <time>2020-06-14T05:59:56Z</time>
      </trkpt>
      <trkpt lat="46.55341" lon="4.46897">
        <ele>428.6</ele>
        <time>2020-06-14T06:00:01Z</time>
      </trkpt>
      <trkpt lat="46.5535" lon="4.46896">
        <ele>426.6</ele>
        <time>2020-06-14T06:00:06Z</time>
      </trkpt>
      <trkpt lat="46.55359" lon="4.46893">
        <ele>427.6</ele>
        <time>2020-06-14T06:00:11Z</time>
      </trkpt>
      <trkpt lat="46.55368" lon="4.46887">
        <ele>428.6</ele>
        <time>2020-06-14T06:00:16Z</time>
      </trkpt>
      <trkpt lat="46.55373" lon="4.4688">
        <ele>425.6</ele>
        <time>2020-06-14T06:00:22Z</time>
      </trkpt>
      <trkpt lat="46.5538" lon="4.46877">
        <ele>426.6</ele>
        <time>2020-06-14T06:00:27Z</time>
      </trkpt>
      <trkpt lat="46.55389" lon="4.46872">
        <ele>428.6</ele>
        <time>2020-06-14T06:00:32Z</time>
      </trkpt>
      <trkpt lat="46.55397" lon="4.46865">
        <ele>429.6</ele>
        <time>2020-06-14T06:00:37Z</time>
      </trkpt>
      <trkpt lat="46.55403" lon="4.46859">
        <ele>425.6</ele>
        <time>2020-06-14T06:00:44Z</time>
      </trkpt>
      <trkpt lat="46.55411" lon="4.46854">
        <ele>426.6</ele>
        <time>2020-06-14T06:00:49Z</time>
      </trkpt>
      <trkpt lat="46.5542" lon="4.46851">
        <ele>426.6</ele>
        <time>2020-06-14T06:00:54Z</time>
      </trkpt>
      <trkpt lat="46.55428" lon="4.4685">
        <ele>424.6</ele>
        <time>2020-06-14T06:01:00Z</time>
      </trkpt>
      <trkpt lat="46.55438" lon="4.46848">
        <ele>424.6</ele>
        <time>2020-06-14T06:01:05Z</time>
      </trkpt>
      <trkpt lat="46.55445" lon="4.46848">
        <ele>423.6</ele>
        <time>2020-06-14T06:01:12Z</time>
      </trkpt>
      <trkpt lat="46.55451" lon="4.46847">
        <ele>421.6</ele>
        <time>2020-06-14T06:01:17Z</time>
      </trkpt>
      <trkpt lat="46.55459" lon="4.46846">
        <ele>422.6</ele>
        <time>2020-06-14T06:01:22Z</time>
      </trkpt>
      <trkpt lat="46.55466" lon="4.46848">
        <ele>422.6</ele>
        <time>2020-06-14T06:01:27Z</time>
      </trkpt>
      <trkpt lat="46.55473" lon="4.46848">
        <ele>426.6</ele>
        <time>2020-06-14T06:01:33Z</time>
      </trkpt>
      <trkpt lat="46.55481" lon="4.46848">
        <ele>425.6</ele>
        <time>2020-06-14T06:01:38Z</time>
      </trkpt>
      <trkpt lat="46.55491" lon="4.46845">
        <ele>427.6</ele>
        <time>2020-06-14T06:01:43Z</time>
      </trkpt>
      <trkpt lat="46.55498" lon="4.46846">
        <ele>427.6</ele>
        <time>2020-06-14T06:01:48Z</time>
      </trkpt>
      <trkpt lat="46.55506" lon="4.46847">
        <ele>427.6</ele>
        <time>2020-06-14T06:01:53Z</time>
      </trkpt>
      <trkpt lat="46.55513" lon="4.46851">
        <ele>428.6</ele>
        <time>2020-06-14T06:01:58Z</time>
      </trkpt>
      <trkpt lat="46.5552" lon="4.46853">
        <ele>430.6</ele>
        <time>2020-06-14T06:02:03Z</time>
      </trkpt>
      <trkpt lat="46.55527" lon="4.46851">
        <ele>430.6</ele>
        <time>2020-06-14T06:02:08Z</time>
      </trkpt>
      <trkpt lat="46.55535" lon="4.46851">
        <ele>432.6</ele>
        <time>2020-06-14T06:02:13Z</time>
      </trkpt>
      <trkpt lat="46.55542" lon="4.46855">
        <ele>431.6</ele>
        <time>2020-06-14T06:02:18Z</time>
      </trkpt>
      <trkpt lat="46.55549" lon="4.46854">
        <ele>431.6</ele>
        <time>2020-06-14T06:02:23Z</time>
      </trkpt>
      <trkpt lat="46.55556" lon="4.46852">
        <ele>428.601</ele>
        <time>2020-06-14T06:02:29Z</time>
      </trkpt>
      <trkpt lat="46.55562" lon="4.46851">
        <ele>428.601</ele>
        <time>2020-06-14T06:02:35Z</time>
      </trkpt>
      <trkpt lat="46.5557" lon="4.46847">
        <ele>427.601</ele>
        <time>2020-06-14T06:02:40Z</time>
      </trkpt>
      <trkpt lat="46.55579" lon="4.46843">
        <ele>426.601</ele>
        <time>2020-06-14T06:02:45Z</time>
      </trkpt>
      <trkpt lat="46.55584" lon="4.46837">
        <ele>423.601</ele>
        <time>2020-06-14T06:02:50Z</time>
      </trkpt>
      <trkpt lat="46.55592" lon="4.46836">
        <ele>426.601</ele>
        <time>2020-06-14T06:02:56Z</time>
      </trkpt>
      <trkpt lat="46.556" lon="4.46835">
        <ele>427.601</ele>
        <time>2020-06-14T06:03:02Z</time>
      </trkpt>
      <trkpt lat="46.55608" lon="4.46837">
        <ele>428.601</ele>
        <time>2020-06-14T06:03:07Z</time>
      </trkpt>
      <trkpt lat="46.55615" lon="4.46835">
        <ele>432.601</ele>
        <time>2020-06-14T06:03:13Z</time>
      </trkpt>
      <trkpt lat="46.55621" lon="4.46831">
        <ele>433.601</ele>
        <time>2020-06-14T06:03:18Z</time>
      </trkpt>
      <trkpt lat="46.55629" lon="4.46835">
        <ele>434.601</ele>
        <time>2020-06-14T06:03:25Z</time>
      </trkpt>
      <trkpt lat="46.55637" lon="4.46833">
        <ele>433.601</ele>
        <time>2020-06-14T06:03:30Z</time>
      </trkpt>
      <trkpt lat="46.55643" lon="4.46829">
        <ele>434.601</ele>
        <time>2020-06-14T06:03:35Z</time>
      </trkpt>
      <trkpt lat="46.55649" lon="4.46833">
        <ele>436.601</ele>
        <time>2020-06-14T06:03:41Z</time>
      </trkpt>
      <trkpt lat="46.55656" lon="4.46836">
        <ele>437.601</ele>
        <time>2020-06-14T06:03:46Z</time>
      </trkpt>
      <trkpt lat="46.55662" lon="4.46837">
        <ele>440.601</ele>
        <time>2020-06-14T06:03:51Z</time>
      </trkpt>
      <trkpt lat="46.55669" lon="4.46841">
        <ele>441.601</ele>
        <time>2020-06-14T06:03:57Z</time>
      </trkpt>
      <trkpt lat="46.55675" lon="4.46839">
        <ele>441.601</ele>
        <time>2020-06-14T06:04:02Z</time>
      </trkpt>
      <trkpt lat="46.55681" lon="4.46846">
        <ele>438.601</ele>
        <time>2020-06-14T06:04:08Z</time>
      </trkpt>
      <trkpt lat="46.55687" lon="4.46852">
        <ele>441.601</ele>
        <time>2020-06-14T06:04:15Z</time>
      </trkpt>
      <trkpt lat="46.55697" lon="4.46861">
        <ele>443.601</ele>
        <time>2020-06-14T06:04:20Z</time>
      </trkpt>
      <trkpt lat="46.55704" lon="4.46865">
        <ele>441.601</ele>
        <time>2020-06-14T06:04:27Z</time>
      </trkpt>
      <trkpt lat="46.55711" lon="4.46866">
        <ele>436.601</ele>
        <time>2020-06-14T06:04:35Z</time>
      </trkpt>
      <trkpt lat="46.55719" lon="4.46868">
        <ele>436.601</ele>
        <time>2020-06-14T06:04:40Z</time>
      </trkpt>
      <trkpt lat="46.55726" lon="4.46868">
        <ele>435.601</ele>
        <time>2020-06-14T06:04:46Z</time>
      </trkpt>
      <trkpt lat="46.55733" lon="4.46869">
        <ele>437.601</ele>
        <time>2020-06-14T06:04:51Z</time>
      </trkpt>
      <trkpt lat="46.55739" lon="4.46869">
        <ele>438.601</ele>
        <time>2020-06-14T06:04:56Z</time>
      </trkpt>
      <trkpt lat="46.55749" lon="4.46871">
        <ele>438.601</ele>
        <time>2020-06-14T06:05:01Z</time>
      </trkpt>
      <trkpt lat="46.55757" lon="4.46872">
        <ele>438.601</ele>
        <time>2020-06-14T06:05:06Z</time>
      </trkpt>
      <trkpt lat="46.55765" lon="4.46871">
        <ele>440.601</ele>
        <time>2020-06-14T06:05:11Z</time>
      </trkpt>
      <trkpt lat="46.55773" lon="4.46873">
        <ele>438.601</ele>
        <time>2020-06-14T06:05:16Z</time>
      </trkpt>
      <trkpt lat="46.5578" lon="4.46873">
        <ele>440.601</ele>
        <time>2020-06-14T06:05:21Z</time>
      </trkpt>
      <trkpt lat="46.55787" lon="4.46872">
        <ele>441.601</ele>
        <time>2020-06-14T06:05:28Z</time>
      </trkpt>
      <trkpt lat="46.55795" lon="4.46868">
        <ele>441.601</ele>
        <time>2020-06-14T06:05:33Z</time>
      </trkpt>
      <trkpt lat="46.55802" lon="4.46865">
        <ele>440.601</ele>
        <time>2020-06-14T06:05:38Z</time>
      </trkpt>
      <trkpt lat="46.55809" lon="4.46863">
        <ele>441.601</ele>
        <time>2020-06-14T06:05:43Z</time>
      </trkpt>
      <trkpt lat="46.55818" lon="4.46863">
        <ele>442.601</ele>
        <time>2020-06-14T06:05:48Z</time>
      </trkpt>
      <trkpt lat="46.55827" lon="4.46861">
        <ele>440.601</ele>
        <time>2020-06-14T06:05:53Z</time>
      </trkpt>
      <trkpt lat="46.55833" lon="4.46857">
        <ele>440.601</ele>
        <time>2020-06-14T06:06:01Z</time>
      </trkpt>
      <trkpt lat="46.55841" lon="4.46854">
        <ele>439.601</ele>
        <time>2020-06-14T06:06:12Z</time>
      </trkpt>
      <trkpt lat="46.5585" lon="4.46848">
        <ele>438.601</ele>
        <time>2020-06-14T06:06:19Z</time>
      </trkpt>
      <trkpt lat="46.55858" lon="4.46849">
        <ele>444.601</ele>
        <time>2020-06-14T06:06:24Z</time>
      </trkpt>
      <trkpt lat="46.55864" lon="4.46851">
        <ele>446.601</ele>
        <time>2020-06-14T06:06:29Z</time>
      </trkpt>
      <trkpt lat="46.55871" lon="4.46848">
        <ele>446.601</ele>
        <time>2020-06-14T06:06:35Z</time>
      </trkpt>
      <trkpt lat="46.55878" lon="4.46847">
        <ele>447.601</ele>
        <time>2020-06-14T06:06:41Z</time>
      </trkpt>
      <trkpt lat="46.55885" lon="4.46845">
        <ele>445.601</ele>
        <time>2020-06-14T06:06:47Z</time>
      </trkpt>
      <trkpt lat="46.55893" lon="4.46844">
        <ele>444.601</ele>
        <time>2020-06-14T06:06:54Z</time>
      </trkpt>
      <trkpt lat="46.55899" lon="4.46842">
        <ele>443.601</ele>
        <time>2020-06-14T06:07:00Z</time>
      </trkpt>
      <trkpt lat="46.55908" lon="4.46842">
        <ele>446.601</ele>
        <time>2020-06-14T06:07:05Z</time>
      </trkpt>
      <trkpt lat="46.55915" lon="4.46839">
        <ele>446.601</ele>
        <time>2020-06-14T06:07:10Z</time>
      </trkpt>
      <trkpt lat="46.55923" lon="4.46837">
        <ele>447.602</ele>
        <time>2020-06-14T06:07:15Z</time>
      </trkpt>
      <trkpt lat="46.55931" lon="4.46836">
        <ele>450.602</ele>
        <time>2020-06-14T06:07:20Z</time>
      </trkpt>
      <trkpt lat="46.55937" lon="4.46833">
        <ele>452.602</ele>
        <time>2020-06-14T06:07:26Z</time>
      </trkpt>
      <trkpt lat="46.55943" lon="4.46828">
        <ele>447.602</ele>
        <time>2020-06-14T06:07:33Z</time>
      </trkpt>
      <trkpt lat="46.55953" lon="4.46826">
        <ele>449.602</ele>
        <time>2020-06-14T06:07:38Z</time>
      </trkpt>
      <trkpt lat="46.55962" lon="4.46821">
        <ele>446.602</ele>
        <time>2020-06-14T06:07:43Z</time>
      </trkpt>
      <trkpt lat="46.55968" lon="4.46814">
        <ele>446.602</ele>
        <time>2020-06-14T06:07:48Z</time>
      </trkpt>
      <trkpt lat="46.55972" lon="4.46806">
        <ele>444.602</ele>
        <time>2020-06-14T06:07:54Z</time>
      </trkpt>
      <trkpt lat="46.55979" lon="4.46801">
        <ele>449.602</ele>
        <time>2020-06-14T06:08:00Z</time>
      </trkpt>
      <trkpt lat="46.55986" lon="4.46793">
        <ele>451.602</ele>
        <time>2020-06-14T06:08:05Z</time>
      </trkpt>
      <trkpt lat="46.55991" lon="4.46785">
        <ele>450.602</ele>
        <time>2020-06-14T06:08:10Z</time>
      </trkpt>
      <trkpt lat="46.55994" lon="4.46775">
        <ele>441.602</ele>
        <time>2020-06-14T06:08:17Z</time>
      </trkpt>
      <trkpt lat="46.56" lon="4.46769">
        <ele>441.602</ele>
        <time>2020-06-14T06:08:23Z</time>
      </trkpt>
      <trkpt lat="46.56005" lon="4.46762">
        <ele>440.602</ele>
        <time>2020-06-14T06:08:29Z</time>
      </trkpt>
      <trkpt lat="46.56014" lon="4.46755">
        <ele>439.602</ele>
        <time>2020-06-14T06:08:34Z</time>
      </trkpt>
      <trkpt lat="46.56023" lon="4.46748">
        <ele>440.602</ele>
        <time>2020-06-14T06:08:39Z</time>
      </trkpt>
      <trkpt lat="46.56028" lon="4.4674">
        <ele>440.602</ele>
        <time>2020-06-14T06:08:44Z</time>
      </trkpt>
      <trkpt lat="46.56035" lon="4.46737">
        <ele>443.602</ele>
        <time>2020-06-14T06:08:49Z</time>
      </trkpt>
      <trkpt lat="46.5604" lon="4.46728">
        <ele>440.602</ele>
        <time>2020-06-14T06:08:56Z</time>
      </trkpt>
      <trkpt lat="46.56045" lon="4.4672">
        <ele>440.602</ele>
        <time>2020-06-14T06:09:01Z</time>
      </trkpt>
      <trkpt lat="46.56049" lon="4.46709">
        <ele>448.602</ele>
        <time>2020-06-14T06:09:06Z</time>
      </trkpt>
      <trkpt lat="46.56055" lon="4.46698">
        <ele>448.602</ele>
        <time>2020-06-14T06:09:11Z</time>
      </trkpt>
      <trkpt lat="46.5606" lon="4.46693">
        <ele>449.602</ele>
        <time>2020-06-14T06:09:16Z</time>
      </trkpt>
      <trkpt lat="46.56066" lon="4.46686">
        <ele>449.602</ele>
        <time>2020-06-14T06:09:21Z</time>
      </trkpt>
      <trkpt lat="46.5607" lon="4.46677">
        <ele>447.602</ele>
        <time>2020-06-14T06:09:26Z</time>
      </trkpt>
      <trkpt lat="46.56077" lon="4.46668">
        <ele>449.602</ele>
        <time>2020-06-14T06:09:31Z</time>
      </trkpt>
      <trkpt lat="46.56083" lon="4.46658">
        <ele>451.602</ele>
        <time>2020-06-14T06:09:36Z</time>
      </trkpt>
      <trkpt lat="46.56088" lon="4.46651">
        <ele>449.602</ele>
        <time>2020-06-14T06:09:42Z</time>
      </trkpt>
      <trkpt lat="46.56093" lon="4.46644">
        <ele>450.602</ele>
        <time>2020-06-14T06:09:47Z</time>
      </trkpt>
      <trkpt lat="46.56096" lon="4.46633">
        <ele>446.602</ele>
        <time>2020-06-14T06:09:52Z</time>
      </trkpt>
      <trkpt lat="46.56099" lon="4.46625">
        <ele>445.602</ele>
        <time>2020-06-14T06:09:57Z</time>
      </trkpt>
      <trkpt lat="46.56105" lon="4.46616">
        <ele>446.602</ele>
        <time>2020-06-14T06:10:02Z</time>
      </trkpt>
      <trkpt lat="46.56108" lon="4.46604">
        <ele>445.602</ele>
        <time>2020-06-14T06:10:07Z</time>
      </trkpt>
      <trkpt lat="46.56114" lon="4.46599">
        <ele>444.602</ele>
        <time>2020-06-14T06:10:13Z</time>
      </trkpt>
      <trkpt lat="46.5612" lon="4.46592">
        <ele>443.602</ele>
        <time>2020-06-14T06:10:18Z</time>
      </trkpt>
      <trkpt lat="46.56122" lon="4.46584">
        <ele>438.602</ele>
        <time>2020-06-14T06:10:27Z</time>
      </trkpt>
      <trkpt lat="46.56128" lon="4.46574">
        <ele>439.602</ele>
        <time>2020-06-14T06:10:32Z</time>
      </trkpt>
      <trkpt lat="46.56137" lon="4.46562">
        <ele>441.602</ele>
        <time>2020-06-14T06:10:37Z</time>
      </trkpt>
      <trkpt lat="46.56142" lon="4.46551">
        <ele>442.602</ele>
        <time>2020-06-14T06:10:42Z</time>
      </trkpt>
      <trkpt lat="46.56142" lon="4.46538">
        <ele>438.602</ele>
        <time>2020-06-14T06:10:47Z</time>
      </trkpt>
      <trkpt lat="46.56146" lon="4.4653">
        <ele>438.602</ele>
        <time>2020-06-14T06:10:52Z</time>
      </trkpt>
      <trkpt lat="46.56149" lon="4.46521">
        <ele>438.602</ele>
        <time>2020-06-14T06:10:57Z</time>
      </trkpt>
      <trkpt lat="46.56154" lon="4.46511">
        <ele>436.602</ele>
        <time>2020-06-14T06:11:02Z</time>
      </trkpt>
      <trkpt lat="46.56157" lon="4.46501">
        <ele>437.602</ele>
        <time>2020-06-14T06:11:07Z</time>
      </trkpt>
      <trkpt lat="46.5616" lon="4.46489">
        <ele>440.602</ele>
        <time>2020-06-14T06:11:13Z</time>
      </trkpt>
      <trkpt lat="46.56163" lon="4.46475">
        <ele>442.602</ele>
        <time>2020-06-14T06:11:18Z</time>
      </trkpt>
      <trkpt lat="46.56165" lon="4.46464">
        <ele>441.602</ele>
        <time>2020-06-14T06:11:23Z</time>
      </trkpt>
      <trkpt lat="46.56168" lon="4.46455">
        <ele>441.602</ele>
        <time>2020-06-14T06:11:28Z</time>
      </trkpt>
      <trkpt lat="46.5617" lon="4.46446">
        <ele>444.602</ele>
        <time>2020-06-14T06:11:36Z</time>
      </trkpt>
      <trkpt lat="46.56173" lon="4.46433">
        <ele>446.602</ele>
        <time>2020-06-14T06:11:41Z</time>
      </trkpt>
      <trkpt lat="46.56176" lon="4.46422">
        <ele>444.602</ele>
        <time>2020-06-14T06:11:46Z</time>
      </trkpt>
      <trkpt lat="46.56179" lon="4.46409">
        <ele>447.602</ele>
        <time>2020-06-14T06:11:51Z</time>
      </trkpt>
      <trkpt lat="46.56178" lon="4.46399">
        <ele>445.602</ele>
        <time>2020-06-14T06:11:56Z</time>
      </trkpt>
      <trkpt lat="46.56179" lon="4.46388">
        <ele>445.602</ele>
        <time>2020-06-14T06:12:01Z</time>
      </trkpt>
      <trkpt lat="46.56182" lon="4.46378">
        <ele>443.602</ele>
        <time>2020-06-14T06:12:08Z</time>
      </trkpt>
      <trkpt lat="46.56185" lon="4.46367">
        <ele>442.602</ele>
        <time>2020-06-14T06:12:13Z</time>
      </trkpt>
      <trkpt lat="46.56189" lon="4.46355">
        <ele>444.602</ele>
        <time>2020-06-14T06:12:18Z</time>
      </trkpt>
      <trkpt lat="46.56191" lon="4.46342">
        <ele>445.602</ele>
        <time>2020-06-14T06:12:23Z</time>
      </trkpt>
      <trkpt lat="46.56192" lon="4.46328">
        <ele>445.602</ele>
        <time>2020-06-14T06:12:28Z</time>
      </trkpt>
      <trkpt lat="46.56192" lon="4.46316">
        <ele>442.602</ele>
        <time>2020-06-14T06:12:33Z</time>
      </trkpt>
      <trkpt lat="46.56192" lon="4.46305">
        <ele>443.602</ele>
        <time>2020-06-14T06:12:38Z</time>
      </trkpt>
      <trkpt lat="46.56194" lon="4.46294">
        <ele>444.602</ele>
        <time>2020-06-14T06:12:43Z</time>
      </trkpt>
      <trkpt lat="46.56194" lon="4.46283">
        <ele>445.602</ele>
        <time>2020-06-14T06:12:49Z</time>
      </trkpt>
      <trkpt lat="46.56194" lon="4.46273">
        <ele>445.602</ele>
        <time>2020-06-14T06:12:54Z</time>
      </trkpt>
      <trkpt lat="46.56194" lon="4.46261">
        <ele>444.602</ele>
        <time>2020-06-14T06:12:59Z</time>
      </trkpt>
      <trkpt lat="46.56192" lon="4.4625">
        <ele>442.602</ele>
        <time>2020-06-14T06:13:05Z</time>
      </trkpt>
      <trkpt lat="46.56192" lon="4.46239">
        <ele>444.602</ele>
        <time>2020-06-14T06:13:10Z</time>
      </trkpt>
      <trkpt lat="46.56192" lon="4.46226">
        <ele>446.602</ele>
        <time>2020-06-14T06:13:15Z</time>
      </trkpt>
      <trkpt lat="46.56191" lon="4.46215">
        <ele>446.602</ele>
        <time>2020-06-14T06:13:20Z</time>
      </trkpt>
      <trkpt lat="46.56191" lon="4.46204">
        <ele>446.602</ele>
        <time>2020-06-14T06:13:26Z</time>
      </trkpt>
      <trkpt lat="46.56194" lon="4.46196">
        <ele>445.602</ele>
        <time>2020-06-14T06:13:31Z</time>
      </trkpt>
      <trkpt lat="46.56197" lon="4.46186">
        <ele>443.602</ele>
        <time>2020-06-14T06:13:36Z</time>
      </trkpt>
      <trkpt lat="46.56201" lon="4.46176">
        <ele>442.602</ele>
        <time>2020-06-14T06:13:41Z</time>
      </trkpt>
      <trkpt lat="46.56206" lon="4.46166">
        <ele>442.602</ele>
        <time>2020-06-14T06:13:46Z</time>
      </trkpt>
      <trkpt lat="46.56209" lon="4.46156">
        <ele>447.602</ele>
        <time>2020-06-14T06:13:52Z</time>
      </trkpt>
      <trkpt lat="46.56214" lon="4.46148">
        <ele>446.602</ele>
        <time>2020-06-14T06:14:01Z</time>
      </trkpt>
      <trkpt lat="46.56218" lon="4.46137">
        <ele>440.602</ele>
        <time>2020-06-14T06:14:09Z</time>
      </trkpt>
      <trkpt lat="46.56222" lon="4.46125">
        <ele>442.602</ele>
        <time>2020-06-14T06:14:14Z</time>
      </trkpt>
      <trkpt lat="46.56225" lon="4.46112">
        <ele>441.602</ele>
        <time>2020-06-14T06:14:19Z</time>
      </trkpt>
      <trkpt lat="46.56231" lon="4.46101">
        <ele>440.602</ele>
        <time>2020-06-14T06:14:24Z</time>
      </trkpt>
      <trkpt lat="46.56233" lon="4.46092">
        <ele>440.602</ele>
        <time>2020-06-14T06:14:29Z</time>
      </trkpt>
      <trkpt lat="46.56234" lon="4.46078">
        <ele>441.602</ele>
        <time>2020-06-14T06:14:34Z</time>
      </trkpt>
      <trkpt lat="46.56239" lon="4.46067">
        <ele>443.602</ele>
        <time>2020-06-14T06:14:39Z</time>
      </trkpt>
      <trkpt lat="46.56236" lon="4.46054">
        <ele>441.602</ele>
        <time>2020-06-14T06:14:44Z</time>
      </trkpt>
      <trkpt lat="46.56236" lon="4.46044">
        <ele>439.602</ele>
        <time>2020-06-14T06:14:49Z</time>
      </trkpt>
      <trkpt lat="46.56235" lon="4.46033">
        <ele>440.602</ele>
        <time>2020-06-14T06:14:54Z</time>
      </trkpt>
      <trkpt lat="46.56236" lon="4.46019">
        <ele>441.602</ele>
        <time>2020-06-14T06:14:59Z</time>
      </trkpt>
      <trkpt lat="46.56233" lon="4.46011">
        <ele>442.602</ele>
        <time>2020-06-14T06:15:04Z</time>
      </trkpt>
      <trkpt lat="46.56226" lon="4.46003">
        <ele>440.602</ele>
        <time>2020-06-14T06:15:09Z</time>
      </trkpt>
      <trkpt lat="46.56223" lon="4.45994">
        <ele>441.602</ele>
        <time>2020-06-14T06:15:14Z</time>
      </trkpt>
      <trkpt lat="46.56221" lon="4.45979">
        <ele>440.602</ele>
        <time>2020-06-14T06:15:22Z</time>
      </trkpt>
      <trkpt lat="46.56216" lon="4.45971">
        <ele>440.602</ele>
        <time>2020-06-14T06:15:28Z</time>
      </trkpt>
      <trkpt lat="46.56211" lon="4.45962">
        <ele>437.602</ele>
        <time>2020-06-14T06:15:33Z</time>
      </trkpt>
      <trkpt lat="46.56208" lon="4.45947">
        <ele>436.602</ele>
        <time>2020-06-14T06:15:38Z</time>
      </trkpt>
      <trkpt lat="46.56205" lon="4.45936">
        <ele>437.602</ele>
        <time>2020-06-14T06:15:43Z</time>
      </trkpt>
      <trkpt lat="46.56202" lon="4.45927">
        <ele>436.602</ele>
        <time>2020-06-14T06:15:50Z</time>
      </trkpt>
      <trkpt lat="46.56198" lon="4.45917">
        <ele>432.602</ele>
        <time>2020-06-14T06:15:55Z</time>
      </trkpt>
      <trkpt lat="46.56195" lon="4.45906">
        <ele>436.602</ele>
        <time>2020-06-14T06:16:00Z</time>
      </trkpt>
      <trkpt lat="46.56199" lon="4.45893">
        <ele>437.602</ele>
        <time>2020-06-14T06:16:05Z</time>
      </trkpt>
      <trkpt lat="46.562" lon="4.45881">
        <ele>433.602</ele>
        <time>2020-06-14T06:16:10Z</time>
      </trkpt>
      <trkpt lat="46.56197" lon="4.4587">
        <ele>433.602</ele>
        <time>2020-06-14T06:16:17Z</time>
      </trkpt>
      <trkpt lat="46.56197" lon="4.45859">
        <ele>426.602</ele>
        <time>2020-06-14T06:16:24Z</time>
      </trkpt>
      <trkpt lat="46.56199" lon="4.45847">
        <ele>427.602</ele>
        <time>2020-06-14T06:16:29Z</time>
      </trkpt>
      <trkpt lat="46.56199" lon="4.45834">
        <ele>426.602</ele>
        <time>2020-06-14T06:16:34Z</time>
      </trkpt>
      <trkpt lat="46.562" lon="4.45824">
        <ele>428.602</ele>
        <time>2020-06-14T06:16:41Z</time>
      </trkpt>
      <trkpt lat="46.56197" lon="4.45809">
        <ele>429.602</ele>
        <time>2020-06-14T06:16:46Z</time>
      </trkpt>
      <trkpt lat="46.56195" lon="4.45797">
        <ele>426.602</ele>
        <time>2020-06-14T06:16:51Z</time>
      </trkpt>
      <trkpt lat="46.56199" lon="4.45785">
        <ele>426.602</ele>
        <time>2020-06-14T06:16:56Z</time>
      </trkpt>
      <trkpt lat="46.56199" lon="4.45775">
        <ele>426.602</ele>
        <time>2020-06-14T06:17:01Z</time>
      </trkpt>
      <trkpt lat="46.56199" lon="4.45766">
        <ele>422.602</ele>
        <time>2020-06-14T06:17:06Z</time>
      </trkpt>
      <trkpt lat="46.56195" lon="4.45754">
        <ele>419.601</ele>
        <time>2020-06-14T06:17:11Z</time>
      </trkpt>
      <trkpt lat="46.56196" lon="4.45743">
        <ele>415.601</ele>
        <time>2020-06-14T06:17:17Z</time>
      </trkpt>
      <trkpt lat="46.56199" lon="4.45735">
        <ele>414.601</ele>
        <time>2020-06-14T06:17:22Z</time>
      </trkpt>
      <trkpt lat="46.56202" lon="4.45725">
        <ele>418.601</ele>
        <time>2020-06-14T06:17:27Z</time>
      </trkpt>
      <trkpt lat="46.56201" lon="4.45715">
        <ele>416.601</ele>
        <time>2020-06-14T06:17:32Z</time>
      </trkpt>
      <trkpt lat="46.56206" lon="4.45703">
        <ele>419.601</ele>
        <time>2020-06-14T06:17:37Z</time>
      </trkpt>
      <trkpt lat="46.56207" lon="4.45693">
        <ele>422.601</ele>
        <time>2020-06-14T06:17:42Z</time>
      </trkpt>
      <trkpt lat="46.56209" lon="4.45683">
        <ele>421.601</ele>
        <time>2020-06-14T06:17:47Z</time>
      </trkpt>
      <trkpt lat="46.56208" lon="4.45673">
        <ele>417.601</ele>
        <time>2020-06-14T06:17:53Z</time>
      </trkpt>
      <trkpt lat="46.5621" lon="4.45661">
        <ele>418.601</ele>
        <time>2020-06-14T06:17:58Z</time>
      </trkpt>
      <trkpt lat="46.5621" lon="4.45651">
        <ele>419.601</ele>
        <time>2020-06-14T06:18:04Z</time>
      </trkpt>
      <trkpt lat="46.56211" lon="4.45639">
        <ele>418.601</ele>
        <time>2020-06-14T06:18:09Z</time>
      </trkpt>
      <trkpt lat="46.56213" lon="4.45622">
        <ele>418.601</ele>
        <time>2020-06-14T06:18:14Z</time>
      </trkpt>
      <trkpt lat="46.56212" lon="4.45607">
        <ele>417.601</ele>
        <time>2020-06-14T06:18:19Z</time>
      </trkpt>
      <trkpt lat="46.56206" lon="4.45602">
        <ele>414.601</ele>
        <time>2020-06-14T06:18:25Z</time>
      </trkpt>
      <trkpt lat="46.56207" lon="4.45591">
        <ele>416.601</ele>
        <time>2020-06-14T06:18:31Z</time>
      </trkpt>
      <trkpt lat="46.56213" lon="4.45575">
        <ele>416.601</ele>
        <time>2020-06-14T06:18:36Z</time>
      </trkpt>
      <trkpt lat="46.56212" lon="4.45565">
        <ele>416.601</ele>
        <time>2020-06-14T06:18:41Z</time>
      </trkpt>
      <trkpt lat="46.56215" lon="4.45555">
        <ele>417.601</ele>
        <time>2020-06-14T06:18:46Z</time>
      </trkpt>
      <trkpt lat="46.56218" lon="4.45546">
        <ele>417.601</ele>
        <time>2020-06-14T06:18:52Z</time>
      </trkpt>
      <trkpt lat="46.56222" lon="4.45533">
        <ele>415.601</ele>
        <time>2020-06-14T06:18:57Z</time>
      </trkpt>
      <trkpt lat="46.56219" lon="4.45522">
        <ele>411.601</ele>
        <time>2020-06-14T06:19:02Z</time>
      </trkpt>
      <trkpt lat="46.5622" lon="4.45511">
        <ele>413.601</ele>
        <time>2020-06-14T06:19:07Z</time>
      </trkpt>
      <trkpt lat="46.56222" lon="4.45501">
        <ele>411.601</ele>
        <time>2020-06-14T06:19:13Z</time>
      </trkpt>
      <trkpt lat="46.56226" lon="4.45492">
        <ele>411.601</ele>
        <time>2020-06-14T06:19:18Z</time>
      </trkpt>
      <trkpt lat="46.5623" lon="4.45481">
        <ele>410.601</ele>
        <time>2020-06-14T06:19:23Z</time>
      </trkpt>
      <trkpt lat="46.56234" lon="4.45472">
        <ele>413.601</ele>
        <time>2020-06-14T06:19:28Z</time>
      </trkpt>
      <trkpt lat="46.56237" lon="4.45463">
        <ele>410.601</ele>
        <time>2020-06-14T06:19:33Z</time>
      </trkpt>
      <trkpt lat="46.56243" lon="4.45456">
        <ele>413.601</ele>
        <time>2020-06-14T06:19:39Z</time>
      </trkpt>
      <trkpt lat="46.56248" lon="4.45449">
        <ele>414.601</ele>
        <time>2020-06-14T06:19:45Z</time>
      </trkpt>
      <trkpt lat="46.56255" lon="4.45451">
        <ele>411.601</ele>
        <time>2020-06-14T06:19:50Z</time>
      </trkpt>
      <trkpt lat="46.56261" lon="4.45439">
        <ele>409.601</ele>
        <time>2020-06-14T06:19:55Z</time>
      </trkpt>
      <trkpt lat="46.56265" lon="4.45431">
        <ele>411.601</ele>
        <time>2020-06-14T06:20:00Z</time>
      </trkpt>
      <trkpt lat="46.56272" lon="4.45424">
        <ele>413.601</ele>
        <time>2020-06-14T06:20:05Z</time>
      </trkpt>
      <trkpt lat="46.56275" lon="4.4541">
        <ele>413.601</ele>
        <time>2020-06-14T06:20:10Z</time>
      </trkpt>
      <trkpt lat="46.56276" lon="4.45398">
        <ele>414.601</ele>
        <time>2020-06-14T06:20:15Z</time>
      </trkpt>
      <trkpt lat="46.56276" lon="4.45385">
        <ele>411.601</ele>
        <time>2020-06-14T06:20:20Z</time>
      </trkpt>
      <trkpt lat="46.56281" lon="4.45374">
        <ele>412.601</ele>
        <time>2020-06-14T06:20:25Z</time>
      </trkpt>
      <trkpt lat="46.56282" lon="4.45365">
        <ele>411.601</ele>
        <time>2020-06-14T06:20:30Z</time>
      </trkpt>
      <trkpt lat="46.56281" lon="4.45353">
        <ele>410.601</ele>
        <time>2020-06-14T06:20:39Z</time>
      </trkpt>
      <trkpt lat="46.56284" lon="4.45342">
        <ele>412.601</ele>
        <time>2020-06-14T06:20:47Z</time>
      </trkpt>
      <trkpt lat="46.56289" lon="4.45331">
        <ele>411.601</ele>
        <time>2020-06-14T06:20:52Z</time>
      </trkpt>
      <trkpt lat="46.56292" lon="4.45317">
        <ele>411.601</ele>
        <time>2020-06-14T06:20:57Z</time>
      </trkpt>
      <trkpt lat="46.56295" lon="4.45305">
        <ele>413.601</ele>
        <time>2020-06-14T06:21:02Z</time>
      </trkpt>
      <trkpt lat="46.56298" lon="4.45295">
        <ele>412.601</ele>
        <time>2020-06-14T06:21:07Z</time>
      </trkpt>
      <trkpt lat="46.56301" lon="4.45285">
        <ele>412.601</ele>
        <time>2020-06-14T06:21:12Z</time>
      </trkpt>
      <trkpt lat="46.56302" lon="4.45273">
        <ele>411.601</ele>
        <time>2020-06-14T06:21:17Z</time>
      </trkpt>
      <trkpt lat="46.56303" lon="4.45262">
        <ele>411.601</ele>
        <time>2020-06-14T06:21:23Z</time>
      </trkpt>
      <trkpt lat="46.56305" lon="4.45252">
        <ele>413.601</ele>
        <time>2020-06-14T06:21:29Z</time>
      </trkpt>
      <trkpt lat="46.56307" lon="4.45242">
        <ele>413.601</ele>
        <time>2020-06-14T06:21:35Z</time>
      </trkpt>
      <trkpt lat="46.56305" lon="4.4523">
        <ele>413.601</ele>
        <time>2020-06-14T06:21:41Z</time>
      </trkpt>
      <trkpt lat="46.56307" lon="4.45219">
        <ele>416.601</ele>
        <time>2020-06-14T06:21:48Z</time>
      </trkpt>
      <trkpt lat="46.5631" lon="4.45208">
        <ele>415.601</ele>
        <time>2020-06-14T06:21:53Z</time>
      </trkpt>
      <trkpt lat="46.5631" lon="4.45196">
        <ele>414.601</ele>
        <time>2020-06-14T06:21:58Z</time>
      </trkpt>
      <trkpt lat="46.56311" lon="4.45185">
        <ele>414.601</ele>
        <time>2020-06-14T06:22:05Z</time>
      </trkpt>
      <trkpt lat="46.56312" lon="4.45175">
        <ele>412.601</ele>
        <time>2020-06-14T06:22:10Z</time>
      </trkpt>
      <trkpt lat="46.56309" lon="4.45166">
        <ele>414.601</ele>
        <time>2020-06-14T06:22:15Z</time>
      </trkpt>
      <trkpt lat="46.56307" lon="4.45154">
        <ele>414.601</ele>
        <time>2020-06-14T06:22:20Z</time>
      </trkpt>
      <trkpt lat="46.56311" lon="4.45144">
        <ele>411.601</ele>
        <time>2020-06-14T06:22:25Z</time>
      </trkpt>
      <trkpt lat="46.56316" lon="4.45137">
        <ele>411.601</ele>
        <time>2020-06-14T06:22:30Z</time>
      </trkpt>
      <trkpt lat="46.5632" lon="4.45126">
        <ele>413.601</ele>
        <time>2020-06-14T06:22:36Z</time>
      </trkpt>
      <trkpt lat="46.56323" lon="4.45116">
        <ele>413.601</ele>
        <time>2020-06-14T06:22:41Z</time>
      </trkpt>
      <trkpt lat="46.56323" lon="4.45106">
        <ele>415.601</ele>
        <time>2020-06-14T06:22:46Z</time>
      </trkpt>
      <trkpt lat="46.5633" lon="4.45098">
        <ele>419.601</ele>
        <time>2020-06-14T06:22:51Z</time>
      </trkpt>
      <trkpt lat="46.5633" lon="4.45087">
        <ele>420.601</ele>
        <time>2020-06-14T06:22:56Z</time>
      </trkpt>
      <trkpt lat="46.5633" lon="4.45076">
        <ele>419.601</ele>
        <time>2020-06-14T06:23:01Z</time>
      </trkpt>
      <trkpt lat="46.56334" lon="4.45067">
        <ele>417.601</ele>
        <time>2020-06-14T06:23:06Z</time>
      </trkpt>
      <trkpt lat="46.56337" lon="4.45057">
        <ele>414.601</ele>
        <time>2020-06-14T06:23:12Z</time>
      </trkpt>
      <trkpt lat="46.56343" lon="4.45052">
        <ele>410.601</ele>
        <time>2020-06-14T06:23:21Z</time>
      </trkpt>
      <trkpt lat="46.56349" lon="4.45045">
        <ele>409.601</ele>
        <time>2020-06-14T06:23:28Z</time>
      </trkpt>
      <trkpt lat="46.56354" lon="4.45036">
        <ele>409.601</ele>
        <time>2020-06-14T06:23:33Z</time>
      </trkpt>
      <trkpt lat="46.56359" lon="4.45024">
        <ele>412.601</ele>
        <time>2020-06-14T06:23:38Z</time>
      </trkpt>
      <trkpt lat="46.56365" lon="4.45018">
        <ele>415.601</ele>
        <time>2020-06-14T06:23:43Z</time>
      </trkpt>
      <trkpt lat="46.56369" lon="4.45011">
        <ele>416.601</ele>
        <time>2020-06-14T06:23:49Z</time>
      </trkpt>
      <trkpt lat="46.56369" lon="4.45001">
        <ele>414.601</ele>
        <time>2020-06-14T06:23:55Z</time>
      </trkpt>
      <trkpt lat="46.56367" lon="4.44991">
        <ele>409.601</ele>
        <time>2020-06-14T06:24:00Z</time>
      </trkpt>
      <trkpt lat="46.56371" lon="4.4498">
        <ele>411.601</ele>
        <time>2020-06-14T06:24:05Z</time>
      </trkpt>
      <trkpt lat="46.56376" lon="4.44967">
        <ele>413.601</ele>
        <time>2020-06-14T06:24:10Z</time>
      </trkpt>
      <trkpt lat="46.56378" lon="4.44956">
        <ele>411.601</ele>
        <time>2020-06-14T06:24:21Z</time>
      </trkpt>
      <trkpt lat="46.56383" lon="4.44949">
        <ele>415.601</ele>
        <time>2020-06-14T06:24:26Z</time>
      </trkpt>
      <trkpt lat="46.56385" lon="4.44934">
        <ele>414.601</ele>
        <time>2020-06-14T06:24:31Z</time>
      </trkpt>
      <trkpt lat="46.56384" lon="4.44923">
        <ele>412.601</ele>
        <time>2020-06-14T06:24:36Z</time>
      </trkpt>
      <trkpt lat="46.56388" lon="4.44914">
        <ele>410.601</ele>
        <time>2020-06-14T06:24:42Z</time>
      </trkpt>
      <trkpt lat="46.56389" lon="4.44902">
        <ele>412.601</ele>
        <time>2020-06-14T06:24:50Z</time>
      </trkpt>
      <trkpt lat="46.56382" lon="4.44889">
        <ele>407.601</ele>
        <time>2020-06-14T06:24:55Z</time>
      </trkpt>
      <trkpt lat="46.56388" lon="4.44884">
        <ele>409.601</ele>
        <time>2020-06-14T06:25:02Z</time>
      </trkpt>
      <trkpt lat="46.5639" lon="4.44874">
        <ele>411.601</ele>
        <time>2020-06-14T06:25:07Z</time>
      </trkpt>
      <trkpt lat="46.56394" lon="4.44863">
        <ele>415.601</ele>
        <time>2020-06-14T06:25:12Z</time>
      </trkpt>
      <trkpt lat="46.56395" lon="4.44853">
        <ele>414.601</ele>
        <time>2020-06-14T06:25:18Z</time>
      </trkpt>
      <trkpt lat="46.56399" lon="4.44842">
        <ele>414.601</ele>
        <time>2020-06-14T06:25:24Z</time>
      </trkpt>
      <trkpt lat="46.56404" lon="4.44833">
        <ele>417.601</ele>
        <time>2020-06-14T06:25:30Z</time>
      </trkpt>
      <trkpt lat="46.56412" lon="4.44825">
        <ele>424.601</ele>
        <time>2020-06-14T06:25:35Z</time>
      </trkpt>
      <trkpt lat="46.56409" lon="4.44815">
        <ele>426.601</ele>
        <time>2020-06-14T06:25:41Z</time>
      </trkpt>
      <trkpt lat="46.56405" lon="4.44802">
        <ele>424.601</ele>
        <time>2020-06-14T06:25:46Z</time>
      </trkpt>
      <trkpt lat="46.5641" lon="4.44792">
        <ele>422.601</ele>
        <time>2020-06-14T06:25:51Z</time>
      </trkpt>
      <trkpt lat="46.56415" lon="4.44786">
        <ele>422.601</ele>
        <time>2020-06-14T06:25:56Z</time>
      </trkpt>
      <trkpt lat="46.56427" lon="4.44779">
        <ele>428.601</ele>
        <time>2020-06-14T06:26:01Z</time>
      </trkpt>
      <trkpt lat="46.56428" lon="4.44768">
        <ele>434.601</ele>
        <time>2020-06-14T06:26:08Z</time>
      </trkpt>
      <trkpt lat="46.5643" lon="4.44756">
        <ele>434.601</ele>
        <time>2020-06-14T06:26:13Z</time>
      </trkpt>
      <trkpt lat="46.56432" lon="4.44745">
        <ele>431.601</ele>
        <time>2020-06-14T06:26:19Z</time>
      </trkpt>
      <trkpt lat="46.56435" lon="4.44735">
        <ele>429.601</ele>
        <time>2020-06-14T06:26:24Z</time>
      </trkpt>
      <trkpt lat="46.56437" lon="4.44725">
        <ele>426.601</ele>
        <time>2020-06-14T06:26:30Z</time>
      </trkpt>
      <trkpt lat="46.56438" lon="4.44715">
        <ele>430.601</ele>
        <time>2020-06-14T06:26:36Z</time>
      </trkpt>
      <trkpt lat="46.5644" lon="4.44702">
        <ele>427.601</ele>
        <time>2020-06-14T06:26:43Z</time>
      </trkpt>
      <trkpt lat="46.56444" lon="4.4469">
        <ele>424.601</ele>
        <time>2020-06-14T06:26:48Z</time>
      </trkpt>
      <trkpt lat="46.56447" lon="4.4468">
        <ele>427.601</ele>
        <time>2020-06-14T06:26:53Z</time>
      </trkpt>
      <trkpt lat="46.56444" lon="4.4467">
        <ele>426.601</ele>
        <time>2020-06-14T06:26:59Z</time>
      </trkpt>
      <trkpt lat="46.56441" lon="4.44655">
        <ele>425.601</ele>
        <time>2020-06-14T06:27:04Z</time>
      </trkpt>
      <trkpt lat="46.56445" lon="4.44648">
        <ele>427.601</ele>
        <time>2020-06-14T06:27:11Z</time>
      </trkpt>
      <trkpt lat="46.56445" lon="4.44638">
        <ele>429.601</ele>
        <time>2020-06-14T06:27:17Z</time>
      </trkpt>
      <trkpt lat="46.56452" lon="4.44625">
        <ele>427.601</ele>
        <time>2020-06-14T06:27:22Z</time>
      </trkpt>
      <trkpt lat="46.56459" lon="4.44617">
        <ele>426.601</ele>
        <time>2020-06-14T06:27:28Z</time>
      </trkpt>
      <trkpt lat="46.56462" lon="4.44608">
        <ele>428.601</ele>
        <time>2020-06-14T06:27:33Z</time>
      </trkpt>
      <trkpt lat="46.56468" lon="4.44599">
        <ele>430.601</ele>
        <time>2020-06-14T06:27:40Z</time>
      </trkpt>
      <trkpt lat="46.5647" lon="4.44589">
        <ele>431.601</ele>
        <time>2020-06-14T06:27:47Z</time>
      </trkpt>
      <trkpt lat="46.56472" lon="4.44578">
        <ele>429.601</ele>
        <time>2020-06-14T06:27:52Z</time>
      </trkpt>
      <trkpt lat="46.56478" lon="4.44568">
        <ele>428.601</ele>
        <time>2020-06-14T06:27:57Z</time>
      </trkpt>
      <trkpt lat="46.56483" lon="4.44553">
        <ele>430.601</ele>
        <time>2020-06-14T06:28:02Z</time>
      </trkpt>
      <trkpt lat="46.56481" lon="4.44542">
        <ele>428.601</ele>
        <time>2020-06-14T06:28:08Z</time>
      </trkpt>
      <trkpt lat="46.56481" lon="4.44532">
        <ele>428.601</ele>
        <time>2020-06-14T06:28:13Z</time>
      </trkpt>
      <trkpt lat="46.56481" lon="4.44521">
        <ele>428.601</ele>
        <time>2020-06-14T06:28:18Z</time>
      </trkpt>
      <trkpt lat="46.56476" lon="4.44511">
        <ele>427.601</ele>
        <time>2020-06-14T06:28:23Z</time>
      </trkpt>
      <trkpt lat="46.56471" lon="4.445">
        <ele>427.601</ele>
        <time>2020-06-14T06:28:29Z</time>
      </trkpt>
      <trkpt lat="46.56466" lon="4.44489">
        <ele>429.601</ele>
        <time>2020-06-14T06:28:34Z</time>
      </trkpt>
      <trkpt lat="46.56464" lon="4.44476">
        <ele>428.601</ele>
        <time>2020-06-14T06:28:45Z</time>
      </trkpt>
      <trkpt lat="46.56457" lon="4.4446">
        <ele>424.601</ele>
        <time>2020-06-14T06:28:50Z</time>
      </trkpt>
      <trkpt lat="46.56453" lon="4.44452">
        <ele>427.601</ele>
        <time>2020-06-14T06:28:55Z</time>
      </trkpt>
      <trkpt lat="46.56447" lon="4.44444">
        <ele>426.601</ele>
        <time>2020-06-14T06:29:00Z</time>
      </trkpt>
      <trkpt lat="46.56439" lon="4.4444">
        <ele>422.601</ele>
        <time>2020-06-14T06:29:05Z</time>
      </trkpt>
      <trkpt lat="46.56439" lon="4.44431">
        <ele>418.601</ele>
        <time>2020-06-14T06:29:19Z</time>
      </trkpt>
      <trkpt lat="46.5645" lon="4.4442">
        <ele>414.601</ele>
        <time>2020-06-14T06:29:24Z</time>
      </trkpt>
      <trkpt lat="46.56457" lon="4.4442">
        <ele>420.601</ele>
        <time>2020-06-14T06:29:31Z</time>
      </trkpt>
      <trkpt lat="46.56466" lon="4.44427">
        <ele>415.601</ele>
        <time>2020-06-14T06:29:37Z</time>
      </trkpt>
      <trkpt lat="46.56476" lon="4.44428">
        <ele>416.601</ele>
        <time>2020-06-14T06:29:42Z</time>
      </trkpt>
      <trkpt lat="46.56482" lon="4.44429">
        <ele>417.601</ele>
        <time>2020-06-14T06:29:50Z</time>
      </trkpt>
      <trkpt lat="46.56489" lon="4.44433">
        <ele>415.601</ele>
        <time>2020-06-14T06:29:57Z</time>
      </trkpt>
      <trkpt lat="46.56498" lon="4.44435">
        <ele>417.601</ele>
        <time>2020-06-14T06:30:02Z</time>
      </trkpt>
      <trkpt lat="46.56507" lon="4.44434">
        <ele>413.601</ele>
        <time>2020-06-14T06:30:12Z</time>
      </trkpt>
      <trkpt lat="46.56514" lon="4.44433">
        <ele>410.601</ele>
        <time>2020-06-14T06:30:20Z</time>
      </trkpt>
      <trkpt lat="46.56521" lon="4.4443">
        <ele>413.601</ele>
        <time>2020-06-14T06:30:27Z</time>
      </trkpt>
      <trkpt lat="46.56529" lon="4.44431">
        <ele>416.601</ele>
        <time>2020-06-14T06:30:32Z</time>
      </trkpt>
      <trkpt lat="46.56536" lon="4.4443">
        <ele>420.601</ele>
        <time>2020-06-14T06:30:37Z</time>
      </trkpt>
      <trkpt lat="46.56543" lon="4.4443">
        <ele>419.601</ele>
        <time>2020-06-14T06:30:43Z</time>
      </trkpt>
      <trkpt lat="46.56552" lon="4.44433">
        <ele>419.602</ele>
        <time>2020-06-14T06:30:49Z</time>
      </trkpt>
      <trkpt lat="46.5656" lon="4.44433">
        <ele>416.602</ele>
        <time>2020-06-14T06:30:54Z</time>
      </trkpt>
      <trkpt lat="46.56567" lon="4.44436">
        <ele>416.602</ele>
        <time>2020-06-14T06:30:59Z</time>
      </trkpt>
      <trkpt lat="46.56574" lon="4.44433">
        <ele>415.602</ele>
        <time>2020-06-14T06:31:06Z</time>
      </trkpt>
      <trkpt lat="46.56582" lon="4.44434">
        <ele>415.602</ele>
        <time>2020-06-14T06:31:11Z</time>
      </trkpt>
      <trkpt lat="46.5659" lon="4.44432">
        <ele>416.602</ele>
        <time>2020-06-14T06:31:18Z</time>
      </trkpt>
      <trkpt lat="46.56598" lon="4.44431">
        <ele>417.602</ele>
        <time>2020-06-14T06:31:23Z</time>
      </trkpt>
      <trkpt lat="46.56606" lon="4.44432">
        <ele>417.602</ele>
        <time>2020-06-14T06:31:28Z</time>
      </trkpt>
      <trkpt lat="46.56613" lon="4.44426">
        <ele>415.602</ele>
        <time>2020-06-14T06:31:36Z</time>
      </trkpt>
      <trkpt lat="46.56618" lon="4.44421">
        <ele>415.602</ele>
        <time>2020-06-14T06:31:43Z</time>
      </trkpt>
      <trkpt lat="46.56628" lon="4.44418">
        <ele>418.602</ele>
        <time>2020-06-14T06:31:48Z</time>
      </trkpt>
      <trkpt lat="46.56636" lon="4.44421">
        <ele>421.602</ele>
        <time>2020-06-14T06:31:53Z</time>
      </trkpt>
      <trkpt lat="46.56644" lon="4.44418">
        <ele>421.602</ele>
        <time>2020-06-14T06:32:00Z</time>
      </trkpt>
      <trkpt lat="46.5665" lon="4.44416">
        <ele>423.602</ele>
        <time>2020-06-14T06:32:07Z</time>
      </trkpt>
      <trkpt lat="46.56656" lon="4.4441">
        <ele>423.602</ele>
        <time>2020-06-14T06:32:16Z</time>
      </trkpt>
      <trkpt lat="46.56665" lon="4.44405">
        <ele>423.602</ele>
        <time>2020-06-14T06:32:21Z</time>
      </trkpt>
      <trkpt lat="46.56671" lon="4.44402">
        <ele>420.602</ele>
        <time>2020-06-14T06:32:26Z</time>
      </trkpt>
      <trkpt lat="46.56678" lon="4.44398">
        <ele>421.602</ele>
        <time>2020-06-14T06:32:33Z</time>
      </trkpt>
      <trkpt lat="46.56686" lon="4.44396">
        <ele>421.602</ele>
        <time>2020-06-14T06:32:38Z</time>
      </trkpt>
      <trkpt lat="46.56692" lon="4.44394">
        <ele>423.602</ele>
        <time>2020-06-14T06:32:46Z</time>
      </trkpt>
      <trkpt lat="46.56702" lon="4.44394">
        <ele>421.602</ele>
        <time>2020-06-14T06:32:51Z</time>
      </trkpt>
      <trkpt lat="46.5671" lon="4.44392">
        <ele>422.602</ele>
        <time>2020-06-14T06:32:56Z</time>
      </trkpt>
      <trkpt lat="46.56717" lon="4.44389">
        <ele>423.602</ele>
        <time>2020-06-14T06:33:06Z</time>
      </trkpt>
      <trkpt lat="46.56728" lon="4.4439">
        <ele>423.602</ele>
        <time>2020-06-14T06:33:11Z</time>
      </trkpt>
      <trkpt lat="46.56738" lon="4.44386">
        <ele>421.602</ele>
        <time>2020-06-14T06:33:16Z</time>
      </trkpt>
      <trkpt lat="46.56745" lon="4.44385">
        <ele>420.602</ele>
        <time>2020-06-14T06:33:21Z</time>
      </trkpt>
      <trkpt lat="46.56752" lon="4.4438">
        <ele>422.602</ele>
        <time>2020-06-14T06:33:28Z</time>
      </trkpt>
      <trkpt lat="46.5676" lon="4.4438">
        <ele>423.602</ele>
        <time>2020-06-14T06:33:35Z</time>
      </trkpt>
      <trkpt lat="46.56765" lon="4.44371">
        <ele>426.602</ele>
        <time>2020-06-14T06:33:42Z</time>
      </trkpt>
      <trkpt lat="46.56773" lon="4.44369">
        <ele>424.602</ele>
        <time>2020-06-14T06:33:49Z</time>
      </trkpt>
      <trkpt lat="46.5678" lon="4.44366">
        <ele>425.602</ele>
        <time>2020-06-14T06:33:54Z</time>
      </trkpt>
      <trkpt lat="46.56789" lon="4.44363">
        <ele>428.602</ele>
        <time>2020-06-14T06:33:59Z</time>
      </trkpt>
      <trkpt lat="46.56795" lon="4.44356">
        <ele>428.602</ele>
        <time>2020-06-14T06:34:04Z</time>
      </trkpt>
      <trkpt lat="46.56802" lon="4.44352">
        <ele>428.602</ele>
        <time>2020-06-14T06:34:09Z</time>
      </trkpt>
      <trkpt lat="46.5681" lon="4.4435">
        <ele>426.602</ele>
        <time>2020-06-14T06:34:15Z</time>
      </trkpt>
      <trkpt lat="46.56818" lon="4.44343">
        <ele>427.602</ele>
        <time>2020-06-14T06:34:22Z</time>
      </trkpt>
      <trkpt lat="46.56823" lon="4.44337">
        <ele>426.602</ele>
        <time>2020-06-14T06:34:27Z</time>
      </trkpt>
      <trkpt lat="46.5683" lon="4.44334">
        <ele>423.602</ele>
        <time>2020-06-14T06:34:33Z</time>
      </trkpt>
      <trkpt lat="46.56838" lon="4.44329">
        <ele>422.602</ele>
        <time>2020-06-14T06:34:41Z</time>
      </trkpt>
      <trkpt lat="46.56848" lon="4.44329">
        <ele>423.602</ele>
        <time>2020-06-14T06:34:46Z</time>
      </trkpt>
      <trkpt lat="46.56856" lon="4.44325">
        <ele>423.602</ele>
        <time>2020-06-14T06:34:51Z</time>
      </trkpt>
      <trkpt lat="46.56862" lon="4.44322">
        <ele>422.602</ele>
        <time>2020-06-14T06:34:57Z</time>
      </trkpt>
      <trkpt lat="46.5687" lon="4.44318">
        <ele>423.602</ele>
        <time>2020-06-14T06:35:05Z</time>
      </trkpt>
      <trkpt lat="46.56876" lon="4.44313">
        <ele>422.602</ele>
        <time>2020-06-14T06:35:11Z</time>
      </trkpt>
      <trkpt lat="46.56885" lon="4.44307">
        <ele>423.602</ele>
        <time>2020-06-14T06:35:16Z</time>
      </trkpt>
      <trkpt lat="46.56897" lon="4.4431">
        <ele>425.602</ele>
        <time>2020-06-14T06:35:21Z</time>
      </trkpt>
      <trkpt lat="46.56902" lon="4.44303">
        <ele>425.602</ele>
        <time>2020-06-14T06:35:26Z</time>
      </trkpt>
      <trkpt lat="46.56911" lon="4.44304">
        <ele>425.602</ele>
        <time>2020-06-14T06:35:31Z</time>
      </trkpt>
      <trkpt lat="46.56918" lon="4.44297">
        <ele>423.602</ele>
        <time>2020-06-14T06:35:36Z</time>
      </trkpt>
      <trkpt lat="46.56926" lon="4.44298">
        <ele>426.602</ele>
        <time>2020-06-14T06:35:44Z</time>
      </trkpt>
      <trkpt lat="46.56935" lon="4.44294">
        <ele>431.602</ele>
        <time>2020-06-14T06:35:49Z</time>
      </trkpt>
      <trkpt lat="46.56942" lon="4.4429">
        <ele>433.603</ele>
        <time>2020-06-14T06:35:57Z</time>
      </trkpt>
      <trkpt lat="46.56952" lon="4.44287">
        <ele>434.603</ele>
        <time>2020-06-14T06:36:02Z</time>
      </trkpt>
      <trkpt lat="46.56956" lon="4.44279">
        <ele>432.603</ele>
        <time>2020-06-14T06:36:07Z</time>
      </trkpt>
      <trkpt lat="46.56965" lon="4.44277">
        <ele>434.603</ele>
        <time>2020-06-14T06:36:12Z</time>
      </trkpt>
      <trkpt lat="46.56971" lon="4.44276">
        <ele>436.603</ele>
        <time>2020-06-14T06:36:17Z</time>
      </trkpt>
      <trkpt lat="46.56978" lon="4.44274">
        <ele>432.603</ele>
        <time>2020-06-14T06:36:25Z</time>
      </trkpt>
      <trkpt lat="46.56986" lon="4.44269">
        <ele>429.603</ele>
        <time>2020-06-14T06:36:30Z</time>
      </trkpt>
      <trkpt lat="46.56993" lon="4.4427">
        <ele>429.603</ele>
        <time>2020-06-14T06:36:36Z</time>
      </trkpt>
      <trkpt lat="46.57" lon="4.44265">
        <ele>431.603</ele>
        <time>2020-06-14T06:36:41Z</time>
      </trkpt>
      <trkpt lat="46.57007" lon="4.44256">
        <ele>428.603</ele>
        <time>2020-06-14T06:36:46Z</time>
      </trkpt>
      <trkpt lat="46.57015" lon="4.4425">
        <ele>427.603</ele>
        <time>2020-06-14T06:36:51Z</time>
      </trkpt>
      <trkpt lat="46.57023" lon="4.44244">
        <ele>422.603</ele>
        <time>2020-06-14T06:37:00Z</time>
      </trkpt>
      <trkpt lat="46.5703" lon="4.44242">
        <ele>423.603</ele>
        <time>2020-06-14T06:37:05Z</time>
      </trkpt>
      <trkpt lat="46.57038" lon="4.4424">
        <ele>422.603</ele>
        <time>2020-06-14T06:37:13Z</time>
      </trkpt>
      <trkpt lat="46.57045" lon="4.4424">
        <ele>418.603</ele>
        <time>2020-06-14T06:37:19Z</time>
      </trkpt>
      <trkpt lat="46.57052" lon="4.4424">
        <ele>418.603</ele>
        <time>2020-06-14T06:37:24Z</time>
      </trkpt>
      <trkpt lat="46.5706" lon="4.44237">
        <ele>421.603</ele>
        <time>2020-06-14T06:37:29Z</time>
      </trkpt>
      <trkpt lat="46.57068" lon="4.44234">
        <ele>423.603</ele>
        <time>2020-06-14T06:37:34Z</time>
      </trkpt>
      <trkpt lat="46.57075" lon="4.4423">
        <ele>424.603</ele>
        <time>2020-06-14T06:37:39Z</time>
      </trkpt>
      <trkpt lat="46.57082" lon="4.44228">
        <ele>424.603</ele>
        <time>2020-06-14T06:37:44Z</time>
      </trkpt>
      <trkpt lat="46.57091" lon="4.44225">
        <ele>422.603</ele>
        <time>2020-06-14T06:37:49Z</time>
      </trkpt>
      <trkpt lat="46.57098" lon="4.44225">
        <ele>423.603</ele>
        <time>2020-06-14T06:37:54Z</time>
      </trkpt>
      <trkpt lat="46.57108" lon="4.44224">
        <ele>422.603</ele>
        <time>2020-06-14T06:37:59Z</time>
      </trkpt>
      <trkpt lat="46.57117" lon="4.44223">
        <ele>422.603</ele>
        <time>2020-06-14T06:38:04Z</time>
      </trkpt>
      <trkpt lat="46.57125" lon="4.44218">
        <ele>421.603</ele>
        <time>2020-06-14T06:38:09Z</time>
      </trkpt>
      <trkpt lat="46.5713" lon="4.4421">
        <ele>423.603</ele>
        <time>2020-06-14T06:38:19Z</time>
      </trkpt>
      <trkpt lat="46.57141" lon="4.44213">
        <ele>424.603</ele>
        <time>2020-06-14T06:38:24Z</time>
      </trkpt>
      <trkpt lat="46.5715" lon="4.44214">
        <ele>425.603</ele>
        <time>2020-06-14T06:38:29Z</time>
      </trkpt>
      <trkpt lat="46.57156" lon="4.44214">
        <ele>424.603</ele>
        <time>2020-06-14T06:38:35Z</time>
      </trkpt>
      <trkpt lat="46.57163" lon="4.44216">
        <ele>427.603</ele>
        <time>2020-06-14T06:38:41Z</time>
      </trkpt>
      <trkpt lat="46.57168" lon="4.44224">
        <ele>426.603</ele>
        <time>2020-06-14T06:38:48Z</time>
      </trkpt>
      <trkpt lat="46.57181" lon="4.44222">
        <ele>425.603</ele>
        <time>2020-06-14T06:38:53Z</time>
      </trkpt>
      <trkpt lat="46.57189" lon="4.44226">
        <ele>427.603</ele>
        <time>2020-06-14T06:39:00Z</time>
      </trkpt>
      <trkpt lat="46.57197" lon="4.44221">
        <ele>425.603</ele>
        <time>2020-06-14T06:39:05Z</time>
      </trkpt>
      <trkpt lat="46.57209" lon="4.44223">
        <ele>426.603</ele>
        <time>2020-06-14T06:39:10Z</time>
      </trkpt>
      <trkpt lat="46.57216" lon="4.44218">
        <ele>427.603</ele>
        <time>2020-06-14T06:39:16Z</time>
      </trkpt>
      <trkpt lat="46.57223" lon="4.44219">
        <ele>427.603</ele>
        <time>2020-06-14T06:39:22Z</time>
      </trkpt>
      <trkpt lat="46.5723" lon="4.44218">
        <ele>425.603</ele>
        <time>2020-06-14T06:39:28Z</time>
      </trkpt>
      <trkpt lat="46.57237" lon="4.44217">
        <ele>421.603</ele>
        <time>2020-06-14T06:39:35Z</time>
      </trkpt>
      <trkpt lat="46.57245" lon="4.44218">
        <ele>419.603</ele>
        <time>2020-06-14T06:39:41Z</time>
      </trkpt>
      <trkpt lat="46.57251" lon="4.44222">
        <ele>418.603</ele>
        <time>2020-06-14T06:39:46Z</time>
      </trkpt>
      <trkpt lat="46.57257" lon="4.44225">
        <ele>419.603</ele>
        <time>2020-06-14T06:39:53Z</time>
      </trkpt>
      <trkpt lat="46.57266" lon="4.44226">
        <ele>420.603</ele>
        <time>2020-06-14T06:39:58Z</time>
      </trkpt>
      <trkpt lat="46.57275" lon="4.4423">
        <ele>418.603</ele>
        <time>2020-06-14T06:40:03Z</time>
      </trkpt>
      <trkpt lat="46.57282" lon="4.44227">
        <ele>417.603</ele>
        <time>2020-06-14T06:40:08Z</time>
      </trkpt>
      <trkpt lat="46.5729" lon="4.44228">
        <ele>422.603</ele>
        <time>2020-06-14T06:40:13Z</time>
      </trkpt>
      <trkpt lat="46.57298" lon="4.44228">
        <ele>419.603</ele>
        <time>2020-06-14T06:40:18Z</time>
      </trkpt>
      <trkpt lat="46.57307" lon="4.44227">
        <ele>418.603</ele>
        <time>2020-06-14T06:40:23Z</time>
      </trkpt>
      <trkpt lat="46.57313" lon="4.44232">
        <ele>417.603</ele>
        <time>2020-06-14T06:40:28Z</time>
      </trkpt>
      <trkpt lat="46.5732" lon="4.44231">
        <ele>415.604</ele>
        <time>2020-06-14T06:40:33Z</time>
      </trkpt>
      <trkpt lat="46.57327" lon="4.44227">
        <ele>414.604</ele>
        <time>2020-06-14T06:40:38Z</time>
      </trkpt>
      <trkpt lat="46.57336" lon="4.4423">
        <ele>413.604</ele>
        <time>2020-06-14T06:40:43Z</time>
      </trkpt>
      <trkpt lat="46.57344" lon="4.44229">
        <ele>413.604</ele>
        <time>2020-06-14T06:40:48Z</time>
      </trkpt>
      <trkpt lat="46.57351" lon="4.44227">
        <ele>413.604</ele>
        <time>2020-06-14T06:40:53Z</time>
      </trkpt>
      <trkpt lat="46.57358" lon="4.44227">
        <ele>414.604</ele>
        <time>2020-06-14T06:40:58Z</time>
      </trkpt>
      <trkpt lat="46.57365" lon="4.44226">
        <ele>416.604</ele>
        <time>2020-06-14T06:41:05Z</time>
      </trkpt>
      <trkpt lat="46.57376" lon="4.44229">
        <ele>418.604</ele>
        <time>2020-06-14T06:41:10Z</time>
      </trkpt>
      <trkpt lat="46.57382" lon="4.44226">
        <ele>417.604</ele>
        <time>2020-06-14T06:41:17Z</time>
      </trkpt>
      <trkpt lat="46.57389" lon="4.44225">
        <ele>415.604</ele>
        <time>2020-06-14T06:41:23Z</time>
      </trkpt>
      <trkpt lat="46.57396" lon="4.44223">
        <ele>414.604</ele>
        <time>2020-06-14T06:41:28Z</time>
      </trkpt>
      <trkpt lat="46.57404" lon="4.44219">
        <ele>415.604</ele>
        <time>2020-06-14T06:41:33Z</time>
      </trkpt>
      <trkpt lat="46.57413" lon="4.44216">
        <ele>413.604</ele>
        <time>2020-06-14T06:41:38Z</time>
      </trkpt>
      <trkpt lat="46.5742" lon="4.44209">
        <ele>413.604</ele>
        <time>2020-06-14T06:41:43Z</time>
      </trkpt>
      <trkpt lat="46.57426" lon="4.44206">
        <ele>414.604</ele>
        <time>2020-06-14T06:41:48Z</time>
      </trkpt>
      <trkpt lat="46.57435" lon="4.44203">
        <ele>414.604</ele>
        <time>2020-06-14T06:41:54Z</time>
      </trkpt>
      <trkpt lat="46.57445" lon="4.442">
        <ele>414.604</ele>
        <time>2020-06-14T06:41:59Z</time>
      </trkpt>
      <trkpt lat="46.57452" lon="4.44198">
        <ele>412.604</ele>
        <time>2020-06-14T06:42:05Z</time>
      </trkpt>
      <trkpt lat="46.57459" lon="4.44194">
        <ele>411.604</ele>
        <time>2020-06-14T06:42:11Z</time>
      </trkpt>
      <trkpt lat="46.57466" lon="4.44189">
        <ele>409.604</ele>
        <time>2020-06-14T06:42:17Z</time>
      </trkpt>
      <trkpt lat="46.57472" lon="4.44183">
        <ele>408.604</ele>
        <time>2020-06-14T06:42:22Z</time>
      </trkpt>
      <trkpt lat="46.57478" lon="4.44179">
        <ele>407.604</ele>
        <time>2020-06-14T06:42:27Z</time>
      </trkpt>
      <trkpt lat="46.57483" lon="4.44172">
        <ele>406.604</ele>
        <time>2020-06-14T06:42:32Z</time>
      </trkpt>
      <trkpt lat="46.5749" lon="4.44169">
        <ele>404.604</ele>
        <time>2020-06-14T06:42:38Z</time>
      </trkpt>
      <trkpt lat="46.57499" lon="4.44169">
        <ele>404.604</ele>
        <time>2020-06-14T06:42:43Z</time>
      </trkpt>
      <trkpt lat="46.57504" lon="4.44162">
        <ele>399.604</ele>
        <time>2020-06-14T06:42:50Z</time>
      </trkpt>
      <trkpt lat="46.57512" lon="4.44158">
        <ele>400.604</ele>
        <time>2020-06-14T06:42:55Z</time>
      </trkpt>
      <trkpt lat="46.57524" lon="4.44157">
        <ele>402.604</ele>
        <time>2020-06-14T06:43:00Z</time>
      </trkpt>
      <trkpt lat="46.57531" lon="4.4415">
        <ele>400.604</ele>
        <time>2020-06-14T06:43:05Z</time>
      </trkpt>
      <trkpt lat="46.57538" lon="4.44149">
        <ele>401.604</ele>
        <time>2020-06-14T06:43:10Z</time>
      </trkpt>
      <trkpt lat="46.57544" lon="4.44144">
        <ele>403.604</ele>
        <time>2020-06-14T06:43:15Z</time>
      </trkpt>
      <trkpt lat="46.5755" lon="4.44139">
        <ele>403.604</ele>
        <time>2020-06-14T06:43:20Z</time>
      </trkpt>
      <trkpt lat="46.57561" lon="4.4414">
        <ele>405.604</ele>
        <time>2020-06-14T06:43:25Z</time>
      </trkpt>
      <trkpt lat="46.57566" lon="4.44133">
        <ele>405.604</ele>
        <time>2020-06-14T06:43:31Z</time>
      </trkpt>
      <trkpt lat="46.57572" lon="4.44126">
        <ele>406.604</ele>
        <time>2020-06-14T06:43:37Z</time>
      </trkpt>
      <trkpt lat="46.5758" lon="4.4412">
        <ele>405.604</ele>
        <time>2020-06-14T06:43:42Z</time>
      </trkpt>
      <trkpt lat="46.57587" lon="4.44115">
        <ele>403.604</ele>
        <time>2020-06-14T06:43:47Z</time>
      </trkpt>
      <trkpt lat="46.57594" lon="4.44108">
        <ele>402.604</ele>
        <time>2020-06-14T06:43:53Z</time>
      </trkpt>
      <trkpt lat="46.576" lon="4.44101">
        <ele>401.604</ele>
        <time>2020-06-14T06:43:58Z</time>
      </trkpt>
      <trkpt lat="46.57608" lon="4.44095">
        <ele>402.604</ele>
        <time>2020-06-14T06:44:03Z</time>
      </trkpt>
      <trkpt lat="46.57614" lon="4.44089">
        <ele>402.604</ele>
        <time>2020-06-14T06:44:08Z</time>
      </trkpt>
      <trkpt lat="46.57621" lon="4.44079">
        <ele>402.604</ele>
        <time>2020-06-14T06:44:13Z</time>
      </trkpt>
      <trkpt lat="46.57626" lon="4.44071">
        <ele>401.604</ele>
        <time>2020-06-14T06:44:20Z</time>
      </trkpt>
      <trkpt lat="46.57632" lon="4.44066">
        <ele>401.604</ele>
        <time>2020-06-14T06:44:25Z</time>
      </trkpt>
      <trkpt lat="46.57636" lon="4.44057">
        <ele>395.604</ele>
        <time>2020-06-14T06:44:31Z</time>
      </trkpt>
      <trkpt lat="46.57641" lon="4.44049">
        <ele>392.604</ele>
        <time>2020-06-14T06:44:37Z</time>
      </trkpt>
      <trkpt lat="46.57644" lon="4.4404">
        <ele>392.604</ele>
        <time>2020-06-14T06:44:42Z</time>
      </trkpt>
      <trkpt lat="46.57654" lon="4.44032">
        <ele>396.604</ele>
        <time>2020-06-14T06:44:47Z</time>
      </trkpt>
      <trkpt lat="46.57659" lon="4.44025">
        <ele>396.604</ele>
        <time>2020-06-14T06:44:52Z</time>
      </trkpt>
      <trkpt lat="46.57664" lon="4.44016">
        <ele>397.604</ele>
        <time>2020-06-14T06:44:57Z</time>
      </trkpt>
      <trkpt lat="46.57663" lon="4.44006">
        <ele>389.604</ele>
        <time>2020-06-14T06:45:03Z</time>
      </trkpt>
      <trkpt lat="46.57669" lon="4.43997">
        <ele>389.604</ele>
        <time>2020-06-14T06:45:08Z</time>
      </trkpt>
      <trkpt lat="46.57675" lon="4.43991">
        <ele>389.604</ele>
        <time>2020-06-14T06:45:13Z</time>
      </trkpt>
      <trkpt lat="46.5768" lon="4.43999">
        <ele>380.604</ele>
        <time>2020-06-14T06:45:23Z</time>
      </trkpt>
      <trkpt lat="46.57683" lon="4.44011">
        <ele>380.604</ele>
        <time>2020-06-14T06:45:28Z</time>
      </trkpt>
      <trkpt lat="46.57684" lon="4.4402">
        <ele>378.604</ele>
        <time>2020-06-14T06:45:34Z</time>
      </trkpt>
      <trkpt lat="46.5769" lon="4.44028">
        <ele>378.604</ele>
        <time>2020-06-14T06:45:39Z</time>
      </trkpt>
      <trkpt lat="46.57697" lon="4.4404">
        <ele>383.604</ele>
        <time>2020-06-14T06:45:44Z</time>
      </trkpt>
      <trkpt lat="46.57701" lon="4.44048">
        <ele>382.604</ele>
        <time>2020-06-14T06:45:52Z</time>
      </trkpt>
      <trkpt lat="46.57704" lon="4.44058">
        <ele>381.604</ele>
        <time>2020-06-14T06:45:57Z</time>
      </trkpt>
      <trkpt lat="46.57709" lon="4.44071">
        <ele>383.604</ele>
        <time>2020-06-14T06:46:02Z</time>
      </trkpt>
      <trkpt lat="46.57714" lon="4.44082">
        <ele>382.605</ele>
        <time>2020-06-14T06:46:07Z</time>
      </trkpt>
      <trkpt lat="46.57717" lon="4.44091">
        <ele>387.605</ele>
        <time>2020-06-14T06:46:12Z</time>
      </trkpt>
      <trkpt lat="46.5772" lon="4.44099">
        <ele>388.605</ele>
        <time>2020-06-14T06:46:18Z</time>
      </trkpt>
      <trkpt lat="46.57725" lon="4.44112">
        <ele>388.605</ele>
        <time>2020-06-14T06:46:23Z</time>
      </trkpt>
      <trkpt lat="46.5773" lon="4.44122">
        <ele>390.605</ele>
        <time>2020-06-14T06:46:28Z</time>
      </trkpt>
      <trkpt lat="46.57735" lon="4.44131">
        <ele>387.605</ele>
        <time>2020-06-14T06:46:33Z</time>
      </trkpt>
      <trkpt lat="46.57741" lon="4.44135">
        <ele>385.605</ele>
        <time>2020-06-14T06:46:40Z</time>
      </trkpt>
      <trkpt lat="46.57746" lon="4.44142">
        <ele>386.605</ele>
        <time>2020-06-14T06:46:45Z</time>
      </trkpt>
      <trkpt lat="46.57751" lon="4.44153">
        <ele>391.605</ele>
        <time>2020-06-14T06:46:50Z</time>
      </trkpt>
      <trkpt lat="46.57754" lon="4.44163">
        <ele>380.605</ele>
        <time>2020-06-14T06:46:57Z</time>
      </trkpt>
      <trkpt lat="46.57758" lon="4.44173">
        <ele>379.605</ele>
        <time>2020-06-14T06:47:02Z</time>
      </trkpt>
      <trkpt lat="46.57763" lon="4.4418">
        <ele>376.605</ele>
        <time>2020-06-14T06:47:09Z</time>
      </trkpt>
      <trkpt lat="46.57765" lon="4.44192">
        <ele>375.605</ele>
        <time>2020-06-14T06:47:14Z</time>
      </trkpt>
      <trkpt lat="46.57771" lon="4.44202">
        <ele>374.605</ele>
        <time>2020-06-14T06:47:19Z</time>
      </trkpt>
      <trkpt lat="46.57776" lon="4.44213">
        <ele>372.605</ele>
        <time>2020-06-14T06:47:24Z</time>
      </trkpt>
      <trkpt lat="46.57781" lon="4.4422">
        <ele>372.605</ele>
        <time>2020-06-14T06:47:29Z</time>
      </trkpt>
      <trkpt lat="46.57782" lon="4.4423">
        <ele>373.605</ele>
        <time>2020-06-14T06:47:34Z</time>
      </trkpt>
      <trkpt lat="46.57784" lon="4.44242">
        <ele>374.605</ele>
        <time>2020-06-14T06:47:41Z</time>
      </trkpt>
      <trkpt lat="46.57787" lon="4.44253">
        <ele>373.605</ele>
        <time>2020-06-14T06:47:46Z</time>
      </trkpt>
      <trkpt lat="46.57788" lon="4.44267">
        <ele>373.605</ele>
        <time>2020-06-14T06:47:51Z</time>
      </trkpt>
      <trkpt lat="46.57792" lon="4.44274">
        <ele>375.605</ele>
        <time>2020-06-14T06:47:56Z</time>
      </trkpt>
      <trkpt lat="46.57797" lon="4.44282">
        <ele>373.605</ele>
        <time>2020-06-14T06:48:01Z</time>
      </trkpt>
      <trkpt lat="46.578" lon="4.44294">
        <ele>376.605</ele>
        <time>2020-06-14T06:48:06Z</time>
      </trkpt>
      <trkpt lat="46.57801" lon="4.44307">
        <ele>378.605</ele>
        <time>2020-06-14T06:48:12Z</time>
      </trkpt>
      <trkpt lat="46.57804" lon="4.44317">
        <ele>379.605</ele>
        <time>2020-06-14T06:48:17Z</time>
      </trkpt>
      <trkpt lat="46.57807" lon="4.44325">
        <ele>376.605</ele>
        <time>2020-06-14T06:48:22Z</time>
      </trkpt>
      <trkpt lat="46.5781" lon="4.44335">
        <ele>372.605</ele>
        <time>2020-06-14T06:48:28Z</time>
      </trkpt>
      <trkpt lat="46.57812" lon="4.44345">
        <ele>371.605</ele>
        <time>2020-06-14T06:48:33Z</time>
      </trkpt>
      <trkpt lat="46.57818" lon="4.44353">
        <ele>377.605</ele>
        <time>2020-06-14T06:48:39Z</time>
      </trkpt>
      <trkpt lat="46.57819" lon="4.44363">
        <ele>378.605</ele>
        <time>2020-06-14T06:48:44Z</time>
      </trkpt>
      <trkpt lat="46.57822" lon="4.44373">
        <ele>378.605</ele>
        <time>2020-06-14T06:48:50Z</time>
      </trkpt>
      <trkpt lat="46.57824" lon="4.44384">
        <ele>380.605</ele>
        <time>2020-06-14T06:48:55Z</time>
      </trkpt>
      <trkpt lat="46.57829" lon="4.44391">
        <ele>373.605</ele>
        <time>2020-06-14T06:49:02Z</time>
      </trkpt>
      <trkpt lat="46.57834" lon="4.44402">
        <ele>377.605</ele>
        <time>2020-06-14T06:49:07Z</time>
      </trkpt>
      <trkpt lat="46.57834" lon="4.44413">
        <ele>379.605</ele>
        <time>2020-06-14T06:49:12Z</time>
      </trkpt>
      <trkpt lat="46.57836" lon="4.44422">
        <ele>381.605</ele>
        <time>2020-06-14T06:49:18Z</time>
      </trkpt>
      <trkpt lat="46.57842" lon="4.44419">
        <ele>378.605</ele>
        <time>2020-06-14T06:49:25Z</time>
      </trkpt>
      <trkpt lat="46.57849" lon="4.44416">
        <ele>377.605</ele>
        <time>2020-06-14T06:49:30Z</time>
      </trkpt>
      <trkpt lat="46.57857" lon="4.44416">
        <ele>377.605</ele>
        <time>2020-06-14T06:49:36Z</time>
      </trkpt>
      <trkpt lat="46.57864" lon="4.44412">
        <ele>379.605</ele>
        <time>2020-06-14T06:50:01Z</time>
      </trkpt>
      <trkpt lat="46.57871" lon="4.44412">
        <ele>379.605</ele>
        <time>2020-06-14T06:50:08Z</time>
      </trkpt>
      <trkpt lat="46.57879" lon="4.44411">
        <ele>378.605</ele>
        <time>2020-06-14T06:50:14Z</time>
      </trkpt>
      <trkpt lat="46.57887" lon="4.44408">
        <ele>377.605</ele>
        <time>2020-06-14T06:50:22Z</time>
      </trkpt>
      <trkpt lat="46.57893" lon="4.44405">
        <ele>380.605</ele>
        <time>2020-06-14T06:50:29Z</time>
      </trkpt>
      <trkpt lat="46.57901" lon="4.44403">
        <ele>379.605</ele>
        <time>2020-06-14T06:50:35Z</time>
      </trkpt>
      <trkpt lat="46.57909" lon="4.444">
        <ele>381.605</ele>
        <time>2020-06-14T06:50:41Z</time>
      </trkpt>
      <trkpt lat="46.57915" lon="4.44399">
        <ele>376.605</ele>
        <time>2020-06-14T06:50:47Z</time>
      </trkpt>
      <trkpt lat="46.57922" lon="4.44394">
        <ele>374.605</ele>
        <time>2020-06-14T06:50:53Z</time>
      </trkpt>
      <trkpt lat="46.57931" lon="4.44392">
        <ele>376.605</ele>
        <time>2020-06-14T06:50:58Z</time>
      </trkpt>
      <trkpt lat="46.57938" lon="4.44391">
        <ele>379.605</ele>
        <time>2020-06-14T06:51:03Z</time>
      </trkpt>
      <trkpt lat="46.57945" lon="4.44388">
        <ele>376.605</ele>
        <time>2020-06-14T06:51:08Z</time>
      </trkpt>
      <trkpt lat="46.57953" lon="4.44389">
        <ele>376.605</ele>
        <time>2020-06-14T06:51:15Z</time>
      </trkpt>
      <trkpt lat="46.57961" lon="4.44388">
        <ele>375.605</ele>
        <time>2020-06-14T06:51:20Z</time>
      </trkpt>
      <trkpt lat="46.57968" lon="4.44384">
        <ele>375.605</ele>
        <time>2020-06-14T06:51:26Z</time>
      </trkpt>
      <trkpt lat="46.57975" lon="4.44386">
        <ele>375.605</ele>
        <time>2020-06-14T06:51:31Z</time>
      </trkpt>
      <trkpt lat="46.57982" lon="4.44385">
        <ele>379.605</ele>
        <time>2020-06-14T06:51:36Z</time>
      </trkpt>
      <trkpt lat="46.57988" lon="4.44383">
        <ele>374.605</ele>
        <time>2020-06-14T06:51:44Z</time>
      </trkpt>
      <trkpt lat="46.57995" lon="4.44378">
        <ele>373.605</ele>
        <time>2020-06-14T06:51:50Z</time>
      </trkpt>
      <trkpt lat="46.58002" lon="4.44374">
        <ele>374.606</ele>
        <time>2020-06-14T06:51:56Z</time>
      </trkpt>
      <trkpt lat="46.58009" lon="4.44371">
        <ele>377.606</ele>
        <time>2020-06-14T06:52:01Z</time>
      </trkpt>
      <trkpt lat="46.58018" lon="4.44369">
        <ele>377.606</ele>
        <time>2020-06-14T06:52:06Z</time>
      </trkpt>
      <trkpt lat="46.58025" lon="4.44368">
        <ele>376.606</ele>
        <time>2020-06-14T06:52:12Z</time>
      </trkpt>
      <trkpt lat="46.58032" lon="4.44367">
        <ele>378.606</ele>
        <time>2020-06-14T06:52:17Z</time>
      </trkpt>
      <trkpt lat="46.5804" lon="4.44366">
        <ele>378.606</ele>
        <time>2020-06-14T06:52:25Z</time>
      </trkpt>
      <trkpt lat="46.58047" lon="4.44366">
        <ele>379.606</ele>
        <time>2020-06-14T06:52:30Z</time>
      </trkpt>
      <trkpt lat="46.58054" lon="4.44362">
        <ele>377.606</ele>
        <time>2020-06-14T06:52:38Z</time>
      </trkpt>
      <trkpt lat="46.58062" lon="4.44359">
        <ele>376.606</ele>
        <time>2020-06-14T06:52:43Z</time>
      </trkpt>
      <trkpt lat="46.5807" lon="4.44359">
        <ele>379.606</ele>
        <time>2020-06-14T06:52:50Z</time>
      </trkpt>
      <trkpt lat="46.58075" lon="4.44352">
        <ele>380.606</ele>
        <time>2020-06-14T06:52:55Z</time>
      </trkpt>
      <trkpt lat="46.58081" lon="4.44347">
        <ele>378.606</ele>
        <time>2020-06-14T06:53:01Z</time>
      </trkpt>
      <trkpt lat="46.58089" lon="4.44348">
        <ele>378.606</ele>
        <time>2020-06-14T06:53:06Z</time>
      </trkpt>
      <trkpt lat="46.58096" lon="4.44349">
        <ele>380.606</ele>
        <time>2020-06-14T06:53:12Z</time>
      </trkpt>
      <trkpt lat="46.58103" lon="4.44353">
        <ele>380.606</ele>
        <time>2020-06-14T06:53:18Z</time>
      </trkpt>
      <trkpt lat="46.58109" lon="4.44357">
        <ele>376.606</ele>
        <time>2020-06-14T06:53:25Z</time>
      </trkpt>
      <trkpt lat="46.58116" lon="4.44361">
        <ele>377.606</ele>
        <time>2020-06-14T06:53:31Z</time>
      </trkpt>
      <trkpt lat="46.58123" lon="4.44363">
        <ele>378.606</ele>
        <time>2020-06-14T06:53:39Z</time>
      </trkpt>
      <trkpt lat="46.58131" lon="4.44366">
        <ele>381.606</ele>
        <time>2020-06-14T06:53:44Z</time>
      </trkpt>
      <trkpt lat="46.58139" lon="4.44372">
        <ele>383.606</ele>
        <time>2020-06-14T06:53:49Z</time>
      </trkpt>
      <trkpt lat="46.58145" lon="4.44377">
        <ele>384.606</ele>
        <time>2020-06-14T06:53:55Z</time>
      </trkpt>
      <trkpt lat="46.58151" lon="4.4438">
        <ele>385.606</ele>
        <time>2020-06-14T06:54:01Z</time>
      </trkpt>
      <trkpt lat="46.58158" lon="4.44378">
        <ele>382.606</ele>
        <time>2020-06-14T06:54:07Z</time>
      </trkpt>
      <trkpt lat="46.58166" lon="4.44378">
        <ele>382.606</ele>
        <time>2020-06-14T06:54:12Z</time>
      </trkpt>
      <trkpt lat="46.58173" lon="4.44382">
        <ele>386.606</ele>
        <time>2020-06-14T06:54:19Z</time>
      </trkpt>
      <trkpt lat="46.5818" lon="4.44384">
        <ele>386.606</ele>
        <time>2020-06-14T06:54:24Z</time>
      </trkpt>
      <trkpt lat="46.58186" lon="4.44388">
        <ele>387.606</ele>
        <time>2020-06-14T06:54:29Z</time>
      </trkpt>
      <trkpt lat="46.58193" lon="4.44391">
        <ele>386.606</ele>
        <time>2020-06-14T06:54:40Z</time>
      </trkpt>
      <trkpt lat="46.582" lon="4.44395">
        <ele>385.606</ele>
        <time>2020-06-14T06:54:48Z</time>
      </trkpt>
      <trkpt lat="46.58206" lon="4.44401">
        <ele>385.606</ele>
        <time>2020-06-14T06:54:54Z</time>
      </trkpt>
      <trkpt lat="46.58211" lon="4.44408">
        <ele>386.606</ele>
        <time>2020-06-14T06:55:00Z</time>
      </trkpt>
      <trkpt lat="46.58217" lon="4.44413">
        <ele>386.606</ele>
        <time>2020-06-14T06:55:05Z</time>
      </trkpt>
      <trkpt lat="46.58223" lon="4.44417">
        <ele>385.606</ele>
        <time>2020-06-14T06:55:11Z</time>
      </trkpt>
      <trkpt lat="46.5823" lon="4.44419">
        <ele>385.606</ele>
        <time>2020-06-14T06:55:16Z</time>
      </trkpt>
      <trkpt lat="46.58234" lon="4.44429">
        <ele>384.606</ele>
        <time>2020-06-14T06:55:21Z</time>
      </trkpt>
      <trkpt lat="46.58241" lon="4.44434">
        <ele>384.606</ele>
        <time>2020-06-14T06:55:27Z</time>
      </trkpt>
      <trkpt lat="46.58248" lon="4.44437">
        <ele>384.606</ele>
        <time>2020-06-14T06:55:35Z</time>
      </trkpt>
      <trkpt lat="46.58253" lon="4.44442">
        <ele>384.606</ele>
        <time>2020-06-14T06:55:41Z</time>
      </trkpt>
      <trkpt lat="46.5826" lon="4.44449">
        <ele>386.606</ele>
        <time>2020-06-14T06:55:46Z</time>
      </trkpt>
      <trkpt lat="46.58266" lon="4.44451">
        <ele>389.606</ele>
        <time>2020-06-14T06:55:51Z</time>
      </trkpt>
      <trkpt lat="46.58273" lon="4.44455">
        <ele>394.606</ele>
        <time>2020-06-14T06:55:58Z</time>
      </trkpt>
      <trkpt lat="46.58279" lon="4.44461">
        <ele>400.606</ele>
        <time>2020-06-14T06:56:05Z</time>
      </trkpt>
      <trkpt lat="46.58284" lon="4.44469">
        <ele>399.606</ele>
        <time>2020-06-14T06:56:10Z</time>
      </trkpt>
      <trkpt lat="46.58292" lon="4.44472">
        <ele>402.606</ele>
        <time>2020-06-14T06:56:15Z</time>
      </trkpt>
      <trkpt lat="46.58299" lon="4.44475">
        <ele>402.606</ele>
        <time>2020-06-14T06:56:20Z</time>
      </trkpt>
      <trkpt lat="46.58307" lon="4.44475">
        <ele>402.606</ele>
        <time>2020-06-14T06:56:27Z</time>
      </trkpt>
      <trkpt lat="46.58313" lon="4.44476">
        <ele>402.606</ele>
        <time>2020-06-14T06:56:32Z</time>
      </trkpt>
      <trkpt lat="46.58321" lon="4.44472">
        <ele>400.606</ele>
        <time>2020-06-14T06:56:38Z</time>
      </trkpt>
      <trkpt lat="46.58328" lon="4.44472">
        <ele>402.606</ele>
        <time>2020-06-14T06:56:45Z</time>
      </trkpt>
      <trkpt lat="46.58335" lon="4.44473">
        <ele>402.607</ele>
        <time>2020-06-14T06:56:50Z</time>
      </trkpt>
      <trkpt lat="46.5834" lon="4.44466">
        <ele>399.607</ele>
        <time>2020-06-14T06:56:55Z</time>
      </trkpt>
      <trkpt lat="46.58346" lon="4.44468">
        <ele>400.607</ele>
        <time>2020-06-14T06:57:00Z</time>
      </trkpt>
      <trkpt lat="46.58352" lon="4.44474">
        <ele>400.607</ele>
        <time>2020-06-14T06:57:06Z</time>
      </trkpt>
      <trkpt lat="46.58358" lon="4.44483">
        <ele>402.607</ele>
        <time>2020-06-14T06:57:11Z</time>
      </trkpt>
      <trkpt lat="46.58364" lon="4.44492">
        <ele>404.607</ele>
        <time>2020-06-14T06:57:16Z</time>
      </trkpt>
      <trkpt lat="46.58369" lon="4.44501">
        <ele>405.607</ele>
        <time>2020-06-14T06:57:21Z</time>
      </trkpt>
      <trkpt lat="46.58375" lon="4.44509">
        <ele>403.607</ele>
        <time>2020-06-14T06:57:26Z</time>
      </trkpt>
      <trkpt lat="46.5838" lon="4.44517">
        <ele>402.607</ele>
        <time>2020-06-14T06:57:33Z</time>
      </trkpt>
      <trkpt lat="46.58382" lon="4.4453">
        <ele>404.607</ele>
        <time>2020-06-14T06:57:38Z</time>
      </trkpt>
      <trkpt lat="46.58388" lon="4.44534">
        <ele>395.607</ele>
        <time>2020-06-14T06:57:45Z</time>
      </trkpt>
      <trkpt lat="46.58392" lon="4.44542">
        <ele>395.607</ele>
        <time>2020-06-14T06:57:50Z</time>
      </trkpt>
      <trkpt lat="46.58397" lon="4.44548">
        <ele>396.607</ele>
        <time>2020-06-14T06:57:57Z</time>
      </trkpt>
      <trkpt lat="46.58402" lon="4.44555">
        <ele>397.607</ele>
        <time>2020-06-14T06:58:02Z</time>
      </trkpt>
      <trkpt lat="46.58406" lon="4.44565">
        <ele>399.607</ele>
        <time>2020-06-14T06:58:08Z</time>
      </trkpt>
      <trkpt lat="46.58411" lon="4.44573">
        <ele>400.607</ele>
        <time>2020-06-14T06:58:15Z</time>
      </trkpt>
      <trkpt lat="46.58418" lon="4.44577">
        <ele>397.607</ele>
        <time>2020-06-14T06:58:21Z</time>
      </trkpt>
      <trkpt lat="46.58422" lon="4.44585">
        <ele>399.607</ele>
        <time>2020-06-14T06:58:27Z</time>
      </trkpt>
      <trkpt lat="46.58428" lon="4.44592">
        <ele>401.607</ele>
        <time>2020-06-14T06:58:34Z</time>
      </trkpt>
      <trkpt lat="46.58435" lon="4.44596">
        <ele>404.607</ele>
        <time>2020-06-14T06:58:39Z</time>
      </trkpt>
      <trkpt lat="46.58438" lon="4.44606">
        <ele>405.607</ele>
        <time>2020-06-14T06:58:45Z</time>
      </trkpt>
      <trkpt lat="46.58443" lon="4.44612">
        <ele>406.607</ele>
        <time>2020-06-14T06:58:51Z</time>
      </trkpt>
      <trkpt lat="46.5845" lon="4.44616">
        <ele>407.607</ele>
        <time>2020-06-14T06:58:57Z</time>
      </trkpt>
      <trkpt lat="46.58457" lon="4.44621">
        <ele>409.607</ele>
        <time>2020-06-14T06:59:02Z</time>
      </trkpt>
      <trkpt lat="46.58463" lon="4.44625">
        <ele>410.607</ele>
        <time>2020-06-14T06:59:07Z</time>
      </trkpt>
      <trkpt lat="46.5847" lon="4.44625">
        <ele>410.607</ele>
        <time>2020-06-14T06:59:12Z</time>
      </trkpt>
      <trkpt lat="46.58477" lon="4.44625">
        <ele>407.607</ele>
        <time>2020-06-14T06:59:18Z</time>
      </trkpt>
      <trkpt lat="46.58485" lon="4.44627">
        <ele>409.607</ele>
        <time>2020-06-14T06:59:23Z</time>
      </trkpt>
      <trkpt lat="46.58492" lon="4.44629">
        <ele>411.607</ele>
        <time>2020-06-14T06:59:29Z</time>
      </trkpt>
      <trkpt lat="46.58499" lon="4.44632">
        <ele>411.607</ele>
        <time>2020-06-14T06:59:35Z</time>
      </trkpt>
      <trkpt lat="46.58506" lon="4.44635">
        <ele>411.607</ele>
        <time>2020-06-14T06:59:40Z</time>
      </trkpt>
      <trkpt lat="46.58513" lon="4.44638">
        <ele>410.607</ele>
        <time>2020-06-14T06:59:46Z</time>
      </trkpt>
      <trkpt lat="46.58519" lon="4.44642">
        <ele>411.607</ele>
        <time>2020-06-14T06:59:52Z</time>
      </trkpt>
      <trkpt lat="46.58526" lon="4.4464">
        <ele>412.607</ele>
        <time>2020-06-14T06:59:57Z</time>
      </trkpt>
      <trkpt lat="46.58533" lon="4.4464">
        <ele>411.607</ele>
        <time>2020-06-14T07:00:08Z</time>
      </trkpt>
      <trkpt lat="46.58541" lon="4.44641">
        <ele>414.607</ele>
        <time>2020-06-14T07:00:14Z</time>
      </trkpt>
      <trkpt lat="46.58548" lon="4.44642">
        <ele>413.607</ele>
        <time>2020-06-14T07:00:19Z</time>
      </trkpt>
      <trkpt lat="46.58555" lon="4.44643">
        <ele>412.607</ele>
        <time>2020-06-14T07:00:25Z</time>
      </trkpt>
      <trkpt lat="46.58562" lon="4.44643">
        <ele>412.607</ele>
        <time>2020-06-14T07:00:30Z</time>
      </trkpt>
      <trkpt lat="46.58569" lon="4.44647">
        <ele>411.607</ele>
        <time>2020-06-14T07:00:38Z</time>
      </trkpt>
      <trkpt lat="46.58576" lon="4.44651">
        <ele>414.607</ele>
        <time>2020-06-14T07:00:43Z</time>
      </trkpt>
      <trkpt lat="46.58584" lon="4.44651">
        <ele>412.607</ele>
        <time>2020-06-14T07:00:48Z</time>
      </trkpt>
      <trkpt lat="46.5859" lon="4.44654">
        <ele>413.607</ele>
        <time>2020-06-14T07:00:53Z</time>
      </trkpt>
      <trkpt lat="46.58598" lon="4.44659">
        <ele>413.607</ele>
        <time>2020-06-14T07:00:58Z</time>
      </trkpt>
      <trkpt lat="46.58605" lon="4.4466">
        <ele>412.607</ele>
        <time>2020-06-14T07:01:03Z</time>
      </trkpt>
      <trkpt lat="46.58611" lon="4.44663">
        <ele>412.607</ele>
        <time>2020-06-14T07:01:08Z</time>
      </trkpt>
      <trkpt lat="46.5862" lon="4.44663">
        <ele>409.607</ele>
        <time>2020-06-14T07:01:13Z</time>
      </trkpt>
      <trkpt lat="46.58628" lon="4.44664">
        <ele>407.607</ele>
        <time>2020-06-14T07:01:18Z</time>
      </trkpt>
      <trkpt lat="46.58636" lon="4.44667">
        <ele>409.607</ele>
        <time>2020-06-14T07:01:23Z</time>
      </trkpt>
      <trkpt lat="46.58643" lon="4.4467">
        <ele>411.608</ele>
        <time>2020-06-14T07:01:31Z</time>
      </trkpt>
      <trkpt lat="46.58649" lon="4.44672">
        <ele>413.608</ele>
        <time>2020-06-14T07:01:36Z</time>
      </trkpt>
      <trkpt lat="46.58656" lon="4.44668">
        <ele>410.608</ele>
        <time>2020-06-14T07:01:42Z</time>
      </trkpt>
      <trkpt lat="46.58664" lon="4.44667">
        <ele>410.608</ele>
        <time>2020-06-14T07:01:48Z</time>
      </trkpt>
      <trkpt lat="46.58671" lon="4.44671">
        <ele>411.608</ele>
        <time>2020-06-14T07:01:53Z</time>
      </trkpt>
      <trkpt lat="46.58678" lon="4.44672">
        <ele>410.608</ele>
        <time>2020-06-14T07:01:59Z</time>
      </trkpt>
      <trkpt lat="46.58685" lon="4.44676">
        <ele>415.608</ele>
        <time>2020-06-14T07:02:05Z</time>
      </trkpt>
      <trkpt lat="46.58691" lon="4.44677">
        <ele>415.608</ele>
        <time>2020-06-14T07:02:11Z</time>
      </trkpt>
      <trkpt lat="46.58698" lon="4.44681">
        <ele>415.608</ele>
        <time>2020-06-14T07:02:16Z</time>
      </trkpt>
      <trkpt lat="46.58706" lon="4.44683">
        <ele>413.608</ele>
        <time>2020-06-14T07:02:24Z</time>
      </trkpt>
      <trkpt lat="46.58713" lon="4.44684">
        <ele>413.608</ele>
        <time>2020-06-14T07:02:30Z</time>
      </trkpt>
      <trkpt lat="46.5872" lon="4.44688">
        <ele>411.608</ele>
        <time>2020-06-14T07:02:35Z</time>
      </trkpt>
      <trkpt lat="46.5873" lon="4.44691">
        <ele>412.608</ele>
        <time>2020-06-14T07:02:40Z</time>
      </trkpt>
      <trkpt lat="46.58737" lon="4.44689">
        <ele>412.608</ele>
        <time>2020-06-14T07:02:45Z</time>
      </trkpt>
      <trkpt lat="46.58744" lon="4.44687">
        <ele>407.608</ele>
        <time>2020-06-14T07:02:52Z</time>
      </trkpt>
      <trkpt lat="46.58751" lon="4.44684">
        <ele>409.608</ele>
        <time>2020-06-14T07:02:57Z</time>
      </trkpt>
      <trkpt lat="46.58759" lon="4.44682">
        <ele>409.608</ele>
        <time>2020-06-14T07:03:04Z</time>
      </trkpt>
      <trkpt lat="46.58767" lon="4.44681">
        <ele>410.608</ele>
        <time>2020-06-14T07:03:09Z</time>
      </trkpt>
      <trkpt lat="46.58776" lon="4.44679">
        <ele>414.608</ele>
        <time>2020-06-14T07:03:14Z</time>
      </trkpt>
      <trkpt lat="46.58782" lon="4.44674">
        <ele>409.608</ele>
        <time>2020-06-14T07:03:19Z</time>
      </trkpt>
      <trkpt lat="46.58789" lon="4.44672">
        <ele>411.608</ele>
        <time>2020-06-14T07:03:24Z</time>
      </trkpt>
      <trkpt lat="46.58796" lon="4.4467">
        <ele>410.608</ele>
        <time>2020-06-14T07:03:29Z</time>
      </trkpt>
      <trkpt lat="46.58803" lon="4.44666">
        <ele>412.608</ele>
        <time>2020-06-14T07:03:34Z</time>
      </trkpt>
      <trkpt lat="46.58811" lon="4.44662">
        <ele>413.608</ele>
        <time>2020-06-14T07:03:40Z</time>
      </trkpt>
      <trkpt lat="46.58822" lon="4.44658">
        <ele>413.608</ele>
        <time>2020-06-14T07:03:45Z</time>
      </trkpt>
      <trkpt lat="46.58829" lon="4.44655">
        <ele>414.608</ele>
        <time>2020-06-14T07:03:51Z</time>
      </trkpt>
      <trkpt lat="46.58837" lon="4.44653">
        <ele>415.608</ele>
        <time>2020-06-14T07:03:56Z</time>
      </trkpt>
      <trkpt lat="46.58842" lon="4.44648">
        <ele>414.608</ele>
        <time>2020-06-14T07:04:01Z</time>
      </trkpt>
      <trkpt lat="46.5885" lon="4.44642">
        <ele>412.608</ele>
        <time>2020-06-14T07:04:06Z</time>
      </trkpt>
      <trkpt lat="46.58856" lon="4.44641">
        <ele>415.608</ele>
        <time>2020-06-14T07:04:12Z</time>
      </trkpt>
      <trkpt lat="46.58864" lon="4.44642">
        <ele>416.608</ele>
        <time>2020-06-14T07:04:17Z</time>
      </trkpt>
      <trkpt lat="46.58872" lon="4.4464">
        <ele>417.608</ele>
        <time>2020-06-14T07:04:23Z</time>
      </trkpt>
      <trkpt lat="46.5888" lon="4.44638">
        <ele>417.608</ele>
        <time>2020-06-14T07:04:29Z</time>
      </trkpt>
      <trkpt lat="46.58887" lon="4.44637">
        <ele>416.608</ele>
        <time>2020-06-14T07:04:34Z</time>
      </trkpt>
      <trkpt lat="46.58895" lon="4.44638">
        <ele>415.608</ele>
        <time>2020-06-14T07:04:40Z</time>
      </trkpt>
      <trkpt lat="46.58902" lon="4.44637">
        <ele>414.608</ele>
        <time>2020-06-14T07:04:45Z</time>
      </trkpt>
      <trkpt lat="46.58908" lon="4.44639">
        <ele>413.608</ele>
        <time>2020-06-14T07:04:50Z</time>
      </trkpt>
      <trkpt lat="46.58916" lon="4.4464">
        <ele>413.608</ele>
        <time>2020-06-14T07:04:55Z</time>
      </trkpt>
      <trkpt lat="46.58923" lon="4.44643">
        <ele>413.608</ele>
        <time>2020-06-14T07:05:01Z</time>
      </trkpt>
      <trkpt lat="46.58933" lon="4.44644">
        <ele>412.608</ele>
        <time>2020-06-14T07:05:06Z</time>
      </trkpt>
      <trkpt lat="46.58941" lon="4.44644">
        <ele>410.608</ele>
        <time>2020-06-14T07:05:11Z</time>
      </trkpt>
      <trkpt lat="46.58947" lon="4.44646">
        <ele>409.608</ele>
        <time>2020-06-14T07:05:16Z</time>
      </trkpt>
      <trkpt lat="46.58955" lon="4.44647">
        <ele>410.608</ele>
        <time>2020-06-14T07:05:21Z</time>
      </trkpt>
      <trkpt lat="46.58962" lon="4.44649">
        <ele>410.608</ele>
        <time>2020-06-14T07:05:26Z</time>
      </trkpt>
      <trkpt lat="46.58968" lon="4.44654">
        <ele>415.608</ele>
        <time>2020-06-14T07:05:31Z</time>
      </trkpt>
      <trkpt lat="46.58975" lon="4.44656">
        <ele>417.608</ele>
        <time>2020-06-14T07:05:37Z</time>
      </trkpt>
      <trkpt lat="46.58982" lon="4.44655">
        <ele>417.608</ele>
        <time>2020-06-14T07:05:43Z</time>
      </trkpt>
      <trkpt lat="46.5899" lon="4.44651">
        <ele>417.608</ele>
        <time>2020-06-14T07:05:48Z</time>
      </trkpt>
      <trkpt lat="46.58996" lon="4.4465">
        <ele>419.608</ele>
        <time>2020-06-14T07:05:54Z</time>
      </trkpt>
      <trkpt lat="46.59004" lon="4.44646">
        <ele>414.608</ele>
        <time>2020-06-14T07:06:00Z</time>
      </trkpt>
      <trkpt lat="46.5901" lon="4.44643">
        <ele>412.609</ele>
        <time>2020-06-14T07:06:06Z</time>
      </trkpt>
      <trkpt lat="46.59017" lon="4.44642">
        <ele>411.609</ele>
        <time>2020-06-14T07:06:12Z</time>
      </trkpt>
      <trkpt lat="46.59025" lon="4.4464">
        <ele>411.609</ele>
        <time>2020-06-14T07:06:17Z</time>
      </trkpt>
      <trkpt lat="46.59033" lon="4.44642">
        <ele>410.609</ele>
        <time>2020-06-14T07:06:23Z</time>
      </trkpt>
      <trkpt lat="46.5904" lon="4.44641">
        <ele>410.609</ele>
        <time>2020-06-14T07:06:29Z</time>
      </trkpt>
      <trkpt lat="46.59048" lon="4.44641">
        <ele>409.609</ele>
        <time>2020-06-14T07:06:34Z</time>
      </trkpt>
      <trkpt lat="46.59055" lon="4.4464">
        <ele>406.609</ele>
        <time>2020-06-14T07:06:40Z</time>
      </trkpt>
      <trkpt lat="46.59061" lon="4.44637">
        <ele>405.609</ele>
        <time>2020-06-14T07:06:45Z</time>
      </trkpt>
      <trkpt lat="46.59069" lon="4.44638">
        <ele>409.609</ele>
        <time>2020-06-14T07:06:50Z</time>
      </trkpt>
      <trkpt lat="46.59075" lon="4.44642">
        <ele>413.609</ele>
        <time>2020-06-14T07:06:55Z</time>
      </trkpt>
      <trkpt lat="46.59082" lon="4.44638">
        <ele>416.609</ele>
        <time>2020-06-14T07:07:00Z</time>
      </trkpt>
      <trkpt lat="46.5909" lon="4.44636">
        <ele>418.609</ele>
        <time>2020-06-14T07:07:05Z</time>
      </trkpt>
      <trkpt lat="46.59096" lon="4.44633">
        <ele>420.609</ele>
        <time>2020-06-14T07:07:11Z</time>
      </trkpt>
      <trkpt lat="46.59103" lon="4.44629">
        <ele>417.609</ele>
        <time>2020-06-14T07:07:17Z</time>
      </trkpt>
      <trkpt lat="46.5911" lon="4.44628">
        <ele>419.609</ele>
        <time>2020-06-14T07:07:22Z</time>
      </trkpt>
      <trkpt lat="46.59118" lon="4.44627">
        <ele>420.609</ele>
        <time>2020-06-14T07:07:27Z</time>
      </trkpt>
      <trkpt lat="46.59126" lon="4.44624">
        <ele>420.609</ele>
        <time>2020-06-14T07:07:32Z</time>
      </trkpt>
      <trkpt lat="46.59133" lon="4.44621">
        <ele>419.609</ele>
        <time>2020-06-14T07:07:39Z</time>
      </trkpt>
      <trkpt lat="46.5914" lon="4.4462">
        <ele>419.609</ele>
        <time>2020-06-14T07:07:46Z</time>
      </trkpt>
      <trkpt lat="46.59148" lon="4.44616">
        <ele>418.609</ele>
        <time>2020-06-14T07:07:51Z</time>
      </trkpt>
      <trkpt lat="46.59155" lon="4.44616">
        <ele>419.609</ele>
        <time>2020-06-14T07:07:56Z</time>
      </trkpt>
      <trkpt lat="46.59161" lon="4.44615">
        <ele>415.609</ele>
        <time>2020-06-14T07:08:01Z</time>
      </trkpt>
      <trkpt lat="46.59168" lon="4.44608">
        <ele>415.609</ele>
        <time>2020-06-14T07:08:07Z</time>
      </trkpt>
      <trkpt lat="46.59175" lon="4.44608">
        <ele>416.609</ele>
        <time>2020-06-14T07:08:12Z</time>
      </trkpt>
      <trkpt lat="46.59182" lon="4.44605">
        <ele>418.609</ele>
        <time>2020-06-14T07:08:18Z</time>
      </trkpt>
      <trkpt lat="46.5919" lon="4.44606">
        <ele>417.609</ele>
        <time>2020-06-14T07:08:24Z</time>
      </trkpt>
      <trkpt lat="46.59197" lon="4.44605">
        <ele>416.609</ele>
        <time>2020-06-14T07:08:29Z</time>
      </trkpt>
      <trkpt lat="46.59205" lon="4.44606">
        <ele>416.609</ele>
        <time>2020-06-14T07:08:36Z</time>
      </trkpt>
      <trkpt lat="46.59212" lon="4.44609">
        <ele>415.609</ele>
        <time>2020-06-14T07:08:43Z</time>
      </trkpt>
      <trkpt lat="46.59219" lon="4.44612">
        <ele>416.609</ele>
        <time>2020-06-14T07:08:48Z</time>
      </trkpt>
      <trkpt lat="46.59227" lon="4.44618">
        <ele>417.609</ele>
        <time>2020-06-14T07:08:54Z</time>
      </trkpt>
      <trkpt lat="46.59234" lon="4.44611">
        <ele>413.609</ele>
        <time>2020-06-14T07:08:59Z</time>
      </trkpt>
      <trkpt lat="46.59241" lon="4.44611">
        <ele>412.609</ele>
        <time>2020-06-14T07:09:04Z</time>
      </trkpt>
      <trkpt lat="46.59248" lon="4.44613">
        <ele>414.609</ele>
        <time>2020-06-14T07:09:09Z</time>
      </trkpt>
      <trkpt lat="46.59254" lon="4.44615">
        <ele>416.609</ele>
        <time>2020-06-14T07:09:15Z</time>
      </trkpt>
      <trkpt lat="46.59261" lon="4.44618">
        <ele>416.609</ele>
        <time>2020-06-14T07:09:20Z</time>
      </trkpt>
      <trkpt lat="46.59268" lon="4.44622">
        <ele>412.609</ele>
        <time>2020-06-14T07:09:39Z</time>
      </trkpt>
      <trkpt lat="46.59275" lon="4.44629">
        <ele>414.609</ele>
        <time>2020-06-14T07:09:44Z</time>
      </trkpt>
      <trkpt lat="46.59282" lon="4.44633">
        <ele>410.609</ele>
        <time>2020-06-14T07:09:49Z</time>
      </trkpt>
      <trkpt lat="46.59288" lon="4.44639">
        <ele>411.609</ele>
        <time>2020-06-14T07:09:54Z</time>
      </trkpt>
      <trkpt lat="46.59295" lon="4.44642">
        <ele>411.609</ele>
        <time>2020-06-14T07:10:01Z</time>
      </trkpt>
      <trkpt lat="46.59304" lon="4.44646">
        <ele>409.609</ele>
        <time>2020-06-14T07:10:06Z</time>
      </trkpt>
      <trkpt lat="46.59309" lon="4.44653">
        <ele>407.609</ele>
        <time>2020-06-14T07:10:11Z</time>
      </trkpt>
      <trkpt lat="46.59315" lon="4.44657">
        <ele>405.609</ele>
        <time>2020-06-14T07:10:16Z</time>
      </trkpt>
      <trkpt lat="46.59321" lon="4.44662">
        <ele>408.609</ele>
        <time>2020-06-14T07:10:21Z</time>
      </trkpt>
      <trkpt lat="46.59328" lon="4.44668">
        <ele>411.609</ele>
        <time>2020-06-14T07:10:26Z</time>
      </trkpt>
      <trkpt lat="46.59335" lon="4.44673">
        <ele>413.609</ele>
        <time>2020-06-14T07:10:31Z</time>
      </trkpt>
      <trkpt lat="46.59342" lon="4.44677">
        <ele>412.609</ele>
        <time>2020-06-14T07:10:37Z</time>
      </trkpt>
      <trkpt lat="46.59347" lon="4.44683">
        <ele>410.609</ele>
        <time>2020-06-14T07:10:42Z</time>
      </trkpt>
      <trkpt lat="46.59353" lon="4.44686">
        <ele>410.609</ele>
        <time>2020-06-14T07:10:48Z</time>
      </trkpt>
      <trkpt lat="46.59361" lon="4.44689">
        <ele>409.61</ele>
        <time>2020-06-14T07:10:55Z</time>
      </trkpt>
      <trkpt lat="46.59369" lon="4.44693">
        <ele>407.61</ele>
        <time>2020-06-14T07:11:00Z</time>
      </trkpt>
      <trkpt lat="46.59377" lon="4.44696">
        <ele>406.61</ele>
        <time>2020-06-14T07:11:10Z</time>
      </trkpt>
      <trkpt lat="46.59384" lon="4.44702">
        <ele>411.61</ele>
        <time>2020-06-14T07:11:17Z</time>
      </trkpt>
      <trkpt lat="46.5939" lon="4.44708">
        <ele>409.61</ele>
        <time>2020-06-14T07:11:22Z</time>
      </trkpt>
      <trkpt lat="46.59397" lon="4.44707">
        <ele>411.61</ele>
        <time>2020-06-14T07:11:29Z</time>
      </trkpt>
      <trkpt lat="46.59405" lon="4.44704">
        <ele>411.61</ele>
        <time>2020-06-14T07:11:35Z</time>
      </trkpt>
      <trkpt lat="46.59411" lon="4.44705">
        <ele>413.61</ele>
        <time>2020-06-14T07:11:46Z</time>
      </trkpt>
      <trkpt lat="46.59418" lon="4.44703">
        <ele>412.61</ele>
        <time>2020-06-14T07:11:52Z</time>
      </trkpt>
      <trkpt lat="46.59426" lon="4.44702">
        <ele>412.61</ele>
        <time>2020-06-14T07:12:00Z</time>
      </trkpt>
      <trkpt lat="46.59434" lon="4.44701">
        <ele>415.61</ele>
        <time>2020-06-14T07:12:05Z</time>
      </trkpt>
      <trkpt lat="46.59441" lon="4.44699">
        <ele>414.61</ele>
        <time>2020-06-14T07:12:10Z</time>
      </trkpt>
      <trkpt lat="46.5945" lon="4.44698">
        <ele>415.61</ele>
        <time>2020-06-14T07:12:15Z</time>
      </trkpt>
      <trkpt lat="46.59458" lon="4.44699">
        <ele>414.61</ele>
        <time>2020-06-14T07:12:20Z</time>
      </trkpt>
      <trkpt lat="46.59464" lon="4.44701">
        <ele>417.61</ele>
        <time>2020-06-14T07:12:26Z</time>
      </trkpt>
      <trkpt lat="46.59474" lon="4.44702">
        <ele>416.61</ele>
        <time>2020-06-14T07:12:31Z</time>
      </trkpt>
      <trkpt lat="46.59483" lon="4.44704">
        <ele>417.61</ele>
        <time>2020-06-14T07:12:36Z</time>
      </trkpt>
      <trkpt lat="46.5949" lon="4.44708">
        <ele>416.61</ele>
        <time>2020-06-14T07:12:44Z</time>
      </trkpt>
      <trkpt lat="46.59497" lon="4.44711">
        <ele>415.61</ele>
        <time>2020-06-14T07:12:50Z</time>
      </trkpt>
      <trkpt lat="46.59505" lon="4.44715">
        <ele>416.61</ele>
        <time>2020-06-14T07:12:59Z</time>
      </trkpt>
      <trkpt lat="46.59514" lon="4.44715">
        <ele>415.61</ele>
        <time>2020-06-14T07:13:04Z</time>
      </trkpt>
      <trkpt lat="46.59521" lon="4.44714">
        <ele>416.61</ele>
        <time>2020-06-14T07:13:09Z</time>
      </trkpt>
      <trkpt lat="46.59528" lon="4.44716">
        <ele>414.61</ele>
        <time>2020-06-14T07:13:15Z</time>
      </trkpt>
      <trkpt lat="46.59535" lon="4.44718">
        <ele>413.61</ele>
        <time>2020-06-14T07:13:20Z</time>
      </trkpt>
      <trkpt lat="46.59542" lon="4.44721">
        <ele>413.61</ele>
        <time>2020-06-14T07:13:27Z</time>
      </trkpt>
      <trkpt lat="46.59548" lon="4.4472">
        <ele>412.61</ele>
        <time>2020-06-14T07:13:32Z</time>
      </trkpt>
      <trkpt lat="46.59555" lon="4.44724">
        <ele>416.61</ele>
        <time>2020-06-14T07:13:38Z</time>
      </trkpt>
      <trkpt lat="46.59562" lon="4.44725">
        <ele>417.61</ele>
        <time>2020-06-14T07:13:44Z</time>
      </trkpt>
      <trkpt lat="46.59568" lon="4.44729">
        <ele>420.61</ele>
        <time>2020-06-14T07:13:50Z</time>
      </trkpt>
      <trkpt lat="46.59575" lon="4.44728">
        <ele>420.61</ele>
        <time>2020-06-14T07:14:01Z</time>
      </trkpt>
      <trkpt lat="46.59583" lon="4.44731">
        <ele>419.61</ele>
        <time>2020-06-14T07:14:08Z</time>
      </trkpt>
      <trkpt lat="46.59591" lon="4.44734">
        <ele>414.61</ele>
        <time>2020-06-14T07:14:15Z</time>
      </trkpt>
      <trkpt lat="46.59598" lon="4.44738">
        <ele>414.61</ele>
        <time>2020-06-14T07:14:22Z</time>
      </trkpt>
      <trkpt lat="46.59604" lon="4.44742">
        <ele>416.61</ele>
        <time>2020-06-14T07:14:33Z</time>
      </trkpt>
      <trkpt lat="46.59613" lon="4.44745">
        <ele>417.61</ele>
        <time>2020-06-14T07:14:38Z</time>
      </trkpt>
      <trkpt lat="46.59625" lon="4.4475">
        <ele>420.61</ele>
        <time>2020-06-14T07:14:43Z</time>
      </trkpt>
      <trkpt lat="46.59636" lon="4.44755">
        <ele>423.61</ele>
        <time>2020-06-14T07:14:48Z</time>
      </trkpt>
      <trkpt lat="46.59644" lon="4.44763">
        <ele>424.61</ele>
        <time>2020-06-14T07:14:53Z</time>
      </trkpt>
      <trkpt lat="46.59651" lon="4.44769">
        <ele>427.61</ele>
        <time>2020-06-14T07:14:58Z</time>
      </trkpt>
      <trkpt lat="46.59658" lon="4.44778">
        <ele>428.61</ele>
        <time>2020-06-14T07:15:03Z</time>
      </trkpt>
      <trkpt lat="46.59664" lon="4.44783">
        <ele>429.61</ele>
        <time>2020-06-14T07:15:08Z</time>
      </trkpt>
      <trkpt lat="46.5967" lon="4.44788">
        <ele>431.61</ele>
        <time>2020-06-14T07:15:13Z</time>
      </trkpt>
      <trkpt lat="46.59677" lon="4.44792">
        <ele>430.61</ele>
        <time>2020-06-14T07:15:18Z</time>
      </trkpt>
      <trkpt lat="46.59684" lon="4.44793">
        <ele>430.61</ele>
        <time>2020-06-14T07:15:23Z</time>
      </trkpt>
      <trkpt lat="46.5969" lon="4.44795">
        <ele>433.61</ele>
        <time>2020-06-14T07:15:28Z</time>
      </trkpt>
      <trkpt lat="46.59696" lon="4.44802">
        <ele>433.611</ele>
        <time>2020-06-14T07:15:33Z</time>
      </trkpt>
      <trkpt lat="46.59702" lon="4.44808">
        <ele>431.611</ele>
        <time>2020-06-14T07:15:39Z</time>
      </trkpt>
      <trkpt lat="46.59709" lon="4.44809">
        <ele>430.611</ele>
        <time>2020-06-14T07:15:45Z</time>
      </trkpt>
      <trkpt lat="46.59716" lon="4.44815">
        <ele>431.611</ele>
        <time>2020-06-14T07:15:50Z</time>
      </trkpt>
      <trkpt lat="46.59722" lon="4.44816">
        <ele>432.611</ele>
        <time>2020-06-14T07:15:56Z</time>
      </trkpt>
      <trkpt lat="46.59728" lon="4.44825">
        <ele>432.611</ele>
        <time>2020-06-14T07:16:02Z</time>
      </trkpt>
      <trkpt lat="46.59735" lon="4.4483">
        <ele>433.611</ele>
        <time>2020-06-14T07:16:07Z</time>
      </trkpt>
      <trkpt lat="46.59742" lon="4.44833">
        <ele>434.611</ele>
        <time>2020-06-14T07:16:12Z</time>
      </trkpt>
      <trkpt lat="46.59748" lon="4.44838">
        <ele>434.611</ele>
        <time>2020-06-14T07:16:17Z</time>
      </trkpt>
      <trkpt lat="46.59756" lon="4.44829">
        <ele>431.611</ele>
        <time>2020-06-14T07:16:23Z</time>
      </trkpt>
      <trkpt lat="46.59762" lon="4.44833">
        <ele>424.611</ele>
        <time>2020-06-14T07:16:29Z</time>
      </trkpt>
      <trkpt lat="46.59768" lon="4.44839">
        <ele>425.611</ele>
        <time>2020-06-14T07:16:34Z</time>
      </trkpt>
      <trkpt lat="46.59776" lon="4.44841">
        <ele>424.611</ele>
        <time>2020-06-14T07:16:40Z</time>
      </trkpt>
      <trkpt lat="46.59783" lon="4.44845">
        <ele>424.611</ele>
        <time>2020-06-14T07:16:46Z</time>
      </trkpt>
      <trkpt lat="46.5979" lon="4.44849">
        <ele>426.611</ele>
        <time>2020-06-14T07:16:51Z</time>
      </trkpt>
      <trkpt lat="46.59797" lon="4.44854">
        <ele>427.611</ele>
        <time>2020-06-14T07:16:56Z</time>
      </trkpt>
      <trkpt lat="46.59803" lon="4.44858">
        <ele>427.611</ele>
        <time>2020-06-14T07:17:01Z</time>
      </trkpt>
      <trkpt lat="46.5981" lon="4.44859">
        <ele>427.611</ele>
        <time>2020-06-14T07:17:06Z</time>
      </trkpt>
      <trkpt lat="46.59818" lon="4.44861">
        <ele>427.611</ele>
        <time>2020-06-14T07:17:12Z</time>
      </trkpt>
      <trkpt lat="46.59825" lon="4.44862">
        <ele>426.611</ele>
        <time>2020-06-14T07:17:17Z</time>
      </trkpt>
      <trkpt lat="46.59832" lon="4.44864">
        <ele>423.611</ele>
        <time>2020-06-14T07:17:24Z</time>
      </trkpt>
      <trkpt lat="46.59839" lon="4.44868">
        <ele>426.611</ele>
        <time>2020-06-14T07:17:29Z</time>
      </trkpt>
      <trkpt lat="46.59845" lon="4.44871">
        <ele>428.611</ele>
        <time>2020-06-14T07:17:34Z</time>
      </trkpt>
      <trkpt lat="46.59851" lon="4.44878">
        <ele>426.611</ele>
        <time>2020-06-14T07:17:39Z</time>
      </trkpt>
      <trkpt lat="46.59859" lon="4.44879">
        <ele>426.611</ele>
        <time>2020-06-14T07:17:44Z</time>
      </trkpt>
      <trkpt lat="46.59866" lon="4.44878">
        <ele>427.611</ele>
        <time>2020-06-14T07:17:49Z</time>
      </trkpt>
      <trkpt lat="46.59872" lon="4.44884">
        <ele>426.611</ele>
        <time>2020-06-14T07:17:54Z</time>
      </trkpt>
      <trkpt lat="46.59877" lon="4.4489">
        <ele>424.611</ele>
        <time>2020-06-14T07:18:00Z</time>
      </trkpt>
      <trkpt lat="46.59885" lon="4.44888">
        <ele>423.611</ele>
        <time>2020-06-14T07:18:05Z</time>
      </trkpt>
      <trkpt lat="46.59892" lon="4.44891">
        <ele>423.611</ele>
        <time>2020-06-14T07:18:10Z</time>
      </trkpt>
      <trkpt lat="46.59897" lon="4.44902">
        <ele>424.611</ele>
        <time>2020-06-14T07:18:15Z</time>
      </trkpt>
      <trkpt lat="46.59904" lon="4.44905">
        <ele>419.611</ele>
        <time>2020-06-14T07:18:21Z</time>
      </trkpt>
      <trkpt lat="46.59912" lon="4.44906">
        <ele>422.611</ele>
        <time>2020-06-14T07:18:26Z</time>
      </trkpt>
      <trkpt lat="46.59917" lon="4.44914">
        <ele>423.611</ele>
        <time>2020-06-14T07:18:32Z</time>
      </trkpt>
      <trkpt lat="46.59925" lon="4.44919">
        <ele>423.611</ele>
        <time>2020-06-14T07:18:37Z</time>
      </trkpt>
      <trkpt lat="46.59931" lon="4.44914">
        <ele>418.611</ele>
        <time>2020-06-14T07:18:43Z</time>
      </trkpt>
      <trkpt lat="46.59937" lon="4.44917">
        <ele>417.611</ele>
        <time>2020-06-14T07:18:48Z</time>
      </trkpt>
      <trkpt lat="46.59943" lon="4.44923">
        <ele>415.611</ele>
        <time>2020-06-14T07:18:53Z</time>
      </trkpt>
      <trkpt lat="46.59949" lon="4.44929">
        <ele>413.611</ele>
        <time>2020-06-14T07:19:00Z</time>
      </trkpt>
      <trkpt lat="46.59955" lon="4.44934">
        <ele>414.611</ele>
        <time>2020-06-14T07:19:07Z</time>
      </trkpt>
      <trkpt lat="46.59962" lon="4.44939">
        <ele>414.611</ele>
        <time>2020-06-14T07:19:15Z</time>
      </trkpt>
      <trkpt lat="46.59968" lon="4.44945">
        <ele>414.611</ele>
        <time>2020-06-14T07:19:22Z</time>
      </trkpt>
      <trkpt lat="46.59976" lon="4.44945">
        <ele>413.611</ele>
        <time>2020-06-14T07:19:28Z</time>
      </trkpt>
      <trkpt lat="46.59982" lon="4.44943">
        <ele>408.611</ele>
        <time>2020-06-14T07:19:33Z</time>
      </trkpt>
      <trkpt lat="46.5999" lon="4.44944">
        <ele>411.611</ele>
        <time>2020-06-14T07:19:42Z</time>
      </trkpt>
      <trkpt lat="46.59996" lon="4.44953">
        <ele>413.611</ele>
        <time>2020-06-14T07:19:47Z</time>
      </trkpt>
      <trkpt lat="46.60005" lon="4.44955">
        <ele>414.611</ele>
        <time>2020-06-14T07:19:52Z</time>
      </trkpt>
      <trkpt lat="46.60012" lon="4.4496">
        <ele>414.612</ele>
        <time>2020-06-14T07:19:58Z</time>
      </trkpt>
      <trkpt lat="46.60019" lon="4.44964">
        <ele>413.612</ele>
        <time>2020-06-14T07:20:03Z</time>
      </trkpt>
      <trkpt lat="46.60026" lon="4.4497">
        <ele>411.612</ele>
        <time>2020-06-14T07:20:10Z</time>
      </trkpt>
      <trkpt lat="46.60032" lon="4.44975">
        <ele>412.612</ele>
        <time>2020-06-14T07:20:16Z</time>
      </trkpt>
      <trkpt lat="46.60039" lon="4.44977">
        <ele>412.612</ele>
        <time>2020-06-14T07:20:21Z</time>
      </trkpt>
      <trkpt lat="46.60047" lon="4.44979">
        <ele>413.612</ele>
        <time>2020-06-14T07:20:30Z</time>
      </trkpt>
      <trkpt lat="46.60052" lon="4.44985">
        <ele>413.612</ele>
        <time>2020-06-14T07:20:37Z</time>
      </trkpt>
      <trkpt lat="46.6006" lon="4.44991">
        <ele>411.612</ele>
        <time>2020-06-14T07:20:42Z</time>
      </trkpt>
      <trkpt lat="46.60067" lon="4.44995">
        <ele>413.612</ele>
        <time>2020-06-14T07:20:48Z</time>
      </trkpt>
      <trkpt lat="46.60075" lon="4.44999">
        <ele>415.612</ele>
        <time>2020-06-14T07:20:53Z</time>
      </trkpt>
      <trkpt lat="46.6008" lon="4.45005">
        <ele>417.612</ele>
        <time>2020-06-14T07:20:59Z</time>
      </trkpt>
      <trkpt lat="46.60087" lon="4.45007">
        <ele>420.612</ele>
        <time>2020-06-14T07:21:04Z</time>
      </trkpt>
      <trkpt lat="46.60094" lon="4.4501">
        <ele>421.612</ele>
        <time>2020-06-14T07:21:11Z</time>
      </trkpt>
      <trkpt lat="46.60101" lon="4.45016">
        <ele>422.612</ele>
        <time>2020-06-14T07:21:16Z</time>
      </trkpt>
      <trkpt lat="46.60108" lon="4.45017">
        <ele>421.612</ele>
        <time>2020-06-14T07:21:22Z</time>
      </trkpt>
      <trkpt lat="46.60115" lon="4.45022">
        <ele>421.612</ele>
        <time>2020-06-14T07:21:27Z</time>
      </trkpt>
      <trkpt lat="46.60121" lon="4.45028">
        <ele>424.612</ele>
        <time>2020-06-14T07:21:32Z</time>
      </trkpt>
      <trkpt lat="46.60128" lon="4.45031">
        <ele>423.612</ele>
        <time>2020-06-14T07:21:37Z</time>
      </trkpt>
      <trkpt lat="46.60135" lon="4.45032">
        <ele>422.612</ele>
        <time>2020-06-14T07:21:42Z</time>
      </trkpt>
      <trkpt lat="46.6014" lon="4.45037">
        <ele>423.612</ele>
        <time>2020-06-14T07:21:47Z</time>
      </trkpt>
      <trkpt lat="46.60146" lon="4.45044">
        <ele>421.612</ele>
        <time>2020-06-14T07:21:53Z</time>
      </trkpt>
      <trkpt lat="46.60151" lon="4.45053">
        <ele>423.612</ele>
        <time>2020-06-14T07:21:58Z</time>
      </trkpt>
      <trkpt lat="46.60155" lon="4.45061">
        <ele>423.612</ele>
        <time>2020-06-14T07:22:05Z</time>
      </trkpt>
      <trkpt lat="46.60161" lon="4.45068">
        <ele>424.612</ele>
        <time>2020-06-14T07:22:11Z</time>
      </trkpt>
      <trkpt lat="46.60167" lon="4.45073">
        <ele>422.612</ele>
        <time>2020-06-14T07:22:17Z</time>
      </trkpt>
      <trkpt lat="46.60174" lon="4.45079">
        <ele>423.612</ele>
        <time>2020-06-14T07:22:22Z</time>
      </trkpt>
      <trkpt lat="46.60179" lon="4.45085">
        <ele>426.612</ele>
        <time>2020-06-14T07:22:28Z</time>
      </trkpt>
      <trkpt lat="46.60184" lon="4.45091">
        <ele>426.612</ele>
        <time>2020-06-14T07:22:33Z</time>
      </trkpt>
      <trkpt lat="46.60191" lon="4.45093">
        <ele>425.612</ele>
        <time>2020-06-14T07:22:39Z</time>
      </trkpt>
      <trkpt lat="46.60199" lon="4.451">
        <ele>425.612</ele>
        <time>2020-06-14T07:22:44Z</time>
      </trkpt>
      <trkpt lat="46.60205" lon="4.45105">
        <ele>421.612</ele>
        <time>2020-06-14T07:22:50Z</time>
      </trkpt>
      <trkpt lat="46.6021" lon="4.4511">
        <ele>424.612</ele>
        <time>2020-06-14T07:22:55Z</time>
      </trkpt>
      <trkpt lat="46.60216" lon="4.45117">
        <ele>425.612</ele>
        <time>2020-06-14T07:23:00Z</time>
      </trkpt>
      <trkpt lat="46.60223" lon="4.45117">
        <ele>428.612</ele>
        <time>2020-06-14T07:23:05Z</time>
      </trkpt>
      <trkpt lat="46.60231" lon="4.4512">
        <ele>427.612</ele>
        <time>2020-06-14T07:23:12Z</time>
      </trkpt>
      <trkpt lat="46.60237" lon="4.45125">
        <ele>428.612</ele>
        <time>2020-06-14T07:23:19Z</time>
      </trkpt>
      <trkpt lat="46.60242" lon="4.45133">
        <ele>431.612</ele>
        <time>2020-06-14T07:23:24Z</time>
      </trkpt>
      <trkpt lat="46.60249" lon="4.45136">
        <ele>432.612</ele>
        <time>2020-06-14T07:23:31Z</time>
      </trkpt>
      <trkpt lat="46.60256" lon="4.45143">
        <ele>433.612</ele>
        <time>2020-06-14T07:23:36Z</time>
      </trkpt>
      <trkpt lat="46.60262" lon="4.45148">
        <ele>433.612</ele>
        <time>2020-06-14T07:23:42Z</time>
      </trkpt>
      <trkpt lat="46.60269" lon="4.45151">
        <ele>431.612</ele>
        <time>2020-06-14T07:23:49Z</time>
      </trkpt>
      <trkpt lat="46.60276" lon="4.45156">
        <ele>434.612</ele>
        <time>2020-06-14T07:23:55Z</time>
      </trkpt>
      <trkpt lat="46.60281" lon="4.45165">
        <ele>436.612</ele>
        <time>2020-06-14T07:24:00Z</time>
      </trkpt>
      <trkpt lat="46.60287" lon="4.45172">
        <ele>438.612</ele>
        <time>2020-06-14T07:24:05Z</time>
      </trkpt>
      <trkpt lat="46.60293" lon="4.4518">
        <ele>439.612</ele>
        <time>2020-06-14T07:24:13Z</time>
      </trkpt>
      <trkpt lat="46.60298" lon="4.45188">
        <ele>438.612</ele>
        <time>2020-06-14T07:24:18Z</time>
      </trkpt>
      <trkpt lat="46.60304" lon="4.45195">
        <ele>439.612</ele>
        <time>2020-06-14T07:24:25Z</time>
      </trkpt>
      <trkpt lat="46.60309" lon="4.45205">
        <ele>443.613</ele>
        <time>2020-06-14T07:24:30Z</time>
      </trkpt>
      <trkpt lat="46.60316" lon="4.45208">
        <ele>443.613</ele>
        <time>2020-06-14T07:24:37Z</time>
      </trkpt>
      <trkpt lat="46.60322" lon="4.45213">
        <ele>445.613</ele>
        <time>2020-06-14T07:24:42Z</time>
      </trkpt>
      <trkpt lat="46.60328" lon="4.45217">
        <ele>446.613</ele>
        <time>2020-06-14T07:24:47Z</time>
      </trkpt>
      <trkpt lat="46.60334" lon="4.45224">
        <ele>444.613</ele>
        <time>2020-06-14T07:24:54Z</time>
      </trkpt>
      <trkpt lat="46.60339" lon="4.45232">
        <ele>441.613</ele>
        <time>2020-06-14T07:25:01Z</time>
      </trkpt>
      <trkpt lat="46.60346" lon="4.45235">
        <ele>443.613</ele>
        <time>2020-06-14T07:25:07Z</time>
      </trkpt>
      <trkpt lat="46.60351" lon="4.45243">
        <ele>445.613</ele>
        <time>2020-06-14T07:25:12Z</time>
      </trkpt>
      <trkpt lat="46.60357" lon="4.45248">
        <ele>446.613</ele>
        <time>2020-06-14T07:25:17Z</time>
      </trkpt>
      <trkpt lat="46.60362" lon="4.45255">
        <ele>448.613</ele>
        <time>2020-06-14T07:25:23Z</time>
      </trkpt>
      <trkpt lat="46.60368" lon="4.45261">
        <ele>447.613</ele>
        <time>2020-06-14T07:25:29Z</time>
      </trkpt>
      <trkpt lat="46.60373" lon="4.4527">
        <ele>448.613</ele>
        <time>2020-06-14T07:25:34Z</time>
      </trkpt>
      <trkpt lat="46.60377" lon="4.45279">
        <ele>447.613</ele>
        <time>2020-06-14T07:25:39Z</time>
      </trkpt>
      <trkpt lat="46.60383" lon="4.45285">
        <ele>446.613</ele>
        <time>2020-06-14T07:25:45Z</time>
      </trkpt>
      <trkpt lat="46.60388" lon="4.45292">
        <ele>444.613</ele>
        <time>2020-06-14T07:25:50Z</time>
      </trkpt>
      <trkpt lat="46.60393" lon="4.45301">
        <ele>444.613</ele>
        <time>2020-06-14T07:25:55Z</time>
      </trkpt>
      <trkpt lat="46.60399" lon="4.45307">
        <ele>443.613</ele>
        <time>2020-06-14T07:26:02Z</time>
      </trkpt>
      <trkpt lat="46.60404" lon="4.45318">
        <ele>444.613</ele>
        <time>2020-06-14T07:26:07Z</time>
      </trkpt>
      <trkpt lat="46.60408" lon="4.45325">
        <ele>446.613</ele>
        <time>2020-06-14T07:26:12Z</time>
      </trkpt>
      <trkpt lat="46.60415" lon="4.45328">
        <ele>445.613</ele>
        <time>2020-06-14T07:27:54Z</time>
      </trkpt>
      <trkpt lat="46.60422" lon="4.45336">
        <ele>441.613</ele>
        <time>2020-06-14T07:27:59Z</time>
      </trkpt>
      <trkpt lat="46.60426" lon="4.45346">
        <ele>437.613</ele>
        <time>2020-06-14T07:28:04Z</time>
      </trkpt>
      <trkpt lat="46.60431" lon="4.45355">
        <ele>439.613</ele>
        <time>2020-06-14T07:28:10Z</time>
      </trkpt>
      <trkpt lat="46.60436" lon="4.45366">
        <ele>440.613</ele>
        <time>2020-06-14T07:28:15Z</time>
      </trkpt>
      <trkpt lat="46.6044" lon="4.45375">
        <ele>442.613</ele>
        <time>2020-06-14T07:28:20Z</time>
      </trkpt>
      <trkpt lat="46.60446" lon="4.45381">
        <ele>440.613</ele>
        <time>2020-06-14T07:28:26Z</time>
      </trkpt>
      <trkpt lat="46.60451" lon="4.45388">
        <ele>440.613</ele>
        <time>2020-06-14T07:28:32Z</time>
      </trkpt>
      <trkpt lat="46.60455" lon="4.45396">
        <ele>441.613</ele>
        <time>2020-06-14T07:28:37Z</time>
      </trkpt>
      <trkpt lat="46.60458" lon="4.45408">
        <ele>446.613</ele>
        <time>2020-06-14T07:28:42Z</time>
      </trkpt>
      <trkpt lat="46.60462" lon="4.45418">
        <ele>447.613</ele>
        <time>2020-06-14T07:28:47Z</time>
      </trkpt>
      <trkpt lat="46.60466" lon="4.45425">
        <ele>448.613</ele>
        <time>2020-06-14T07:28:53Z</time>
      </trkpt>
      <trkpt lat="46.6047" lon="4.45435">
        <ele>449.613</ele>
        <time>2020-06-14T07:28:59Z</time>
      </trkpt>
      <trkpt lat="46.60474" lon="4.45443">
        <ele>448.613</ele>
        <time>2020-06-14T07:29:04Z</time>
      </trkpt>
      <trkpt lat="46.60479" lon="4.45452">
        <ele>450.613</ele>
        <time>2020-06-14T07:29:10Z</time>
      </trkpt>
      <trkpt lat="46.60485" lon="4.45458">
        <ele>450.613</ele>
        <time>2020-06-14T07:29:15Z</time>
      </trkpt>
      <trkpt lat="46.60491" lon="4.45466">
        <ele>451.613</ele>
        <time>2020-06-14T07:29:20Z</time>
      </trkpt>
      <trkpt lat="46.60495" lon="4.45474">
        <ele>452.613</ele>
        <time>2020-06-14T07:29:26Z</time>
      </trkpt>
      <trkpt lat="46.60499" lon="4.45482">
        <ele>455.613</ele>
        <time>2020-06-14T07:29:31Z</time>
      </trkpt>
      <trkpt lat="46.60505" lon="4.4549">
        <ele>457.613</ele>
        <time>2020-06-14T07:29:36Z</time>
      </trkpt>
      <trkpt lat="46.60511" lon="4.45496">
        <ele>457.613</ele>
        <time>2020-06-14T07:29:41Z</time>
      </trkpt>
      <trkpt lat="46.60517" lon="4.45502">
        <ele>456.613</ele>
        <time>2020-06-14T07:29:47Z</time>
      </trkpt>
      <trkpt lat="46.60523" lon="4.45511">
        <ele>454.613</ele>
        <time>2020-06-14T07:29:52Z</time>
      </trkpt>
      <trkpt lat="46.6053" lon="4.45516">
        <ele>454.613</ele>
        <time>2020-06-14T07:29:57Z</time>
      </trkpt>
      <trkpt lat="46.60536" lon="4.45525">
        <ele>456.613</ele>
        <time>2020-06-14T07:30:03Z</time>
      </trkpt>
      <trkpt lat="46.60542" lon="4.45528">
        <ele>458.613</ele>
        <time>2020-06-14T07:30:08Z</time>
      </trkpt>
      <trkpt lat="46.60548" lon="4.45531">
        <ele>456.613</ele>
        <time>2020-06-14T07:30:13Z</time>
      </trkpt>
      <trkpt lat="46.60554" lon="4.45537">
        <ele>456.613</ele>
        <time>2020-06-14T07:30:18Z</time>
      </trkpt>
      <trkpt lat="46.60561" lon="4.45542">
        <ele>455.613</ele>
        <time>2020-06-14T07:30:23Z</time>
      </trkpt>
      <trkpt lat="46.60568" lon="4.45545">
        <ele>457.613</ele>
        <time>2020-06-14T07:30:29Z</time>
      </trkpt>
      <trkpt lat="46.60573" lon="4.4555">
        <ele>456.613</ele>
        <time>2020-06-14T07:30:34Z</time>
      </trkpt>
      <trkpt lat="46.60577" lon="4.45559">
        <ele>459.613</ele>
        <time>2020-06-14T07:30:39Z</time>
      </trkpt>
      <trkpt lat="46.60583" lon="4.45565">
        <ele>458.614</ele>
        <time>2020-06-14T07:30:45Z</time>
      </trkpt>
      <trkpt lat="46.60591" lon="4.45569">
        <ele>456.614</ele>
        <time>2020-06-14T07:30:50Z</time>
      </trkpt>
      <trkpt lat="46.60596" lon="4.45578">
        <ele>454.614</ele>
        <time>2020-06-14T07:30:55Z</time>
      </trkpt>
      <trkpt lat="46.606" lon="4.45585">
        <ele>454.614</ele>
        <time>2020-06-14T07:31:01Z</time>
      </trkpt>
      <trkpt lat="46.60606" lon="4.4559">
        <ele>453.614</ele>
        <time>2020-06-14T07:31:06Z</time>
      </trkpt>
      <trkpt lat="46.60614" lon="4.45595">
        <ele>452.614</ele>
        <time>2020-06-14T07:31:11Z</time>
      </trkpt>
      <trkpt lat="46.60618" lon="4.45602">
        <ele>451.614</ele>
        <time>2020-06-14T07:31:16Z</time>
      </trkpt>
      <trkpt lat="46.60625" lon="4.45606">
        <ele>455.614</ele>
        <time>2020-06-14T07:31:21Z</time>
      </trkpt>
      <trkpt lat="46.60632" lon="4.45612">
        <ele>457.614</ele>
        <time>2020-06-14T07:31:26Z</time>
      </trkpt>
      <trkpt lat="46.60641" lon="4.45614">
        <ele>456.614</ele>
        <time>2020-06-14T07:31:31Z</time>
      </trkpt>
      <trkpt lat="46.60642" lon="4.45624">
        <ele>457.614</ele>
        <time>2020-06-14T07:31:36Z</time>
      </trkpt>
      <trkpt lat="46.60647" lon="4.45632">
        <ele>457.614</ele>
        <time>2020-06-14T07:31:42Z</time>
      </trkpt>
      <trkpt lat="46.60655" lon="4.4564">
        <ele>458.614</ele>
        <time>2020-06-14T07:31:47Z</time>
      </trkpt>
      <trkpt lat="46.6066" lon="4.45648">
        <ele>459.614</ele>
        <time>2020-06-14T07:31:52Z</time>
      </trkpt>
      <trkpt lat="46.60666" lon="4.45654">
        <ele>459.614</ele>
        <time>2020-06-14T07:31:58Z</time>
      </trkpt>
      <trkpt lat="46.60672" lon="4.45661">
        <ele>458.614</ele>
        <time>2020-06-14T07:32:03Z</time>
      </trkpt>
      <trkpt lat="46.60679" lon="4.45666">
        <ele>459.614</ele>
        <time>2020-06-14T07:32:08Z</time>
      </trkpt>
      <trkpt lat="46.60686" lon="4.45673">
        <ele>459.614</ele>
        <time>2020-06-14T07:32:14Z</time>
      </trkpt>
      <trkpt lat="46.60692" lon="4.4568">
        <ele>460.614</ele>
        <time>2020-06-14T07:32:19Z</time>
      </trkpt>
      <trkpt lat="46.60697" lon="4.45688">
        <ele>461.614</ele>
        <time>2020-06-14T07:32:25Z</time>
      </trkpt>
      <trkpt lat="46.60705" lon="4.45694">
        <ele>461.614</ele>
        <time>2020-06-14T07:32:30Z</time>
      </trkpt>
      <trkpt lat="46.60712" lon="4.457">
        <ele>461.614</ele>
        <time>2020-06-14T07:32:35Z</time>
      </trkpt>
      <trkpt lat="46.60719" lon="4.45704">
        <ele>460.614</ele>
        <time>2020-06-14T07:32:40Z</time>
      </trkpt>
      <trkpt lat="46.60725" lon="4.4571">
        <ele>462.614</ele>
        <time>2020-06-14T07:32:46Z</time>
      </trkpt>
      <trkpt lat="46.60729" lon="4.45718">
        <ele>460.614</ele>
        <time>2020-06-14T07:32:51Z</time>
      </trkpt>
      <trkpt lat="46.60733" lon="4.45726">
        <ele>460.614</ele>
        <time>2020-06-14T07:32:56Z</time>
      </trkpt>
      <trkpt lat="46.6074" lon="4.45729">
        <ele>461.614</ele>
        <time>2020-06-14T07:33:01Z</time>
      </trkpt>
      <trkpt lat="46.60747" lon="4.45734">
        <ele>461.614</ele>
        <time>2020-06-14T07:33:08Z</time>
      </trkpt>
      <trkpt lat="46.60753" lon="4.4574">
        <ele>459.614</ele>
        <time>2020-06-14T07:33:13Z</time>
      </trkpt>
      <trkpt lat="46.60762" lon="4.45746">
        <ele>458.614</ele>
        <time>2020-06-14T07:33:18Z</time>
      </trkpt>
      <trkpt lat="46.60769" lon="4.45749">
        <ele>456.614</ele>
        <time>2020-06-14T07:33:23Z</time>
      </trkpt>
      <trkpt lat="46.60775" lon="4.45754">
        <ele>454.614</ele>
        <time>2020-06-14T07:33:29Z</time>
      </trkpt>
      <trkpt lat="46.60781" lon="4.45763">
        <ele>452.614</ele>
        <time>2020-06-14T07:33:36Z</time>
      </trkpt>
      <trkpt lat="46.60789" lon="4.4577">
        <ele>452.614</ele>
        <time>2020-06-14T07:33:41Z</time>
      </trkpt>
      <trkpt lat="46.60794" lon="4.45776">
        <ele>450.614</ele>
        <time>2020-06-14T07:33:46Z</time>
      </trkpt>
      <trkpt lat="46.60801" lon="4.45784">
        <ele>451.614</ele>
        <time>2020-06-14T07:33:51Z</time>
      </trkpt>
      <trkpt lat="46.60807" lon="4.45787">
        <ele>455.614</ele>
        <time>2020-06-14T07:33:56Z</time>
      </trkpt>
      <trkpt lat="46.60812" lon="4.45795">
        <ele>458.614</ele>
        <time>2020-06-14T07:34:02Z</time>
      </trkpt>
      <trkpt lat="46.60818" lon="4.45798">
        <ele>459.614</ele>
        <time>2020-06-14T07:34:08Z</time>
      </trkpt>
      <trkpt lat="46.60826" lon="4.45802">
        <ele>456.614</ele>
        <time>2020-06-14T07:34:14Z</time>
      </trkpt>
      <trkpt lat="46.60832" lon="4.45807">
        <ele>458.614</ele>
        <time>2020-06-14T07:34:20Z</time>
      </trkpt>
      <trkpt lat="46.60838" lon="4.45812">
        <ele>458.614</ele>
        <time>2020-06-14T07:34:27Z</time>
      </trkpt>
      <trkpt lat="46.60844" lon="4.45819">
        <ele>458.614</ele>
        <time>2020-06-14T07:34:32Z</time>
      </trkpt>
      <trkpt lat="46.6085" lon="4.45827">
        <ele>464.614</ele>
        <time>2020-06-14T07:34:37Z</time>
      </trkpt>
      <trkpt lat="46.60856" lon="4.45831">
        <ele>465.614</ele>
        <time>2020-06-14T07:34:47Z</time>
      </trkpt>
      <trkpt lat="46.60863" lon="4.45838">
        <ele>470.614</ele>
        <time>2020-06-14T07:34:52Z</time>
      </trkpt>
      <trkpt lat="46.60867" lon="4.45848">
        <ele>470.614</ele>
        <time>2020-06-14T07:34:57Z</time>
      </trkpt>
      <trkpt lat="46.60872" lon="4.45855">
        <ele>470.615</ele>
        <time>2020-06-14T07:35:03Z</time>
      </trkpt>
      <trkpt lat="46.6088" lon="4.45862">
        <ele>467.615</ele>
        <time>2020-06-14T07:35:08Z</time>
      </trkpt>
      <trkpt lat="46.60886" lon="4.45866">
        <ele>470.615</ele>
        <time>2020-06-14T07:35:13Z</time>
      </trkpt>
      <trkpt lat="46.60891" lon="4.45873">
        <ele>467.615</ele>
        <time>2020-06-14T07:35:18Z</time>
      </trkpt>
      <trkpt lat="46.60897" lon="4.45878">
        <ele>468.615</ele>
        <time>2020-06-14T07:35:25Z</time>
      </trkpt>
      <trkpt lat="46.60903" lon="4.45883">
        <ele>468.615</ele>
        <time>2020-06-14T07:35:37Z</time>
      </trkpt>
      <trkpt lat="46.60909" lon="4.4589">
        <ele>468.615</ele>
        <time>2020-06-14T07:35:42Z</time>
      </trkpt>
      <trkpt lat="46.60916" lon="4.45896">
        <ele>466.615</ele>
        <time>2020-06-14T07:35:47Z</time>
      </trkpt>
      <trkpt lat="46.60922" lon="4.45904">
        <ele>462.615</ele>
        <time>2020-06-14T07:35:53Z</time>
      </trkpt>
      <trkpt lat="46.6093" lon="4.45909">
        <ele>460.615</ele>
        <time>2020-06-14T07:35:58Z</time>
      </trkpt>
      <trkpt lat="46.60938" lon="4.45915">
        <ele>458.615</ele>
        <time>2020-06-14T07:36:03Z</time>
      </trkpt>
      <trkpt lat="46.60945" lon="4.45921">
        <ele>459.615</ele>
        <time>2020-06-14T07:36:12Z</time>
      </trkpt>
      <trkpt lat="46.60951" lon="4.45927">
        <ele>462.615</ele>
        <time>2020-06-14T07:36:17Z</time>
      </trkpt>
      <trkpt lat="46.60957" lon="4.45933">
        <ele>462.615</ele>
        <time>2020-06-14T07:36:23Z</time>
      </trkpt>
      <trkpt lat="46.60963" lon="4.45937">
        <ele>463.615</ele>
        <time>2020-06-14T07:36:28Z</time>
      </trkpt>
      <trkpt lat="46.60968" lon="4.45942">
        <ele>464.615</ele>
        <time>2020-06-14T07:36:33Z</time>
      </trkpt>
      <trkpt lat="46.60975" lon="4.45948">
        <ele>463.615</ele>
        <time>2020-06-14T07:36:38Z</time>
      </trkpt>
      <trkpt lat="46.60981" lon="4.45954">
        <ele>464.615</ele>
        <time>2020-06-14T07:36:49Z</time>
      </trkpt>
      <trkpt lat="46.6099" lon="4.4596">
        <ele>468.615</ele>
        <time>2020-06-14T07:36:54Z</time>
      </trkpt>
      <trkpt lat="46.61" lon="4.45966">
        <ele>468.615</ele>
        <time>2020-06-14T07:36:59Z</time>
      </trkpt>
      <trkpt lat="46.6101" lon="4.45973">
        <ele>468.615</ele>
        <time>2020-06-14T07:37:04Z</time>
      </trkpt>
      <trkpt lat="46.61016" lon="4.4598">
        <ele>466.615</ele>
        <time>2020-06-14T07:37:11Z</time>
      </trkpt>
      <trkpt lat="46.61021" lon="4.45986">
        <ele>469.615</ele>
        <time>2020-06-14T07:37:16Z</time>
      </trkpt>
      <trkpt lat="46.61026" lon="4.45994">
        <ele>470.615</ele>
        <time>2020-06-14T07:37:23Z</time>
      </trkpt>
      <trkpt lat="46.61035" lon="4.45999">
        <ele>474.615</ele>
        <time>2020-06-14T07:37:28Z</time>
      </trkpt>
      <trkpt lat="46.61033" lon="4.46008">
        <ele>472.615</ele>
        <time>2020-06-14T07:37:33Z</time>
      </trkpt>
      <trkpt lat="46.6104" lon="4.46018">
        <ele>474.615</ele>
        <time>2020-06-14T07:37:38Z</time>
      </trkpt>
      <trkpt lat="46.61044" lon="4.46027">
        <ele>477.615</ele>
        <time>2020-06-14T07:37:44Z</time>
      </trkpt>
      <trkpt lat="46.61047" lon="4.46035">
        <ele>478.615</ele>
        <time>2020-06-14T07:37:49Z</time>
      </trkpt>
      <trkpt lat="46.61051" lon="4.46043">
        <ele>476.615</ele>
        <time>2020-06-14T07:37:55Z</time>
      </trkpt>
      <trkpt lat="46.61054" lon="4.46052">
        <ele>475.615</ele>
        <time>2020-06-14T07:38:04Z</time>
      </trkpt>
      <trkpt lat="46.61058" lon="4.46061">
        <ele>470.615</ele>
        <time>2020-06-14T07:38:09Z</time>
      </trkpt>
      <trkpt lat="46.6106" lon="4.46071">
        <ele>468.615</ele>
        <time>2020-06-14T07:38:17Z</time>
      </trkpt>
      <trkpt lat="46.6106" lon="4.46082">
        <ele>471.615</ele>
        <time>2020-06-14T07:38:23Z</time>
      </trkpt>
      <trkpt lat="46.61064" lon="4.4609">
        <ele>471.615</ele>
        <time>2020-06-14T07:38:29Z</time>
      </trkpt>
      <trkpt lat="46.61066" lon="4.46099">
        <ele>469.615</ele>
        <time>2020-06-14T07:38:35Z</time>
      </trkpt>
      <trkpt lat="46.61069" lon="4.46108">
        <ele>470.615</ele>
        <time>2020-06-14T07:38:41Z</time>
      </trkpt>
      <trkpt lat="46.61073" lon="4.46118">
        <ele>471.615</ele>
        <time>2020-06-14T07:38:47Z</time>
      </trkpt>
      <trkpt lat="46.61075" lon="4.46128">
        <ele>472.615</ele>
        <time>2020-06-14T07:38:53Z</time>
      </trkpt>
      <trkpt lat="46.61077" lon="4.46138">
        <ele>474.615</ele>
        <time>2020-06-14T07:38:58Z</time>
      </trkpt>
      <trkpt lat="46.61083" lon="4.46148">
        <ele>475.615</ele>
        <time>2020-06-14T07:39:03Z</time>
      </trkpt>
      <trkpt lat="46.61084" lon="4.46158">
        <ele>476.615</ele>
        <time>2020-06-14T07:39:08Z</time>
      </trkpt>
      <trkpt lat="46.61089" lon="4.46167">
        <ele>475.615</ele>
        <time>2020-06-14T07:39:14Z</time>
      </trkpt>
      <trkpt lat="46.61095" lon="4.46174">
        <ele>476.615</ele>
        <time>2020-06-14T07:39:19Z</time>
      </trkpt>
      <trkpt lat="46.61098" lon="4.46183">
        <ele>476.615</ele>
        <time>2020-06-14T07:39:24Z</time>
      </trkpt>
      <trkpt lat="46.61102" lon="4.46194">
        <ele>476.615</ele>
        <time>2020-06-14T07:39:31Z</time>
      </trkpt>
      <trkpt lat="46.61104" lon="4.46205">
        <ele>475.615</ele>
        <time>2020-06-14T07:39:38Z</time>
      </trkpt>
      <trkpt lat="46.61105" lon="4.46216">
        <ele>473.615</ele>
        <time>2020-06-14T07:39:45Z</time>
      </trkpt>
      <trkpt lat="46.61105" lon="4.46225">
        <ele>472.615</ele>
        <time>2020-06-14T07:39:53Z</time>
      </trkpt>
      <trkpt lat="46.61107" lon="4.46236">
        <ele>469.615</ele>
        <time>2020-06-14T07:39:59Z</time>
      </trkpt>
      <trkpt lat="46.61112" lon="4.46241">
        <ele>469.615</ele>
        <time>2020-06-14T07:40:04Z</time>
      </trkpt>
      <trkpt lat="46.61116" lon="4.4625">
        <ele>468.615</ele>
        <time>2020-06-14T07:40:10Z</time>
      </trkpt>
      <trkpt lat="46.61121" lon="4.46258">
        <ele>470.615</ele>
        <time>2020-06-14T07:40:17Z</time>
      </trkpt>
      <trkpt lat="46.61125" lon="4.46266">
        <ele>469.616</ele>
        <time>2020-06-14T07:40:22Z</time>
      </trkpt>
      <trkpt lat="46.61131" lon="4.46273">
        <ele>471.616</ele>
        <time>2020-06-14T07:40:27Z</time>
      </trkpt>
      <trkpt lat="46.61134" lon="4.46282">
        <ele>469.616</ele>
        <time>2020-06-14T07:40:32Z</time>
      </trkpt>
      <trkpt lat="46.61136" lon="4.46293">
        <ele>471.616</ele>
        <time>2020-06-14T07:40:39Z</time>
      </trkpt>
      <trkpt lat="46.6114" lon="4.46304">
        <ele>472.616</ele>
        <time>2020-06-14T07:40:44Z</time>
      </trkpt>
      <trkpt lat="46.61144" lon="4.46314">
        <ele>472.616</ele>
        <time>2020-06-14T07:40:49Z</time>
      </trkpt>
      <trkpt lat="46.6115" lon="4.46323">
        <ele>473.616</ele>
        <time>2020-06-14T07:40:55Z</time>
      </trkpt>
      <trkpt lat="46.61155" lon="4.46332">
        <ele>474.616</ele>
        <time>2020-06-14T07:41:00Z</time>
      </trkpt>
      <trkpt lat="46.6116" lon="4.46339">
        <ele>474.616</ele>
        <time>2020-06-14T07:41:07Z</time>
      </trkpt>
      <trkpt lat="46.6116" lon="4.46349">
        <ele>468.616</ele>
        <time>2020-06-14T07:41:15Z</time>
      </trkpt>
      <trkpt lat="46.61164" lon="4.46358">
        <ele>469.616</ele>
        <time>2020-06-14T07:41:20Z</time>
      </trkpt>
      <trkpt lat="46.61165" lon="4.46368">
        <ele>468.616</ele>
        <time>2020-06-14T07:41:25Z</time>
      </trkpt>
      <trkpt lat="46.61169" lon="4.46376">
        <ele>469.616</ele>
        <time>2020-06-14T07:41:31Z</time>
      </trkpt>
      <trkpt lat="46.61173" lon="4.46387">
        <ele>469.616</ele>
        <time>2020-06-14T07:41:37Z</time>
      </trkpt>
      <trkpt lat="46.61178" lon="4.46393">
        <ele>468.616</ele>
        <time>2020-06-14T07:41:43Z</time>
      </trkpt>
      <trkpt lat="46.6118" lon="4.46405">
        <ele>468.616</ele>
        <time>2020-06-14T07:41:50Z</time>
      </trkpt>
      <trkpt lat="46.61185" lon="4.46418">
        <ele>473.616</ele>
        <time>2020-06-14T07:41:55Z</time>
      </trkpt>
      <trkpt lat="46.61187" lon="4.46428">
        <ele>475.616</ele>
        <time>2020-06-14T07:42:00Z</time>
      </trkpt>
      <trkpt lat="46.61188" lon="4.46439">
        <ele>475.616</ele>
        <time>2020-06-14T07:42:06Z</time>
      </trkpt>
      <trkpt lat="46.61189" lon="4.46448">
        <ele>476.616</ele>
        <time>2020-06-14T07:42:11Z</time>
      </trkpt>
      <trkpt lat="46.6119" lon="4.46458">
        <ele>477.616</ele>
        <time>2020-06-14T07:42:16Z</time>
      </trkpt>
      <trkpt lat="46.61191" lon="4.46469">
        <ele>478.616</ele>
        <time>2020-06-14T07:42:21Z</time>
      </trkpt>
      <trkpt lat="46.61195" lon="4.46478">
        <ele>479.616</ele>
        <time>2020-06-14T07:42:29Z</time>
      </trkpt>
      <trkpt lat="46.61196" lon="4.46488">
        <ele>473.616</ele>
        <time>2020-06-14T07:42:37Z</time>
      </trkpt>
      <trkpt lat="46.61201" lon="4.46495">
        <ele>474.616</ele>
        <time>2020-06-14T07:42:42Z</time>
      </trkpt>
      <trkpt lat="46.61205" lon="4.46505">
        <ele>474.616</ele>
        <time>2020-06-14T07:42:48Z</time>
      </trkpt>
      <trkpt lat="46.61211" lon="4.46509">
        <ele>472.616</ele>
        <time>2020-06-14T07:43:01Z</time>
      </trkpt>
      <trkpt lat="46.61216" lon="4.46517">
        <ele>472.616</ele>
        <time>2020-06-14T07:43:08Z</time>
      </trkpt>
      <trkpt lat="46.61221" lon="4.46527">
        <ele>476.616</ele>
        <time>2020-06-14T07:43:13Z</time>
      </trkpt>
      <trkpt lat="46.61228" lon="4.46531">
        <ele>478.616</ele>
        <time>2020-06-14T07:43:18Z</time>
      </trkpt>
      <trkpt lat="46.61234" lon="4.46534">
        <ele>479.616</ele>
        <time>2020-06-14T07:43:23Z</time>
      </trkpt>
      <trkpt lat="46.6124" lon="4.46541">
        <ele>479.616</ele>
        <time>2020-06-14T07:43:28Z</time>
      </trkpt>
      <trkpt lat="46.61246" lon="4.46547">
        <ele>479.616</ele>
        <time>2020-06-14T07:43:33Z</time>
      </trkpt>
      <trkpt lat="46.61253" lon="4.46553">
        <ele>483.616</ele>
        <time>2020-06-14T07:43:38Z</time>
      </trkpt>
      <trkpt lat="46.61259" lon="4.46558">
        <ele>486.616</ele>
        <time>2020-06-14T07:43:43Z</time>
      </trkpt>
      <trkpt lat="46.61269" lon="4.46563">
        <ele>484.616</ele>
        <time>2020-06-14T07:43:48Z</time>
      </trkpt>
      <trkpt lat="46.61276" lon="4.46567">
        <ele>487.616</ele>
        <time>2020-06-14T07:43:54Z</time>
      </trkpt>
      <trkpt lat="46.61283" lon="4.46571">
        <ele>487.616</ele>
        <time>2020-06-14T07:44:00Z</time>
      </trkpt>
      <trkpt lat="46.61288" lon="4.46578">
        <ele>491.616</ele>
        <time>2020-06-14T07:44:06Z</time>
      </trkpt>
      <trkpt lat="46.61295" lon="4.46582">
        <ele>491.616</ele>
        <time>2020-06-14T07:44:13Z</time>
      </trkpt>
      <trkpt lat="46.61299" lon="4.46592">
        <ele>492.616</ele>
        <time>2020-06-14T07:44:18Z</time>
      </trkpt>
      <trkpt lat="46.61302" lon="4.46601">
        <ele>486.616</ele>
        <time>2020-06-14T07:44:24Z</time>
      </trkpt>
      <trkpt lat="46.6131" lon="4.466">
        <ele>480.616</ele>
        <time>2020-06-14T07:44:29Z</time>
      </trkpt>
      <trkpt lat="46.61316" lon="4.46605">
        <ele>481.616</ele>
        <time>2020-06-14T07:44:36Z</time>
      </trkpt>
      <trkpt lat="46.61319" lon="4.46615">
        <ele>485.616</ele>
        <time>2020-06-14T07:44:51Z</time>
      </trkpt>
      <trkpt lat="46.6133" lon="4.4662">
        <ele>481.616</ele>
        <time>2020-06-14T07:44:56Z</time>
      </trkpt>
      <trkpt lat="46.61332" lon="4.4663">
        <ele>479.616</ele>
        <time>2020-06-14T07:45:04Z</time>
      </trkpt>
      <trkpt lat="46.61337" lon="4.46639">
        <ele>480.616</ele>
        <time>2020-06-14T07:45:22Z</time>
      </trkpt>
      <trkpt lat="46.61343" lon="4.46647">
        <ele>480.616</ele>
        <time>2020-06-14T07:45:27Z</time>
      </trkpt>
      <trkpt lat="46.61349" lon="4.46655">
        <ele>485.616</ele>
        <time>2020-06-14T07:45:37Z</time>
      </trkpt>
      <trkpt lat="46.61354" lon="4.46669">
        <ele>485.616</ele>
        <time>2020-06-14T07:45:42Z</time>
      </trkpt>
      <trkpt lat="46.6136" lon="4.46681">
        <ele>487.616</ele>
        <time>2020-06-14T07:45:47Z</time>
      </trkpt>
      <trkpt lat="46.61368" lon="4.46689">
        <ele>488.616</ele>
        <time>2020-06-14T07:45:52Z</time>
      </trkpt>
      <trkpt lat="46.61374" lon="4.46696">
        <ele>488.616</ele>
        <time>2020-06-14T07:45:57Z</time>
      </trkpt>
      <trkpt lat="46.6138" lon="4.46703">
        <ele>493.617</ele>
        <time>2020-06-14T07:46:02Z</time>
      </trkpt>
      <trkpt lat="46.61388" lon="4.46708">
        <ele>497.617</ele>
        <time>2020-06-14T07:46:07Z</time>
      </trkpt>
      <trkpt lat="46.61394" lon="4.46712">
        <ele>499.617</ele>
        <time>2020-06-14T07:46:14Z</time>
      </trkpt>
      <trkpt lat="46.61398" lon="4.46722">
        <ele>497.617</ele>
        <time>2020-06-14T07:46:24Z</time>
      </trkpt>
      <trkpt lat="46.61405" lon="4.46733">
        <ele>498.617</ele>
        <time>2020-06-14T07:46:29Z</time>
      </trkpt>
      <trkpt lat="46.61411" lon="4.46738">
        <ele>500.617</ele>
        <time>2020-06-14T07:46:34Z</time>
      </trkpt>
      <trkpt lat="46.61414" lon="4.46745">
        <ele>498.617</ele>
        <time>2020-06-14T07:46:53Z</time>
      </trkpt>
      <trkpt lat="46.6142" lon="4.46752">
        <ele>499.617</ele>
        <time>2020-06-14T07:47:22Z</time>
      </trkpt>
      <trkpt lat="46.61421" lon="4.46763">
        <ele>498.617</ele>
        <time>2020-06-14T07:47:27Z</time>
      </trkpt>
      <trkpt lat="46.61427" lon="4.46771">
        <ele>494.617</ele>
        <time>2020-06-14T07:47:32Z</time>
      </trkpt>
      <trkpt lat="46.61432" lon="4.4678">
        <ele>496.617</ele>
        <time>2020-06-14T07:47:37Z</time>
      </trkpt>
      <trkpt lat="46.61433" lon="4.46789">
        <ele>498.617</ele>
        <time>2020-06-14T07:47:45Z</time>
      </trkpt>
      <trkpt lat="46.61437" lon="4.46797">
        <ele>498.617</ele>
        <time>2020-06-14T07:47:51Z</time>
      </trkpt>
      <trkpt lat="46.61437" lon="4.46808">
        <ele>500.617</ele>
        <time>2020-06-14T07:47:57Z</time>
      </trkpt>
      <trkpt lat="46.61439" lon="4.46817">
        <ele>498.617</ele>
        <time>2020-06-14T07:48:03Z</time>
      </trkpt>
      <trkpt lat="46.61438" lon="4.46827">
        <ele>497.617</ele>
        <time>2020-06-14T07:48:08Z</time>
      </trkpt>
      <trkpt lat="46.61436" lon="4.46837">
        <ele>498.617</ele>
        <time>2020-06-14T07:48:14Z</time>
      </trkpt>
      <trkpt lat="46.61433" lon="4.46851">
        <ele>499.617</ele>
        <time>2020-06-14T07:48:19Z</time>
      </trkpt>
      <trkpt lat="46.6143" lon="4.46864">
        <ele>500.617</ele>
        <time>2020-06-14T07:48:24Z</time>
      </trkpt>
      <trkpt lat="46.61434" lon="4.46872">
        <ele>501.617</ele>
        <time>2020-06-14T07:48:29Z</time>
      </trkpt>
      <trkpt lat="46.61439" lon="4.4688">
        <ele>502.617</ele>
        <time>2020-06-14T07:48:35Z</time>
      </trkpt>
      <trkpt lat="46.61441" lon="4.46892">
        <ele>506.617</ele>
        <time>2020-06-14T07:48:40Z</time>
      </trkpt>
      <trkpt lat="46.61447" lon="4.46897">
        <ele>509.617</ele>
        <time>2020-06-14T07:48:45Z</time>
      </trkpt>
      <trkpt lat="46.61448" lon="4.46907">
        <ele>509.617</ele>
        <time>2020-06-14T07:48:51Z</time>
      </trkpt>
      <trkpt lat="46.6145" lon="4.46918">
        <ele>508.617</ele>
        <time>2020-06-14T07:48:56Z</time>
      </trkpt>
      <trkpt lat="46.61453" lon="4.46927">
        <ele>507.617</ele>
        <time>2020-06-14T07:49:01Z</time>
      </trkpt>
      <trkpt lat="46.61458" lon="4.46934">
        <ele>506.617</ele>
        <time>2020-06-14T07:49:07Z</time>
      </trkpt>
      <trkpt lat="46.61462" lon="4.46943">
        <ele>505.617</ele>
        <time>2020-06-14T07:49:13Z</time>
      </trkpt>
      <trkpt lat="46.61464" lon="4.46952">
        <ele>504.617</ele>
        <time>2020-06-14T07:49:18Z</time>
      </trkpt>
      <trkpt lat="46.61467" lon="4.46961">
        <ele>505.617</ele>
        <time>2020-06-14T07:49:24Z</time>
      </trkpt>
      <trkpt lat="46.61469" lon="4.46972">
        <ele>503.617</ele>
        <time>2020-06-14T07:49:29Z</time>
      </trkpt>
      <trkpt lat="46.61472" lon="4.46981">
        <ele>503.617</ele>
        <time>2020-06-14T07:49:35Z</time>
      </trkpt>
      <trkpt lat="46.61475" lon="4.46991">
        <ele>505.617</ele>
        <time>2020-06-14T07:49:40Z</time>
      </trkpt>
      <trkpt lat="46.61478" lon="4.47001">
        <ele>503.617</ele>
        <time>2020-06-14T07:49:46Z</time>
      </trkpt>
      <trkpt lat="46.61477" lon="4.47012">
        <ele>507.617</ele>
        <time>2020-06-14T07:49:51Z</time>
      </trkpt>
      <trkpt lat="46.61478" lon="4.47023">
        <ele>511.617</ele>
        <time>2020-06-14T07:50:01Z</time>
      </trkpt>
      <trkpt lat="46.6148" lon="4.47037">
        <ele>512.617</ele>
        <time>2020-06-14T07:50:06Z</time>
      </trkpt>
      <trkpt lat="46.61479" lon="4.47047">
        <ele>513.617</ele>
        <time>2020-06-14T07:50:11Z</time>
      </trkpt>
      <trkpt lat="46.6148" lon="4.47058">
        <ele>513.617</ele>
        <time>2020-06-14T07:50:17Z</time>
      </trkpt>
      <trkpt lat="46.61477" lon="4.47068">
        <ele>511.617</ele>
        <time>2020-06-14T07:50:22Z</time>
      </trkpt>
      <trkpt lat="46.61476" lon="4.47078">
        <ele>512.617</ele>
        <time>2020-06-14T07:50:27Z</time>
      </trkpt>
      <trkpt lat="46.61477" lon="4.47089">
        <ele>513.617</ele>
        <time>2020-06-14T07:50:32Z</time>
      </trkpt>
      <trkpt lat="46.61479" lon="4.471">
        <ele>515.617</ele>
        <time>2020-06-14T07:50:44Z</time>
      </trkpt>
      <trkpt lat="46.61477" lon="4.47114">
        <ele>515.617</ele>
        <time>2020-06-14T07:50:49Z</time>
      </trkpt>
      <trkpt lat="46.61481" lon="4.47122">
        <ele>514.617</ele>
        <time>2020-06-14T07:50:54Z</time>
      </trkpt>
      <trkpt lat="46.61485" lon="4.47132">
        <ele>515.617</ele>
        <time>2020-06-14T07:50:59Z</time>
      </trkpt>
      <trkpt lat="46.61491" lon="4.47138">
        <ele>513.617</ele>
        <time>2020-06-14T07:51:07Z</time>
      </trkpt>
      <trkpt lat="46.61499" lon="4.47138">
        <ele>512.617</ele>
        <time>2020-06-14T07:51:12Z</time>
      </trkpt>
      <trkpt lat="46.61506" lon="4.47139">
        <ele>512.617</ele>
        <time>2020-06-14T07:51:19Z</time>
      </trkpt>
      <trkpt lat="46.61515" lon="4.47139">
        <ele>514.617</ele>
        <time>2020-06-14T07:51:24Z</time>
      </trkpt>
      <trkpt lat="46.61521" lon="4.47135">
        <ele>510.617</ele>
        <time>2020-06-14T07:51:30Z</time>
      </trkpt>
      <trkpt lat="46.61532" lon="4.47135">
        <ele>510.617</ele>
        <time>2020-06-14T07:51:35Z</time>
      </trkpt>
      <trkpt lat="46.6154" lon="4.47136">
        <ele>510.617</ele>
        <time>2020-06-14T07:51:42Z</time>
      </trkpt>
      <trkpt lat="46.61546" lon="4.47136">
        <ele>509.617</ele>
        <time>2020-06-14T07:51:47Z</time>
      </trkpt>
      <trkpt lat="46.61553" lon="4.47138">
        <ele>508.617</ele>
        <time>2020-06-14T07:51:54Z</time>
      </trkpt>
      <trkpt lat="46.61557" lon="4.47146">
        <ele>507.617</ele>
        <time>2020-06-14T07:51:59Z</time>
      </trkpt>
      <trkpt lat="46.61566" lon="4.47149">
        <ele>509.617</ele>
        <time>2020-06-14T07:52:04Z</time>
      </trkpt>
      <trkpt lat="46.61573" lon="4.47153">
        <ele>510.617</ele>
        <time>2020-06-14T07:52:09Z</time>
      </trkpt>
      <trkpt lat="46.61581" lon="4.47154">
        <ele>510.617</ele>
        <time>2020-06-14T07:52:15Z</time>
      </trkpt>
      <trkpt lat="46.61588" lon="4.47154">
        <ele>511.617</ele>
        <time>2020-06-14T07:52:20Z</time>
      </trkpt>
      <trkpt lat="46.61595" lon="4.47152">
        <ele>507.617</ele>
        <time>2020-06-14T07:52:25Z</time>
      </trkpt>
      <trkpt lat="46.61601" lon="4.47149">
        <ele>506.617</ele>
        <time>2020-06-14T07:52:31Z</time>
      </trkpt>
      <trkpt lat="46.61612" lon="4.47153">
        <ele>505.617</ele>
        <time>2020-06-14T07:52:36Z</time>
      </trkpt>
      <trkpt lat="46.61618" lon="4.47156">
        <ele>503.617</ele>
        <time>2020-06-14T07:52:43Z</time>
      </trkpt>
      <trkpt lat="46.61624" lon="4.47162">
        <ele>505.618</ele>
        <time>2020-06-14T07:52:53Z</time>
      </trkpt>
      <trkpt lat="46.61631" lon="4.47166">
        <ele>505.618</ele>
        <time>2020-06-14T07:53:01Z</time>
      </trkpt>
      <trkpt lat="46.61637" lon="4.47171">
        <ele>502.618</ele>
        <time>2020-06-14T07:53:06Z</time>
      </trkpt>
      <trkpt lat="46.61645" lon="4.47178">
        <ele>501.618</ele>
        <time>2020-06-14T07:53:12Z</time>
      </trkpt>
      <trkpt lat="46.61655" lon="4.47184">
        <ele>501.618</ele>
        <time>2020-06-14T07:53:17Z</time>
      </trkpt>
      <trkpt lat="46.61662" lon="4.47188">
        <ele>501.618</ele>
        <time>2020-06-14T07:53:22Z</time>
      </trkpt>
      <trkpt lat="46.61669" lon="4.47191">
        <ele>500.618</ele>
        <time>2020-06-14T07:53:27Z</time>
      </trkpt>
      <trkpt lat="46.61676" lon="4.47199">
        <ele>502.618</ele>
        <time>2020-06-14T07:53:40Z</time>
      </trkpt>
      <trkpt lat="46.61683" lon="4.47198">
        <ele>496.618</ele>
        <time>2020-06-14T07:53:46Z</time>
      </trkpt>
      <trkpt lat="46.61695" lon="4.47201">
        <ele>494.618</ele>
        <time>2020-06-14T07:53:51Z</time>
      </trkpt>
      <trkpt lat="46.61702" lon="4.47206">
        <ele>497.618</ele>
        <time>2020-06-14T07:53:56Z</time>
      </trkpt>
      <trkpt lat="46.61707" lon="4.47213">
        <ele>495.618</ele>
        <time>2020-06-14T07:54:01Z</time>
      </trkpt>
      <trkpt lat="46.61721" lon="4.47216">
        <ele>502.618</ele>
        <time>2020-06-14T07:54:06Z</time>
      </trkpt>
      <trkpt lat="46.61727" lon="4.47224">
        <ele>503.618</ele>
        <time>2020-06-14T07:54:12Z</time>
      </trkpt>
      <trkpt lat="46.61733" lon="4.47229">
        <ele>503.618</ele>
        <time>2020-06-14T07:54:17Z</time>
      </trkpt>
      <trkpt lat="46.6174" lon="4.47233">
        <ele>504.618</ele>
        <time>2020-06-14T07:54:22Z</time>
      </trkpt>
      <trkpt lat="46.61748" lon="4.47238">
        <ele>502.618</ele>
        <time>2020-06-14T07:54:27Z</time>
      </trkpt>
      <trkpt lat="46.61757" lon="4.47241">
        <ele>499.618</ele>
        <time>2020-06-14T07:54:32Z</time>
      </trkpt>
      <trkpt lat="46.61763" lon="4.47244">
        <ele>500.618</ele>
        <time>2020-06-14T07:54:38Z</time>
      </trkpt>
      <trkpt lat="46.61759" lon="4.47253">
        <ele>503.618</ele>
        <time>2020-06-14T07:54:48Z</time>
      </trkpt>
      <trkpt lat="46.61766" lon="4.4725">
        <ele>504.618</ele>
        <time>2020-06-14T07:54:53Z</time>
      </trkpt>
      <trkpt lat="46.61771" lon="4.47255">
        <ele>507.618</ele>
        <time>2020-06-14T07:55:25Z</time>
      </trkpt>
      <trkpt lat="46.61779" lon="4.47259">
        <ele>507.618</ele>
        <time>2020-06-14T07:55:51Z</time>
      </trkpt>
      <trkpt lat="46.61784" lon="4.47267">
        <ele>508.618</ele>
        <time>2020-06-14T07:55:58Z</time>
      </trkpt>
      <trkpt lat="46.61786" lon="4.47276">
        <ele>509.618</ele>
        <time>2020-06-14T07:56:07Z</time>
      </trkpt>
      <trkpt lat="46.61793" lon="4.47283">
        <ele>508.618</ele>
        <time>2020-06-14T07:56:15Z</time>
      </trkpt>
      <trkpt lat="46.61798" lon="4.4729">
        <ele>509.618</ele>
        <time>2020-06-14T07:56:20Z</time>
      </trkpt>
      <trkpt lat="46.61798" lon="4.473">
        <ele>508.618</ele>
        <time>2020-06-14T07:56:28Z</time>
      </trkpt>
      <trkpt lat="46.61795" lon="4.47309">
        <ele>507.618</ele>
        <time>2020-06-14T07:56:35Z</time>
      </trkpt>
      <trkpt lat="46.61799" lon="4.47318">
        <ele>509.618</ele>
        <time>2020-06-14T07:56:41Z</time>
      </trkpt>
      <trkpt lat="46.61802" lon="4.47329">
        <ele>510.618</ele>
        <time>2020-06-14T07:56:47Z</time>
      </trkpt>
      <trkpt lat="46.61801" lon="4.47339">
        <ele>510.618</ele>
        <time>2020-06-14T07:56:53Z</time>
      </trkpt>
      <trkpt lat="46.61805" lon="4.47349">
        <ele>512.618</ele>
        <time>2020-06-14T07:57:01Z</time>
      </trkpt>
      <trkpt lat="46.61801" lon="4.47341">
        <ele>517.618</ele>
        <time>2020-06-14T07:57:27Z</time>
      </trkpt>
      <trkpt lat="46.61798" lon="4.47332">
        <ele>515.618</ele>
        <time>2020-06-14T07:57:32Z</time>
      </trkpt>
      <trkpt lat="46.61796" lon="4.47321">
        <ele>510.618</ele>
        <time>2020-06-14T07:57:41Z</time>
      </trkpt>
      <trkpt lat="46.61795" lon="4.47309">
        <ele>507.618</ele>
        <time>2020-06-14T07:57:47Z</time>
      </trkpt>
      <trkpt lat="46.61792" lon="4.47299">
        <ele>506.618</ele>
        <time>2020-06-14T07:57:55Z</time>
      </trkpt>
      <trkpt lat="46.6179" lon="4.4729">
        <ele>504.618</ele>
        <time>2020-06-14T07:58:00Z</time>
      </trkpt>
      <trkpt lat="46.61787" lon="4.47282">
        <ele>499.618</ele>
        <time>2020-06-14T07:58:09Z</time>
      </trkpt>
      <trkpt lat="46.61793" lon="4.47286">
        <ele>508.618</ele>
        <time>2020-06-14T08:06:35Z</time>
      </trkpt>
      <trkpt lat="46.61788" lon="4.47279">
        <ele>506.618</ele>
        <time>2020-06-14T08:14:28Z</time>
      </trkpt>
      <trkpt lat="46.61783" lon="4.47274">
        <ele>497.618</ele>
        <time>2020-06-14T08:14:35Z</time>
      </trkpt>
      <trkpt lat="46.61779" lon="4.47266">
        <ele>496.618</ele>
        <time>2020-06-14T08:14:42Z</time>
      </trkpt>
      <trkpt lat="46.61774" lon="4.47258">
        <ele>497.618</ele>
        <time>2020-06-14T08:14:49Z</time>
      </trkpt>
      <trkpt lat="46.61768" lon="4.4725">
        <ele>497.618</ele>
        <time>2020-06-14T08:14:55Z</time>
      </trkpt>
      <trkpt lat="46.61764" lon="4.4724">
        <ele>499.618</ele>
        <time>2020-06-14T08:15:04Z</time>
      </trkpt>
      <trkpt lat="46.61757" lon="4.47233">
        <ele>501.618</ele>
        <time>2020-06-14T08:15:09Z</time>
      </trkpt>
      <trkpt lat="46.61751" lon="4.47231">
        <ele>501.618</ele>
        <time>2020-06-14T08:15:15Z</time>
      </trkpt>
      <trkpt lat="46.61745" lon="4.47226">
        <ele>505.618</ele>
        <time>2020-06-14T08:15:21Z</time>
      </trkpt>
      <trkpt lat="46.61739" lon="4.4722">
        <ele>502.618</ele>
        <time>2020-06-14T08:15:28Z</time>
      </trkpt>
      <trkpt lat="46.61733" lon="4.47215">
        <ele>504.618</ele>
        <time>2020-06-14T08:15:35Z</time>
      </trkpt>
      <trkpt lat="46.61725" lon="4.47211">
        <ele>500.618</ele>
        <time>2020-06-14T08:15:41Z</time>
      </trkpt>
      <trkpt lat="46.61718" lon="4.47208">
        <ele>502.618</ele>
        <time>2020-06-14T08:15:47Z</time>
      </trkpt>
      <trkpt lat="46.61712" lon="4.47206">
        <ele>502.618</ele>
        <time>2020-06-14T08:15:52Z</time>
      </trkpt>
      <trkpt lat="46.61705" lon="4.47203">
        <ele>502.618</ele>
        <time>2020-06-14T08:15:57Z</time>
      </trkpt>
      <trkpt lat="46.61698" lon="4.47199">
        <ele>501.618</ele>
        <time>2020-06-14T08:16:04Z</time>
      </trkpt>
      <trkpt lat="46.61691" lon="4.47194">
        <ele>501.618</ele>
        <time>2020-06-14T08:16:09Z</time>
      </trkpt>
      <trkpt lat="46.61684" lon="4.47192">
        <ele>503.618</ele>
        <time>2020-06-14T08:16:14Z</time>
      </trkpt>
      <trkpt lat="46.6168" lon="4.47183">
        <ele>506.618</ele>
        <time>2020-06-14T08:16:22Z</time>
      </trkpt>
      <trkpt lat="46.61673" lon="4.47185">
        <ele>510.618</ele>
        <time>2020-06-14T08:16:27Z</time>
      </trkpt>
      <trkpt lat="46.61665" lon="4.47179">
        <ele>509.618</ele>
        <time>2020-06-14T08:16:33Z</time>
      </trkpt>
      <trkpt lat="46.61659" lon="4.47165">
        <ele>510.618</ele>
        <time>2020-06-14T08:16:38Z</time>
      </trkpt>
      <trkpt lat="46.61652" lon="4.47163">
        <ele>514.618</ele>
        <time>2020-06-14T08:16:43Z</time>
      </trkpt>
      <trkpt lat="46.61646" lon="4.47157">
        <ele>517.618</ele>
        <time>2020-06-14T08:16:49Z</time>
      </trkpt>
      <trkpt lat="46.61639" lon="4.47155">
        <ele>516.618</ele>
        <time>2020-06-14T08:16:54Z</time>
      </trkpt>
      <trkpt lat="46.6163" lon="4.47151">
        <ele>515.618</ele>
        <time>2020-06-14T08:16:59Z</time>
      </trkpt>
      <trkpt lat="46.61622" lon="4.47145">
        <ele>518.617</ele>
        <time>2020-06-14T08:17:05Z</time>
      </trkpt>
      <trkpt lat="46.61616" lon="4.47141">
        <ele>519.617</ele>
        <time>2020-06-14T08:17:10Z</time>
      </trkpt>
      <trkpt lat="46.61609" lon="4.4714">
        <ele>519.617</ele>
        <time>2020-06-14T08:17:17Z</time>
      </trkpt>
      <trkpt lat="46.61603" lon="4.4714">
        <ele>520.617</ele>
        <time>2020-06-14T08:17:23Z</time>
      </trkpt>
      <trkpt lat="46.61595" lon="4.47142">
        <ele>517.617</ele>
        <time>2020-06-14T08:17:28Z</time>
      </trkpt>
      <trkpt lat="46.61588" lon="4.47144">
        <ele>513.617</ele>
        <time>2020-06-14T08:17:35Z</time>
      </trkpt>
      <trkpt lat="46.61581" lon="4.47144">
        <ele>512.617</ele>
        <time>2020-06-14T08:17:41Z</time>
      </trkpt>
      <trkpt lat="46.61574" lon="4.47145">
        <ele>513.617</ele>
        <time>2020-06-14T08:17:46Z</time>
      </trkpt>
      <trkpt lat="46.61568" lon="4.47139">
        <ele>514.617</ele>
        <time>2020-06-14T08:17:51Z</time>
      </trkpt>
      <trkpt lat="46.6156" lon="4.47132">
        <ele>513.617</ele>
        <time>2020-06-14T08:17:56Z</time>
      </trkpt>
      <trkpt lat="46.61553" lon="4.47131">
        <ele>514.617</ele>
        <time>2020-06-14T08:18:01Z</time>
      </trkpt>
      <trkpt lat="46.61543" lon="4.47128">
        <ele>511.617</ele>
        <time>2020-06-14T08:18:06Z</time>
      </trkpt>
      <trkpt lat="46.61536" lon="4.47125">
        <ele>511.617</ele>
        <time>2020-06-14T08:18:11Z</time>
      </trkpt>
      <trkpt lat="46.61529" lon="4.47127">
        <ele>511.617</ele>
        <time>2020-06-14T08:18:17Z</time>
      </trkpt>
      <trkpt lat="46.61522" lon="4.47127">
        <ele>514.617</ele>
        <time>2020-06-14T08:18:23Z</time>
      </trkpt>
      <trkpt lat="46.61514" lon="4.47126">
        <ele>513.617</ele>
        <time>2020-06-14T08:18:28Z</time>
      </trkpt>
      <trkpt lat="46.61507" lon="4.47124">
        <ele>511.617</ele>
        <time>2020-06-14T08:18:35Z</time>
      </trkpt>
      <trkpt lat="46.61501" lon="4.47124">
        <ele>510.617</ele>
        <time>2020-06-14T08:18:40Z</time>
      </trkpt>
      <trkpt lat="46.61492" lon="4.47123">
        <ele>508.617</ele>
        <time>2020-06-14T08:18:45Z</time>
      </trkpt>
      <trkpt lat="46.61487" lon="4.47117">
        <ele>511.617</ele>
        <time>2020-06-14T08:18:50Z</time>
      </trkpt>
      <trkpt lat="46.6148" lon="4.47114">
        <ele>513.617</ele>
        <time>2020-06-14T08:18:57Z</time>
      </trkpt>
      <trkpt lat="46.61475" lon="4.47107">
        <ele>515.617</ele>
        <time>2020-06-14T08:19:02Z</time>
      </trkpt>
      <trkpt lat="46.61469" lon="4.47101">
        <ele>516.617</ele>
        <time>2020-06-14T08:19:09Z</time>
      </trkpt>
      <trkpt lat="46.61463" lon="4.47095">
        <ele>515.617</ele>
        <time>2020-06-14T08:19:14Z</time>
      </trkpt>
      <trkpt lat="46.61458" lon="4.47085">
        <ele>516.617</ele>
        <time>2020-06-14T08:19:19Z</time>
      </trkpt>
      <trkpt lat="46.61452" lon="4.47078">
        <ele>518.617</ele>
        <time>2020-06-14T08:19:24Z</time>
      </trkpt>
      <trkpt lat="46.61448" lon="4.4707">
        <ele>520.617</ele>
        <time>2020-06-14T08:19:32Z</time>
      </trkpt>
      <trkpt lat="46.61454" lon="4.47061">
        <ele>520.617</ele>
        <time>2020-06-14T08:19:37Z</time>
      </trkpt>
      <trkpt lat="46.61448" lon="4.47052">
        <ele>520.617</ele>
        <time>2020-06-14T08:19:42Z</time>
      </trkpt>
      <trkpt lat="46.61441" lon="4.47045">
        <ele>515.617</ele>
        <time>2020-06-14T08:19:47Z</time>
      </trkpt>
      <trkpt lat="46.61434" lon="4.47037">
        <ele>514.617</ele>
        <time>2020-06-14T08:19:52Z</time>
      </trkpt>
      <trkpt lat="46.61431" lon="4.47019">
        <ele>510.617</ele>
        <time>2020-06-14T08:19:57Z</time>
      </trkpt>
      <trkpt lat="46.61429" lon="4.4701">
        <ele>506.617</ele>
        <time>2020-06-14T08:20:02Z</time>
      </trkpt>
      <trkpt lat="46.61423" lon="4.47">
        <ele>509.617</ele>
        <time>2020-06-14T08:20:07Z</time>
      </trkpt>
      <trkpt lat="46.6142" lon="4.46992">
        <ele>507.617</ele>
        <time>2020-06-14T08:20:13Z</time>
      </trkpt>
      <trkpt lat="46.61415" lon="4.46983">
        <ele>508.617</ele>
        <time>2020-06-14T08:20:18Z</time>
      </trkpt>
      <trkpt lat="46.61414" lon="4.46973">
        <ele>510.617</ele>
        <time>2020-06-14T08:20:23Z</time>
      </trkpt>
      <trkpt lat="46.6141" lon="4.46964">
        <ele>511.617</ele>
        <time>2020-06-14T08:20:28Z</time>
      </trkpt>
      <trkpt lat="46.61408" lon="4.46953">
        <ele>516.617</ele>
        <time>2020-06-14T08:20:33Z</time>
      </trkpt>
      <trkpt lat="46.61406" lon="4.46943">
        <ele>516.617</ele>
        <time>2020-06-14T08:20:38Z</time>
      </trkpt>
      <trkpt lat="46.61401" lon="4.46934">
        <ele>518.617</ele>
        <time>2020-06-14T08:20:43Z</time>
      </trkpt>
      <trkpt lat="46.61395" lon="4.46925">
        <ele>519.617</ele>
        <time>2020-06-14T08:20:50Z</time>
      </trkpt>
      <trkpt lat="46.61389" lon="4.46917">
        <ele>520.617</ele>
        <time>2020-06-14T08:20:56Z</time>
      </trkpt>
      <trkpt lat="46.61385" lon="4.4691">
        <ele>519.617</ele>
        <time>2020-06-14T08:21:01Z</time>
      </trkpt>
      <trkpt lat="46.61381" lon="4.46902">
        <ele>518.617</ele>
        <time>2020-06-14T08:21:06Z</time>
      </trkpt>
      <trkpt lat="46.61376" lon="4.46893">
        <ele>516.617</ele>
        <time>2020-06-14T08:21:12Z</time>
      </trkpt>
      <trkpt lat="46.61373" lon="4.46883">
        <ele>516.617</ele>
        <time>2020-06-14T08:21:17Z</time>
      </trkpt>
      <trkpt lat="46.61367" lon="4.46881">
        <ele>511.617</ele>
        <time>2020-06-14T08:21:23Z</time>
      </trkpt>
      <trkpt lat="46.6136" lon="4.46875">
        <ele>512.617</ele>
        <time>2020-06-14T08:21:29Z</time>
      </trkpt>
      <trkpt lat="46.61354" lon="4.46867">
        <ele>517.617</ele>
        <time>2020-06-14T08:21:34Z</time>
      </trkpt>
      <trkpt lat="46.61349" lon="4.46857">
        <ele>510.617</ele>
        <time>2020-06-14T08:21:39Z</time>
      </trkpt>
      <trkpt lat="46.61344" lon="4.46847">
        <ele>516.617</ele>
        <time>2020-06-14T08:21:46Z</time>
      </trkpt>
      <trkpt lat="46.61338" lon="4.4684">
        <ele>515.616</ele>
        <time>2020-06-14T08:21:51Z</time>
      </trkpt>
      <trkpt lat="46.61332" lon="4.46832">
        <ele>513.616</ele>
        <time>2020-06-14T08:21:56Z</time>
      </trkpt>
      <trkpt lat="46.61327" lon="4.46825">
        <ele>513.616</ele>
        <time>2020-06-14T08:22:02Z</time>
      </trkpt>
      <trkpt lat="46.61303" lon="4.46841">
        <ele>512.616</ele>
        <time>2020-06-14T08:22:11Z</time>
      </trkpt>
      <trkpt lat="46.61325" lon="4.46821">
        <ele>515.616</ele>
        <time>2020-06-14T08:22:16Z</time>
      </trkpt>
      <trkpt lat="46.61324" lon="4.4681">
        <ele>513.616</ele>
        <time>2020-06-14T08:23:40Z</time>
      </trkpt>
      <trkpt lat="46.61325" lon="4.46795">
        <ele>507.616</ele>
        <time>2020-06-14T08:23:45Z</time>
      </trkpt>
      <trkpt lat="46.61319" lon="4.46783">
        <ele>499.616</ele>
        <time>2020-06-14T08:23:50Z</time>
      </trkpt>
      <trkpt lat="46.61316" lon="4.46769">
        <ele>497.616</ele>
        <time>2020-06-14T08:23:55Z</time>
      </trkpt>
      <trkpt lat="46.61314" lon="4.46754">
        <ele>495.616</ele>
        <time>2020-06-14T08:24:00Z</time>
      </trkpt>
      <trkpt lat="46.61309" lon="4.46743">
        <ele>495.616</ele>
        <time>2020-06-14T08:24:05Z</time>
      </trkpt>
      <trkpt lat="46.6131" lon="4.4673">
        <ele>494.616</ele>
        <time>2020-06-14T08:24:10Z</time>
      </trkpt>
      <trkpt lat="46.61306" lon="4.46721">
        <ele>493.616</ele>
        <time>2020-06-14T08:24:15Z</time>
      </trkpt>
      <trkpt lat="46.61305" lon="4.46711">
        <ele>493.616</ele>
        <time>2020-06-14T08:24:20Z</time>
      </trkpt>
      <trkpt lat="46.61303" lon="4.467">
        <ele>492.616</ele>
        <time>2020-06-14T08:24:25Z</time>
      </trkpt>
      <trkpt lat="46.61303" lon="4.46687">
        <ele>493.616</ele>
        <time>2020-06-14T08:24:30Z</time>
      </trkpt>
      <trkpt lat="46.61303" lon="4.46675">
        <ele>495.616</ele>
        <time>2020-06-14T08:24:35Z</time>
      </trkpt>
      <trkpt lat="46.61302" lon="4.46664">
        <ele>493.616</ele>
        <time>2020-06-14T08:24:42Z</time>
      </trkpt>
      <trkpt lat="46.613" lon="4.46651">
        <ele>492.616</ele>
        <time>2020-06-14T08:24:47Z</time>
      </trkpt>
      <trkpt lat="46.61296" lon="4.46638">
        <ele>495.616</ele>
        <time>2020-06-14T08:24:52Z</time>
      </trkpt>
      <trkpt lat="46.61299" lon="4.46628">
        <ele>486.616</ele>
        <time>2020-06-14T08:25:00Z</time>
      </trkpt>
      <trkpt lat="46.613" lon="4.46614">
        <ele>487.616</ele>
        <time>2020-06-14T08:25:05Z</time>
      </trkpt>
      <trkpt lat="46.61304" lon="4.46601">
        <ele>488.616</ele>
        <time>2020-06-14T08:25:10Z</time>
      </trkpt>
      <trkpt lat="46.61304" lon="4.46589">
        <ele>488.616</ele>
        <time>2020-06-14T08:25:15Z</time>
      </trkpt>
      <trkpt lat="46.613" lon="4.46581">
        <ele>488.616</ele>
        <time>2020-06-14T08:25:20Z</time>
      </trkpt>
      <trkpt lat="46.61293" lon="4.46576">
        <ele>486.616</ele>
        <time>2020-06-14T08:25:26Z</time>
      </trkpt>
      <trkpt lat="46.61286" lon="4.46572">
        <ele>487.616</ele>
        <time>2020-06-14T08:25:31Z</time>
      </trkpt>
      <trkpt lat="46.61279" lon="4.46569">
        <ele>487.616</ele>
        <time>2020-06-14T08:25:36Z</time>
      </trkpt>
      <trkpt lat="46.61273" lon="4.46562">
        <ele>485.616</ele>
        <time>2020-06-14T08:25:41Z</time>
      </trkpt>
      <trkpt lat="46.61266" lon="4.4656">
        <ele>478.616</ele>
        <time>2020-06-14T08:25:48Z</time>
      </trkpt>
      <trkpt lat="46.61258" lon="4.46562">
        <ele>475.616</ele>
        <time>2020-06-14T08:25:54Z</time>
      </trkpt>
      <trkpt lat="46.61252" lon="4.46559">
        <ele>473.616</ele>
        <time>2020-06-14T08:25:59Z</time>
      </trkpt>
      <trkpt lat="46.61246" lon="4.46555">
        <ele>473.616</ele>
        <time>2020-06-14T08:26:04Z</time>
      </trkpt>
      <trkpt lat="46.6124" lon="4.46547">
        <ele>473.616</ele>
        <time>2020-06-14T08:26:09Z</time>
      </trkpt>
      <trkpt lat="46.61233" lon="4.46536">
        <ele>478.616</ele>
        <time>2020-06-14T08:26:14Z</time>
      </trkpt>
      <trkpt lat="46.61229" lon="4.46526">
        <ele>478.616</ele>
        <time>2020-06-14T08:26:19Z</time>
      </trkpt>
      <trkpt lat="46.61222" lon="4.46517">
        <ele>481.616</ele>
        <time>2020-06-14T08:26:24Z</time>
      </trkpt>
      <trkpt lat="46.61216" lon="4.46509">
        <ele>481.616</ele>
        <time>2020-06-14T08:26:29Z</time>
      </trkpt>
      <trkpt lat="46.61209" lon="4.46501">
        <ele>485.616</ele>
        <time>2020-06-14T08:26:34Z</time>
      </trkpt>
      <trkpt lat="46.61202" lon="4.465">
        <ele>487.616</ele>
        <time>2020-06-14T08:26:50Z</time>
      </trkpt>
      <trkpt lat="46.61195" lon="4.46504">
        <ele>483.616</ele>
        <time>2020-06-14T08:26:55Z</time>
      </trkpt>
      <trkpt lat="46.61187" lon="4.46506">
        <ele>480.616</ele>
        <time>2020-06-14T08:27:05Z</time>
      </trkpt>
      <trkpt lat="46.61181" lon="4.4651">
        <ele>480.616</ele>
        <time>2020-06-14T08:27:10Z</time>
      </trkpt>
      <trkpt lat="46.61175" lon="4.46516">
        <ele>484.616</ele>
        <time>2020-06-14T08:27:15Z</time>
      </trkpt>
      <trkpt lat="46.61169" lon="4.4652">
        <ele>486.616</ele>
        <time>2020-06-14T08:27:21Z</time>
      </trkpt>
      <trkpt lat="46.61162" lon="4.46527">
        <ele>486.616</ele>
        <time>2020-06-14T08:27:29Z</time>
      </trkpt>
      <trkpt lat="46.61155" lon="4.46532">
        <ele>487.616</ele>
        <time>2020-06-14T08:27:34Z</time>
      </trkpt>
      <trkpt lat="46.61148" lon="4.46537">
        <ele>486.616</ele>
        <time>2020-06-14T08:27:42Z</time>
      </trkpt>
      <trkpt lat="46.61141" lon="4.46542">
        <ele>488.616</ele>
        <time>2020-06-14T08:27:48Z</time>
      </trkpt>
      <trkpt lat="46.61134" lon="4.46547">
        <ele>488.616</ele>
        <time>2020-06-14T08:27:53Z</time>
      </trkpt>
      <trkpt lat="46.61127" lon="4.4655">
        <ele>488.616</ele>
        <time>2020-06-14T08:27:58Z</time>
      </trkpt>
      <trkpt lat="46.61119" lon="4.46555">
        <ele>488.616</ele>
        <time>2020-06-14T08:28:03Z</time>
      </trkpt>
      <trkpt lat="46.61113" lon="4.46559">
        <ele>488.616</ele>
        <time>2020-06-14T08:28:08Z</time>
      </trkpt>
      <trkpt lat="46.61106" lon="4.46564">
        <ele>488.616</ele>
        <time>2020-06-14T08:28:14Z</time>
      </trkpt>
      <trkpt lat="46.61099" lon="4.46569">
        <ele>489.616</ele>
        <time>2020-06-14T08:28:20Z</time>
      </trkpt>
      <trkpt lat="46.61092" lon="4.46574">
        <ele>488.616</ele>
        <time>2020-06-14T08:28:28Z</time>
      </trkpt>
      <trkpt lat="46.61087" lon="4.46579">
        <ele>488.616</ele>
        <time>2020-06-14T08:28:34Z</time>
      </trkpt>
      <trkpt lat="46.61078" lon="4.4658">
        <ele>485.616</ele>
        <time>2020-06-14T08:28:39Z</time>
      </trkpt>
      <trkpt lat="46.61071" lon="4.46582">
        <ele>484.616</ele>
        <time>2020-06-14T08:28:44Z</time>
      </trkpt>
      <trkpt lat="46.61063" lon="4.46581">
        <ele>484.616</ele>
        <time>2020-06-14T08:28:49Z</time>
      </trkpt>
      <trkpt lat="46.61056" lon="4.46581">
        <ele>483.616</ele>
        <time>2020-06-14T08:29:04Z</time>
      </trkpt>
      <trkpt lat="46.61048" lon="4.46579">
        <ele>485.616</ele>
        <time>2020-06-14T08:29:09Z</time>
      </trkpt>
      <trkpt lat="46.61043" lon="4.46573">
        <ele>483.615</ele>
        <time>2020-06-14T08:29:15Z</time>
      </trkpt>
      <trkpt lat="46.61037" lon="4.46567">
        <ele>481.615</ele>
        <time>2020-06-14T08:29:20Z</time>
      </trkpt>
      <trkpt lat="46.61032" lon="4.46561">
        <ele>481.615</ele>
        <time>2020-06-14T08:29:25Z</time>
      </trkpt>
      <trkpt lat="46.61026" lon="4.46557">
        <ele>481.615</ele>
        <time>2020-06-14T08:29:31Z</time>
      </trkpt>
      <trkpt lat="46.61021" lon="4.46551">
        <ele>477.615</ele>
        <time>2020-06-14T08:29:37Z</time>
      </trkpt>
      <trkpt lat="46.61013" lon="4.46543">
        <ele>481.615</ele>
        <time>2020-06-14T08:29:42Z</time>
      </trkpt>
      <trkpt lat="46.61006" lon="4.46536">
        <ele>480.615</ele>
        <time>2020-06-14T08:29:47Z</time>
      </trkpt>
      <trkpt lat="46.60999" lon="4.46534">
        <ele>480.615</ele>
        <time>2020-06-14T08:29:52Z</time>
      </trkpt>
      <trkpt lat="46.6099" lon="4.46534">
        <ele>479.615</ele>
        <time>2020-06-14T08:29:57Z</time>
      </trkpt>
      <trkpt lat="46.60983" lon="4.46533">
        <ele>478.615</ele>
        <time>2020-06-14T08:30:02Z</time>
      </trkpt>
      <trkpt lat="46.60976" lon="4.46529">
        <ele>480.615</ele>
        <time>2020-06-14T08:30:07Z</time>
      </trkpt>
      <trkpt lat="46.60968" lon="4.46532">
        <ele>482.615</ele>
        <time>2020-06-14T08:30:13Z</time>
      </trkpt>
      <trkpt lat="46.60962" lon="4.46534">
        <ele>481.615</ele>
        <time>2020-06-14T08:30:18Z</time>
      </trkpt>
      <trkpt lat="46.60954" lon="4.46538">
        <ele>478.615</ele>
        <time>2020-06-14T08:30:23Z</time>
      </trkpt>
      <trkpt lat="46.60946" lon="4.46537">
        <ele>477.615</ele>
        <time>2020-06-14T08:30:28Z</time>
      </trkpt>
      <trkpt lat="46.60939" lon="4.4654">
        <ele>477.615</ele>
        <time>2020-06-14T08:30:33Z</time>
      </trkpt>
      <trkpt lat="46.60932" lon="4.46539">
        <ele>478.615</ele>
        <time>2020-06-14T08:30:38Z</time>
      </trkpt>
      <trkpt lat="46.60924" lon="4.46535">
        <ele>476.615</ele>
        <time>2020-06-14T08:30:43Z</time>
      </trkpt>
      <trkpt lat="46.60918" lon="4.46534">
        <ele>480.615</ele>
        <time>2020-06-14T08:30:48Z</time>
      </trkpt>
      <trkpt lat="46.60911" lon="4.46537">
        <ele>477.615</ele>
        <time>2020-06-14T08:30:53Z</time>
      </trkpt>
      <trkpt lat="46.60905" lon="4.46541">
        <ele>473.615</ele>
        <time>2020-06-14T08:30:58Z</time>
      </trkpt>
      <trkpt lat="46.60897" lon="4.46539">
        <ele>475.615</ele>
        <time>2020-06-14T08:31:03Z</time>
      </trkpt>
      <trkpt lat="46.6089" lon="4.46534">
        <ele>475.615</ele>
        <time>2020-06-14T08:31:08Z</time>
      </trkpt>
      <trkpt lat="46.60882" lon="4.46529">
        <ele>474.615</ele>
        <time>2020-06-14T08:31:13Z</time>
      </trkpt>
      <trkpt lat="46.60873" lon="4.46529">
        <ele>473.615</ele>
        <time>2020-06-14T08:31:24Z</time>
      </trkpt>
      <trkpt lat="46.60866" lon="4.46535">
        <ele>472.615</ele>
        <time>2020-06-14T08:31:32Z</time>
      </trkpt>
      <trkpt lat="46.60856" lon="4.46534">
        <ele>472.615</ele>
        <time>2020-06-14T08:31:37Z</time>
      </trkpt>
      <trkpt lat="46.60848" lon="4.46538">
        <ele>479.615</ele>
        <time>2020-06-14T08:31:49Z</time>
      </trkpt>
      <trkpt lat="46.60841" lon="4.46541">
        <ele>482.615</ele>
        <time>2020-06-14T08:31:54Z</time>
      </trkpt>
      <trkpt lat="46.60835" lon="4.46546">
        <ele>481.615</ele>
        <time>2020-06-14T08:31:59Z</time>
      </trkpt>
      <trkpt lat="46.60828" lon="4.46549">
        <ele>482.615</ele>
        <time>2020-06-14T08:32:04Z</time>
      </trkpt>
      <trkpt lat="46.6082" lon="4.46553">
        <ele>482.615</ele>
        <time>2020-06-14T08:32:09Z</time>
      </trkpt>
      <trkpt lat="46.60812" lon="4.46554">
        <ele>486.615</ele>
        <time>2020-06-14T08:32:14Z</time>
      </trkpt>
      <trkpt lat="46.60806" lon="4.46562">
        <ele>484.615</ele>
        <time>2020-06-14T08:32:20Z</time>
      </trkpt>
      <trkpt lat="46.60799" lon="4.46562">
        <ele>483.615</ele>
        <time>2020-06-14T08:32:27Z</time>
      </trkpt>
      <trkpt lat="46.60791" lon="4.46563">
        <ele>479.615</ele>
        <time>2020-06-14T08:32:32Z</time>
      </trkpt>
      <trkpt lat="46.60784" lon="4.46566">
        <ele>477.615</ele>
        <time>2020-06-14T08:32:37Z</time>
      </trkpt>
      <trkpt lat="46.60775" lon="4.46568">
        <ele>474.615</ele>
        <time>2020-06-14T08:32:42Z</time>
      </trkpt>
      <trkpt lat="46.6077" lon="4.46575">
        <ele>470.615</ele>
        <time>2020-06-14T08:32:49Z</time>
      </trkpt>
      <trkpt lat="46.60762" lon="4.4658">
        <ele>470.615</ele>
        <time>2020-06-14T08:32:56Z</time>
      </trkpt>
      <trkpt lat="46.60753" lon="4.46585">
        <ele>473.615</ele>
        <time>2020-06-14T08:33:01Z</time>
      </trkpt>
      <trkpt lat="46.60743" lon="4.46587">
        <ele>469.615</ele>
        <time>2020-06-14T08:33:06Z</time>
      </trkpt>
      <trkpt lat="46.60737" lon="4.46589">
        <ele>470.615</ele>
        <time>2020-06-14T08:33:11Z</time>
      </trkpt>
      <trkpt lat="46.60732" lon="4.466">
        <ele>471.615</ele>
        <time>2020-06-14T08:33:16Z</time>
      </trkpt>
      <trkpt lat="46.60723" lon="4.46603">
        <ele>472.615</ele>
        <time>2020-06-14T08:33:21Z</time>
      </trkpt>
      <trkpt lat="46.60721" lon="4.46613">
        <ele>476.615</ele>
        <time>2020-06-14T08:33:27Z</time>
      </trkpt>
      <trkpt lat="46.60715" lon="4.4662">
        <ele>475.615</ele>
        <time>2020-06-14T08:33:33Z</time>
      </trkpt>
      <trkpt lat="46.60708" lon="4.46627">
        <ele>474.615</ele>
        <time>2020-06-14T08:33:39Z</time>
      </trkpt>
      <trkpt lat="46.60705" lon="4.46636">
        <ele>471.615</ele>
        <time>2020-06-14T08:33:47Z</time>
      </trkpt>
      <trkpt lat="46.60697" lon="4.4664">
        <ele>469.615</ele>
        <time>2020-06-14T08:33:52Z</time>
      </trkpt>
      <trkpt lat="46.60688" lon="4.46643">
        <ele>469.615</ele>
        <time>2020-06-14T08:33:57Z</time>
      </trkpt>
      <trkpt lat="46.60679" lon="4.46646">
        <ele>470.615</ele>
        <time>2020-06-14T08:34:02Z</time>
      </trkpt>
      <trkpt lat="46.60672" lon="4.46647">
        <ele>470.615</ele>
        <time>2020-06-14T08:34:08Z</time>
      </trkpt>
      <trkpt lat="46.60664" lon="4.46648">
        <ele>472.614</ele>
        <time>2020-06-14T08:34:13Z</time>
      </trkpt>
      <trkpt lat="46.60658" lon="4.46652">
        <ele>470.614</ele>
        <time>2020-06-14T08:34:19Z</time>
      </trkpt>
      <trkpt lat="46.60651" lon="4.46655">
        <ele>471.614</ele>
        <time>2020-06-14T08:34:24Z</time>
      </trkpt>
      <trkpt lat="46.60643" lon="4.46655">
        <ele>472.614</ele>
        <time>2020-06-14T08:34:30Z</time>
      </trkpt>
      <trkpt lat="46.60636" lon="4.46652">
        <ele>470.614</ele>
        <time>2020-06-14T08:34:35Z</time>
      </trkpt>
      <trkpt lat="46.6063" lon="4.46648">
        <ele>476.614</ele>
        <time>2020-06-14T08:34:44Z</time>
      </trkpt>
      <trkpt lat="46.60622" lon="4.4665">
        <ele>473.614</ele>
        <time>2020-06-14T08:34:49Z</time>
      </trkpt>
      <trkpt lat="46.60614" lon="4.46653">
        <ele>474.614</ele>
        <time>2020-06-14T08:34:54Z</time>
      </trkpt>
      <trkpt lat="46.60607" lon="4.46656">
        <ele>474.614</ele>
        <time>2020-06-14T08:34:59Z</time>
      </trkpt>
      <trkpt lat="46.60601" lon="4.46662">
        <ele>475.614</ele>
        <time>2020-06-14T08:35:04Z</time>
      </trkpt>
      <trkpt lat="46.60594" lon="4.46659">
        <ele>476.614</ele>
        <time>2020-06-14T08:35:10Z</time>
      </trkpt>
      <trkpt lat="46.60587" lon="4.46659">
        <ele>475.614</ele>
        <time>2020-06-14T08:35:15Z</time>
      </trkpt>
      <trkpt lat="46.60579" lon="4.46658">
        <ele>473.614</ele>
        <time>2020-06-14T08:35:29Z</time>
      </trkpt>
      <trkpt lat="46.60568" lon="4.46658">
        <ele>473.614</ele>
        <time>2020-06-14T08:35:34Z</time>
      </trkpt>
      <trkpt lat="46.60559" lon="4.4666">
        <ele>477.614</ele>
        <time>2020-06-14T08:35:39Z</time>
      </trkpt>
      <trkpt lat="46.60552" lon="4.46662">
        <ele>476.614</ele>
        <time>2020-06-14T08:35:45Z</time>
      </trkpt>
      <trkpt lat="46.6054" lon="4.46664">
        <ele>477.614</ele>
        <time>2020-06-14T08:35:50Z</time>
      </trkpt>
      <trkpt lat="46.60532" lon="4.46666">
        <ele>478.614</ele>
        <time>2020-06-14T08:35:55Z</time>
      </trkpt>
      <trkpt lat="46.60517" lon="4.46664">
        <ele>478.614</ele>
        <time>2020-06-14T08:36:00Z</time>
      </trkpt>
      <trkpt lat="46.60505" lon="4.46663">
        <ele>481.614</ele>
        <time>2020-06-14T08:36:05Z</time>
      </trkpt>
      <trkpt lat="46.60501" lon="4.4667">
        <ele>483.614</ele>
        <time>2020-06-14T08:36:11Z</time>
      </trkpt>
      <trkpt lat="46.60494" lon="4.46674">
        <ele>482.614</ele>
        <time>2020-06-14T08:36:18Z</time>
      </trkpt>
      <trkpt lat="46.60487" lon="4.46673">
        <ele>489.614</ele>
        <time>2020-06-14T08:36:26Z</time>
      </trkpt>
      <trkpt lat="46.60478" lon="4.46674">
        <ele>485.614</ele>
        <time>2020-06-14T08:36:31Z</time>
      </trkpt>
      <trkpt lat="46.6047" lon="4.46678">
        <ele>478.614</ele>
        <time>2020-06-14T08:36:36Z</time>
      </trkpt>
      <trkpt lat="46.60463" lon="4.4668">
        <ele>476.614</ele>
        <time>2020-06-14T08:36:41Z</time>
      </trkpt>
      <trkpt lat="46.60457" lon="4.46686">
        <ele>475.614</ele>
        <time>2020-06-14T08:36:46Z</time>
      </trkpt>
      <trkpt lat="46.60449" lon="4.46691">
        <ele>472.614</ele>
        <time>2020-06-14T08:36:51Z</time>
      </trkpt>
      <trkpt lat="46.60441" lon="4.46695">
        <ele>470.614</ele>
        <time>2020-06-14T08:36:56Z</time>
      </trkpt>
      <trkpt lat="46.60434" lon="4.46697">
        <ele>468.614</ele>
        <time>2020-06-14T08:37:03Z</time>
      </trkpt>
      <trkpt lat="46.60426" lon="4.46702">
        <ele>468.614</ele>
        <time>2020-06-14T08:37:09Z</time>
      </trkpt>
      <trkpt lat="46.60417" lon="4.46706">
        <ele>467.614</ele>
        <time>2020-06-14T08:37:14Z</time>
      </trkpt>
      <trkpt lat="46.60411" lon="4.46708">
        <ele>463.614</ele>
        <time>2020-06-14T08:37:20Z</time>
      </trkpt>
      <trkpt lat="46.60403" lon="4.46709">
        <ele>464.614</ele>
        <time>2020-06-14T08:37:29Z</time>
      </trkpt>
      <trkpt lat="46.60396" lon="4.4671">
        <ele>465.614</ele>
        <time>2020-06-14T08:37:34Z</time>
      </trkpt>
      <trkpt lat="46.6039" lon="4.46714">
        <ele>466.614</ele>
        <time>2020-06-14T08:37:42Z</time>
      </trkpt>
      <trkpt lat="46.60384" lon="4.46712">
        <ele>462.614</ele>
        <time>2020-06-14T08:38:00Z</time>
      </trkpt>
      <trkpt lat="46.60375" lon="4.4671">
        <ele>461.614</ele>
        <time>2020-06-14T08:38:05Z</time>
      </trkpt>
      <trkpt lat="46.60365" lon="4.46704">
        <ele>457.614</ele>
        <time>2020-06-14T08:38:10Z</time>
      </trkpt>
      <trkpt lat="46.60358" lon="4.467">
        <ele>454.614</ele>
        <time>2020-06-14T08:38:16Z</time>
      </trkpt>
      <trkpt lat="46.6035" lon="4.46697">
        <ele>454.614</ele>
        <time>2020-06-14T08:38:22Z</time>
      </trkpt>
      <trkpt lat="46.60337" lon="4.46689">
        <ele>454.614</ele>
        <time>2020-06-14T08:38:27Z</time>
      </trkpt>
      <trkpt lat="46.6033" lon="4.4669">
        <ele>455.614</ele>
        <time>2020-06-14T08:38:32Z</time>
      </trkpt>
      <trkpt lat="46.60324" lon="4.46686">
        <ele>454.614</ele>
        <time>2020-06-14T08:38:39Z</time>
      </trkpt>
      <trkpt lat="46.60317" lon="4.46684">
        <ele>451.614</ele>
        <time>2020-06-14T08:38:44Z</time>
      </trkpt>
      <trkpt lat="46.60311" lon="4.46681">
        <ele>450.614</ele>
        <time>2020-06-14T08:38:50Z</time>
      </trkpt>
      <trkpt lat="46.60303" lon="4.46678">
        <ele>450.614</ele>
        <time>2020-06-14T08:38:55Z</time>
      </trkpt>
      <trkpt lat="46.60296" lon="4.46676">
        <ele>448.613</ele>
        <time>2020-06-14T08:39:00Z</time>
      </trkpt>
      <trkpt lat="46.6029" lon="4.46671">
        <ele>448.613</ele>
        <time>2020-06-14T08:39:07Z</time>
      </trkpt>
      <trkpt lat="46.60284" lon="4.46666">
        <ele>448.613</ele>
        <time>2020-06-14T08:39:13Z</time>
      </trkpt>
      <trkpt lat="46.60276" lon="4.46661">
        <ele>448.613</ele>
        <time>2020-06-14T08:39:18Z</time>
      </trkpt>
      <trkpt lat="46.60268" lon="4.46653">
        <ele>449.613</ele>
        <time>2020-06-14T08:39:23Z</time>
      </trkpt>
      <trkpt lat="46.60264" lon="4.46646">
        <ele>452.613</ele>
        <time>2020-06-14T08:39:31Z</time>
      </trkpt>
      <trkpt lat="46.60258" lon="4.4664">
        <ele>454.613</ele>
        <time>2020-06-14T08:39:40Z</time>
      </trkpt>
      <trkpt lat="46.60248" lon="4.46631">
        <ele>451.613</ele>
        <time>2020-06-14T08:39:45Z</time>
      </trkpt>
      <trkpt lat="46.6024" lon="4.46624">
        <ele>454.613</ele>
        <time>2020-06-14T08:39:50Z</time>
      </trkpt>
      <trkpt lat="46.6023" lon="4.46613">
        <ele>452.613</ele>
        <time>2020-06-14T08:39:55Z</time>
      </trkpt>
      <trkpt lat="46.60218" lon="4.46612">
        <ele>444.613</ele>
        <time>2020-06-14T08:40:00Z</time>
      </trkpt>
      <trkpt lat="46.60211" lon="4.46615">
        <ele>440.613</ele>
        <time>2020-06-14T08:40:06Z</time>
      </trkpt>
      <trkpt lat="46.60206" lon="4.46623">
        <ele>438.613</ele>
        <time>2020-06-14T08:40:11Z</time>
      </trkpt>
      <trkpt lat="46.60197" lon="4.46626">
        <ele>436.613</ele>
        <time>2020-06-14T08:40:16Z</time>
      </trkpt>
      <trkpt lat="46.60187" lon="4.46634">
        <ele>439.613</ele>
        <time>2020-06-14T08:40:21Z</time>
      </trkpt>
      <trkpt lat="46.60182" lon="4.46641">
        <ele>437.613</ele>
        <time>2020-06-14T08:40:28Z</time>
      </trkpt>
      <trkpt lat="46.60177" lon="4.46648">
        <ele>435.613</ele>
        <time>2020-06-14T08:40:33Z</time>
      </trkpt>
      <trkpt lat="46.6017" lon="4.46657">
        <ele>434.613</ele>
        <time>2020-06-14T08:40:38Z</time>
      </trkpt>
      <trkpt lat="46.60167" lon="4.46669">
        <ele>433.613</ele>
        <time>2020-06-14T08:40:43Z</time>
      </trkpt>
      <trkpt lat="46.60161" lon="4.46676">
        <ele>434.613</ele>
        <time>2020-06-14T08:40:48Z</time>
      </trkpt>
      <trkpt lat="46.60157" lon="4.46688">
        <ele>433.613</ele>
        <time>2020-06-14T08:40:53Z</time>
      </trkpt>
      <trkpt lat="46.60153" lon="4.46697">
        <ele>434.613</ele>
        <time>2020-06-14T08:40:58Z</time>
      </trkpt>
      <trkpt lat="46.60149" lon="4.46706">
        <ele>434.613</ele>
        <time>2020-06-14T08:41:04Z</time>
      </trkpt>
      <trkpt lat="46.60149" lon="4.46717">
        <ele>431.613</ele>
        <time>2020-06-14T08:41:09Z</time>
      </trkpt>
      <trkpt lat="46.60144" lon="4.46725">
        <ele>432.613</ele>
        <time>2020-06-14T08:41:15Z</time>
      </trkpt>
      <trkpt lat="46.60141" lon="4.46735">
        <ele>431.613</ele>
        <time>2020-06-14T08:41:20Z</time>
      </trkpt>
      <trkpt lat="46.60139" lon="4.46744">
        <ele>431.613</ele>
        <time>2020-06-14T08:41:27Z</time>
      </trkpt>
      <trkpt lat="46.60134" lon="4.46753">
        <ele>428.613</ele>
        <time>2020-06-14T08:41:32Z</time>
      </trkpt>
      <trkpt lat="46.60133" lon="4.46763">
        <ele>428.613</ele>
        <time>2020-06-14T08:41:38Z</time>
      </trkpt>
      <trkpt lat="46.60132" lon="4.46772">
        <ele>426.613</ele>
        <time>2020-06-14T08:41:45Z</time>
      </trkpt>
      <trkpt lat="46.60124" lon="4.46785">
        <ele>424.613</ele>
        <time>2020-06-14T08:41:50Z</time>
      </trkpt>
      <trkpt lat="46.60123" lon="4.46795">
        <ele>422.613</ele>
        <time>2020-06-14T08:41:55Z</time>
      </trkpt>
      <trkpt lat="46.6012" lon="4.46806">
        <ele>421.613</ele>
        <time>2020-06-14T08:42:03Z</time>
      </trkpt>
      <trkpt lat="46.60118" lon="4.46816">
        <ele>421.613</ele>
        <time>2020-06-14T08:42:08Z</time>
      </trkpt>
      <trkpt lat="46.60115" lon="4.46826">
        <ele>419.613</ele>
        <time>2020-06-14T08:42:14Z</time>
      </trkpt>
      <trkpt lat="46.6011" lon="4.46835">
        <ele>422.613</ele>
        <time>2020-06-14T08:42:20Z</time>
      </trkpt>
      <trkpt lat="46.60106" lon="4.46844">
        <ele>424.613</ele>
        <time>2020-06-14T08:42:25Z</time>
      </trkpt>
      <trkpt lat="46.60099" lon="4.46852">
        <ele>424.613</ele>
        <time>2020-06-14T08:42:30Z</time>
      </trkpt>
      <trkpt lat="46.60095" lon="4.4686">
        <ele>426.613</ele>
        <time>2020-06-14T08:42:38Z</time>
      </trkpt>
      <trkpt lat="46.60088" lon="4.46868">
        <ele>426.613</ele>
        <time>2020-06-14T08:42:43Z</time>
      </trkpt>
      <trkpt lat="46.60082" lon="4.46877">
        <ele>427.613</ele>
        <time>2020-06-14T08:42:48Z</time>
      </trkpt>
      <trkpt lat="46.60076" lon="4.46883">
        <ele>427.613</ele>
        <time>2020-06-14T08:42:53Z</time>
      </trkpt>
      <trkpt lat="46.60072" lon="4.46891">
        <ele>424.613</ele>
        <time>2020-06-14T08:42:58Z</time>
      </trkpt>
      <trkpt lat="46.60068" lon="4.46902">
        <ele>425.613</ele>
        <time>2020-06-14T08:43:03Z</time>
      </trkpt>
      <trkpt lat="46.60065" lon="4.46911">
        <ele>426.613</ele>
        <time>2020-06-14T08:43:09Z</time>
      </trkpt>
      <trkpt lat="46.60061" lon="4.4692">
        <ele>428.613</ele>
        <time>2020-06-14T08:43:15Z</time>
      </trkpt>
      <trkpt lat="46.60058" lon="4.46929">
        <ele>426.613</ele>
        <time>2020-06-14T08:43:22Z</time>
      </trkpt>
      <trkpt lat="46.60054" lon="4.46937">
        <ele>423.613</ele>
        <time>2020-06-14T08:43:33Z</time>
      </trkpt>
      <trkpt lat="46.60051" lon="4.46945">
        <ele>422.613</ele>
        <time>2020-06-14T08:43:41Z</time>
      </trkpt>
      <trkpt lat="46.60048" lon="4.46956">
        <ele>420.613</ele>
        <time>2020-06-14T08:43:47Z</time>
      </trkpt>
      <trkpt lat="46.60046" lon="4.46966">
        <ele>420.613</ele>
        <time>2020-06-14T08:43:53Z</time>
      </trkpt>
      <trkpt lat="46.60042" lon="4.46976">
        <ele>417.613</ele>
        <time>2020-06-14T08:43:58Z</time>
      </trkpt>
      <trkpt lat="46.60038" lon="4.46984">
        <ele>414.613</ele>
        <time>2020-06-14T08:44:04Z</time>
      </trkpt>
      <trkpt lat="46.60038" lon="4.46996">
        <ele>414.613</ele>
        <time>2020-06-14T08:44:10Z</time>
      </trkpt>
      <trkpt lat="46.60034" lon="4.47004">
        <ele>413.613</ele>
        <time>2020-06-14T08:44:15Z</time>
      </trkpt>
      <trkpt lat="46.60029" lon="4.47012">
        <ele>414.613</ele>
        <time>2020-06-14T08:44:20Z</time>
      </trkpt>
      <trkpt lat="46.60024" lon="4.47018">
        <ele>414.613</ele>
        <time>2020-06-14T08:44:25Z</time>
      </trkpt>
      <trkpt lat="46.60018" lon="4.47023">
        <ele>417.613</ele>
        <time>2020-06-14T08:44:30Z</time>
      </trkpt>
      <trkpt lat="46.60013" lon="4.47031">
        <ele>417.613</ele>
        <time>2020-06-14T08:44:36Z</time>
      </trkpt>
      <trkpt lat="46.60008" lon="4.47038">
        <ele>416.613</ele>
        <time>2020-06-14T08:44:42Z</time>
      </trkpt>
      <trkpt lat="46.60002" lon="4.47044">
        <ele>416.613</ele>
        <time>2020-06-14T08:44:47Z</time>
      </trkpt>
      <trkpt lat="46.59998" lon="4.47052">
        <ele>414.613</ele>
        <time>2020-06-14T08:44:53Z</time>
      </trkpt>
      <trkpt lat="46.59992" lon="4.47059">
        <ele>418.613</ele>
        <time>2020-06-14T08:44:59Z</time>
      </trkpt>
      <trkpt lat="46.59986" lon="4.47065">
        <ele>418.613</ele>
        <time>2020-06-14T08:45:04Z</time>
      </trkpt>
      <trkpt lat="46.59982" lon="4.47074">
        <ele>419.613</ele>
        <time>2020-06-14T08:45:09Z</time>
      </trkpt>
      <trkpt lat="46.59978" lon="4.47081">
        <ele>420.613</ele>
        <time>2020-06-14T08:45:14Z</time>
      </trkpt>
      <trkpt lat="46.59974" lon="4.47091">
        <ele>422.613</ele>
        <time>2020-06-14T08:45:21Z</time>
      </trkpt>
      <trkpt lat="46.5997" lon="4.471">
        <ele>422.613</ele>
        <time>2020-06-14T08:45:30Z</time>
      </trkpt>
      <trkpt lat="46.59964" lon="4.47106">
        <ele>426.613</ele>
        <time>2020-06-14T08:45:45Z</time>
      </trkpt>
      <trkpt lat="46.59967" lon="4.47115">
        <ele>428.613</ele>
        <time>2020-06-14T08:45:51Z</time>
      </trkpt>
      <trkpt lat="46.59971" lon="4.47124">
        <ele>427.613</ele>
        <time>2020-06-14T08:45:56Z</time>
      </trkpt>
      <trkpt lat="46.59966" lon="4.47133">
        <ele>426.613</ele>
        <time>2020-06-14T08:46:01Z</time>
      </trkpt>
      <trkpt lat="46.59965" lon="4.47144">
        <ele>431.613</ele>
        <time>2020-06-14T08:46:06Z</time>
      </trkpt>
      <trkpt lat="46.59967" lon="4.47155">
        <ele>429.613</ele>
        <time>2020-06-14T08:46:12Z</time>
      </trkpt>
      <trkpt lat="46.59966" lon="4.47167">
        <ele>430.613</ele>
        <time>2020-06-14T08:46:17Z</time>
      </trkpt>
      <trkpt lat="46.59964" lon="4.47178">
        <ele>431.613</ele>
        <time>2020-06-14T08:46:24Z</time>
      </trkpt>
      <trkpt lat="46.59967" lon="4.47188">
        <ele>432.613</ele>
        <time>2020-06-14T08:46:29Z</time>
      </trkpt>
      <trkpt lat="46.59967" lon="4.47198">
        <ele>430.613</ele>
        <time>2020-06-14T08:46:35Z</time>
      </trkpt>
      <trkpt lat="46.59973" lon="4.47203">
        <ele>430.613</ele>
        <time>2020-06-14T08:46:41Z</time>
      </trkpt>
      <trkpt lat="46.59969" lon="4.47211">
        <ele>429.613</ele>
        <time>2020-06-14T08:46:49Z</time>
      </trkpt>
      <trkpt lat="46.59963" lon="4.47215">
        <ele>426.613</ele>
        <time>2020-06-14T08:46:55Z</time>
      </trkpt>
      <trkpt lat="46.59955" lon="4.47214">
        <ele>426.613</ele>
        <time>2020-06-14T08:49:20Z</time>
      </trkpt>
      <trkpt lat="46.59948" lon="4.47211">
        <ele>422.613</ele>
        <time>2020-06-14T08:49:27Z</time>
      </trkpt>
      <trkpt lat="46.59943" lon="4.47205">
        <ele>418.613</ele>
        <time>2020-06-14T08:49:35Z</time>
      </trkpt>
      <trkpt lat="46.59936" lon="4.47202">
        <ele>417.613</ele>
        <time>2020-06-14T08:49:40Z</time>
      </trkpt>
      <trkpt lat="46.59929" lon="4.47196">
        <ele>418.613</ele>
        <time>2020-06-14T08:49:45Z</time>
      </trkpt>
      <trkpt lat="46.59922" lon="4.47191">
        <ele>420.613</ele>
        <time>2020-06-14T08:49:51Z</time>
      </trkpt>
      <trkpt lat="46.59916" lon="4.47188">
        <ele>420.613</ele>
        <time>2020-06-14T08:49:57Z</time>
      </trkpt>
      <trkpt lat="46.59905" lon="4.47185">
        <ele>421.613</ele>
        <time>2020-06-14T08:50:02Z</time>
      </trkpt>
      <trkpt lat="46.59898" lon="4.47185">
        <ele>417.613</ele>
        <time>2020-06-14T08:50:08Z</time>
      </trkpt>
      <trkpt lat="46.59892" lon="4.47193">
        <ele>418.613</ele>
        <time>2020-06-14T08:50:13Z</time>
      </trkpt>
      <trkpt lat="46.59886" lon="4.47198">
        <ele>418.613</ele>
        <time>2020-06-14T08:50:18Z</time>
      </trkpt>
      <trkpt lat="46.59878" lon="4.47198">
        <ele>419.613</ele>
        <time>2020-06-14T08:50:23Z</time>
      </trkpt>
      <trkpt lat="46.59869" lon="4.47198">
        <ele>420.613</ele>
        <time>2020-06-14T08:50:28Z</time>
      </trkpt>
      <trkpt lat="46.59863" lon="4.47201">
        <ele>420.613</ele>
        <time>2020-06-14T08:50:33Z</time>
      </trkpt>
      <trkpt lat="46.59856" lon="4.47201">
        <ele>424.613</ele>
        <time>2020-06-14T08:50:38Z</time>
      </trkpt>
      <trkpt lat="46.59848" lon="4.472">
        <ele>422.613</ele>
        <time>2020-06-14T08:50:45Z</time>
      </trkpt>
      <trkpt lat="46.59841" lon="4.47197">
        <ele>423.613</ele>
        <time>2020-06-14T08:50:51Z</time>
      </trkpt>
      <trkpt lat="46.59834" lon="4.47195">
        <ele>425.613</ele>
        <time>2020-06-14T08:50:56Z</time>
      </trkpt>
      <trkpt lat="46.59825" lon="4.47193">
        <ele>424.613</ele>
        <time>2020-06-14T08:51:01Z</time>
      </trkpt>
      <trkpt lat="46.59817" lon="4.47194">
        <ele>421.613</ele>
        <time>2020-06-14T08:51:09Z</time>
      </trkpt>
      <trkpt lat="46.5981" lon="4.47192">
        <ele>422.613</ele>
        <time>2020-06-14T08:51:15Z</time>
      </trkpt>
      <trkpt lat="46.59803" lon="4.47192">
        <ele>424.612</ele>
        <time>2020-06-14T08:51:21Z</time>
      </trkpt>
      <trkpt lat="46.59794" lon="4.47191">
        <ele>426.612</ele>
        <time>2020-06-14T08:51:26Z</time>
      </trkpt>
      <trkpt lat="46.59788" lon="4.47189">
        <ele>426.612</ele>
        <time>2020-06-14T08:51:33Z</time>
      </trkpt>
      <trkpt lat="46.59781" lon="4.47186">
        <ele>428.612</ele>
        <time>2020-06-14T08:51:38Z</time>
      </trkpt>
      <trkpt lat="46.59774" lon="4.47186">
        <ele>428.612</ele>
        <time>2020-06-14T08:51:44Z</time>
      </trkpt>
      <trkpt lat="46.59767" lon="4.47185">
        <ele>424.612</ele>
        <time>2020-06-14T08:51:50Z</time>
      </trkpt>
      <trkpt lat="46.59761" lon="4.47182">
        <ele>423.612</ele>
        <time>2020-06-14T08:51:56Z</time>
      </trkpt>
      <trkpt lat="46.59754" lon="4.47178">
        <ele>421.612</ele>
        <time>2020-06-14T08:52:01Z</time>
      </trkpt>
      <trkpt lat="46.59747" lon="4.47178">
        <ele>423.612</ele>
        <time>2020-06-14T08:52:06Z</time>
      </trkpt>
      <trkpt lat="46.5974" lon="4.47176">
        <ele>427.612</ele>
        <time>2020-06-14T08:52:11Z</time>
      </trkpt>
      <trkpt lat="46.59733" lon="4.47176">
        <ele>428.612</ele>
        <time>2020-06-14T08:52:17Z</time>
      </trkpt>
      <trkpt lat="46.59724" lon="4.47174">
        <ele>431.612</ele>
        <time>2020-06-14T08:52:22Z</time>
      </trkpt>
      <trkpt lat="46.59716" lon="4.47173">
        <ele>426.612</ele>
        <time>2020-06-14T08:52:27Z</time>
      </trkpt>
      <trkpt lat="46.5971" lon="4.47172">
        <ele>429.612</ele>
        <time>2020-06-14T08:52:32Z</time>
      </trkpt>
      <trkpt lat="46.59702" lon="4.47161">
        <ele>430.612</ele>
        <time>2020-06-14T08:52:37Z</time>
      </trkpt>
      <trkpt lat="46.59695" lon="4.47166">
        <ele>432.612</ele>
        <time>2020-06-14T08:52:45Z</time>
      </trkpt>
      <trkpt lat="46.59692" lon="4.47175">
        <ele>435.612</ele>
        <time>2020-06-14T08:52:50Z</time>
      </trkpt>
      <trkpt lat="46.59689" lon="4.47184">
        <ele>437.612</ele>
        <time>2020-06-14T08:52:56Z</time>
      </trkpt>
      <trkpt lat="46.59686" lon="4.47193">
        <ele>438.612</ele>
        <time>2020-06-14T08:53:02Z</time>
      </trkpt>
      <trkpt lat="46.59685" lon="4.47203">
        <ele>442.612</ele>
        <time>2020-06-14T08:53:08Z</time>
      </trkpt>
      <trkpt lat="46.59679" lon="4.47209">
        <ele>440.612</ele>
        <time>2020-06-14T08:53:14Z</time>
      </trkpt>
      <trkpt lat="46.59673" lon="4.47212">
        <ele>438.612</ele>
        <time>2020-06-14T08:53:20Z</time>
      </trkpt>
      <trkpt lat="46.59666" lon="4.47215">
        <ele>436.612</ele>
        <time>2020-06-14T08:53:25Z</time>
      </trkpt>
      <trkpt lat="46.59659" lon="4.47216">
        <ele>433.612</ele>
        <time>2020-06-14T08:53:31Z</time>
      </trkpt>
      <trkpt lat="46.59652" lon="4.47218">
        <ele>433.612</ele>
        <time>2020-06-14T08:53:36Z</time>
      </trkpt>
      <trkpt lat="46.59646" lon="4.47224">
        <ele>435.612</ele>
        <time>2020-06-14T08:53:41Z</time>
      </trkpt>
      <trkpt lat="46.59639" lon="4.47226">
        <ele>430.612</ele>
        <time>2020-06-14T08:53:46Z</time>
      </trkpt>
      <trkpt lat="46.59632" lon="4.47227">
        <ele>429.612</ele>
        <time>2020-06-14T08:53:51Z</time>
      </trkpt>
      <trkpt lat="46.59624" lon="4.47227">
        <ele>430.612</ele>
        <time>2020-06-14T08:53:57Z</time>
      </trkpt>
      <trkpt lat="46.59616" lon="4.47228">
        <ele>432.612</ele>
        <time>2020-06-14T08:54:02Z</time>
      </trkpt>
      <trkpt lat="46.59606" lon="4.47224">
        <ele>431.612</ele>
        <time>2020-06-14T08:54:07Z</time>
      </trkpt>
      <trkpt lat="46.59599" lon="4.47225">
        <ele>430.612</ele>
        <time>2020-06-14T08:54:14Z</time>
      </trkpt>
      <trkpt lat="46.59592" lon="4.47223">
        <ele>426.612</ele>
        <time>2020-06-14T08:54:19Z</time>
      </trkpt>
      <trkpt lat="46.59583" lon="4.47222">
        <ele>429.612</ele>
        <time>2020-06-14T08:54:24Z</time>
      </trkpt>
      <trkpt lat="46.59576" lon="4.4722">
        <ele>426.612</ele>
        <time>2020-06-14T08:54:31Z</time>
      </trkpt>
      <trkpt lat="46.59569" lon="4.47217">
        <ele>425.612</ele>
        <time>2020-06-14T08:54:36Z</time>
      </trkpt>
      <trkpt lat="46.59562" lon="4.47216">
        <ele>423.612</ele>
        <time>2020-06-14T08:54:41Z</time>
      </trkpt>
      <trkpt lat="46.59554" lon="4.47215">
        <ele>420.612</ele>
        <time>2020-06-14T08:54:46Z</time>
      </trkpt>
      <trkpt lat="46.59547" lon="4.47214">
        <ele>419.612</ele>
        <time>2020-06-14T08:54:51Z</time>
      </trkpt>
      <trkpt lat="46.59541" lon="4.4721">
        <ele>417.612</ele>
        <time>2020-06-14T08:54:57Z</time>
      </trkpt>
      <trkpt lat="46.59535" lon="4.47205">
        <ele>419.612</ele>
        <time>2020-06-14T08:55:02Z</time>
      </trkpt>
      <trkpt lat="46.59527" lon="4.472">
        <ele>420.612</ele>
        <time>2020-06-14T08:55:08Z</time>
      </trkpt>
      <trkpt lat="46.5952" lon="4.47197">
        <ele>420.612</ele>
        <time>2020-06-14T08:55:13Z</time>
      </trkpt>
      <trkpt lat="46.59514" lon="4.47201">
        <ele>418.612</ele>
        <time>2020-06-14T08:55:18Z</time>
      </trkpt>
      <trkpt lat="46.59504" lon="4.47199">
        <ele>418.612</ele>
        <time>2020-06-14T08:55:23Z</time>
      </trkpt>
      <trkpt lat="46.59495" lon="4.47198">
        <ele>422.612</ele>
        <time>2020-06-14T08:55:28Z</time>
      </trkpt>
      <trkpt lat="46.59487" lon="4.47199">
        <ele>419.612</ele>
        <time>2020-06-14T08:55:34Z</time>
      </trkpt>
      <trkpt lat="46.5948" lon="4.472">
        <ele>420.612</ele>
        <time>2020-06-14T08:55:40Z</time>
      </trkpt>
      <trkpt lat="46.59472" lon="4.472">
        <ele>422.612</ele>
        <time>2020-06-14T08:55:45Z</time>
      </trkpt>
      <trkpt lat="46.59464" lon="4.472">
        <ele>425.612</ele>
        <time>2020-06-14T08:55:51Z</time>
      </trkpt>
      <trkpt lat="46.59457" lon="4.47202">
        <ele>423.612</ele>
        <time>2020-06-14T08:55:57Z</time>
      </trkpt>
      <trkpt lat="46.5945" lon="4.47204">
        <ele>425.612</ele>
        <time>2020-06-14T08:56:02Z</time>
      </trkpt>
      <trkpt lat="46.59442" lon="4.47206">
        <ele>425.612</ele>
        <time>2020-06-14T08:56:07Z</time>
      </trkpt>
      <trkpt lat="46.59433" lon="4.47201">
        <ele>427.611</ele>
        <time>2020-06-14T08:56:12Z</time>
      </trkpt>
      <trkpt lat="46.59426" lon="4.47202">
        <ele>423.611</ele>
        <time>2020-06-14T08:56:19Z</time>
      </trkpt>
      <trkpt lat="46.5942" lon="4.472">
        <ele>425.611</ele>
        <time>2020-06-14T08:56:24Z</time>
      </trkpt>
      <trkpt lat="46.59413" lon="4.472">
        <ele>428.611</ele>
        <time>2020-06-14T08:56:29Z</time>
      </trkpt>
      <trkpt lat="46.59406" lon="4.47198">
        <ele>430.611</ele>
        <time>2020-06-14T08:56:34Z</time>
      </trkpt>
      <trkpt lat="46.59399" lon="4.47199">
        <ele>429.611</ele>
        <time>2020-06-14T08:56:40Z</time>
      </trkpt>
      <trkpt lat="46.59391" lon="4.47197">
        <ele>432.611</ele>
        <time>2020-06-14T08:56:45Z</time>
      </trkpt>
      <trkpt lat="46.59385" lon="4.47201">
        <ele>430.611</ele>
        <time>2020-06-14T08:56:51Z</time>
      </trkpt>
      <trkpt lat="46.59379" lon="4.47203">
        <ele>429.611</ele>
        <time>2020-06-14T08:56:56Z</time>
      </trkpt>
      <trkpt lat="46.59371" lon="4.47204">
        <ele>431.611</ele>
        <time>2020-06-14T08:57:01Z</time>
      </trkpt>
      <trkpt lat="46.59365" lon="4.4721">
        <ele>428.611</ele>
        <time>2020-06-14T08:57:07Z</time>
      </trkpt>
      <trkpt lat="46.59358" lon="4.47213">
        <ele>429.611</ele>
        <time>2020-06-14T08:57:12Z</time>
      </trkpt>
      <trkpt lat="46.59352" lon="4.47218">
        <ele>428.611</ele>
        <time>2020-06-14T08:57:17Z</time>
      </trkpt>
      <trkpt lat="46.59346" lon="4.47226">
        <ele>429.611</ele>
        <time>2020-06-14T08:57:22Z</time>
      </trkpt>
      <trkpt lat="46.59342" lon="4.47233">
        <ele>431.611</ele>
        <time>2020-06-14T08:57:27Z</time>
      </trkpt>
      <trkpt lat="46.59337" lon="4.47242">
        <ele>430.611</ele>
        <time>2020-06-14T08:57:32Z</time>
      </trkpt>
      <trkpt lat="46.59333" lon="4.47252">
        <ele>431.611</ele>
        <time>2020-06-14T08:57:38Z</time>
      </trkpt>
      <trkpt lat="46.5933" lon="4.47262">
        <ele>432.611</ele>
        <time>2020-06-14T08:57:43Z</time>
      </trkpt>
      <trkpt lat="46.59327" lon="4.47272">
        <ele>434.611</ele>
        <time>2020-06-14T08:57:48Z</time>
      </trkpt>
      <trkpt lat="46.59324" lon="4.47282">
        <ele>435.611</ele>
        <time>2020-06-14T08:57:53Z</time>
      </trkpt>
      <trkpt lat="46.5932" lon="4.4729">
        <ele>437.611</ele>
        <time>2020-06-14T08:57:58Z</time>
      </trkpt>
      <trkpt lat="46.59315" lon="4.47298">
        <ele>436.611</ele>
        <time>2020-06-14T08:58:04Z</time>
      </trkpt>
      <trkpt lat="46.5931" lon="4.47307">
        <ele>436.611</ele>
        <time>2020-06-14T08:58:09Z</time>
      </trkpt>
      <trkpt lat="46.59305" lon="4.47315">
        <ele>435.611</ele>
        <time>2020-06-14T08:58:14Z</time>
      </trkpt>
      <trkpt lat="46.59303" lon="4.47325">
        <ele>430.611</ele>
        <time>2020-06-14T08:58:20Z</time>
      </trkpt>
      <trkpt lat="46.59297" lon="4.47332">
        <ele>429.611</ele>
        <time>2020-06-14T08:58:25Z</time>
      </trkpt>
      <trkpt lat="46.59291" lon="4.47341">
        <ele>430.611</ele>
        <time>2020-06-14T08:58:30Z</time>
      </trkpt>
      <trkpt lat="46.59285" lon="4.47348">
        <ele>430.611</ele>
        <time>2020-06-14T08:58:36Z</time>
      </trkpt>
      <trkpt lat="46.59278" lon="4.47354">
        <ele>431.611</ele>
        <time>2020-06-14T08:58:41Z</time>
      </trkpt>
      <trkpt lat="46.59273" lon="4.47362">
        <ele>433.611</ele>
        <time>2020-06-14T08:58:46Z</time>
      </trkpt>
      <trkpt lat="46.59267" lon="4.47368">
        <ele>434.611</ele>
        <time>2020-06-14T08:58:51Z</time>
      </trkpt>
      <trkpt lat="46.59261" lon="4.47372">
        <ele>434.611</ele>
        <time>2020-06-14T08:58:56Z</time>
      </trkpt>
      <trkpt lat="46.59255" lon="4.4738">
        <ele>436.611</ele>
        <time>2020-06-14T08:59:01Z</time>
      </trkpt>
      <trkpt lat="46.59249" lon="4.47385">
        <ele>436.611</ele>
        <time>2020-06-14T08:59:06Z</time>
      </trkpt>
      <trkpt lat="46.59243" lon="4.4739">
        <ele>433.611</ele>
        <time>2020-06-14T08:59:12Z</time>
      </trkpt>
      <trkpt lat="46.59237" lon="4.47396">
        <ele>434.611</ele>
        <time>2020-06-14T08:59:17Z</time>
      </trkpt>
      <trkpt lat="46.59229" lon="4.47399">
        <ele>433.611</ele>
        <time>2020-06-14T08:59:22Z</time>
      </trkpt>
      <trkpt lat="46.59224" lon="4.47406">
        <ele>428.611</ele>
        <time>2020-06-14T08:59:28Z</time>
      </trkpt>
      <trkpt lat="46.59217" lon="4.47412">
        <ele>427.611</ele>
        <time>2020-06-14T08:59:36Z</time>
      </trkpt>
      <trkpt lat="46.59207" lon="4.47416">
        <ele>428.611</ele>
        <time>2020-06-14T08:59:41Z</time>
      </trkpt>
      <trkpt lat="46.59199" lon="4.47419">
        <ele>430.611</ele>
        <time>2020-06-14T08:59:46Z</time>
      </trkpt>
      <trkpt lat="46.59192" lon="4.47422">
        <ele>429.611</ele>
        <time>2020-06-14T08:59:52Z</time>
      </trkpt>
      <trkpt lat="46.59185" lon="4.47422">
        <ele>429.611</ele>
        <time>2020-06-14T08:59:57Z</time>
      </trkpt>
      <trkpt lat="46.59179" lon="4.47427">
        <ele>425.611</ele>
        <time>2020-06-14T09:00:04Z</time>
      </trkpt>
      <trkpt lat="46.59171" lon="4.47433">
        <ele>424.611</ele>
        <time>2020-06-14T09:00:10Z</time>
      </trkpt>
      <trkpt lat="46.59169" lon="4.47444">
        <ele>416.611</ele>
        <time>2020-06-14T09:00:15Z</time>
      </trkpt>
      <trkpt lat="46.59157" lon="4.4744">
        <ele>419.611</ele>
        <time>2020-06-14T09:00:20Z</time>
      </trkpt>
      <trkpt lat="46.59149" lon="4.47442">
        <ele>422.611</ele>
        <time>2020-06-14T09:00:25Z</time>
      </trkpt>
      <trkpt lat="46.59143" lon="4.47446">
        <ele>421.611</ele>
        <time>2020-06-14T09:00:30Z</time>
      </trkpt>
      <trkpt lat="46.59136" lon="4.4745">
        <ele>419.611</ele>
        <time>2020-06-14T09:00:35Z</time>
      </trkpt>
      <trkpt lat="46.59128" lon="4.47455">
        <ele>415.611</ele>
        <time>2020-06-14T09:00:40Z</time>
      </trkpt>
      <trkpt lat="46.59119" lon="4.47455">
        <ele>420.611</ele>
        <time>2020-06-14T09:00:45Z</time>
      </trkpt>
      <trkpt lat="46.59111" lon="4.47457">
        <ele>420.611</ele>
        <time>2020-06-14T09:00:50Z</time>
      </trkpt>
      <trkpt lat="46.59103" lon="4.4746">
        <ele>418.611</ele>
        <time>2020-06-14T09:00:55Z</time>
      </trkpt>
      <trkpt lat="46.59096" lon="4.47464">
        <ele>418.611</ele>
        <time>2020-06-14T09:01:00Z</time>
      </trkpt>
      <trkpt lat="46.5909" lon="4.47471">
        <ele>416.611</ele>
        <time>2020-06-14T09:01:07Z</time>
      </trkpt>
      <trkpt lat="46.59083" lon="4.47477">
        <ele>417.611</ele>
        <time>2020-06-14T09:01:12Z</time>
      </trkpt>
      <trkpt lat="46.59077" lon="4.47485">
        <ele>416.611</ele>
        <time>2020-06-14T09:01:17Z</time>
      </trkpt>
      <trkpt lat="46.59071" lon="4.47493">
        <ele>417.611</ele>
        <time>2020-06-14T09:01:23Z</time>
      </trkpt>
      <trkpt lat="46.59065" lon="4.47501">
        <ele>415.611</ele>
        <time>2020-06-14T09:01:28Z</time>
      </trkpt>
      <trkpt lat="46.5906" lon="4.47508">
        <ele>412.611</ele>
        <time>2020-06-14T09:01:33Z</time>
      </trkpt>
      <trkpt lat="46.59053" lon="4.47512">
        <ele>411.611</ele>
        <time>2020-06-14T09:01:39Z</time>
      </trkpt>
      <trkpt lat="46.59046" lon="4.47517">
        <ele>410.611</ele>
        <time>2020-06-14T09:01:44Z</time>
      </trkpt>
      <trkpt lat="46.59039" lon="4.47524">
        <ele>410.611</ele>
        <time>2020-06-14T09:01:49Z</time>
      </trkpt>
      <trkpt lat="46.59031" lon="4.47528">
        <ele>413.611</ele>
        <time>2020-06-14T09:01:54Z</time>
      </trkpt>
      <trkpt lat="46.59027" lon="4.47536">
        <ele>404.611</ele>
        <time>2020-06-14T09:02:00Z</time>
      </trkpt>
      <trkpt lat="46.59021" lon="4.4754">
        <ele>403.611</ele>
        <time>2020-06-14T09:02:05Z</time>
      </trkpt>
      <trkpt lat="46.59014" lon="4.47546">
        <ele>407.611</ele>
        <time>2020-06-14T09:02:10Z</time>
      </trkpt>
      <trkpt lat="46.59009" lon="4.47554">
        <ele>406.611</ele>
        <time>2020-06-14T09:02:15Z</time>
      </trkpt>
      <trkpt lat="46.59004" lon="4.4756">
        <ele>411.611</ele>
        <time>2020-06-14T09:02:20Z</time>
      </trkpt>
      <trkpt lat="46.58998" lon="4.47567">
        <ele>412.611</ele>
        <time>2020-06-14T09:02:25Z</time>
      </trkpt>
      <trkpt lat="46.58991" lon="4.47575">
        <ele>411.611</ele>
        <time>2020-06-14T09:02:30Z</time>
      </trkpt>
      <trkpt lat="46.58985" lon="4.47581">
        <ele>408.611</ele>
        <time>2020-06-14T09:02:35Z</time>
      </trkpt>
      <trkpt lat="46.58979" lon="4.47587">
        <ele>409.61</ele>
        <time>2020-06-14T09:02:40Z</time>
      </trkpt>
      <trkpt lat="46.58972" lon="4.47592">
        <ele>409.61</ele>
        <time>2020-06-14T09:02:45Z</time>
      </trkpt>
      <trkpt lat="46.58965" lon="4.47598">
        <ele>410.61</ele>
        <time>2020-06-14T09:02:50Z</time>
      </trkpt>
      <trkpt lat="46.58959" lon="4.47607">
        <ele>409.61</ele>
        <time>2020-06-14T09:02:55Z</time>
      </trkpt>
      <trkpt lat="46.58953" lon="4.47611">
        <ele>410.61</ele>
        <time>2020-06-14T09:03:00Z</time>
      </trkpt>
      <trkpt lat="46.58945" lon="4.47616">
        <ele>413.61</ele>
        <time>2020-06-14T09:03:05Z</time>
      </trkpt>
      <trkpt lat="46.58939" lon="4.47624">
        <ele>413.61</ele>
        <time>2020-06-14T09:03:10Z</time>
      </trkpt>
      <trkpt lat="46.58932" lon="4.4763">
        <ele>410.61</ele>
        <time>2020-06-14T09:03:15Z</time>
      </trkpt>
      <trkpt lat="46.58925" lon="4.47634">
        <ele>410.61</ele>
        <time>2020-06-14T09:03:20Z</time>
      </trkpt>
      <trkpt lat="46.5892" lon="4.47642">
        <ele>409.61</ele>
        <time>2020-06-14T09:03:27Z</time>
      </trkpt>
      <trkpt lat="46.58916" lon="4.4765">
        <ele>405.61</ele>
        <time>2020-06-14T09:03:32Z</time>
      </trkpt>
      <trkpt lat="46.58905" lon="4.47654">
        <ele>406.61</ele>
        <time>2020-06-14T09:03:37Z</time>
      </trkpt>
      <trkpt lat="46.58899" lon="4.47657">
        <ele>404.61</ele>
        <time>2020-06-14T09:03:42Z</time>
      </trkpt>
      <trkpt lat="46.58891" lon="4.4766">
        <ele>403.61</ele>
        <time>2020-06-14T09:03:47Z</time>
      </trkpt>
      <trkpt lat="46.58885" lon="4.47667">
        <ele>404.61</ele>
        <time>2020-06-14T09:03:52Z</time>
      </trkpt>
      <trkpt lat="46.58879" lon="4.47671">
        <ele>407.61</ele>
        <time>2020-06-14T09:03:58Z</time>
      </trkpt>
      <trkpt lat="46.5887" lon="4.47672">
        <ele>402.61</ele>
        <time>2020-06-14T09:04:05Z</time>
      </trkpt>
      <trkpt lat="46.58863" lon="4.47679">
        <ele>400.61</ele>
        <time>2020-06-14T09:04:10Z</time>
      </trkpt>
      <trkpt lat="46.58854" lon="4.47682">
        <ele>399.61</ele>
        <time>2020-06-14T09:04:15Z</time>
      </trkpt>
      <trkpt lat="46.58846" lon="4.47686">
        <ele>402.61</ele>
        <time>2020-06-14T09:04:20Z</time>
      </trkpt>
      <trkpt lat="46.58842" lon="4.47694">
        <ele>397.61</ele>
        <time>2020-06-14T09:04:27Z</time>
      </trkpt>
      <trkpt lat="46.58833" lon="4.477">
        <ele>397.61</ele>
        <time>2020-06-14T09:04:32Z</time>
      </trkpt>
      <trkpt lat="46.58828" lon="4.47707">
        <ele>391.61</ele>
        <time>2020-06-14T09:04:38Z</time>
      </trkpt>
      <trkpt lat="46.5882" lon="4.47715">
        <ele>389.61</ele>
        <time>2020-06-14T09:04:43Z</time>
      </trkpt>
      <trkpt lat="46.58814" lon="4.47717">
        <ele>390.61</ele>
        <time>2020-06-14T09:04:49Z</time>
      </trkpt>
      <trkpt lat="46.58806" lon="4.4772">
        <ele>389.61</ele>
        <time>2020-06-14T09:04:54Z</time>
      </trkpt>
      <trkpt lat="46.58797" lon="4.47723">
        <ele>391.61</ele>
        <time>2020-06-14T09:04:59Z</time>
      </trkpt>
      <trkpt lat="46.58791" lon="4.47733">
        <ele>389.61</ele>
        <time>2020-06-14T09:05:04Z</time>
      </trkpt>
      <trkpt lat="46.58785" lon="4.47735">
        <ele>391.61</ele>
        <time>2020-06-14T09:05:09Z</time>
      </trkpt>
      <trkpt lat="46.58776" lon="4.47737">
        <ele>390.61</ele>
        <time>2020-06-14T09:05:14Z</time>
      </trkpt>
      <trkpt lat="46.58769" lon="4.4774">
        <ele>390.61</ele>
        <time>2020-06-14T09:05:20Z</time>
      </trkpt>
      <trkpt lat="46.58763" lon="4.47746">
        <ele>386.61</ele>
        <time>2020-06-14T09:05:25Z</time>
      </trkpt>
      <trkpt lat="46.58755" lon="4.4775">
        <ele>385.61</ele>
        <time>2020-06-14T09:05:30Z</time>
      </trkpt>
      <trkpt lat="46.58747" lon="4.4775">
        <ele>386.61</ele>
        <time>2020-06-14T09:05:35Z</time>
      </trkpt>
      <trkpt lat="46.5874" lon="4.47752">
        <ele>388.61</ele>
        <time>2020-06-14T09:05:40Z</time>
      </trkpt>
      <trkpt lat="46.58731" lon="4.47758">
        <ele>391.61</ele>
        <time>2020-06-14T09:05:45Z</time>
      </trkpt>
      <trkpt lat="46.58723" lon="4.47766">
        <ele>389.61</ele>
        <time>2020-06-14T09:05:50Z</time>
      </trkpt>
      <trkpt lat="46.58713" lon="4.4777">
        <ele>395.61</ele>
        <time>2020-06-14T09:05:55Z</time>
      </trkpt>
      <trkpt lat="46.58708" lon="4.47777">
        <ele>392.61</ele>
        <time>2020-06-14T09:06:02Z</time>
      </trkpt>
      <trkpt lat="46.58702" lon="4.47781">
        <ele>390.61</ele>
        <time>2020-06-14T09:06:07Z</time>
      </trkpt>
      <trkpt lat="46.58696" lon="4.47787">
        <ele>391.61</ele>
        <time>2020-06-14T09:06:12Z</time>
      </trkpt>
      <trkpt lat="46.5869" lon="4.47795">
        <ele>388.61</ele>
        <time>2020-06-14T09:06:17Z</time>
      </trkpt>
      <trkpt lat="46.58683" lon="4.47798">
        <ele>390.61</ele>
        <time>2020-06-14T09:06:22Z</time>
      </trkpt>
      <trkpt lat="46.58676" lon="4.47802">
        <ele>390.61</ele>
        <time>2020-06-14T09:06:27Z</time>
      </trkpt>
      <trkpt lat="46.58669" lon="4.47804">
        <ele>389.61</ele>
        <time>2020-06-14T09:06:32Z</time>
      </trkpt>
      <trkpt lat="46.58663" lon="4.47808">
        <ele>388.61</ele>
        <time>2020-06-14T09:06:37Z</time>
      </trkpt>
      <trkpt lat="46.58656" lon="4.47816">
        <ele>387.61</ele>
        <time>2020-06-14T09:06:42Z</time>
      </trkpt>
      <trkpt lat="46.58649" lon="4.47819">
        <ele>385.61</ele>
        <time>2020-06-14T09:06:47Z</time>
      </trkpt>
      <trkpt lat="46.58642" lon="4.47824">
        <ele>388.61</ele>
        <time>2020-06-14T09:06:52Z</time>
      </trkpt>
      <trkpt lat="46.58636" lon="4.47829">
        <ele>387.61</ele>
        <time>2020-06-14T09:06:57Z</time>
      </trkpt>
      <trkpt lat="46.58627" lon="4.47831">
        <ele>391.61</ele>
        <time>2020-06-14T09:07:02Z</time>
      </trkpt>
      <trkpt lat="46.58621" lon="4.47836">
        <ele>392.61</ele>
        <time>2020-06-14T09:07:07Z</time>
      </trkpt>
      <trkpt lat="46.58617" lon="4.47845">
        <ele>384.61</ele>
        <time>2020-06-14T09:07:13Z</time>
      </trkpt>
      <trkpt lat="46.5861" lon="4.47854">
        <ele>380.61</ele>
        <time>2020-06-14T09:07:18Z</time>
      </trkpt>
      <trkpt lat="46.58603" lon="4.4786">
        <ele>379.61</ele>
        <time>2020-06-14T09:07:23Z</time>
      </trkpt>
      <trkpt lat="46.58596" lon="4.47863">
        <ele>381.61</ele>
        <time>2020-06-14T09:07:28Z</time>
      </trkpt>
      <trkpt lat="46.58589" lon="4.47868">
        <ele>382.61</ele>
        <time>2020-06-14T09:07:33Z</time>
      </trkpt>
      <trkpt lat="46.58581" lon="4.47873">
        <ele>382.61</ele>
        <time>2020-06-14T09:07:38Z</time>
      </trkpt>
      <trkpt lat="46.58574" lon="4.47879">
        <ele>385.61</ele>
        <time>2020-06-14T09:07:43Z</time>
      </trkpt>
      <trkpt lat="46.58568" lon="4.47887">
        <ele>384.61</ele>
        <time>2020-06-14T09:07:48Z</time>
      </trkpt>
      <trkpt lat="46.58563" lon="4.47894">
        <ele>383.61</ele>
        <time>2020-06-14T09:07:53Z</time>
      </trkpt>
      <trkpt lat="46.58558" lon="4.47901">
        <ele>382.61</ele>
        <time>2020-06-14T09:07:58Z</time>
      </trkpt>
      <trkpt lat="46.5855" lon="4.47905">
        <ele>380.61</ele>
        <time>2020-06-14T09:08:04Z</time>
      </trkpt>
      <trkpt lat="46.58543" lon="4.47907">
        <ele>382.61</ele>
        <time>2020-06-14T09:08:09Z</time>
      </trkpt>
      <trkpt lat="46.58535" lon="4.4791">
        <ele>381.609</ele>
        <time>2020-06-14T09:08:14Z</time>
      </trkpt>
      <trkpt lat="46.5853" lon="4.47916">
        <ele>384.609</ele>
        <time>2020-06-14T09:08:19Z</time>
      </trkpt>
      <trkpt lat="46.58522" lon="4.47918">
        <ele>383.609</ele>
        <time>2020-06-14T09:08:24Z</time>
      </trkpt>
      <trkpt lat="46.58515" lon="4.47926">
        <ele>379.609</ele>
        <time>2020-06-14T09:08:32Z</time>
      </trkpt>
      <trkpt lat="46.58505" lon="4.4793">
        <ele>379.609</ele>
        <time>2020-06-14T09:08:37Z</time>
      </trkpt>
      <trkpt lat="46.58499" lon="4.47932">
        <ele>382.609</ele>
        <time>2020-06-14T09:08:42Z</time>
      </trkpt>
      <trkpt lat="46.58491" lon="4.47937">
        <ele>381.609</ele>
        <time>2020-06-14T09:08:47Z</time>
      </trkpt>
      <trkpt lat="46.58484" lon="4.47944">
        <ele>382.609</ele>
        <time>2020-06-14T09:08:52Z</time>
      </trkpt>
      <trkpt lat="46.58474" lon="4.47947">
        <ele>380.609</ele>
        <time>2020-06-14T09:08:57Z</time>
      </trkpt>
      <trkpt lat="46.58468" lon="4.47952">
        <ele>380.609</ele>
        <time>2020-06-14T09:09:02Z</time>
      </trkpt>
      <trkpt lat="46.58459" lon="4.47956">
        <ele>381.609</ele>
        <time>2020-06-14T09:09:07Z</time>
      </trkpt>
      <trkpt lat="46.58452" lon="4.47962">
        <ele>382.609</ele>
        <time>2020-06-14T09:09:12Z</time>
      </trkpt>
      <trkpt lat="46.58445" lon="4.47968">
        <ele>381.609</ele>
        <time>2020-06-14T09:09:17Z</time>
      </trkpt>
      <trkpt lat="46.58438" lon="4.47972">
        <ele>382.609</ele>
        <time>2020-06-14T09:09:22Z</time>
      </trkpt>
      <trkpt lat="46.5843" lon="4.47976">
        <ele>385.609</ele>
        <time>2020-06-14T09:09:27Z</time>
      </trkpt>
      <trkpt lat="46.58424" lon="4.47981">
        <ele>386.609</ele>
        <time>2020-06-14T09:09:32Z</time>
      </trkpt>
      <trkpt lat="46.58417" lon="4.47985">
        <ele>386.609</ele>
        <time>2020-06-14T09:09:37Z</time>
      </trkpt>
      <trkpt lat="46.58411" lon="4.47989">
        <ele>386.609</ele>
        <time>2020-06-14T09:09:42Z</time>
      </trkpt>
      <trkpt lat="46.58403" lon="4.47989">
        <ele>385.609</ele>
        <time>2020-06-14T09:09:47Z</time>
      </trkpt>
      <trkpt lat="46.58396" lon="4.4799">
        <ele>383.609</ele>
        <time>2020-06-14T09:09:52Z</time>
      </trkpt>
      <trkpt lat="46.5839" lon="4.47992">
        <ele>380.609</ele>
        <time>2020-06-14T09:09:57Z</time>
      </trkpt>
      <trkpt lat="46.58383" lon="4.47995">
        <ele>379.609</ele>
        <time>2020-06-14T09:10:02Z</time>
      </trkpt>
      <trkpt lat="46.58377" lon="4.48">
        <ele>379.609</ele>
        <time>2020-06-14T09:10:07Z</time>
      </trkpt>
      <trkpt lat="46.5837" lon="4.48001">
        <ele>380.609</ele>
        <time>2020-06-14T09:10:12Z</time>
      </trkpt>
      <trkpt lat="46.58362" lon="4.48006">
        <ele>382.609</ele>
        <time>2020-06-14T09:10:17Z</time>
      </trkpt>
      <trkpt lat="46.58355" lon="4.48011">
        <ele>380.609</ele>
        <time>2020-06-14T09:10:23Z</time>
      </trkpt>
      <trkpt lat="46.58348" lon="4.48016">
        <ele>383.609</ele>
        <time>2020-06-14T09:10:28Z</time>
      </trkpt>
      <trkpt lat="46.58342" lon="4.48021">
        <ele>384.609</ele>
        <time>2020-06-14T09:10:35Z</time>
      </trkpt>
      <trkpt lat="46.58334" lon="4.48028">
        <ele>385.609</ele>
        <time>2020-06-14T09:10:40Z</time>
      </trkpt>
      <trkpt lat="46.58328" lon="4.48038">
        <ele>387.609</ele>
        <time>2020-06-14T09:10:45Z</time>
      </trkpt>
      <trkpt lat="46.58322" lon="4.48046">
        <ele>387.609</ele>
        <time>2020-06-14T09:10:50Z</time>
      </trkpt>
      <trkpt lat="46.5832" lon="4.48058">
        <ele>387.609</ele>
        <time>2020-06-14T09:10:55Z</time>
      </trkpt>
      <trkpt lat="46.58317" lon="4.48066">
        <ele>382.609</ele>
        <time>2020-06-14T09:11:02Z</time>
      </trkpt>
      <trkpt lat="46.58312" lon="4.48074">
        <ele>384.609</ele>
        <time>2020-06-14T09:11:08Z</time>
      </trkpt>
      <trkpt lat="46.58309" lon="4.48083">
        <ele>384.609</ele>
        <time>2020-06-14T09:11:13Z</time>
      </trkpt>
      <trkpt lat="46.58303" lon="4.48094">
        <ele>384.609</ele>
        <time>2020-06-14T09:11:18Z</time>
      </trkpt>
      <trkpt lat="46.58298" lon="4.48103">
        <ele>385.609</ele>
        <time>2020-06-14T09:11:23Z</time>
      </trkpt>
      <trkpt lat="46.58297" lon="4.48112">
        <ele>382.609</ele>
        <time>2020-06-14T09:11:29Z</time>
      </trkpt>
      <trkpt lat="46.58292" lon="4.48119">
        <ele>384.609</ele>
        <time>2020-06-14T09:11:35Z</time>
      </trkpt>
      <trkpt lat="46.58289" lon="4.48128">
        <ele>383.609</ele>
        <time>2020-06-14T09:11:42Z</time>
      </trkpt>
      <trkpt lat="46.5828" lon="4.48132">
        <ele>380.609</ele>
        <time>2020-06-14T09:11:47Z</time>
      </trkpt>
      <trkpt lat="46.58269" lon="4.48141">
        <ele>382.609</ele>
        <time>2020-06-14T09:11:52Z</time>
      </trkpt>
      <trkpt lat="46.58263" lon="4.48145">
        <ele>382.609</ele>
        <time>2020-06-14T09:11:57Z</time>
      </trkpt>
      <trkpt lat="46.58257" lon="4.4815">
        <ele>382.609</ele>
        <time>2020-06-14T09:12:02Z</time>
      </trkpt>
      <trkpt lat="46.58251" lon="4.48157">
        <ele>381.609</ele>
        <time>2020-06-14T09:12:07Z</time>
      </trkpt>
      <trkpt lat="46.58243" lon="4.48161">
        <ele>380.609</ele>
        <time>2020-06-14T09:12:12Z</time>
      </trkpt>
      <trkpt lat="46.58238" lon="4.48165">
        <ele>378.609</ele>
        <time>2020-06-14T09:12:17Z</time>
      </trkpt>
      <trkpt lat="46.58228" lon="4.48167">
        <ele>383.609</ele>
        <time>2020-06-14T09:12:22Z</time>
      </trkpt>
      <trkpt lat="46.58222" lon="4.48168">
        <ele>383.609</ele>
        <time>2020-06-14T09:12:27Z</time>
      </trkpt>
      <trkpt lat="46.58214" lon="4.48172">
        <ele>382.609</ele>
        <time>2020-06-14T09:12:33Z</time>
      </trkpt>
      <trkpt lat="46.58206" lon="4.48172">
        <ele>384.609</ele>
        <time>2020-06-14T09:12:38Z</time>
      </trkpt>
      <trkpt lat="46.58199" lon="4.48175">
        <ele>383.609</ele>
        <time>2020-06-14T09:12:44Z</time>
      </trkpt>
      <trkpt lat="46.58189" lon="4.48175">
        <ele>386.609</ele>
        <time>2020-06-14T09:12:49Z</time>
      </trkpt>
      <trkpt lat="46.58182" lon="4.48177">
        <ele>384.609</ele>
        <time>2020-06-14T09:12:54Z</time>
      </trkpt>
      <trkpt lat="46.58174" lon="4.48181">
        <ele>390.609</ele>
        <time>2020-06-14T09:12:59Z</time>
      </trkpt>
      <trkpt lat="46.58168" lon="4.48187">
        <ele>387.609</ele>
        <time>2020-06-14T09:13:04Z</time>
      </trkpt>
      <trkpt lat="46.58162" lon="4.48192">
        <ele>388.609</ele>
        <time>2020-06-14T09:13:09Z</time>
      </trkpt>
      <trkpt lat="46.58155" lon="4.48195">
        <ele>395.609</ele>
        <time>2020-06-14T09:13:15Z</time>
      </trkpt>
      <trkpt lat="46.5815" lon="4.48204">
        <ele>395.609</ele>
        <time>2020-06-14T09:13:20Z</time>
      </trkpt>
      <trkpt lat="46.58147" lon="4.48213">
        <ele>390.609</ele>
        <time>2020-06-14T09:13:26Z</time>
      </trkpt>
      <trkpt lat="46.58144" lon="4.48222">
        <ele>388.609</ele>
        <time>2020-06-14T09:13:32Z</time>
      </trkpt>
      <trkpt lat="46.58139" lon="4.48228">
        <ele>389.609</ele>
        <time>2020-06-14T09:13:37Z</time>
      </trkpt>
      <trkpt lat="46.58132" lon="4.48235">
        <ele>391.609</ele>
        <time>2020-06-14T09:13:42Z</time>
      </trkpt>
      <trkpt lat="46.58128" lon="4.48243">
        <ele>389.609</ele>
        <time>2020-06-14T09:13:47Z</time>
      </trkpt>
      <trkpt lat="46.58123" lon="4.48249">
        <ele>389.609</ele>
        <time>2020-06-14T09:13:52Z</time>
      </trkpt>
      <trkpt lat="46.58117" lon="4.48257">
        <ele>388.609</ele>
        <time>2020-06-14T09:13:57Z</time>
      </trkpt>
      <trkpt lat="46.58111" lon="4.48264">
        <ele>391.609</ele>
        <time>2020-06-14T09:14:02Z</time>
      </trkpt>
      <trkpt lat="46.58105" lon="4.48271">
        <ele>393.609</ele>
        <time>2020-06-14T09:14:07Z</time>
      </trkpt>
      <trkpt lat="46.581" lon="4.48278">
        <ele>392.609</ele>
        <time>2020-06-14T09:14:12Z</time>
      </trkpt>
      <trkpt lat="46.58094" lon="4.48285">
        <ele>396.609</ele>
        <time>2020-06-14T09:14:19Z</time>
      </trkpt>
      <trkpt lat="46.58089" lon="4.48291">
        <ele>394.609</ele>
        <time>2020-06-14T09:14:27Z</time>
      </trkpt>
      <trkpt lat="46.58083" lon="4.48294">
        <ele>395.609</ele>
        <time>2020-06-14T09:14:33Z</time>
      </trkpt>
      <trkpt lat="46.58077" lon="4.48301">
        <ele>395.609</ele>
        <time>2020-06-14T09:14:38Z</time>
      </trkpt>
      <trkpt lat="46.5807" lon="4.48308">
        <ele>396.608</ele>
        <time>2020-06-14T09:14:43Z</time>
      </trkpt>
      <trkpt lat="46.58064" lon="4.48316">
        <ele>394.608</ele>
        <time>2020-06-14T09:14:48Z</time>
      </trkpt>
      <trkpt lat="46.58058" lon="4.48323">
        <ele>395.608</ele>
        <time>2020-06-14T09:14:53Z</time>
      </trkpt>
      <trkpt lat="46.58053" lon="4.48331">
        <ele>395.608</ele>
        <time>2020-06-14T09:14:58Z</time>
      </trkpt>
      <trkpt lat="46.58047" lon="4.48338">
        <ele>395.608</ele>
        <time>2020-06-14T09:15:03Z</time>
      </trkpt>
      <trkpt lat="46.58043" lon="4.48345">
        <ele>393.608</ele>
        <time>2020-06-14T09:15:09Z</time>
      </trkpt>
      <trkpt lat="46.5804" lon="4.48355">
        <ele>389.608</ele>
        <time>2020-06-14T09:15:14Z</time>
      </trkpt>
      <trkpt lat="46.58035" lon="4.48362">
        <ele>389.608</ele>
        <time>2020-06-14T09:15:19Z</time>
      </trkpt>
      <trkpt lat="46.5803" lon="4.48368">
        <ele>392.608</ele>
        <time>2020-06-14T09:15:25Z</time>
      </trkpt>
      <trkpt lat="46.58024" lon="4.48374">
        <ele>398.608</ele>
        <time>2020-06-14T09:15:31Z</time>
      </trkpt>
      <trkpt lat="46.58017" lon="4.48379">
        <ele>401.608</ele>
        <time>2020-06-14T09:15:36Z</time>
      </trkpt>
      <trkpt lat="46.58011" lon="4.48386">
        <ele>399.608</ele>
        <time>2020-06-14T09:15:43Z</time>
      </trkpt>
      <trkpt lat="46.58006" lon="4.48396">
        <ele>398.608</ele>
        <time>2020-06-14T09:15:50Z</time>
      </trkpt>
      <trkpt lat="46.57999" lon="4.48401">
        <ele>396.608</ele>
        <time>2020-06-14T09:15:58Z</time>
      </trkpt>
      <trkpt lat="46.57993" lon="4.48407">
        <ele>396.608</ele>
        <time>2020-06-14T09:16:07Z</time>
      </trkpt>
      <trkpt lat="46.57988" lon="4.48413">
        <ele>399.608</ele>
        <time>2020-06-14T09:16:12Z</time>
      </trkpt>
      <trkpt lat="46.57981" lon="4.48416">
        <ele>400.608</ele>
        <time>2020-06-14T09:16:17Z</time>
      </trkpt>
      <trkpt lat="46.57974" lon="4.48416">
        <ele>399.608</ele>
        <time>2020-06-14T09:16:22Z</time>
      </trkpt>
      <trkpt lat="46.57967" lon="4.48417">
        <ele>397.608</ele>
        <time>2020-06-14T09:16:28Z</time>
      </trkpt>
      <trkpt lat="46.57961" lon="4.48417">
        <ele>400.608</ele>
        <time>2020-06-14T09:16:34Z</time>
      </trkpt>
      <trkpt lat="46.57954" lon="4.48418">
        <ele>401.608</ele>
        <time>2020-06-14T09:16:39Z</time>
      </trkpt>
      <trkpt lat="46.57946" lon="4.48422">
        <ele>402.608</ele>
        <time>2020-06-14T09:16:45Z</time>
      </trkpt>
      <trkpt lat="46.57939" lon="4.48425">
        <ele>404.608</ele>
        <time>2020-06-14T09:16:50Z</time>
      </trkpt>
      <trkpt lat="46.57932" lon="4.48428">
        <ele>404.608</ele>
        <time>2020-06-14T09:16:56Z</time>
      </trkpt>
      <trkpt lat="46.57926" lon="4.48436">
        <ele>405.608</ele>
        <time>2020-06-14T09:17:01Z</time>
      </trkpt>
      <trkpt lat="46.57921" lon="4.48444">
        <ele>407.608</ele>
        <time>2020-06-14T09:17:06Z</time>
      </trkpt>
      <trkpt lat="46.57918" lon="4.48453">
        <ele>408.608</ele>
        <time>2020-06-14T09:17:12Z</time>
      </trkpt>
      <trkpt lat="46.57918" lon="4.48464">
        <ele>405.608</ele>
        <time>2020-06-14T09:17:18Z</time>
      </trkpt>
      <trkpt lat="46.57915" lon="4.48474">
        <ele>407.608</ele>
        <time>2020-06-14T09:17:24Z</time>
      </trkpt>
      <trkpt lat="46.57912" lon="4.48483">
        <ele>409.608</ele>
        <time>2020-06-14T09:17:29Z</time>
      </trkpt>
      <trkpt lat="46.57909" lon="4.48492">
        <ele>413.608</ele>
        <time>2020-06-14T09:17:34Z</time>
      </trkpt>
      <trkpt lat="46.57905" lon="4.48503">
        <ele>413.608</ele>
        <time>2020-06-14T09:17:40Z</time>
      </trkpt>
      <trkpt lat="46.57901" lon="4.4851">
        <ele>411.608</ele>
        <time>2020-06-14T09:17:45Z</time>
      </trkpt>
      <trkpt lat="46.57897" lon="4.48521">
        <ele>410.608</ele>
        <time>2020-06-14T09:17:50Z</time>
      </trkpt>
      <trkpt lat="46.57893" lon="4.4853">
        <ele>411.608</ele>
        <time>2020-06-14T09:17:55Z</time>
      </trkpt>
      <trkpt lat="46.5789" lon="4.48541">
        <ele>411.608</ele>
        <time>2020-06-14T09:18:02Z</time>
      </trkpt>
      <trkpt lat="46.57887" lon="4.48551">
        <ele>412.608</ele>
        <time>2020-06-14T09:18:08Z</time>
      </trkpt>
      <trkpt lat="46.57885" lon="4.4856">
        <ele>413.608</ele>
        <time>2020-06-14T09:18:14Z</time>
      </trkpt>
      <trkpt lat="46.57883" lon="4.48571">
        <ele>409.608</ele>
        <time>2020-06-14T09:18:22Z</time>
      </trkpt>
      <trkpt lat="46.57877" lon="4.4858">
        <ele>411.608</ele>
        <time>2020-06-14T09:18:27Z</time>
      </trkpt>
      <trkpt lat="46.57871" lon="4.48589">
        <ele>413.608</ele>
        <time>2020-06-14T09:18:32Z</time>
      </trkpt>
      <trkpt lat="46.57869" lon="4.48598">
        <ele>413.608</ele>
        <time>2020-06-14T09:18:37Z</time>
      </trkpt>
      <trkpt lat="46.57868" lon="4.48608">
        <ele>410.608</ele>
        <time>2020-06-14T09:18:44Z</time>
      </trkpt>
      <trkpt lat="46.57866" lon="4.48618">
        <ele>412.608</ele>
        <time>2020-06-14T09:18:49Z</time>
      </trkpt>
      <trkpt lat="46.57862" lon="4.48627">
        <ele>412.608</ele>
        <time>2020-06-14T09:18:54Z</time>
      </trkpt>
      <trkpt lat="46.5786" lon="4.48637">
        <ele>412.608</ele>
        <time>2020-06-14T09:19:00Z</time>
      </trkpt>
      <trkpt lat="46.57857" lon="4.48646">
        <ele>411.608</ele>
        <time>2020-06-14T09:19:06Z</time>
      </trkpt>
      <trkpt lat="46.57852" lon="4.48657">
        <ele>413.608</ele>
        <time>2020-06-14T09:19:11Z</time>
      </trkpt>
      <trkpt lat="46.57852" lon="4.48666">
        <ele>413.608</ele>
        <time>2020-06-14T09:19:16Z</time>
      </trkpt>
      <trkpt lat="46.57852" lon="4.48676">
        <ele>412.608</ele>
        <time>2020-06-14T09:19:21Z</time>
      </trkpt>
      <trkpt lat="46.57851" lon="4.48687">
        <ele>413.608</ele>
        <time>2020-06-14T09:19:26Z</time>
      </trkpt>
      <trkpt lat="46.5785" lon="4.48698">
        <ele>413.608</ele>
        <time>2020-06-14T09:19:31Z</time>
      </trkpt>
      <trkpt lat="46.57861" lon="4.48714">
        <ele>413.608</ele>
        <time>2020-06-14T09:19:36Z</time>
      </trkpt>
      <trkpt lat="46.57848" lon="4.48715">
        <ele>410.608</ele>
        <time>2020-06-14T09:19:41Z</time>
      </trkpt>
      <trkpt lat="46.57844" lon="4.48724">
        <ele>409.608</ele>
        <time>2020-06-14T09:19:46Z</time>
      </trkpt>
      <trkpt lat="46.57841" lon="4.48734">
        <ele>410.608</ele>
        <time>2020-06-14T09:19:51Z</time>
      </trkpt>
      <trkpt lat="46.57838" lon="4.48744">
        <ele>409.608</ele>
        <time>2020-06-14T09:19:56Z</time>
      </trkpt>
      <trkpt lat="46.57837" lon="4.48755">
        <ele>416.608</ele>
        <time>2020-06-14T09:20:02Z</time>
      </trkpt>
      <trkpt lat="46.57834" lon="4.48766">
        <ele>413.608</ele>
        <time>2020-06-14T09:20:09Z</time>
      </trkpt>
      <trkpt lat="46.57832" lon="4.48774">
        <ele>413.608</ele>
        <time>2020-06-14T09:20:14Z</time>
      </trkpt>
      <trkpt lat="46.57828" lon="4.48784">
        <ele>412.608</ele>
        <time>2020-06-14T09:20:19Z</time>
      </trkpt>
      <trkpt lat="46.57826" lon="4.48795">
        <ele>412.608</ele>
        <time>2020-06-14T09:20:24Z</time>
      </trkpt>
      <trkpt lat="46.57825" lon="4.48805">
        <ele>409.608</ele>
        <time>2020-06-14T09:20:29Z</time>
      </trkpt>
      <trkpt lat="46.57824" lon="4.48815">
        <ele>410.608</ele>
        <time>2020-06-14T09:20:35Z</time>
      </trkpt>
      <trkpt lat="46.5782" lon="4.48826">
        <ele>406.608</ele>
        <time>2020-06-14T09:20:42Z</time>
      </trkpt>
      <trkpt lat="46.57818" lon="4.48835">
        <ele>405.608</ele>
        <time>2020-06-14T09:20:47Z</time>
      </trkpt>
      <trkpt lat="46.57815" lon="4.48849">
        <ele>406.608</ele>
        <time>2020-06-14T09:20:52Z</time>
      </trkpt>
      <trkpt lat="46.57813" lon="4.48861">
        <ele>405.608</ele>
        <time>2020-06-14T09:20:57Z</time>
      </trkpt>
      <trkpt lat="46.57811" lon="4.4887">
        <ele>407.608</ele>
        <time>2020-06-14T09:21:02Z</time>
      </trkpt>
      <trkpt lat="46.57808" lon="4.48881">
        <ele>409.608</ele>
        <time>2020-06-14T09:21:07Z</time>
      </trkpt>
      <trkpt lat="46.57805" lon="4.48892">
        <ele>410.608</ele>
        <time>2020-06-14T09:21:12Z</time>
      </trkpt>
      <trkpt lat="46.57808" lon="4.48901">
        <ele>406.608</ele>
        <time>2020-06-14T09:21:17Z</time>
      </trkpt>
      <trkpt lat="46.57806" lon="4.48912">
        <ele>406.608</ele>
        <time>2020-06-14T09:21:24Z</time>
      </trkpt>
      <trkpt lat="46.57803" lon="4.48923">
        <ele>407.608</ele>
        <time>2020-06-14T09:21:29Z</time>
      </trkpt>
      <trkpt lat="46.57804" lon="4.48933">
        <ele>406.608</ele>
        <time>2020-06-14T09:21:34Z</time>
      </trkpt>
      <trkpt lat="46.57801" lon="4.48943">
        <ele>404.608</ele>
        <time>2020-06-14T09:21:39Z</time>
      </trkpt>
      <trkpt lat="46.57798" lon="4.48956">
        <ele>405.608</ele>
        <time>2020-06-14T09:21:44Z</time>
      </trkpt>
      <trkpt lat="46.57796" lon="4.48966">
        <ele>403.608</ele>
        <time>2020-06-14T09:21:50Z</time>
      </trkpt>
      <trkpt lat="46.57795" lon="4.48976">
        <ele>401.608</ele>
        <time>2020-06-14T09:21:55Z</time>
      </trkpt>
      <trkpt lat="46.57793" lon="4.48987">
        <ele>402.608</ele>
        <time>2020-06-14T09:22:00Z</time>
      </trkpt>
      <trkpt lat="46.57792" lon="4.48999">
        <ele>402.608</ele>
        <time>2020-06-14T09:22:05Z</time>
      </trkpt>
      <trkpt lat="46.57789" lon="4.49009">
        <ele>401.608</ele>
        <time>2020-06-14T09:22:11Z</time>
      </trkpt>
      <trkpt lat="46.57787" lon="4.49019">
        <ele>402.608</ele>
        <time>2020-06-14T09:22:16Z</time>
      </trkpt>
      <trkpt lat="46.57784" lon="4.49031">
        <ele>403.608</ele>
        <time>2020-06-14T09:22:21Z</time>
      </trkpt>
      <trkpt lat="46.5778" lon="4.49038">
        <ele>403.608</ele>
        <time>2020-06-14T09:22:27Z</time>
      </trkpt>
      <trkpt lat="46.57777" lon="4.4905">
        <ele>402.608</ele>
        <time>2020-06-14T09:22:32Z</time>
      </trkpt>
      <trkpt lat="46.57774" lon="4.49061">
        <ele>401.608</ele>
        <time>2020-06-14T09:22:37Z</time>
      </trkpt>
      <trkpt lat="46.5777" lon="4.4907">
        <ele>399.608</ele>
        <time>2020-06-14T09:22:43Z</time>
      </trkpt>
      <trkpt lat="46.57765" lon="4.49077">
        <ele>399.608</ele>
        <time>2020-06-14T09:22:48Z</time>
      </trkpt>
      <trkpt lat="46.57762" lon="4.49088">
        <ele>401.608</ele>
        <time>2020-06-14T09:22:54Z</time>
      </trkpt>
      <trkpt lat="46.57762" lon="4.49098">
        <ele>403.608</ele>
        <time>2020-06-14T09:22:59Z</time>
      </trkpt>
      <trkpt lat="46.57761" lon="4.49108">
        <ele>401.608</ele>
        <time>2020-06-14T09:23:06Z</time>
      </trkpt>
      <trkpt lat="46.57758" lon="4.49117">
        <ele>401.608</ele>
        <time>2020-06-14T09:23:11Z</time>
      </trkpt>
      <trkpt lat="46.57753" lon="4.4913">
        <ele>402.608</ele>
        <time>2020-06-14T09:23:16Z</time>
      </trkpt>
      <trkpt lat="46.57752" lon="4.4914">
        <ele>400.608</ele>
        <time>2020-06-14T09:23:21Z</time>
      </trkpt>
      <trkpt lat="46.57749" lon="4.4915">
        <ele>398.608</ele>
        <time>2020-06-14T09:23:27Z</time>
      </trkpt>
      <trkpt lat="46.57744" lon="4.49161">
        <ele>397.608</ele>
        <time>2020-06-14T09:23:32Z</time>
      </trkpt>
      <trkpt lat="46.57743" lon="4.49172">
        <ele>397.608</ele>
        <time>2020-06-14T09:23:38Z</time>
      </trkpt>
      <trkpt lat="46.57742" lon="4.49185">
        <ele>400.608</ele>
        <time>2020-06-14T09:23:43Z</time>
      </trkpt>
      <trkpt lat="46.5774" lon="4.49199">
        <ele>403.608</ele>
        <time>2020-06-14T09:23:48Z</time>
      </trkpt>
      <trkpt lat="46.57736" lon="4.49208">
        <ele>400.608</ele>
        <time>2020-06-14T09:23:53Z</time>
      </trkpt>
      <trkpt lat="46.57732" lon="4.49216">
        <ele>400.608</ele>
        <time>2020-06-14T09:23:58Z</time>
      </trkpt>
      <trkpt lat="46.57726" lon="4.49224">
        <ele>403.608</ele>
        <time>2020-06-14T09:24:04Z</time>
      </trkpt>
      <trkpt lat="46.57721" lon="4.4923">
        <ele>403.608</ele>
        <time>2020-06-14T09:24:10Z</time>
      </trkpt>
      <trkpt lat="46.57721" lon="4.49241">
        <ele>400.608</ele>
        <time>2020-06-14T09:24:30Z</time>
      </trkpt>
      <trkpt lat="46.57724" lon="4.4925">
        <ele>402.608</ele>
        <time>2020-06-14T09:24:37Z</time>
      </trkpt>
      <trkpt lat="46.57725" lon="4.4926">
        <ele>400.608</ele>
        <time>2020-06-14T09:24:45Z</time>
      </trkpt>
      <trkpt lat="46.5773" lon="4.49267">
        <ele>398.608</ele>
        <time>2020-06-14T09:24:51Z</time>
      </trkpt>
      <trkpt lat="46.57735" lon="4.49275">
        <ele>399.608</ele>
        <time>2020-06-14T09:24:56Z</time>
      </trkpt>
      <trkpt lat="46.57737" lon="4.49285">
        <ele>397.608</ele>
        <time>2020-06-14T09:25:02Z</time>
      </trkpt>
      <trkpt lat="46.57741" lon="4.49295">
        <ele>396.608</ele>
        <time>2020-06-14T09:25:08Z</time>
      </trkpt>
      <trkpt lat="46.57735" lon="4.49305">
        <ele>390.608</ele>
        <time>2020-06-14T09:25:17Z</time>
      </trkpt>
      <trkpt lat="46.57743" lon="4.49309">
        <ele>390.608</ele>
        <time>2020-06-14T09:25:22Z</time>
      </trkpt>
      <trkpt lat="46.57745" lon="4.4932">
        <ele>389.608</ele>
        <time>2020-06-14T09:25:27Z</time>
      </trkpt>
      <trkpt lat="46.57749" lon="4.49331">
        <ele>388.608</ele>
        <time>2020-06-14T09:25:32Z</time>
      </trkpt>
      <trkpt lat="46.57753" lon="4.49338">
        <ele>391.608</ele>
        <time>2020-06-14T09:25:37Z</time>
      </trkpt>
      <trkpt lat="46.57758" lon="4.49348">
        <ele>388.608</ele>
        <time>2020-06-14T09:25:44Z</time>
      </trkpt>
      <trkpt lat="46.57762" lon="4.49357">
        <ele>387.608</ele>
        <time>2020-06-14T09:25:50Z</time>
      </trkpt>
      <trkpt lat="46.57766" lon="4.49364">
        <ele>386.608</ele>
        <time>2020-06-14T09:25:55Z</time>
      </trkpt>
      <trkpt lat="46.57771" lon="4.49374">
        <ele>387.608</ele>
        <time>2020-06-14T09:26:00Z</time>
      </trkpt>
      <trkpt lat="46.57773" lon="4.49384">
        <ele>387.608</ele>
        <time>2020-06-14T09:26:05Z</time>
      </trkpt>
      <trkpt lat="46.5778" lon="4.49392">
        <ele>387.608</ele>
        <time>2020-06-14T09:26:10Z</time>
      </trkpt>
      <trkpt lat="46.57782" lon="4.49406">
        <ele>384.608</ele>
        <time>2020-06-14T09:26:16Z</time>
      </trkpt>
      <trkpt lat="46.57784" lon="4.49415">
        <ele>385.608</ele>
        <time>2020-06-14T09:26:22Z</time>
      </trkpt>
      <trkpt lat="46.57785" lon="4.49427">
        <ele>384.609</ele>
        <time>2020-06-14T09:26:27Z</time>
      </trkpt>
      <trkpt lat="46.57787" lon="4.49437">
        <ele>381.609</ele>
        <time>2020-06-14T09:26:34Z</time>
      </trkpt>
      <trkpt lat="46.57789" lon="4.4945">
        <ele>378.609</ele>
        <time>2020-06-14T09:26:41Z</time>
      </trkpt>
      <trkpt lat="46.5779" lon="4.4946">
        <ele>377.609</ele>
        <time>2020-06-14T09:26:47Z</time>
      </trkpt>
      <trkpt lat="46.57789" lon="4.49473">
        <ele>374.609</ele>
        <time>2020-06-14T09:26:53Z</time>
      </trkpt>
      <trkpt lat="46.5779" lon="4.49484">
        <ele>374.609</ele>
        <time>2020-06-14T09:26:58Z</time>
      </trkpt>
      <trkpt lat="46.57792" lon="4.49494">
        <ele>373.609</ele>
        <time>2020-06-14T09:27:05Z</time>
      </trkpt>
      <trkpt lat="46.57792" lon="4.49505">
        <ele>371.609</ele>
        <time>2020-06-14T09:27:10Z</time>
      </trkpt>
      <trkpt lat="46.57795" lon="4.49517">
        <ele>371.609</ele>
        <time>2020-06-14T09:27:15Z</time>
      </trkpt>
      <trkpt lat="46.57795" lon="4.49527">
        <ele>370.609</ele>
        <time>2020-06-14T09:27:20Z</time>
      </trkpt>
      <trkpt lat="46.57794" lon="4.49537">
        <ele>367.609</ele>
        <time>2020-06-14T09:27:27Z</time>
      </trkpt>
      <trkpt lat="46.57793" lon="4.49547">
        <ele>366.609</ele>
        <time>2020-06-14T09:27:34Z</time>
      </trkpt>
      <trkpt lat="46.57791" lon="4.4956">
        <ele>368.609</ele>
        <time>2020-06-14T09:27:39Z</time>
      </trkpt>
      <trkpt lat="46.57792" lon="4.4957">
        <ele>365.609</ele>
        <time>2020-06-14T09:27:44Z</time>
      </trkpt>
      <trkpt lat="46.5779" lon="4.4958">
        <ele>367.609</ele>
        <time>2020-06-14T09:27:49Z</time>
      </trkpt>
      <trkpt lat="46.57787" lon="4.49591">
        <ele>367.609</ele>
        <time>2020-06-14T09:27:55Z</time>
      </trkpt>
      <trkpt lat="46.57784" lon="4.49599">
        <ele>367.609</ele>
        <time>2020-06-14T09:28:00Z</time>
      </trkpt>
      <trkpt lat="46.57781" lon="4.49608">
        <ele>366.609</ele>
        <time>2020-06-14T09:28:05Z</time>
      </trkpt>
      <trkpt lat="46.57782" lon="4.49619">
        <ele>364.609</ele>
        <time>2020-06-14T09:28:10Z</time>
      </trkpt>
      <trkpt lat="46.57781" lon="4.4963">
        <ele>362.609</ele>
        <time>2020-06-14T09:28:15Z</time>
      </trkpt>
      <trkpt lat="46.57779" lon="4.49642">
        <ele>363.609</ele>
        <time>2020-06-14T09:28:21Z</time>
      </trkpt>
      <trkpt lat="46.57777" lon="4.49651">
        <ele>364.609</ele>
        <time>2020-06-14T09:28:26Z</time>
      </trkpt>
      <trkpt lat="46.57776" lon="4.49662">
        <ele>365.609</ele>
        <time>2020-06-14T09:28:31Z</time>
      </trkpt>
      <trkpt lat="46.57775" lon="4.49672">
        <ele>365.609</ele>
        <time>2020-06-14T09:28:36Z</time>
      </trkpt>
      <trkpt lat="46.5777" lon="4.49684">
        <ele>364.609</ele>
        <time>2020-06-14T09:28:41Z</time>
      </trkpt>
      <trkpt lat="46.57769" lon="4.49696">
        <ele>362.609</ele>
        <time>2020-06-14T09:28:48Z</time>
      </trkpt>
      <trkpt lat="46.57765" lon="4.49704">
        <ele>359.609</ele>
        <time>2020-06-14T09:28:55Z</time>
      </trkpt>
      <trkpt lat="46.57762" lon="4.49714">
        <ele>357.609</ele>
        <time>2020-06-14T09:29:02Z</time>
      </trkpt>
      <trkpt lat="46.57756" lon="4.49722">
        <ele>356.609</ele>
        <time>2020-06-14T09:29:07Z</time>
      </trkpt>
      <trkpt lat="46.57749" lon="4.49731">
        <ele>355.609</ele>
        <time>2020-06-14T09:29:12Z</time>
      </trkpt>
      <trkpt lat="46.57744" lon="4.49739">
        <ele>357.609</ele>
        <time>2020-06-14T09:29:17Z</time>
      </trkpt>
      <trkpt lat="46.57739" lon="4.49749">
        <ele>359.609</ele>
        <time>2020-06-14T09:29:22Z</time>
      </trkpt>
      <trkpt lat="46.57734" lon="4.49755">
        <ele>357.609</ele>
        <time>2020-06-14T09:29:28Z</time>
      </trkpt>
      <trkpt lat="46.57728" lon="4.49762">
        <ele>356.609</ele>
        <time>2020-06-14T09:29:34Z</time>
      </trkpt>
      <trkpt lat="46.57722" lon="4.4977">
        <ele>356.609</ele>
        <time>2020-06-14T09:29:39Z</time>
      </trkpt>
      <trkpt lat="46.57716" lon="4.49777">
        <ele>354.609</ele>
        <time>2020-06-14T09:29:45Z</time>
      </trkpt>
      <trkpt lat="46.57708" lon="4.49785">
        <ele>354.609</ele>
        <time>2020-06-14T09:29:50Z</time>
      </trkpt>
      <trkpt lat="46.57702" lon="4.49793">
        <ele>353.609</ele>
        <time>2020-06-14T09:29:56Z</time>
      </trkpt>
      <trkpt lat="46.57696" lon="4.49797">
        <ele>354.609</ele>
        <time>2020-06-14T09:30:02Z</time>
      </trkpt>
      <trkpt lat="46.57689" lon="4.49801">
        <ele>356.609</ele>
        <time>2020-06-14T09:30:07Z</time>
      </trkpt>
      <trkpt lat="46.57685" lon="4.49808">
        <ele>356.608</ele>
        <time>2020-06-14T09:30:12Z</time>
      </trkpt>
      <trkpt lat="46.5768" lon="4.49815">
        <ele>355.608</ele>
        <time>2020-06-14T09:30:18Z</time>
      </trkpt>
      <trkpt lat="46.57672" lon="4.49822">
        <ele>355.608</ele>
        <time>2020-06-14T09:30:23Z</time>
      </trkpt>
      <trkpt lat="46.57666" lon="4.49828">
        <ele>354.608</ele>
        <time>2020-06-14T09:30:30Z</time>
      </trkpt>
      <trkpt lat="46.57658" lon="4.4983">
        <ele>355.608</ele>
        <time>2020-06-14T09:30:35Z</time>
      </trkpt>
      <trkpt lat="46.57651" lon="4.49837">
        <ele>355.608</ele>
        <time>2020-06-14T09:30:40Z</time>
      </trkpt>
      <trkpt lat="46.57646" lon="4.49843">
        <ele>353.608</ele>
        <time>2020-06-14T09:30:47Z</time>
      </trkpt>
      <trkpt lat="46.5764" lon="4.4985">
        <ele>352.608</ele>
        <time>2020-06-14T09:30:52Z</time>
      </trkpt>
      <trkpt lat="46.57633" lon="4.49855">
        <ele>351.608</ele>
        <time>2020-06-14T09:30:57Z</time>
      </trkpt>
      <trkpt lat="46.57628" lon="4.49861">
        <ele>350.608</ele>
        <time>2020-06-14T09:31:02Z</time>
      </trkpt>
      <trkpt lat="46.57623" lon="4.49868">
        <ele>350.608</ele>
        <time>2020-06-14T09:31:07Z</time>
      </trkpt>
      <trkpt lat="46.57618" lon="4.49876">
        <ele>351.608</ele>
        <time>2020-06-14T09:31:13Z</time>
      </trkpt>
      <trkpt lat="46.57613" lon="4.49884">
        <ele>349.608</ele>
        <time>2020-06-14T09:31:20Z</time>
      </trkpt>
      <trkpt lat="46.57609" lon="4.49891">
        <ele>350.608</ele>
        <time>2020-06-14T09:31:25Z</time>
      </trkpt>
      <trkpt lat="46.57603" lon="4.49896">
        <ele>351.608</ele>
        <time>2020-06-14T09:31:30Z</time>
      </trkpt>
      <trkpt lat="46.576" lon="4.49904">
        <ele>349.608</ele>
        <time>2020-06-14T09:31:35Z</time>
      </trkpt>
      <trkpt lat="46.57595" lon="4.49911">
        <ele>352.608</ele>
        <time>2020-06-14T09:31:40Z</time>
      </trkpt>
      <trkpt lat="46.57592" lon="4.49921">
        <ele>347.608</ele>
        <time>2020-06-14T09:31:46Z</time>
      </trkpt>
      <trkpt lat="46.57588" lon="4.49929">
        <ele>344.608</ele>
        <time>2020-06-14T09:31:51Z</time>
      </trkpt>
      <trkpt lat="46.57583" lon="4.49935">
        <ele>342.608</ele>
        <time>2020-06-14T09:31:56Z</time>
      </trkpt>
      <trkpt lat="46.57577" lon="4.49944">
        <ele>344.608</ele>
        <time>2020-06-14T09:32:01Z</time>
      </trkpt>
      <trkpt lat="46.57572" lon="4.49953">
        <ele>345.608</ele>
        <time>2020-06-14T09:32:07Z</time>
      </trkpt>
      <trkpt lat="46.57565" lon="4.49958">
        <ele>347.608</ele>
        <time>2020-06-14T09:32:12Z</time>
      </trkpt>
      <trkpt lat="46.57564" lon="4.49969">
        <ele>344.608</ele>
        <time>2020-06-14T09:32:17Z</time>
      </trkpt>
      <trkpt lat="46.5756" lon="4.49977">
        <ele>344.608</ele>
        <time>2020-06-14T09:32:22Z</time>
      </trkpt>
      <trkpt lat="46.57553" lon="4.49983">
        <ele>346.608</ele>
        <time>2020-06-14T09:32:27Z</time>
      </trkpt>
      <trkpt lat="46.57546" lon="4.49992">
        <ele>349.608</ele>
        <time>2020-06-14T09:32:32Z</time>
      </trkpt>
      <trkpt lat="46.57541" lon="4.49999">
        <ele>349.608</ele>
        <time>2020-06-14T09:32:37Z</time>
      </trkpt>
      <trkpt lat="46.57536" lon="4.50006">
        <ele>351.608</ele>
        <time>2020-06-14T09:32:43Z</time>
      </trkpt>
      <trkpt lat="46.57534" lon="4.50017">
        <ele>349.608</ele>
        <time>2020-06-14T09:32:48Z</time>
      </trkpt>
      <trkpt lat="46.57531" lon="4.50027">
        <ele>349.608</ele>
        <time>2020-06-14T09:32:55Z</time>
      </trkpt>
      <trkpt lat="46.57527" lon="4.5004">
        <ele>344.608</ele>
        <time>2020-06-14T09:33:00Z</time>
      </trkpt>
      <trkpt lat="46.57524" lon="4.50048">
        <ele>342.608</ele>
        <time>2020-06-14T09:33:06Z</time>
      </trkpt>
      <trkpt lat="46.5752" lon="4.50057">
        <ele>338.608</ele>
        <time>2020-06-14T09:33:12Z</time>
      </trkpt>
      <trkpt lat="46.57517" lon="4.50067">
        <ele>339.608</ele>
        <time>2020-06-14T09:33:17Z</time>
      </trkpt>
      <trkpt lat="46.57514" lon="4.50078">
        <ele>338.608</ele>
        <time>2020-06-14T09:33:24Z</time>
      </trkpt>
      <trkpt lat="46.57512" lon="4.50088">
        <ele>337.608</ele>
        <time>2020-06-14T09:33:29Z</time>
      </trkpt>
      <trkpt lat="46.5751" lon="4.50097">
        <ele>339.608</ele>
        <time>2020-06-14T09:33:34Z</time>
      </trkpt>
      <trkpt lat="46.57506" lon="4.50105">
        <ele>336.608</ele>
        <time>2020-06-14T09:33:39Z</time>
      </trkpt>
      <trkpt lat="46.57501" lon="4.50115">
        <ele>334.608</ele>
        <time>2020-06-14T09:33:44Z</time>
      </trkpt>
      <trkpt lat="46.57496" lon="4.50124">
        <ele>332.608</ele>
        <time>2020-06-14T09:33:49Z</time>
      </trkpt>
      <trkpt lat="46.57493" lon="4.50133">
        <ele>331.608</ele>
        <time>2020-06-14T09:33:54Z</time>
      </trkpt>
      <trkpt lat="46.5749" lon="4.50141">
        <ele>331.608</ele>
        <time>2020-06-14T09:33:59Z</time>
      </trkpt>
      <trkpt lat="46.57485" lon="4.50149">
        <ele>329.608</ele>
        <time>2020-06-14T09:34:04Z</time>
      </trkpt>
      <trkpt lat="46.57481" lon="4.50156">
        <ele>328.608</ele>
        <time>2020-06-14T09:34:10Z</time>
      </trkpt>
      <trkpt lat="46.57478" lon="4.50166">
        <ele>327.608</ele>
        <time>2020-06-14T09:34:15Z</time>
      </trkpt>
      <trkpt lat="46.57476" lon="4.50175">
        <ele>325.608</ele>
        <time>2020-06-14T09:34:20Z</time>
      </trkpt>
      <trkpt lat="46.57472" lon="4.50185">
        <ele>325.608</ele>
        <time>2020-06-14T09:34:25Z</time>
      </trkpt>
      <trkpt lat="46.57469" lon="4.50196">
        <ele>325.608</ele>
        <time>2020-06-14T09:34:30Z</time>
      </trkpt>
      <trkpt lat="46.57466" lon="4.50206">
        <ele>324.608</ele>
        <time>2020-06-14T09:34:36Z</time>
      </trkpt>
      <trkpt lat="46.57462" lon="4.50216">
        <ele>323.608</ele>
        <time>2020-06-14T09:34:41Z</time>
      </trkpt>
      <trkpt lat="46.57458" lon="4.50226">
        <ele>325.608</ele>
        <time>2020-06-14T09:34:46Z</time>
      </trkpt>
      <trkpt lat="46.57454" lon="4.50234">
        <ele>320.608</ele>
        <time>2020-06-14T09:34:52Z</time>
      </trkpt>
      <trkpt lat="46.57449" lon="4.5024">
        <ele>320.608</ele>
        <time>2020-06-14T09:34:57Z</time>
      </trkpt>
      <trkpt lat="46.57447" lon="4.5025">
        <ele>317.608</ele>
        <time>2020-06-14T09:35:03Z</time>
      </trkpt>
      <trkpt lat="46.57447" lon="4.50262">
        <ele>315.608</ele>
        <time>2020-06-14T09:35:08Z</time>
      </trkpt>
      <trkpt lat="46.57444" lon="4.50272">
        <ele>318.608</ele>
        <time>2020-06-14T09:35:13Z</time>
      </trkpt>
      <trkpt lat="46.5744" lon="4.50282">
        <ele>317.608</ele>
        <time>2020-06-14T09:35:19Z</time>
      </trkpt>
      <trkpt lat="46.57436" lon="4.50291">
        <ele>313.608</ele>
        <time>2020-06-14T09:35:24Z</time>
      </trkpt>
      <trkpt lat="46.57434" lon="4.50301">
        <ele>314.608</ele>
        <time>2020-06-14T09:35:29Z</time>
      </trkpt>
      <trkpt lat="46.57429" lon="4.50309">
        <ele>314.608</ele>
        <time>2020-06-14T09:35:34Z</time>
      </trkpt>
      <trkpt lat="46.57425" lon="4.50317">
        <ele>311.608</ele>
        <time>2020-06-14T09:35:39Z</time>
      </trkpt>
      <trkpt lat="46.57425" lon="4.50328">
        <ele>307.608</ele>
        <time>2020-06-14T09:35:46Z</time>
      </trkpt>
      <trkpt lat="46.57418" lon="4.50338">
        <ele>308.608</ele>
        <time>2020-06-14T09:35:51Z</time>
      </trkpt>
      <trkpt lat="46.57416" lon="4.50348">
        <ele>307.608</ele>
        <time>2020-06-14T09:35:56Z</time>
      </trkpt>
      <trkpt lat="46.57411" lon="4.50357">
        <ele>310.608</ele>
        <time>2020-06-14T09:36:01Z</time>
      </trkpt>
      <trkpt lat="46.57407" lon="4.50367">
        <ele>310.608</ele>
        <time>2020-06-14T09:36:06Z</time>
      </trkpt>
      <trkpt lat="46.57404" lon="4.50376">
        <ele>309.608</ele>
        <time>2020-06-14T09:36:11Z</time>
      </trkpt>
      <trkpt lat="46.57399" lon="4.50386">
        <ele>308.608</ele>
        <time>2020-06-14T09:36:16Z</time>
      </trkpt>
      <trkpt lat="46.57393" lon="4.50393">
        <ele>308.608</ele>
        <time>2020-06-14T09:36:21Z</time>
      </trkpt>
      <trkpt lat="46.57387" lon="4.50401">
        <ele>309.608</ele>
        <time>2020-06-14T09:36:26Z</time>
      </trkpt>
      <trkpt lat="46.57382" lon="4.50408">
        <ele>308.608</ele>
        <time>2020-06-14T09:36:37Z</time>
      </trkpt>
      <trkpt lat="46.57377" lon="4.50416">
        <ele>310.608</ele>
        <time>2020-06-14T09:36:55Z</time>
      </trkpt>
      <trkpt lat="46.57371" lon="4.50422">
        <ele>312.608</ele>
        <time>2020-06-14T09:37:00Z</time>
      </trkpt>
      <trkpt lat="46.57365" lon="4.5043">
        <ele>315.608</ele>
        <time>2020-06-14T09:37:05Z</time>
      </trkpt>
      <trkpt lat="46.5736" lon="4.50439">
        <ele>313.608</ele>
        <time>2020-06-14T09:37:10Z</time>
      </trkpt>
      <trkpt lat="46.57355" lon="4.50446">
        <ele>310.608</ele>
        <time>2020-06-14T09:37:16Z</time>
      </trkpt>
      <trkpt lat="46.57349" lon="4.50454">
        <ele>308.608</ele>
        <time>2020-06-14T09:37:21Z</time>
      </trkpt>
      <trkpt lat="46.57345" lon="4.50464">
        <ele>310.608</ele>
        <time>2020-06-14T09:37:26Z</time>
      </trkpt>
      <trkpt lat="46.57341" lon="4.50471">
        <ele>307.608</ele>
        <time>2020-06-14T09:37:31Z</time>
      </trkpt>
      <trkpt lat="46.57335" lon="4.50479">
        <ele>308.608</ele>
        <time>2020-06-14T09:37:37Z</time>
      </trkpt>
      <trkpt lat="46.57329" lon="4.50488">
        <ele>307.608</ele>
        <time>2020-06-14T09:37:43Z</time>
      </trkpt>
      <trkpt lat="46.57324" lon="4.50495">
        <ele>304.608</ele>
        <time>2020-06-14T09:37:48Z</time>
      </trkpt>
      <trkpt lat="46.57317" lon="4.50501">
        <ele>305.608</ele>
        <time>2020-06-14T09:37:53Z</time>
      </trkpt>
      <trkpt lat="46.57313" lon="4.50509">
        <ele>306.608</ele>
        <time>2020-06-14T09:37:58Z</time>
      </trkpt>
      <trkpt lat="46.57306" lon="4.50518">
        <ele>306.608</ele>
        <time>2020-06-14T09:38:03Z</time>
      </trkpt>
      <trkpt lat="46.57302" lon="4.50525">
        <ele>305.608</ele>
        <time>2020-06-14T09:38:09Z</time>
      </trkpt>
      <trkpt lat="46.57298" lon="4.50534">
        <ele>304.608</ele>
        <time>2020-06-14T09:38:14Z</time>
      </trkpt>
      <trkpt lat="46.57294" lon="4.50542">
        <ele>302.608</ele>
        <time>2020-06-14T09:38:19Z</time>
      </trkpt>
      <trkpt lat="46.57289" lon="4.50551">
        <ele>303.608</ele>
        <time>2020-06-14T09:38:26Z</time>
      </trkpt>
      <trkpt lat="46.57284" lon="4.50561">
        <ele>303.608</ele>
        <time>2020-06-14T09:38:32Z</time>
      </trkpt>
      <trkpt lat="46.57278" lon="4.5057">
        <ele>302.608</ele>
        <time>2020-06-14T09:38:37Z</time>
      </trkpt>
      <trkpt lat="46.57273" lon="4.50577">
        <ele>302.608</ele>
        <time>2020-06-14T09:38:42Z</time>
      </trkpt>
      <trkpt lat="46.57267" lon="4.50583">
        <ele>302.608</ele>
        <time>2020-06-14T09:38:48Z</time>
      </trkpt>
      <trkpt lat="46.57262" lon="4.50593">
        <ele>298.608</ele>
        <time>2020-06-14T09:38:53Z</time>
      </trkpt>
      <trkpt lat="46.57256" lon="4.50606">
        <ele>301.608</ele>
        <time>2020-06-14T09:38:58Z</time>
      </trkpt>
      <trkpt lat="46.5725" lon="4.50612">
        <ele>303.608</ele>
        <time>2020-06-14T09:39:04Z</time>
      </trkpt>
      <trkpt lat="46.57243" lon="4.50619">
        <ele>303.608</ele>
        <time>2020-06-14T09:39:09Z</time>
      </trkpt>
      <trkpt lat="46.57239" lon="4.50626">
        <ele>306.608</ele>
        <time>2020-06-14T09:39:14Z</time>
      </trkpt>
      <trkpt lat="46.57233" lon="4.50634">
        <ele>305.608</ele>
        <time>2020-06-14T09:39:19Z</time>
      </trkpt>
      <trkpt lat="46.57227" lon="4.50639">
        <ele>307.608</ele>
        <time>2020-06-14T09:39:26Z</time>
      </trkpt>
      <trkpt lat="46.57221" lon="4.50648">
        <ele>305.608</ele>
        <time>2020-06-14T09:39:31Z</time>
      </trkpt>
      <trkpt lat="46.57215" lon="4.50655">
        <ele>307.608</ele>
        <time>2020-06-14T09:39:36Z</time>
      </trkpt>
      <trkpt lat="46.5721" lon="4.50662">
        <ele>306.608</ele>
        <time>2020-06-14T09:39:42Z</time>
      </trkpt>
      <trkpt lat="46.57204" lon="4.50668">
        <ele>307.608</ele>
        <time>2020-06-14T09:39:47Z</time>
      </trkpt>
      <trkpt lat="46.57199" lon="4.50676">
        <ele>303.608</ele>
        <time>2020-06-14T09:39:52Z</time>
      </trkpt>
      <trkpt lat="46.57194" lon="4.50684">
        <ele>302.608</ele>
        <time>2020-06-14T09:39:57Z</time>
      </trkpt>
      <trkpt lat="46.5719" lon="4.50691">
        <ele>301.608</ele>
        <time>2020-06-14T09:40:04Z</time>
      </trkpt>
      <trkpt lat="46.57185" lon="4.50696">
        <ele>302.608</ele>
        <time>2020-06-14T09:40:09Z</time>
      </trkpt>
      <trkpt lat="46.57177" lon="4.50704">
        <ele>304.608</ele>
        <time>2020-06-14T09:40:14Z</time>
      </trkpt>
      <trkpt lat="46.57173" lon="4.50711">
        <ele>300.608</ele>
        <time>2020-06-14T09:40:20Z</time>
      </trkpt>
      <trkpt lat="46.57168" lon="4.50719">
        <ele>301.608</ele>
        <time>2020-06-14T09:40:25Z</time>
      </trkpt>
      <trkpt lat="46.57162" lon="4.50725">
        <ele>300.608</ele>
        <time>2020-06-14T09:40:30Z</time>
      </trkpt>
      <trkpt lat="46.57156" lon="4.5073">
        <ele>300.608</ele>
        <time>2020-06-14T09:40:36Z</time>
      </trkpt>
      <trkpt lat="46.57149" lon="4.50734">
        <ele>300.608</ele>
        <time>2020-06-14T09:40:41Z</time>
      </trkpt>
      <trkpt lat="46.57143" lon="4.50738">
        <ele>300.608</ele>
        <time>2020-06-14T09:40:46Z</time>
      </trkpt>
      <trkpt lat="46.57137" lon="4.50741">
        <ele>297.608</ele>
        <time>2020-06-14T09:40:52Z</time>
      </trkpt>
      <trkpt lat="46.57131" lon="4.50746">
        <ele>293.608</ele>
        <time>2020-06-14T09:40:57Z</time>
      </trkpt>
      <trkpt lat="46.57123" lon="4.50747">
        <ele>292.608</ele>
        <time>2020-06-14T09:41:02Z</time>
      </trkpt>
      <trkpt lat="46.57115" lon="4.50748">
        <ele>291.608</ele>
        <time>2020-06-14T09:41:08Z</time>
      </trkpt>
      <trkpt lat="46.57107" lon="4.50748">
        <ele>292.608</ele>
        <time>2020-06-14T09:41:13Z</time>
      </trkpt>
      <trkpt lat="46.571" lon="4.50748">
        <ele>293.608</ele>
        <time>2020-06-14T09:41:18Z</time>
      </trkpt>
      <trkpt lat="46.57094" lon="4.50743">
        <ele>291.608</ele>
        <time>2020-06-14T09:41:23Z</time>
      </trkpt>
      <trkpt lat="46.57087" lon="4.5074">
        <ele>291.608</ele>
        <time>2020-06-14T09:41:28Z</time>
      </trkpt>
      <trkpt lat="46.5708" lon="4.50743">
        <ele>290.608</ele>
        <time>2020-06-14T09:41:34Z</time>
      </trkpt>
      <trkpt lat="46.57074" lon="4.50747">
        <ele>289.607</ele>
        <time>2020-06-14T09:41:40Z</time>
      </trkpt>
      <trkpt lat="46.57066" lon="4.50759">
        <ele>287.607</ele>
        <time>2020-06-14T09:41:45Z</time>
      </trkpt>
      <trkpt lat="46.5706" lon="4.50765">
        <ele>285.607</ele>
        <time>2020-06-14T09:41:51Z</time>
      </trkpt>
      <trkpt lat="46.57055" lon="4.50773">
        <ele>284.607</ele>
        <time>2020-06-14T09:41:56Z</time>
      </trkpt>
      <trkpt lat="46.57049" lon="4.50781">
        <ele>285.607</ele>
        <time>2020-06-14T09:42:01Z</time>
      </trkpt>
      <trkpt lat="46.57044" lon="4.50788">
        <ele>287.607</ele>
        <time>2020-06-14T09:42:06Z</time>
      </trkpt>
      <trkpt lat="46.5704" lon="4.50797">
        <ele>284.607</ele>
        <time>2020-06-14T09:42:11Z</time>
      </trkpt>
      <trkpt lat="46.57036" lon="4.50806">
        <ele>280.607</ele>
        <time>2020-06-14T09:42:17Z</time>
      </trkpt>
      <trkpt lat="46.5703" lon="4.50814">
        <ele>279.607</ele>
        <time>2020-06-14T09:42:22Z</time>
      </trkpt>
      <trkpt lat="46.57026" lon="4.50822">
        <ele>278.607</ele>
        <time>2020-06-14T09:42:27Z</time>
      </trkpt>
      <trkpt lat="46.5702" lon="4.5083">
        <ele>276.607</ele>
        <time>2020-06-14T09:42:32Z</time>
      </trkpt>
      <trkpt lat="46.57014" lon="4.50836">
        <ele>275.607</ele>
        <time>2020-06-14T09:42:38Z</time>
      </trkpt>
      <trkpt lat="46.57008" lon="4.50842">
        <ele>274.607</ele>
        <time>2020-06-14T09:42:44Z</time>
      </trkpt>
      <trkpt lat="46.57001" lon="4.50846">
        <ele>271.607</ele>
        <time>2020-06-14T09:42:49Z</time>
      </trkpt>
      <trkpt lat="46.56997" lon="4.50854">
        <ele>269.607</ele>
        <time>2020-06-14T09:42:55Z</time>
      </trkpt>
      <trkpt lat="46.56991" lon="4.50861">
        <ele>267.607</ele>
        <time>2020-06-14T09:43:02Z</time>
      </trkpt>
      <trkpt lat="46.56984" lon="4.50866">
        <ele>268.607</ele>
        <time>2020-06-14T09:43:07Z</time>
      </trkpt>
      <trkpt lat="46.5698" lon="4.50875">
        <ele>269.607</ele>
        <time>2020-06-14T09:43:12Z</time>
      </trkpt>
      <trkpt lat="46.56975" lon="4.50883">
        <ele>271.607</ele>
        <time>2020-06-14T09:43:17Z</time>
      </trkpt>
      <trkpt lat="46.56974" lon="4.50894">
        <ele>265.607</ele>
        <time>2020-06-14T09:43:23Z</time>
      </trkpt>
      <trkpt lat="46.56972" lon="4.50906">
        <ele>264.607</ele>
        <time>2020-06-14T09:43:28Z</time>
      </trkpt>
      <trkpt lat="46.56966" lon="4.50911">
        <ele>264.607</ele>
        <time>2020-06-14T09:43:33Z</time>
      </trkpt>
      <trkpt lat="46.5696" lon="4.5092">
        <ele>263.607</ele>
        <time>2020-06-14T09:43:39Z</time>
      </trkpt>
      <trkpt lat="46.56953" lon="4.50931">
        <ele>265.607</ele>
        <time>2020-06-14T09:43:44Z</time>
      </trkpt>
      <trkpt lat="46.56948" lon="4.50937">
        <ele>264.607</ele>
        <time>2020-06-14T09:43:49Z</time>
      </trkpt>
      <trkpt lat="46.56941" lon="4.50942">
        <ele>263.607</ele>
        <time>2020-06-14T09:43:55Z</time>
      </trkpt>
      <trkpt lat="46.56935" lon="4.50947">
        <ele>263.607</ele>
        <time>2020-06-14T09:44:01Z</time>
      </trkpt>
      <trkpt lat="46.56929" lon="4.50954">
        <ele>264.607</ele>
        <time>2020-06-14T09:44:06Z</time>
      </trkpt>
      <trkpt lat="46.56924" lon="4.50961">
        <ele>260.607</ele>
        <time>2020-06-14T09:44:12Z</time>
      </trkpt>
      <trkpt lat="46.56918" lon="4.50967">
        <ele>259.607</ele>
        <time>2020-06-14T09:44:19Z</time>
      </trkpt>
      <trkpt lat="46.56914" lon="4.50975">
        <ele>256.607</ele>
        <time>2020-06-14T09:44:24Z</time>
      </trkpt>
      <trkpt lat="46.56909" lon="4.50983">
        <ele>258.607</ele>
        <time>2020-06-14T09:44:29Z</time>
      </trkpt>
      <trkpt lat="46.56906" lon="4.50993">
        <ele>259.607</ele>
        <time>2020-06-14T09:44:35Z</time>
      </trkpt>
      <trkpt lat="46.56908" lon="4.51003">
        <ele>260.607</ele>
        <time>2020-06-14T09:44:41Z</time>
      </trkpt>
      <trkpt lat="46.56913" lon="4.51011">
        <ele>256.607</ele>
        <time>2020-06-14T09:44:46Z</time>
      </trkpt>
      <trkpt lat="46.56919" lon="4.51017">
        <ele>255.607</ele>
        <time>2020-06-14T09:44:51Z</time>
      </trkpt>
      <trkpt lat="46.56922" lon="4.51028">
        <ele>255.607</ele>
        <time>2020-06-14T09:44:57Z</time>
      </trkpt>
      <trkpt lat="46.56925" lon="4.51038">
        <ele>254.607</ele>
        <time>2020-06-14T09:45:02Z</time>
      </trkpt>
      <trkpt lat="46.56927" lon="4.51048">
        <ele>252.607</ele>
        <time>2020-06-14T09:45:09Z</time>
      </trkpt>
      <trkpt lat="46.56931" lon="4.51057">
        <ele>254.607</ele>
        <time>2020-06-14T09:45:15Z</time>
      </trkpt>
      <trkpt lat="46.56935" lon="4.51066">
        <ele>254.607</ele>
        <time>2020-06-14T09:45:21Z</time>
      </trkpt>
      <trkpt lat="46.56936" lon="4.51078">
        <ele>254.607</ele>
        <time>2020-06-14T09:45:26Z</time>
      </trkpt>
      <trkpt lat="46.56941" lon="4.51085">
        <ele>254.607</ele>
        <time>2020-06-14T09:45:31Z</time>
      </trkpt>
      <trkpt lat="46.56943" lon="4.51096">
        <ele>256.607</ele>
        <time>2020-06-14T09:45:36Z</time>
      </trkpt>
      <trkpt lat="46.56949" lon="4.51102">
        <ele>257.607</ele>
        <time>2020-06-14T09:45:42Z</time>
      </trkpt>
      <trkpt lat="46.5695" lon="4.51112">
        <ele>259.607</ele>
        <time>2020-06-14T09:45:47Z</time>
      </trkpt>
      <trkpt lat="46.56954" lon="4.51121">
        <ele>263.607</ele>
        <time>2020-06-14T09:45:52Z</time>
      </trkpt>
      <trkpt lat="46.56956" lon="4.5113">
        <ele>261.607</ele>
        <time>2020-06-14T09:45:57Z</time>
      </trkpt>
      <trkpt lat="46.56958" lon="4.51141">
        <ele>264.607</ele>
        <time>2020-06-14T09:46:02Z</time>
      </trkpt>
      <trkpt lat="46.56959" lon="4.5115">
        <ele>264.607</ele>
        <time>2020-06-14T09:46:07Z</time>
      </trkpt>
      <trkpt lat="46.56959" lon="4.51161">
        <ele>266.607</ele>
        <time>2020-06-14T09:46:12Z</time>
      </trkpt>
      <trkpt lat="46.56958" lon="4.51174">
        <ele>264.607</ele>
        <time>2020-06-14T09:46:18Z</time>
      </trkpt>
      <trkpt lat="46.56958" lon="4.51185">
        <ele>263.607</ele>
        <time>2020-06-14T09:46:24Z</time>
      </trkpt>
      <trkpt lat="46.56959" lon="4.51196">
        <ele>261.607</ele>
        <time>2020-06-14T09:46:29Z</time>
      </trkpt>
      <trkpt lat="46.56956" lon="4.51206">
        <ele>260.607</ele>
        <time>2020-06-14T09:46:34Z</time>
      </trkpt>
      <trkpt lat="46.56956" lon="4.51216">
        <ele>259.608</ele>
        <time>2020-06-14T09:46:39Z</time>
      </trkpt>
      <trkpt lat="46.56956" lon="4.51226">
        <ele>262.608</ele>
        <time>2020-06-14T09:46:45Z</time>
      </trkpt>
      <trkpt lat="46.56955" lon="4.51238">
        <ele>260.608</ele>
        <time>2020-06-14T09:46:50Z</time>
      </trkpt>
      <trkpt lat="46.56955" lon="4.5125">
        <ele>260.608</ele>
        <time>2020-06-14T09:46:55Z</time>
      </trkpt>
      <trkpt lat="46.56955" lon="4.51262">
        <ele>260.608</ele>
        <time>2020-06-14T09:47:00Z</time>
      </trkpt>
      <trkpt lat="46.56954" lon="4.51273">
        <ele>260.608</ele>
        <time>2020-06-14T09:47:05Z</time>
      </trkpt>
      <trkpt lat="46.56953" lon="4.51285">
        <ele>262.608</ele>
        <time>2020-06-14T09:47:10Z</time>
      </trkpt>
      <trkpt lat="46.56952" lon="4.51297">
        <ele>261.608</ele>
        <time>2020-06-14T09:47:16Z</time>
      </trkpt>
      <trkpt lat="46.56952" lon="4.51308">
        <ele>260.608</ele>
        <time>2020-06-14T09:47:24Z</time>
      </trkpt>
      <trkpt lat="46.56948" lon="4.51317">
        <ele>260.608</ele>
        <time>2020-06-14T09:47:30Z</time>
      </trkpt>
      <trkpt lat="46.56945" lon="4.51326">
        <ele>261.608</ele>
        <time>2020-06-14T09:47:35Z</time>
      </trkpt>
      <trkpt lat="46.5694" lon="4.51335">
        <ele>262.608</ele>
        <time>2020-06-14T09:47:40Z</time>
      </trkpt>
      <trkpt lat="46.56939" lon="4.51344">
        <ele>259.608</ele>
        <time>2020-06-14T09:47:45Z</time>
      </trkpt>
      <trkpt lat="46.56938" lon="4.51354">
        <ele>257.608</ele>
        <time>2020-06-14T09:47:50Z</time>
      </trkpt>
      <trkpt lat="46.56934" lon="4.51364">
        <ele>257.608</ele>
        <time>2020-06-14T09:47:55Z</time>
      </trkpt>
      <trkpt lat="46.56933" lon="4.51373">
        <ele>259.608</ele>
        <time>2020-06-14T09:48:01Z</time>
      </trkpt>
      <trkpt lat="46.56929" lon="4.51382">
        <ele>258.608</ele>
        <time>2020-06-14T09:48:06Z</time>
      </trkpt>
      <trkpt lat="46.56925" lon="4.51391">
        <ele>261.608</ele>
        <time>2020-06-14T09:48:12Z</time>
      </trkpt>
      <trkpt lat="46.56919" lon="4.51404">
        <ele>266.608</ele>
        <time>2020-06-14T09:48:17Z</time>
      </trkpt>
      <trkpt lat="46.56917" lon="4.51414">
        <ele>265.608</ele>
        <time>2020-06-14T09:48:23Z</time>
      </trkpt>
      <trkpt lat="46.56913" lon="4.51424">
        <ele>264.608</ele>
        <time>2020-06-14T09:48:28Z</time>
      </trkpt>
      <trkpt lat="46.56918" lon="4.51431">
        <ele>258.608</ele>
        <time>2020-06-14T09:51:05Z</time>
      </trkpt>
      <trkpt lat="46.56917" lon="4.51434">
        <ele>260.608</ele>
        <time>2020-06-14T09:51:10Z</time>
      </trkpt>
      <trkpt lat="46.56914" lon="4.51443">
        <ele>256.608</ele>
        <time>2020-06-14T09:52:01Z</time>
      </trkpt>
      <trkpt lat="46.56911" lon="4.51452">
        <ele>258.608</ele>
        <time>2020-06-14T09:52:06Z</time>
      </trkpt>
      <trkpt lat="46.56909" lon="4.51464">
        <ele>259.608</ele>
        <time>2020-06-14T09:52:11Z</time>
      </trkpt>
      <trkpt lat="46.56907" lon="4.51473">
        <ele>259.608</ele>
        <time>2020-06-14T09:52:16Z</time>
      </trkpt>
      <trkpt lat="46.56905" lon="4.51485">
        <ele>258.608</ele>
        <time>2020-06-14T09:52:23Z</time>
      </trkpt>
      <trkpt lat="46.56904" lon="4.51497">
        <ele>259.608</ele>
        <time>2020-06-14T09:52:28Z</time>
      </trkpt>
      <trkpt lat="46.56902" lon="4.51507">
        <ele>260.608</ele>
        <time>2020-06-14T09:52:33Z</time>
      </trkpt>
      <trkpt lat="46.56899" lon="4.51517">
        <ele>259.608</ele>
        <time>2020-06-14T09:52:38Z</time>
      </trkpt>
      <trkpt lat="46.569" lon="4.51527">
        <ele>259.608</ele>
        <time>2020-06-14T09:52:45Z</time>
      </trkpt>
      <trkpt lat="46.56897" lon="4.51538">
        <ele>258.608</ele>
        <time>2020-06-14T09:52:51Z</time>
      </trkpt>
      <trkpt lat="46.56896" lon="4.51549">
        <ele>257.608</ele>
        <time>2020-06-14T09:52:56Z</time>
      </trkpt>
      <trkpt lat="46.56895" lon="4.51561">
        <ele>256.608</ele>
        <time>2020-06-14T09:53:01Z</time>
      </trkpt>
      <trkpt lat="46.56891" lon="4.51573">
        <ele>255.608</ele>
        <time>2020-06-14T09:53:06Z</time>
      </trkpt>
      <trkpt lat="46.56888" lon="4.51582">
        <ele>257.608</ele>
        <time>2020-06-14T09:53:12Z</time>
      </trkpt>
      <trkpt lat="46.56886" lon="4.51591">
        <ele>255.608</ele>
        <time>2020-06-14T09:53:17Z</time>
      </trkpt>
      <trkpt lat="46.56883" lon="4.51603">
        <ele>253.608</ele>
        <time>2020-06-14T09:53:22Z</time>
      </trkpt>
      <trkpt lat="46.56886" lon="4.51612">
        <ele>251.608</ele>
        <time>2020-06-14T09:53:27Z</time>
      </trkpt>
      <trkpt lat="46.56883" lon="4.51622">
        <ele>249.608</ele>
        <time>2020-06-14T09:53:32Z</time>
      </trkpt>
      <trkpt lat="46.56881" lon="4.51633">
        <ele>251.608</ele>
        <time>2020-06-14T09:53:38Z</time>
      </trkpt>
      <trkpt lat="46.56878" lon="4.51645">
        <ele>249.608</ele>
        <time>2020-06-14T09:53:43Z</time>
      </trkpt>
      <trkpt lat="46.56876" lon="4.51656">
        <ele>249.608</ele>
        <time>2020-06-14T09:53:48Z</time>
      </trkpt>
      <trkpt lat="46.56875" lon="4.51668">
        <ele>249.608</ele>
        <time>2020-06-14T09:53:55Z</time>
      </trkpt>
      <trkpt lat="46.56874" lon="4.51682">
        <ele>248.608</ele>
        <time>2020-06-14T09:54:01Z</time>
      </trkpt>
      <trkpt lat="46.56872" lon="4.51691">
        <ele>246.608</ele>
        <time>2020-06-14T09:54:06Z</time>
      </trkpt>
      <trkpt lat="46.56868" lon="4.51703">
        <ele>245.608</ele>
        <time>2020-06-14T09:54:11Z</time>
      </trkpt>
      <trkpt lat="46.56864" lon="4.51712">
        <ele>245.608</ele>
        <time>2020-06-14T09:54:16Z</time>
      </trkpt>
      <trkpt lat="46.56861" lon="4.51724">
        <ele>247.608</ele>
        <time>2020-06-14T09:54:21Z</time>
      </trkpt>
      <trkpt lat="46.56863" lon="4.51734">
        <ele>241.608</ele>
        <time>2020-06-14T09:54:28Z</time>
      </trkpt>
      <trkpt lat="46.56861" lon="4.51743">
        <ele>241.608</ele>
        <time>2020-06-14T09:54:33Z</time>
      </trkpt>
      <trkpt lat="46.56858" lon="4.51755">
        <ele>241.608</ele>
        <time>2020-06-14T09:54:38Z</time>
      </trkpt>
      <trkpt lat="46.56857" lon="4.51767">
        <ele>243.608</ele>
        <time>2020-06-14T09:54:44Z</time>
      </trkpt>
      <trkpt lat="46.56857" lon="4.51778">
        <ele>242.608</ele>
        <time>2020-06-14T09:54:50Z</time>
      </trkpt>
      <trkpt lat="46.56852" lon="4.51785">
        <ele>245.608</ele>
        <time>2020-06-14T09:54:55Z</time>
      </trkpt>
      <trkpt lat="46.56847" lon="4.51794">
        <ele>245.608</ele>
        <time>2020-06-14T09:55:00Z</time>
      </trkpt>
      <trkpt lat="46.56842" lon="4.51805">
        <ele>247.608</ele>
        <time>2020-06-14T09:55:05Z</time>
      </trkpt>
      <trkpt lat="46.56838" lon="4.51814">
        <ele>247.608</ele>
        <time>2020-06-14T09:55:10Z</time>
      </trkpt>
      <trkpt lat="46.56834" lon="4.51825">
        <ele>249.608</ele>
        <time>2020-06-14T09:55:16Z</time>
      </trkpt>
      <trkpt lat="46.56833" lon="4.51836">
        <ele>244.608</ele>
        <time>2020-06-14T09:55:22Z</time>
      </trkpt>
      <trkpt lat="46.56829" lon="4.51845">
        <ele>243.608</ele>
        <time>2020-06-14T09:55:27Z</time>
      </trkpt>
      <trkpt lat="46.56826" lon="4.51856">
        <ele>239.608</ele>
        <time>2020-06-14T09:55:32Z</time>
      </trkpt>
      <trkpt lat="46.56824" lon="4.51864">
        <ele>238.608</ele>
        <time>2020-06-14T09:55:37Z</time>
      </trkpt>
      <trkpt lat="46.56821" lon="4.51873">
        <ele>239.608</ele>
        <time>2020-06-14T09:55:43Z</time>
      </trkpt>
      <trkpt lat="46.56822" lon="4.51884">
        <ele>238.608</ele>
        <time>2020-06-14T09:55:48Z</time>
      </trkpt>
      <trkpt lat="46.56822" lon="4.51896">
        <ele>241.608</ele>
        <time>2020-06-14T09:55:53Z</time>
      </trkpt>
      <trkpt lat="46.56822" lon="4.5191">
        <ele>240.608</ele>
        <time>2020-06-14T09:55:58Z</time>
      </trkpt>
      <trkpt lat="46.56823" lon="4.51923">
        <ele>242.608</ele>
        <time>2020-06-14T09:56:03Z</time>
      </trkpt>
      <trkpt lat="46.56828" lon="4.51932">
        <ele>243.608</ele>
        <time>2020-06-14T09:56:10Z</time>
      </trkpt>
      <trkpt lat="46.56829" lon="4.51943">
        <ele>243.608</ele>
        <time>2020-06-14T09:56:15Z</time>
      </trkpt>
      <trkpt lat="46.56833" lon="4.51953">
        <ele>242.608</ele>
        <time>2020-06-14T09:56:20Z</time>
      </trkpt>
      <trkpt lat="46.56835" lon="4.51964">
        <ele>241.608</ele>
        <time>2020-06-14T09:56:26Z</time>
      </trkpt>
      <trkpt lat="46.56842" lon="4.51968">
        <ele>238.608</ele>
        <time>2020-06-14T09:56:31Z</time>
      </trkpt>
      <trkpt lat="46.56845" lon="4.51978">
        <ele>240.608</ele>
        <time>2020-06-14T09:56:36Z</time>
      </trkpt>
      <trkpt lat="46.56843" lon="4.51993">
        <ele>241.608</ele>
        <time>2020-06-14T09:56:41Z</time>
      </trkpt>
      <trkpt lat="46.56847" lon="4.52005">
        <ele>241.608</ele>
        <time>2020-06-14T09:56:46Z</time>
      </trkpt>
      <trkpt lat="46.56847" lon="4.52014">
        <ele>240.608</ele>
        <time>2020-06-14T09:56:53Z</time>
      </trkpt>
      <trkpt lat="46.56853" lon="4.52021">
        <ele>240.608</ele>
        <time>2020-06-14T09:56:58Z</time>
      </trkpt>
      <trkpt lat="46.56857" lon="4.5203">
        <ele>241.608</ele>
        <time>2020-06-14T09:57:03Z</time>
      </trkpt>
      <trkpt lat="46.56865" lon="4.52027">
        <ele>239.608</ele>
        <time>2020-06-14T10:00:02Z</time>
      </trkpt>
      <trkpt lat="46.56859" lon="4.52035">
        <ele>244.608</ele>
        <time>2020-06-14T10:01:33Z</time>
      </trkpt>
      <trkpt lat="46.5686" lon="4.52033">
        <ele>245.608</ele>
        <time>2020-06-14T10:01:40Z</time>
      </trkpt>
      <trkpt lat="46.56856" lon="4.52042">
        <ele>245.608</ele>
        <time>2020-06-14T10:02:11Z</time>
      </trkpt>
      <trkpt lat="46.56857" lon="4.52052">
        <ele>243.608</ele>
        <time>2020-06-14T10:02:16Z</time>
      </trkpt>
      <trkpt lat="46.56853" lon="4.5206">
        <ele>241.608</ele>
        <time>2020-06-14T10:02:22Z</time>
      </trkpt>
      <trkpt lat="46.56853" lon="4.52069">
        <ele>238.608</ele>
        <time>2020-06-14T10:02:29Z</time>
      </trkpt>
      <trkpt lat="46.56853" lon="4.52079">
        <ele>238.608</ele>
        <time>2020-06-14T10:02:34Z</time>
      </trkpt>
      <trkpt lat="46.56852" lon="4.52092">
        <ele>239.608</ele>
        <time>2020-06-14T10:02:39Z</time>
      </trkpt>
      <trkpt lat="46.5685" lon="4.52105">
        <ele>241.608</ele>
        <time>2020-06-14T10:02:44Z</time>
      </trkpt>
      <trkpt lat="46.56852" lon="4.52114">
        <ele>242.608</ele>
        <time>2020-06-14T10:02:49Z</time>
      </trkpt>
      <trkpt lat="46.56853" lon="4.52124">
        <ele>241.608</ele>
        <time>2020-06-14T10:02:54Z</time>
      </trkpt>
      <trkpt lat="46.56854" lon="4.52133">
        <ele>241.608</ele>
        <time>2020-06-14T10:02:59Z</time>
      </trkpt>
      <trkpt lat="46.56856" lon="4.52143">
        <ele>243.608</ele>
        <time>2020-06-14T10:03:04Z</time>
      </trkpt>
      <trkpt lat="46.56861" lon="4.52152">
        <ele>242.608</ele>
        <time>2020-06-14T10:03:09Z</time>
      </trkpt>
      <trkpt lat="46.56865" lon="4.52162">
        <ele>240.608</ele>
        <time>2020-06-14T10:03:17Z</time>
      </trkpt>
      <trkpt lat="46.5686" lon="4.52173">
        <ele>239.608</ele>
        <time>2020-06-14T10:03:22Z</time>
      </trkpt>
      <trkpt lat="46.56856" lon="4.52183">
        <ele>239.608</ele>
        <time>2020-06-14T10:03:27Z</time>
      </trkpt>
      <trkpt lat="46.56854" lon="4.52194">
        <ele>239.608</ele>
        <time>2020-06-14T10:03:32Z</time>
      </trkpt>
      <trkpt lat="46.56847" lon="4.52195">
        <ele>239.608</ele>
        <time>2020-06-14T10:03:39Z</time>
      </trkpt>
      <trkpt lat="46.5684" lon="4.52203">
        <ele>243.608</ele>
        <time>2020-06-14T10:03:44Z</time>
      </trkpt>
      <trkpt lat="46.56833" lon="4.52207">
        <ele>243.608</ele>
        <time>2020-06-14T10:03:51Z</time>
      </trkpt>
      <trkpt lat="46.5683" lon="4.52215">
        <ele>242.608</ele>
        <time>2020-06-14T10:03:57Z</time>
      </trkpt>
      <trkpt lat="46.56824" lon="4.52221">
        <ele>240.608</ele>
        <time>2020-06-14T10:04:03Z</time>
      </trkpt>
      <trkpt lat="46.56816" lon="4.52227">
        <ele>240.608</ele>
        <time>2020-06-14T10:04:08Z</time>
      </trkpt>
      <trkpt lat="46.5681" lon="4.52232">
        <ele>240.608</ele>
        <time>2020-06-14T10:04:14Z</time>
      </trkpt>
      <trkpt lat="46.56804" lon="4.52237">
        <ele>236.608</ele>
        <time>2020-06-14T10:04:22Z</time>
      </trkpt>
      <trkpt lat="46.56796" lon="4.5224">
        <ele>238.608</ele>
        <time>2020-06-14T10:04:27Z</time>
      </trkpt>
      <trkpt lat="46.56792" lon="4.52249">
        <ele>240.608</ele>
        <time>2020-06-14T10:04:32Z</time>
      </trkpt>
      <trkpt lat="46.56785" lon="4.52251">
        <ele>239.608</ele>
        <time>2020-06-14T10:04:37Z</time>
      </trkpt>
      <trkpt lat="46.56779" lon="4.52255">
        <ele>238.608</ele>
        <time>2020-06-14T10:04:42Z</time>
      </trkpt>
      <trkpt lat="46.56771" lon="4.52256">
        <ele>242.608</ele>
        <time>2020-06-14T10:04:48Z</time>
      </trkpt>
      <trkpt lat="46.56764" lon="4.52262">
        <ele>245.608</ele>
        <time>2020-06-14T10:04:54Z</time>
      </trkpt>
      <trkpt lat="46.56757" lon="4.5227">
        <ele>247.608</ele>
        <time>2020-06-14T10:04:59Z</time>
      </trkpt>
      <trkpt lat="46.56752" lon="4.52278">
        <ele>249.608</ele>
        <time>2020-06-14T10:05:05Z</time>
      </trkpt>
      <trkpt lat="46.56748" lon="4.52287">
        <ele>249.608</ele>
        <time>2020-06-14T10:05:10Z</time>
      </trkpt>
      <trkpt lat="46.56745" lon="4.52298">
        <ele>246.608</ele>
        <time>2020-06-14T10:05:17Z</time>
      </trkpt>
      <trkpt lat="46.56741" lon="4.52306">
        <ele>245.608</ele>
        <time>2020-06-14T10:05:23Z</time>
      </trkpt>
      <trkpt lat="46.56737" lon="4.52315">
        <ele>246.608</ele>
        <time>2020-06-14T10:05:29Z</time>
      </trkpt>
      <trkpt lat="46.56731" lon="4.52326">
        <ele>246.608</ele>
        <time>2020-06-14T10:05:34Z</time>
      </trkpt>
      <trkpt lat="46.56727" lon="4.52335">
        <ele>247.608</ele>
        <time>2020-06-14T10:05:41Z</time>
      </trkpt>
      <trkpt lat="46.56724" lon="4.52343">
        <ele>247.608</ele>
        <time>2020-06-14T10:05:47Z</time>
      </trkpt>
      <trkpt lat="46.56718" lon="4.52351">
        <ele>246.608</ele>
        <time>2020-06-14T10:05:53Z</time>
      </trkpt>
      <trkpt lat="46.56713" lon="4.52357">
        <ele>244.608</ele>
        <time>2020-06-14T10:06:00Z</time>
      </trkpt>
      <trkpt lat="46.56705" lon="4.5236">
        <ele>244.608</ele>
        <time>2020-06-14T10:06:26Z</time>
      </trkpt>
      <trkpt lat="46.56698" lon="4.52359">
        <ele>247.608</ele>
        <time>2020-06-14T10:06:31Z</time>
      </trkpt>
      <trkpt lat="46.56693" lon="4.52354">
        <ele>247.608</ele>
        <time>2020-06-14T10:06:40Z</time>
      </trkpt>
      <trkpt lat="46.56688" lon="4.52345">
        <ele>246.608</ele>
        <time>2020-06-14T10:06:45Z</time>
      </trkpt>
      <trkpt lat="46.56682" lon="4.52339">
        <ele>247.608</ele>
        <time>2020-06-14T10:06:50Z</time>
      </trkpt>
      <trkpt lat="46.56676" lon="4.52332">
        <ele>247.608</ele>
        <time>2020-06-14T10:06:56Z</time>
      </trkpt>
      <trkpt lat="46.5667" lon="4.52327">
        <ele>249.608</ele>
        <time>2020-06-14T10:07:01Z</time>
      </trkpt>
      <trkpt lat="46.56666" lon="4.52318">
        <ele>248.607</ele>
        <time>2020-06-14T10:07:06Z</time>
      </trkpt>
      <trkpt lat="46.56662" lon="4.52305">
        <ele>248.607</ele>
        <time>2020-06-14T10:07:11Z</time>
      </trkpt>
      <trkpt lat="46.56658" lon="4.52297">
        <ele>247.607</ele>
        <time>2020-06-14T10:07:16Z</time>
      </trkpt>
      <trkpt lat="46.56653" lon="4.52289">
        <ele>246.607</ele>
        <time>2020-06-14T10:07:21Z</time>
      </trkpt>
      <trkpt lat="46.56648" lon="4.5228">
        <ele>244.607</ele>
        <time>2020-06-14T10:07:27Z</time>
      </trkpt>
      <trkpt lat="46.56644" lon="4.52272">
        <ele>245.607</ele>
        <time>2020-06-14T10:07:33Z</time>
      </trkpt>
      <trkpt lat="46.56638" lon="4.52267">
        <ele>246.607</ele>
        <time>2020-06-14T10:07:38Z</time>
      </trkpt>
      <trkpt lat="46.56632" lon="4.5226">
        <ele>246.607</ele>
        <time>2020-06-14T10:07:44Z</time>
      </trkpt>
      <trkpt lat="46.56626" lon="4.52256">
        <ele>248.607</ele>
        <time>2020-06-14T10:07:49Z</time>
      </trkpt>
      <trkpt lat="46.5662" lon="4.5225">
        <ele>249.607</ele>
        <time>2020-06-14T10:07:54Z</time>
      </trkpt>
      <trkpt lat="46.56614" lon="4.52245">
        <ele>251.607</ele>
        <time>2020-06-14T10:08:00Z</time>
      </trkpt>
      <trkpt lat="46.56608" lon="4.5224">
        <ele>251.607</ele>
        <time>2020-06-14T10:08:05Z</time>
      </trkpt>
      <trkpt lat="46.56603" lon="4.52234">
        <ele>251.607</ele>
        <time>2020-06-14T10:08:10Z</time>
      </trkpt>
      <trkpt lat="46.56598" lon="4.52228">
        <ele>250.607</ele>
        <time>2020-06-14T10:08:16Z</time>
      </trkpt>
      <trkpt lat="46.56592" lon="4.52219">
        <ele>252.607</ele>
        <time>2020-06-14T10:08:21Z</time>
      </trkpt>
      <trkpt lat="46.56586" lon="4.52211">
        <ele>251.607</ele>
        <time>2020-06-14T10:08:26Z</time>
      </trkpt>
      <trkpt lat="46.56583" lon="4.522">
        <ele>252.607</ele>
        <time>2020-06-14T10:08:31Z</time>
      </trkpt>
      <trkpt lat="46.56578" lon="4.52189">
        <ele>251.607</ele>
        <time>2020-06-14T10:08:36Z</time>
      </trkpt>
      <trkpt lat="46.56574" lon="4.52178">
        <ele>252.607</ele>
        <time>2020-06-14T10:08:41Z</time>
      </trkpt>
      <trkpt lat="46.56573" lon="4.52165">
        <ele>256.607</ele>
        <time>2020-06-14T10:08:52Z</time>
      </trkpt>
      <trkpt lat="46.5657" lon="4.52151">
        <ele>255.607</ele>
        <time>2020-06-14T10:08:57Z</time>
      </trkpt>
      <trkpt lat="46.56568" lon="4.5214">
        <ele>257.607</ele>
        <time>2020-06-14T10:09:06Z</time>
      </trkpt>
      <trkpt lat="46.56561" lon="4.52122">
        <ele>257.607</ele>
        <time>2020-06-14T10:09:11Z</time>
      </trkpt>
      <trkpt lat="46.56558" lon="4.52111">
        <ele>256.607</ele>
        <time>2020-06-14T10:09:20Z</time>
      </trkpt>
      <trkpt lat="46.56557" lon="4.52099">
        <ele>255.607</ele>
        <time>2020-06-14T10:09:25Z</time>
      </trkpt>
      <trkpt lat="46.56553" lon="4.5209">
        <ele>255.607</ele>
        <time>2020-06-14T10:09:30Z</time>
      </trkpt>
      <trkpt lat="46.56546" lon="4.52085">
        <ele>256.607</ele>
        <time>2020-06-14T10:09:37Z</time>
      </trkpt>
      <trkpt lat="46.56542" lon="4.52074">
        <ele>256.607</ele>
        <time>2020-06-14T10:09:43Z</time>
      </trkpt>
      <trkpt lat="46.56536" lon="4.52065">
        <ele>255.607</ele>
        <time>2020-06-14T10:09:48Z</time>
      </trkpt>
      <trkpt lat="46.56532" lon="4.52058">
        <ele>254.607</ele>
        <time>2020-06-14T10:09:53Z</time>
      </trkpt>
      <trkpt lat="46.56527" lon="4.5205">
        <ele>253.607</ele>
        <time>2020-06-14T10:09:58Z</time>
      </trkpt>
      <trkpt lat="46.56522" lon="4.52041">
        <ele>251.607</ele>
        <time>2020-06-14T10:10:03Z</time>
      </trkpt>
      <trkpt lat="46.56517" lon="4.52032">
        <ele>252.607</ele>
        <time>2020-06-14T10:10:11Z</time>
      </trkpt>
      <trkpt lat="46.56512" lon="4.52021">
        <ele>253.607</ele>
        <time>2020-06-14T10:10:16Z</time>
      </trkpt>
      <trkpt lat="46.56502" lon="4.52017">
        <ele>259.607</ele>
        <time>2020-06-14T10:10:21Z</time>
      </trkpt>
      <trkpt lat="46.56497" lon="4.52009">
        <ele>255.607</ele>
        <time>2020-06-14T10:10:30Z</time>
      </trkpt>
      <trkpt lat="46.56491" lon="4.52">
        <ele>255.607</ele>
        <time>2020-06-14T10:10:35Z</time>
      </trkpt>
      <trkpt lat="46.56483" lon="4.51985">
        <ele>255.607</ele>
        <time>2020-06-14T10:10:40Z</time>
      </trkpt>
      <trkpt lat="46.5648" lon="4.51977">
        <ele>254.607</ele>
        <time>2020-06-14T10:10:46Z</time>
      </trkpt>
      <trkpt lat="46.56476" lon="4.51969">
        <ele>256.607</ele>
        <time>2020-06-14T10:10:51Z</time>
      </trkpt>
      <trkpt lat="46.56471" lon="4.51962">
        <ele>258.607</ele>
        <time>2020-06-14T10:10:57Z</time>
      </trkpt>
      <trkpt lat="46.56469" lon="4.51952">
        <ele>259.607</ele>
        <time>2020-06-14T10:11:03Z</time>
      </trkpt>
      <trkpt lat="46.56465" lon="4.51944">
        <ele>257.607</ele>
        <time>2020-06-14T10:11:10Z</time>
      </trkpt>
      <trkpt lat="46.56463" lon="4.51935">
        <ele>260.607</ele>
        <time>2020-06-14T10:11:15Z</time>
      </trkpt>
      <trkpt lat="46.56459" lon="4.51923">
        <ele>260.607</ele>
        <time>2020-06-14T10:11:20Z</time>
      </trkpt>
      <trkpt lat="46.56454" lon="4.51915">
        <ele>257.607</ele>
        <time>2020-06-14T10:11:25Z</time>
      </trkpt>
      <trkpt lat="46.56449" lon="4.51907">
        <ele>252.607</ele>
        <time>2020-06-14T10:11:33Z</time>
      </trkpt>
      <trkpt lat="46.56444" lon="4.51899">
        <ele>251.607</ele>
        <time>2020-06-14T10:11:39Z</time>
      </trkpt>
      <trkpt lat="46.5644" lon="4.51892">
        <ele>249.607</ele>
        <time>2020-06-14T10:11:44Z</time>
      </trkpt>
      <trkpt lat="46.56434" lon="4.51882">
        <ele>253.607</ele>
        <time>2020-06-14T10:11:49Z</time>
      </trkpt>
      <trkpt lat="46.56428" lon="4.51872">
        <ele>253.607</ele>
        <time>2020-06-14T10:11:54Z</time>
      </trkpt>
      <trkpt lat="46.56425" lon="4.51863">
        <ele>253.607</ele>
        <time>2020-06-14T10:11:59Z</time>
      </trkpt>
      <trkpt lat="46.56419" lon="4.51857">
        <ele>254.606</ele>
        <time>2020-06-14T10:12:05Z</time>
      </trkpt>
      <trkpt lat="46.56414" lon="4.51849">
        <ele>255.606</ele>
        <time>2020-06-14T10:12:10Z</time>
      </trkpt>
      <trkpt lat="46.56409" lon="4.51841">
        <ele>255.606</ele>
        <time>2020-06-14T10:12:15Z</time>
      </trkpt>
      <trkpt lat="46.56404" lon="4.51833">
        <ele>257.606</ele>
        <time>2020-06-14T10:12:20Z</time>
      </trkpt>
      <trkpt lat="46.564" lon="4.51826">
        <ele>257.606</ele>
        <time>2020-06-14T10:12:25Z</time>
      </trkpt>
      <trkpt lat="46.56395" lon="4.51818">
        <ele>258.606</ele>
        <time>2020-06-14T10:12:32Z</time>
      </trkpt>
      <trkpt lat="46.5639" lon="4.51811">
        <ele>256.606</ele>
        <time>2020-06-14T10:12:38Z</time>
      </trkpt>
      <trkpt lat="46.56384" lon="4.51807">
        <ele>255.606</ele>
        <time>2020-06-14T10:12:43Z</time>
      </trkpt>
      <trkpt lat="46.56379" lon="4.518">
        <ele>256.606</ele>
        <time>2020-06-14T10:12:48Z</time>
      </trkpt>
      <trkpt lat="46.56371" lon="4.51799">
        <ele>254.606</ele>
        <time>2020-06-14T10:12:54Z</time>
      </trkpt>
      <trkpt lat="46.56364" lon="4.51797">
        <ele>255.606</ele>
        <time>2020-06-14T10:13:01Z</time>
      </trkpt>
      <trkpt lat="46.56355" lon="4.51798">
        <ele>256.606</ele>
        <time>2020-06-14T10:13:07Z</time>
      </trkpt>
      <trkpt lat="46.56349" lon="4.51802">
        <ele>254.606</ele>
        <time>2020-06-14T10:13:13Z</time>
      </trkpt>
      <trkpt lat="46.56343" lon="4.51797">
        <ele>254.606</ele>
        <time>2020-06-14T10:13:20Z</time>
      </trkpt>
      <trkpt lat="46.56334" lon="4.51787">
        <ele>256.606</ele>
        <time>2020-06-14T10:13:25Z</time>
      </trkpt>
      <trkpt lat="46.56328" lon="4.51784">
        <ele>260.606</ele>
        <time>2020-06-14T10:13:30Z</time>
      </trkpt>
      <trkpt lat="46.5632" lon="4.51781">
        <ele>256.606</ele>
        <time>2020-06-14T10:13:37Z</time>
      </trkpt>
      <trkpt lat="46.56313" lon="4.51775">
        <ele>258.606</ele>
        <time>2020-06-14T10:13:43Z</time>
      </trkpt>
      <trkpt lat="46.56306" lon="4.51772">
        <ele>260.606</ele>
        <time>2020-06-14T10:13:49Z</time>
      </trkpt>
      <trkpt lat="46.56299" lon="4.51769">
        <ele>259.606</ele>
        <time>2020-06-14T10:13:54Z</time>
      </trkpt>
      <trkpt lat="46.56292" lon="4.51766">
        <ele>260.606</ele>
        <time>2020-06-14T10:14:00Z</time>
      </trkpt>
      <trkpt lat="46.56286" lon="4.51765">
        <ele>258.606</ele>
        <time>2020-06-14T10:14:06Z</time>
      </trkpt>
      <trkpt lat="46.56279" lon="4.51761">
        <ele>258.606</ele>
        <time>2020-06-14T10:14:12Z</time>
      </trkpt>
      <trkpt lat="46.56274" lon="4.51768">
        <ele>260.606</ele>
        <time>2020-06-14T10:14:19Z</time>
      </trkpt>
      <trkpt lat="46.56269" lon="4.51762">
        <ele>262.606</ele>
        <time>2020-06-14T10:14:25Z</time>
      </trkpt>
      <trkpt lat="46.56262" lon="4.51761">
        <ele>262.606</ele>
        <time>2020-06-14T10:14:33Z</time>
      </trkpt>
      <trkpt lat="46.56255" lon="4.51761">
        <ele>262.606</ele>
        <time>2020-06-14T10:14:39Z</time>
      </trkpt>
      <trkpt lat="46.56247" lon="4.51759">
        <ele>260.606</ele>
        <time>2020-06-14T10:14:45Z</time>
      </trkpt>
      <trkpt lat="46.5624" lon="4.51755">
        <ele>261.606</ele>
        <time>2020-06-14T10:14:51Z</time>
      </trkpt>
      <trkpt lat="46.56232" lon="4.51748">
        <ele>263.606</ele>
        <time>2020-06-14T10:14:58Z</time>
      </trkpt>
      <trkpt lat="46.56225" lon="4.51747">
        <ele>265.606</ele>
        <time>2020-06-14T10:15:05Z</time>
      </trkpt>
      <trkpt lat="46.56218" lon="4.51739">
        <ele>264.606</ele>
        <time>2020-06-14T10:15:10Z</time>
      </trkpt>
      <trkpt lat="46.56209" lon="4.51735">
        <ele>267.606</ele>
        <time>2020-06-14T10:15:15Z</time>
      </trkpt>
      <trkpt lat="46.56201" lon="4.51733">
        <ele>266.606</ele>
        <time>2020-06-14T10:15:20Z</time>
      </trkpt>
      <trkpt lat="46.56194" lon="4.5173">
        <ele>263.606</ele>
        <time>2020-06-14T10:15:26Z</time>
      </trkpt>
      <trkpt lat="46.56188" lon="4.51729">
        <ele>262.606</ele>
        <time>2020-06-14T10:15:31Z</time>
      </trkpt>
      <trkpt lat="46.5618" lon="4.51727">
        <ele>264.606</ele>
        <time>2020-06-14T10:15:39Z</time>
      </trkpt>
      <trkpt lat="46.56173" lon="4.51728">
        <ele>262.606</ele>
        <time>2020-06-14T10:15:49Z</time>
      </trkpt>
      <trkpt lat="46.56166" lon="4.51724">
        <ele>263.606</ele>
        <time>2020-06-14T10:15:54Z</time>
      </trkpt>
      <trkpt lat="46.56158" lon="4.51722">
        <ele>265.606</ele>
        <time>2020-06-14T10:15:59Z</time>
      </trkpt>
      <trkpt lat="46.5615" lon="4.51719">
        <ele>264.606</ele>
        <time>2020-06-14T10:16:04Z</time>
      </trkpt>
      <trkpt lat="46.56141" lon="4.51714">
        <ele>265.606</ele>
        <time>2020-06-14T10:16:09Z</time>
      </trkpt>
      <trkpt lat="46.56134" lon="4.51715">
        <ele>268.606</ele>
        <time>2020-06-14T10:16:14Z</time>
      </trkpt>
      <trkpt lat="46.56126" lon="4.51711">
        <ele>267.606</ele>
        <time>2020-06-14T10:16:19Z</time>
      </trkpt>
      <trkpt lat="46.56118" lon="4.51708">
        <ele>264.606</ele>
        <time>2020-06-14T10:16:26Z</time>
      </trkpt>
      <trkpt lat="46.56111" lon="4.51712">
        <ele>262.606</ele>
        <time>2020-06-14T10:16:31Z</time>
      </trkpt>
      <trkpt lat="46.56104" lon="4.51708">
        <ele>263.606</ele>
        <time>2020-06-14T10:16:37Z</time>
      </trkpt>
      <trkpt lat="46.56096" lon="4.51709">
        <ele>260.605</ele>
        <time>2020-06-14T10:16:42Z</time>
      </trkpt>
      <trkpt lat="46.56089" lon="4.51711">
        <ele>259.605</ele>
        <time>2020-06-14T10:16:47Z</time>
      </trkpt>
      <trkpt lat="46.56082" lon="4.51711">
        <ele>261.605</ele>
        <time>2020-06-14T10:16:53Z</time>
      </trkpt>
      <trkpt lat="46.56074" lon="4.51701">
        <ele>264.605</ele>
        <time>2020-06-14T10:16:58Z</time>
      </trkpt>
      <trkpt lat="46.56072" lon="4.5169">
        <ele>260.605</ele>
        <time>2020-06-14T10:17:03Z</time>
      </trkpt>
      <trkpt lat="46.56069" lon="4.51682">
        <ele>262.605</ele>
        <time>2020-06-14T10:17:08Z</time>
      </trkpt>
      <trkpt lat="46.56061" lon="4.51677">
        <ele>261.605</ele>
        <time>2020-06-14T10:17:13Z</time>
      </trkpt>
      <trkpt lat="46.56054" lon="4.51676">
        <ele>259.605</ele>
        <time>2020-06-14T10:17:20Z</time>
      </trkpt>
      <trkpt lat="46.56047" lon="4.51675">
        <ele>256.605</ele>
        <time>2020-06-14T10:17:25Z</time>
      </trkpt>
      <trkpt lat="46.5604" lon="4.51669">
        <ele>256.605</ele>
        <time>2020-06-14T10:17:30Z</time>
      </trkpt>
      <trkpt lat="46.56033" lon="4.5167">
        <ele>253.605</ele>
        <time>2020-06-14T10:17:37Z</time>
      </trkpt>
      <trkpt lat="46.56027" lon="4.51666">
        <ele>253.605</ele>
        <time>2020-06-14T10:17:43Z</time>
      </trkpt>
      <trkpt lat="46.56019" lon="4.51665">
        <ele>252.605</ele>
        <time>2020-06-14T10:17:49Z</time>
      </trkpt>
      <trkpt lat="46.56013" lon="4.51659">
        <ele>253.605</ele>
        <time>2020-06-14T10:17:55Z</time>
      </trkpt>
      <trkpt lat="46.56007" lon="4.51655">
        <ele>249.605</ele>
        <time>2020-06-14T10:18:00Z</time>
      </trkpt>
      <trkpt lat="46.55997" lon="4.51647">
        <ele>251.605</ele>
        <time>2020-06-14T10:18:05Z</time>
      </trkpt>
      <trkpt lat="46.55991" lon="4.51648">
        <ele>250.605</ele>
        <time>2020-06-14T10:18:12Z</time>
      </trkpt>
      <trkpt lat="46.55983" lon="4.51648">
        <ele>249.605</ele>
        <time>2020-06-14T10:18:18Z</time>
      </trkpt>
      <trkpt lat="46.55975" lon="4.51646">
        <ele>248.605</ele>
        <time>2020-06-14T10:18:23Z</time>
      </trkpt>
      <trkpt lat="46.55967" lon="4.51637">
        <ele>244.605</ele>
        <time>2020-06-14T10:18:28Z</time>
      </trkpt>
      <trkpt lat="46.55958" lon="4.51635">
        <ele>246.605</ele>
        <time>2020-06-14T10:18:33Z</time>
      </trkpt>
      <trkpt lat="46.55952" lon="4.51639">
        <ele>251.605</ele>
        <time>2020-06-14T10:18:40Z</time>
      </trkpt>
      <trkpt lat="46.55946" lon="4.51639">
        <ele>248.605</ele>
        <time>2020-06-14T10:18:45Z</time>
      </trkpt>
      <trkpt lat="46.55938" lon="4.51639">
        <ele>248.605</ele>
        <time>2020-06-14T10:18:51Z</time>
      </trkpt>
      <trkpt lat="46.55932" lon="4.51637">
        <ele>248.605</ele>
        <time>2020-06-14T10:18:56Z</time>
      </trkpt>
      <trkpt lat="46.55924" lon="4.51639">
        <ele>246.605</ele>
        <time>2020-06-14T10:19:03Z</time>
      </trkpt>
      <trkpt lat="46.55917" lon="4.51637">
        <ele>248.605</ele>
        <time>2020-06-14T10:19:11Z</time>
      </trkpt>
      <trkpt lat="46.55911" lon="4.51631">
        <ele>243.605</ele>
        <time>2020-06-14T10:19:20Z</time>
      </trkpt>
      <trkpt lat="46.55904" lon="4.51626">
        <ele>241.605</ele>
        <time>2020-06-14T10:19:25Z</time>
      </trkpt>
      <trkpt lat="46.55896" lon="4.51623">
        <ele>241.605</ele>
        <time>2020-06-14T10:19:34Z</time>
      </trkpt>
      <trkpt lat="46.55889" lon="4.51621">
        <ele>244.605</ele>
        <time>2020-06-14T10:19:47Z</time>
      </trkpt>
      <trkpt lat="46.5588" lon="4.51616">
        <ele>243.605</ele>
        <time>2020-06-14T10:19:52Z</time>
      </trkpt>
      <trkpt lat="46.55871" lon="4.51612">
        <ele>243.605</ele>
        <time>2020-06-14T10:19:57Z</time>
      </trkpt>
      <trkpt lat="46.55863" lon="4.51611">
        <ele>244.605</ele>
        <time>2020-06-14T10:20:02Z</time>
      </trkpt>
      <trkpt lat="46.55856" lon="4.5161">
        <ele>242.605</ele>
        <time>2020-06-14T10:20:09Z</time>
      </trkpt>
      <trkpt lat="46.55849" lon="4.51608">
        <ele>243.605</ele>
        <time>2020-06-14T10:20:18Z</time>
      </trkpt>
      <trkpt lat="46.55842" lon="4.51605">
        <ele>241.605</ele>
        <time>2020-06-14T10:20:23Z</time>
      </trkpt>
      <trkpt lat="46.55834" lon="4.51603">
        <ele>240.605</ele>
        <time>2020-06-14T10:20:29Z</time>
      </trkpt>
      <trkpt lat="46.55827" lon="4.51596">
        <ele>243.605</ele>
        <time>2020-06-14T10:20:37Z</time>
      </trkpt>
      <trkpt lat="46.5582" lon="4.51595">
        <ele>242.605</ele>
        <time>2020-06-14T10:20:42Z</time>
      </trkpt>
      <trkpt lat="46.55812" lon="4.51594">
        <ele>244.605</ele>
        <time>2020-06-14T10:20:48Z</time>
      </trkpt>
      <trkpt lat="46.55807" lon="4.51589">
        <ele>243.605</ele>
        <time>2020-06-14T10:20:54Z</time>
      </trkpt>
      <trkpt lat="46.55805" lon="4.51578">
        <ele>245.605</ele>
        <time>2020-06-14T10:21:01Z</time>
      </trkpt>
      <trkpt lat="46.55802" lon="4.51568">
        <ele>244.605</ele>
        <time>2020-06-14T10:21:09Z</time>
      </trkpt>
      <trkpt lat="46.55799" lon="4.51559">
        <ele>241.605</ele>
        <time>2020-06-14T10:21:14Z</time>
      </trkpt>
      <trkpt lat="46.55792" lon="4.51551">
        <ele>240.605</ele>
        <time>2020-06-14T10:21:19Z</time>
      </trkpt>
      <trkpt lat="46.55787" lon="4.51541">
        <ele>240.605</ele>
        <time>2020-06-14T10:21:24Z</time>
      </trkpt>
      <trkpt lat="46.55782" lon="4.51534">
        <ele>239.605</ele>
        <time>2020-06-14T10:21:29Z</time>
      </trkpt>
      <trkpt lat="46.55777" lon="4.51527">
        <ele>243.604</ele>
        <time>2020-06-14T10:21:35Z</time>
      </trkpt>
      <trkpt lat="46.5577" lon="4.51525">
        <ele>242.604</ele>
        <time>2020-06-14T10:21:42Z</time>
      </trkpt>
      <trkpt lat="46.55764" lon="4.51523">
        <ele>242.604</ele>
        <time>2020-06-14T10:21:47Z</time>
      </trkpt>
      <trkpt lat="46.55756" lon="4.51523">
        <ele>238.604</ele>
        <time>2020-06-14T10:21:55Z</time>
      </trkpt>
      <trkpt lat="46.55752" lon="4.51515">
        <ele>233.604</ele>
        <time>2020-06-14T10:22:01Z</time>
      </trkpt>
      <trkpt lat="46.55745" lon="4.51516">
        <ele>234.604</ele>
        <time>2020-06-14T10:22:06Z</time>
      </trkpt>
      <trkpt lat="46.55738" lon="4.51514">
        <ele>235.604</ele>
        <time>2020-06-14T10:22:11Z</time>
      </trkpt>
      <trkpt lat="46.55731" lon="4.51511">
        <ele>235.604</ele>
        <time>2020-06-14T10:22:17Z</time>
      </trkpt>
      <trkpt lat="46.55724" lon="4.51513">
        <ele>240.604</ele>
        <time>2020-06-14T10:22:24Z</time>
      </trkpt>
      <trkpt lat="46.55716" lon="4.51512">
        <ele>236.604</ele>
        <time>2020-06-14T10:22:32Z</time>
      </trkpt>
      <trkpt lat="46.55708" lon="4.51514">
        <ele>240.604</ele>
        <time>2020-06-14T10:22:40Z</time>
      </trkpt>
      <trkpt lat="46.55699" lon="4.51516">
        <ele>243.604</ele>
        <time>2020-06-14T10:22:46Z</time>
      </trkpt>
      <trkpt lat="46.5569" lon="4.51516">
        <ele>247.604</ele>
        <time>2020-06-14T10:22:51Z</time>
      </trkpt>
      <trkpt lat="46.55684" lon="4.51521">
        <ele>247.604</ele>
        <time>2020-06-14T10:22:58Z</time>
      </trkpt>
      <trkpt lat="46.55676" lon="4.51522">
        <ele>240.604</ele>
        <time>2020-06-14T10:23:07Z</time>
      </trkpt>
      <trkpt lat="46.5567" lon="4.51524">
        <ele>242.604</ele>
        <time>2020-06-14T10:23:12Z</time>
      </trkpt>
      <trkpt lat="46.55663" lon="4.51528">
        <ele>243.604</ele>
        <time>2020-06-14T10:23:17Z</time>
      </trkpt>
      <trkpt lat="46.55656" lon="4.51531">
        <ele>243.604</ele>
        <time>2020-06-14T10:23:23Z</time>
      </trkpt>
      <trkpt lat="46.55642" lon="4.51539">
        <ele>249.604</ele>
        <time>2020-06-14T10:23:28Z</time>
      </trkpt>
      <trkpt lat="46.55635" lon="4.51541">
        <ele>251.604</ele>
        <time>2020-06-14T10:23:34Z</time>
      </trkpt>
      <trkpt lat="46.55631" lon="4.51549">
        <ele>249.604</ele>
        <time>2020-06-14T10:23:41Z</time>
      </trkpt>
      <trkpt lat="46.55624" lon="4.5155">
        <ele>250.604</ele>
        <time>2020-06-14T10:23:46Z</time>
      </trkpt>
      <trkpt lat="46.55617" lon="4.51551">
        <ele>247.604</ele>
        <time>2020-06-14T10:23:53Z</time>
      </trkpt>
      <trkpt lat="46.55611" lon="4.51549">
        <ele>246.604</ele>
        <time>2020-06-14T10:23:58Z</time>
      </trkpt>
      <trkpt lat="46.55603" lon="4.51546">
        <ele>249.604</ele>
        <time>2020-06-14T10:24:03Z</time>
      </trkpt>
      <trkpt lat="46.55596" lon="4.51548">
        <ele>248.604</ele>
        <time>2020-06-14T10:24:10Z</time>
      </trkpt>
      <trkpt lat="46.55588" lon="4.51545">
        <ele>252.604</ele>
        <time>2020-06-14T10:24:18Z</time>
      </trkpt>
      <trkpt lat="46.55581" lon="4.51545">
        <ele>253.604</ele>
        <time>2020-06-14T10:24:23Z</time>
      </trkpt>
      <trkpt lat="46.55574" lon="4.51542">
        <ele>254.604</ele>
        <time>2020-06-14T10:24:28Z</time>
      </trkpt>
      <trkpt lat="46.55567" lon="4.51541">
        <ele>254.604</ele>
        <time>2020-06-14T10:24:34Z</time>
      </trkpt>
      <trkpt lat="46.55559" lon="4.51539">
        <ele>254.604</ele>
        <time>2020-06-14T10:24:39Z</time>
      </trkpt>
      <trkpt lat="46.55553" lon="4.51538">
        <ele>253.604</ele>
        <time>2020-06-14T10:24:44Z</time>
      </trkpt>
      <trkpt lat="46.55546" lon="4.51538">
        <ele>254.604</ele>
        <time>2020-06-14T10:24:50Z</time>
      </trkpt>
      <trkpt lat="46.55539" lon="4.51534">
        <ele>252.604</ele>
        <time>2020-06-14T10:24:55Z</time>
      </trkpt>
      <trkpt lat="46.55533" lon="4.51531">
        <ele>252.604</ele>
        <time>2020-06-14T10:25:00Z</time>
      </trkpt>
      <trkpt lat="46.55526" lon="4.51529">
        <ele>252.604</ele>
        <time>2020-06-14T10:25:06Z</time>
      </trkpt>
      <trkpt lat="46.55519" lon="4.51532">
        <ele>251.604</ele>
        <time>2020-06-14T10:25:14Z</time>
      </trkpt>
      <trkpt lat="46.5551" lon="4.51535">
        <ele>252.604</ele>
        <time>2020-06-14T10:25:19Z</time>
      </trkpt>
      <trkpt lat="46.55502" lon="4.51538">
        <ele>251.604</ele>
        <time>2020-06-14T10:25:26Z</time>
      </trkpt>
      <trkpt lat="46.55497" lon="4.51543">
        <ele>246.604</ele>
        <time>2020-06-14T10:25:33Z</time>
      </trkpt>
      <trkpt lat="46.55489" lon="4.51542">
        <ele>246.604</ele>
        <time>2020-06-14T10:25:38Z</time>
      </trkpt>
      <trkpt lat="46.55483" lon="4.51543">
        <ele>250.604</ele>
        <time>2020-06-14T10:25:43Z</time>
      </trkpt>
      <trkpt lat="46.55473" lon="4.51547">
        <ele>252.604</ele>
        <time>2020-06-14T10:25:48Z</time>
      </trkpt>
      <trkpt lat="46.55466" lon="4.51548">
        <ele>251.604</ele>
        <time>2020-06-14T10:25:55Z</time>
      </trkpt>
      <trkpt lat="46.55459" lon="4.51548">
        <ele>249.604</ele>
        <time>2020-06-14T10:26:02Z</time>
      </trkpt>
      <trkpt lat="46.55452" lon="4.51547">
        <ele>250.604</ele>
        <time>2020-06-14T10:26:08Z</time>
      </trkpt>
      <trkpt lat="46.55445" lon="4.51545">
        <ele>249.604</ele>
        <time>2020-06-14T10:26:15Z</time>
      </trkpt>
      <trkpt lat="46.55435" lon="4.51535">
        <ele>250.604</ele>
        <time>2020-06-14T10:26:20Z</time>
      </trkpt>
      <trkpt lat="46.55428" lon="4.51534">
        <ele>256.604</ele>
        <time>2020-06-14T10:26:26Z</time>
      </trkpt>
      <trkpt lat="46.55423" lon="4.51542">
        <ele>258.604</ele>
        <time>2020-06-14T10:26:33Z</time>
      </trkpt>
      <trkpt lat="46.55418" lon="4.51548">
        <ele>251.604</ele>
        <time>2020-06-14T10:26:40Z</time>
      </trkpt>
      <trkpt lat="46.55409" lon="4.51541">
        <ele>252.603</ele>
        <time>2020-06-14T10:26:45Z</time>
      </trkpt>
      <trkpt lat="46.55403" lon="4.51536">
        <ele>255.603</ele>
        <time>2020-06-14T10:26:51Z</time>
      </trkpt>
      <trkpt lat="46.55395" lon="4.51533">
        <ele>261.603</ele>
        <time>2020-06-14T10:26:57Z</time>
      </trkpt>
      <trkpt lat="46.55389" lon="4.51528">
        <ele>262.603</ele>
        <time>2020-06-14T10:27:02Z</time>
      </trkpt>
      <trkpt lat="46.55381" lon="4.51525">
        <ele>262.603</ele>
        <time>2020-06-14T10:27:08Z</time>
      </trkpt>
      <trkpt lat="46.55375" lon="4.51518">
        <ele>265.603</ele>
        <time>2020-06-14T10:27:13Z</time>
      </trkpt>
      <trkpt lat="46.55368" lon="4.51514">
        <ele>265.603</ele>
        <time>2020-06-14T10:27:18Z</time>
      </trkpt>
      <trkpt lat="46.55361" lon="4.5152">
        <ele>264.603</ele>
        <time>2020-06-14T10:27:24Z</time>
      </trkpt>
      <trkpt lat="46.55356" lon="4.51529">
        <ele>260.603</ele>
        <time>2020-06-14T10:27:29Z</time>
      </trkpt>
      <trkpt lat="46.55349" lon="4.51528">
        <ele>260.603</ele>
        <time>2020-06-14T10:27:36Z</time>
      </trkpt>
      <trkpt lat="46.55345" lon="4.5152">
        <ele>260.603</ele>
        <time>2020-06-14T10:27:41Z</time>
      </trkpt>
      <trkpt lat="46.55343" lon="4.5151">
        <ele>261.603</ele>
        <time>2020-06-14T10:27:46Z</time>
      </trkpt>
      <trkpt lat="46.55343" lon="4.515">
        <ele>264.603</ele>
        <time>2020-06-14T10:27:51Z</time>
      </trkpt>
      <trkpt lat="46.55339" lon="4.51489">
        <ele>260.603</ele>
        <time>2020-06-14T10:28:04Z</time>
      </trkpt>
      <trkpt lat="46.55333" lon="4.5148">
        <ele>263.603</ele>
        <time>2020-06-14T10:28:13Z</time>
      </trkpt>
      <trkpt lat="46.55326" lon="4.51475">
        <ele>260.603</ele>
        <time>2020-06-14T10:28:18Z</time>
      </trkpt>
      <trkpt lat="46.55318" lon="4.51478">
        <ele>263.603</ele>
        <time>2020-06-14T10:28:23Z</time>
      </trkpt>
      <trkpt lat="46.55312" lon="4.51478">
        <ele>263.603</ele>
        <time>2020-06-14T10:28:29Z</time>
      </trkpt>
      <trkpt lat="46.55305" lon="4.51475">
        <ele>269.603</ele>
        <time>2020-06-14T10:28:36Z</time>
      </trkpt>
      <trkpt lat="46.55299" lon="4.51468">
        <ele>272.603</ele>
        <time>2020-06-14T10:28:42Z</time>
      </trkpt>
      <trkpt lat="46.55293" lon="4.51463">
        <ele>273.603</ele>
        <time>2020-06-14T10:28:47Z</time>
      </trkpt>
      <trkpt lat="46.55288" lon="4.51457">
        <ele>273.603</ele>
        <time>2020-06-14T10:28:53Z</time>
      </trkpt>
      <trkpt lat="46.55281" lon="4.51453">
        <ele>272.603</ele>
        <time>2020-06-14T10:28:58Z</time>
      </trkpt>
      <trkpt lat="46.55275" lon="4.51448">
        <ele>269.603</ele>
        <time>2020-06-14T10:29:03Z</time>
      </trkpt>
      <trkpt lat="46.55268" lon="4.51443">
        <ele>269.603</ele>
        <time>2020-06-14T10:29:09Z</time>
      </trkpt>
      <trkpt lat="46.55262" lon="4.51438">
        <ele>269.603</ele>
        <time>2020-06-14T10:29:14Z</time>
      </trkpt>
      <trkpt lat="46.55257" lon="4.51433">
        <ele>268.603</ele>
        <time>2020-06-14T10:29:19Z</time>
      </trkpt>
      <trkpt lat="46.5525" lon="4.5143">
        <ele>266.603</ele>
        <time>2020-06-14T10:29:25Z</time>
      </trkpt>
      <trkpt lat="46.55242" lon="4.51424">
        <ele>266.603</ele>
        <time>2020-06-14T10:29:30Z</time>
      </trkpt>
      <trkpt lat="46.55234" lon="4.5142">
        <ele>263.603</ele>
        <time>2020-06-14T10:29:35Z</time>
      </trkpt>
      <trkpt lat="46.55228" lon="4.5142">
        <ele>264.603</ele>
        <time>2020-06-14T10:29:42Z</time>
      </trkpt>
      <trkpt lat="46.55222" lon="4.51414">
        <ele>263.603</ele>
        <time>2020-06-14T10:29:47Z</time>
      </trkpt>
      <trkpt lat="46.55216" lon="4.51409">
        <ele>263.603</ele>
        <time>2020-06-14T10:29:52Z</time>
      </trkpt>
      <trkpt lat="46.55207" lon="4.51404">
        <ele>265.603</ele>
        <time>2020-06-14T10:29:58Z</time>
      </trkpt>
      <trkpt lat="46.55201" lon="4.51399">
        <ele>267.603</ele>
        <time>2020-06-14T10:30:03Z</time>
      </trkpt>
      <trkpt lat="46.55194" lon="4.51398">
        <ele>266.603</ele>
        <time>2020-06-14T10:30:08Z</time>
      </trkpt>
      <trkpt lat="46.55186" lon="4.51398">
        <ele>267.603</ele>
        <time>2020-06-14T10:30:13Z</time>
      </trkpt>
      <trkpt lat="46.5518" lon="4.51399">
        <ele>265.603</ele>
        <time>2020-06-14T10:30:18Z</time>
      </trkpt>
      <trkpt lat="46.55173" lon="4.514">
        <ele>265.603</ele>
        <time>2020-06-14T10:30:27Z</time>
      </trkpt>
      <trkpt lat="46.55166" lon="4.51397">
        <ele>268.603</ele>
        <time>2020-06-14T10:30:32Z</time>
      </trkpt>
      <trkpt lat="46.55159" lon="4.51394">
        <ele>269.603</ele>
        <time>2020-06-14T10:30:38Z</time>
      </trkpt>
      <trkpt lat="46.55152" lon="4.51396">
        <ele>266.603</ele>
        <time>2020-06-14T10:30:43Z</time>
      </trkpt>
      <trkpt lat="46.55145" lon="4.51394">
        <ele>266.603</ele>
        <time>2020-06-14T10:30:48Z</time>
      </trkpt>
      <trkpt lat="46.55138" lon="4.51389">
        <ele>267.603</ele>
        <time>2020-06-14T10:30:53Z</time>
      </trkpt>
      <trkpt lat="46.55131" lon="4.51385">
        <ele>266.603</ele>
        <time>2020-06-14T10:31:00Z</time>
      </trkpt>
      <trkpt lat="46.55125" lon="4.51383">
        <ele>264.603</ele>
        <time>2020-06-14T10:31:06Z</time>
      </trkpt>
      <trkpt lat="46.55118" lon="4.5138">
        <ele>266.603</ele>
        <time>2020-06-14T10:31:13Z</time>
      </trkpt>
      <trkpt lat="46.55111" lon="4.51378">
        <ele>260.603</ele>
        <time>2020-06-14T10:31:20Z</time>
      </trkpt>
      <trkpt lat="46.55103" lon="4.51376">
        <ele>260.603</ele>
        <time>2020-06-14T10:31:25Z</time>
      </trkpt>
      <trkpt lat="46.55095" lon="4.51373">
        <ele>264.603</ele>
        <time>2020-06-14T10:31:30Z</time>
      </trkpt>
      <trkpt lat="46.55089" lon="4.51369">
        <ele>261.602</ele>
        <time>2020-06-14T10:31:38Z</time>
      </trkpt>
      <trkpt lat="46.55082" lon="4.51363">
        <ele>268.602</ele>
        <time>2020-06-14T10:31:44Z</time>
      </trkpt>
      <trkpt lat="46.55075" lon="4.51364">
        <ele>274.602</ele>
        <time>2020-06-14T10:32:22Z</time>
      </trkpt>
      <trkpt lat="46.55068" lon="4.51363">
        <ele>276.602</ele>
        <time>2020-06-14T10:32:33Z</time>
      </trkpt>
      <trkpt lat="46.55075" lon="4.51361">
        <ele>276.602</ele>
        <time>2020-06-14T10:33:14Z</time>
      </trkpt>
      <trkpt lat="46.55082" lon="4.51362">
        <ele>276.602</ele>
        <time>2020-06-14T10:33:41Z</time>
      </trkpt>
      <trkpt lat="46.55089" lon="4.51365">
        <ele>278.602</ele>
        <time>2020-06-14T10:33:49Z</time>
      </trkpt>
      <trkpt lat="46.55096" lon="4.51369">
        <ele>279.603</ele>
        <time>2020-06-14T10:33:57Z</time>
      </trkpt>
      <trkpt lat="46.55103" lon="4.5137">
        <ele>278.603</ele>
        <time>2020-06-14T10:34:04Z</time>
      </trkpt>
      <trkpt lat="46.55109" lon="4.51376">
        <ele>278.603</ele>
        <time>2020-06-14T10:34:09Z</time>
      </trkpt>
      <trkpt lat="46.55116" lon="4.51379">
        <ele>281.603</ele>
        <time>2020-06-14T10:34:16Z</time>
      </trkpt>
      <trkpt lat="46.55123" lon="4.51381">
        <ele>278.603</ele>
        <time>2020-06-14T10:34:23Z</time>
      </trkpt>
      <trkpt lat="46.5513" lon="4.51381">
        <ele>276.603</ele>
        <time>2020-06-14T10:34:29Z</time>
      </trkpt>
      <trkpt lat="46.55136" lon="4.51387">
        <ele>279.603</ele>
        <time>2020-06-14T10:34:35Z</time>
      </trkpt>
      <trkpt lat="46.55143" lon="4.51394">
        <ele>277.603</ele>
        <time>2020-06-14T10:34:41Z</time>
      </trkpt>
      <trkpt lat="46.5515" lon="4.51394">
        <ele>272.603</ele>
        <time>2020-06-14T10:34:47Z</time>
      </trkpt>
      <trkpt lat="46.55159" lon="4.51396">
        <ele>272.603</ele>
        <time>2020-06-14T10:34:54Z</time>
      </trkpt>
      <trkpt lat="46.55165" lon="4.514">
        <ele>272.603</ele>
        <time>2020-06-14T10:35:00Z</time>
      </trkpt>
      <trkpt lat="46.55172" lon="4.51399">
        <ele>272.603</ele>
        <time>2020-06-14T10:35:05Z</time>
      </trkpt>
      <trkpt lat="46.5518" lon="4.51394">
        <ele>270.603</ele>
        <time>2020-06-14T10:35:10Z</time>
      </trkpt>
      <trkpt lat="46.55185" lon="4.5139">
        <ele>266.603</ele>
        <time>2020-06-14T10:35:17Z</time>
      </trkpt>
      <trkpt lat="46.55193" lon="4.51392">
        <ele>267.603</ele>
        <time>2020-06-14T10:35:23Z</time>
      </trkpt>
      <trkpt lat="46.55199" lon="4.51396">
        <ele>266.603</ele>
        <time>2020-06-14T10:35:31Z</time>
      </trkpt>
      <trkpt lat="46.55205" lon="4.51399">
        <ele>270.603</ele>
        <time>2020-06-14T10:35:36Z</time>
      </trkpt>
      <trkpt lat="46.55213" lon="4.514">
        <ele>269.603</ele>
        <time>2020-06-14T10:35:41Z</time>
      </trkpt>
      <trkpt lat="46.55222" lon="4.51401">
        <ele>270.603</ele>
        <time>2020-06-14T10:35:46Z</time>
      </trkpt>
      <trkpt lat="46.55227" lon="4.51407">
        <ele>271.603</ele>
        <time>2020-06-14T10:35:51Z</time>
      </trkpt>
      <trkpt lat="46.55235" lon="4.51408">
        <ele>271.603</ele>
        <time>2020-06-14T10:35:56Z</time>
      </trkpt>
      <trkpt lat="46.55241" lon="4.51414">
        <ele>270.603</ele>
        <time>2020-06-14T10:36:03Z</time>
      </trkpt>
      <trkpt lat="46.55248" lon="4.51419">
        <ele>271.603</ele>
        <time>2020-06-14T10:36:09Z</time>
      </trkpt>
      <trkpt lat="46.55254" lon="4.51424">
        <ele>272.603</ele>
        <time>2020-06-14T10:36:14Z</time>
      </trkpt>
      <trkpt lat="46.5526" lon="4.51431">
        <ele>272.603</ele>
        <time>2020-06-14T10:36:20Z</time>
      </trkpt>
      <trkpt lat="46.55266" lon="4.51437">
        <ele>271.603</ele>
        <time>2020-06-14T10:36:26Z</time>
      </trkpt>
      <trkpt lat="46.55273" lon="4.51443">
        <ele>271.603</ele>
        <time>2020-06-14T10:36:31Z</time>
      </trkpt>
      <trkpt lat="46.55279" lon="4.51447">
        <ele>270.603</ele>
        <time>2020-06-14T10:36:36Z</time>
      </trkpt>
      <trkpt lat="46.55286" lon="4.51446">
        <ele>268.603</ele>
        <time>2020-06-14T10:36:41Z</time>
      </trkpt>
      <trkpt lat="46.55291" lon="4.51452">
        <ele>269.603</ele>
        <time>2020-06-14T10:36:46Z</time>
      </trkpt>
      <trkpt lat="46.55298" lon="4.51457">
        <ele>270.603</ele>
        <time>2020-06-14T10:36:51Z</time>
      </trkpt>
      <trkpt lat="46.55304" lon="4.5146">
        <ele>268.603</ele>
        <time>2020-06-14T10:36:56Z</time>
      </trkpt>
      <trkpt lat="46.55309" lon="4.51467">
        <ele>269.603</ele>
        <time>2020-06-14T10:37:01Z</time>
      </trkpt>
      <trkpt lat="46.55315" lon="4.51469">
        <ele>271.603</ele>
        <time>2020-06-14T10:37:06Z</time>
      </trkpt>
      <trkpt lat="46.55323" lon="4.51471">
        <ele>270.603</ele>
        <time>2020-06-14T10:37:12Z</time>
      </trkpt>
      <trkpt lat="46.55329" lon="4.51476">
        <ele>272.603</ele>
        <time>2020-06-14T10:37:17Z</time>
      </trkpt>
      <trkpt lat="46.55331" lon="4.51485">
        <ele>272.603</ele>
        <time>2020-06-14T10:37:27Z</time>
      </trkpt>
      <trkpt lat="46.55329" lon="4.51496">
        <ele>274.603</ele>
        <time>2020-06-14T10:37:33Z</time>
      </trkpt>
      <trkpt lat="46.55328" lon="4.51506">
        <ele>273.603</ele>
        <time>2020-06-14T10:37:39Z</time>
      </trkpt>
      <trkpt lat="46.55324" lon="4.51515">
        <ele>270.603</ele>
        <time>2020-06-14T10:37:46Z</time>
      </trkpt>
      <trkpt lat="46.55322" lon="4.51526">
        <ele>272.603</ele>
        <time>2020-06-14T10:37:51Z</time>
      </trkpt>
      <trkpt lat="46.55319" lon="4.51535">
        <ele>275.603</ele>
        <time>2020-06-14T10:37:57Z</time>
      </trkpt>
      <trkpt lat="46.55316" lon="4.51544">
        <ele>275.603</ele>
        <time>2020-06-14T10:38:02Z</time>
      </trkpt>
      <trkpt lat="46.55317" lon="4.51555">
        <ele>275.603</ele>
        <time>2020-06-14T10:38:08Z</time>
      </trkpt>
      <trkpt lat="46.55314" lon="4.51566">
        <ele>273.603</ele>
        <time>2020-06-14T10:38:13Z</time>
      </trkpt>
      <trkpt lat="46.55311" lon="4.51578">
        <ele>275.603</ele>
        <time>2020-06-14T10:38:18Z</time>
      </trkpt>
      <trkpt lat="46.55306" lon="4.5159">
        <ele>274.603</ele>
        <time>2020-06-14T10:38:23Z</time>
      </trkpt>
      <trkpt lat="46.55306" lon="4.51602">
        <ele>277.603</ele>
        <time>2020-06-14T10:38:29Z</time>
      </trkpt>
      <trkpt lat="46.55307" lon="4.51613">
        <ele>277.603</ele>
        <time>2020-06-14T10:38:35Z</time>
      </trkpt>
      <trkpt lat="46.55306" lon="4.51623">
        <ele>276.603</ele>
        <time>2020-06-14T10:38:41Z</time>
      </trkpt>
      <trkpt lat="46.55305" lon="4.51636">
        <ele>277.603</ele>
        <time>2020-06-14T10:38:46Z</time>
      </trkpt>
      <trkpt lat="46.55303" lon="4.51645">
        <ele>275.603</ele>
        <time>2020-06-14T10:38:52Z</time>
      </trkpt>
      <trkpt lat="46.553" lon="4.51654">
        <ele>274.603</ele>
        <time>2020-06-14T10:38:57Z</time>
      </trkpt>
      <trkpt lat="46.55297" lon="4.51664">
        <ele>272.603</ele>
        <time>2020-06-14T10:39:02Z</time>
      </trkpt>
      <trkpt lat="46.55296" lon="4.51674">
        <ele>270.603</ele>
        <time>2020-06-14T10:39:07Z</time>
      </trkpt>
      <trkpt lat="46.55295" lon="4.51687">
        <ele>270.603</ele>
        <time>2020-06-14T10:39:12Z</time>
      </trkpt>
      <trkpt lat="46.55293" lon="4.51697">
        <ele>271.603</ele>
        <time>2020-06-14T10:39:18Z</time>
      </trkpt>
      <trkpt lat="46.55291" lon="4.51708">
        <ele>270.603</ele>
        <time>2020-06-14T10:39:24Z</time>
      </trkpt>
      <trkpt lat="46.55288" lon="4.5172">
        <ele>267.603</ele>
        <time>2020-06-14T10:39:29Z</time>
      </trkpt>
      <trkpt lat="46.55287" lon="4.5173">
        <ele>265.603</ele>
        <time>2020-06-14T10:39:34Z</time>
      </trkpt>
      <trkpt lat="46.55287" lon="4.51741">
        <ele>262.603</ele>
        <time>2020-06-14T10:39:39Z</time>
      </trkpt>
      <trkpt lat="46.55284" lon="4.51753">
        <ele>264.603</ele>
        <time>2020-06-14T10:39:44Z</time>
      </trkpt>
      <trkpt lat="46.55281" lon="4.51762">
        <ele>265.603</ele>
        <time>2020-06-14T10:39:49Z</time>
      </trkpt>
      <trkpt lat="46.55279" lon="4.51772">
        <ele>266.603</ele>
        <time>2020-06-14T10:39:54Z</time>
      </trkpt>
      <trkpt lat="46.55278" lon="4.51783">
        <ele>265.603</ele>
        <time>2020-06-14T10:39:59Z</time>
      </trkpt>
      <trkpt lat="46.55277" lon="4.51794">
        <ele>264.603</ele>
        <time>2020-06-14T10:40:04Z</time>
      </trkpt>
      <trkpt lat="46.55276" lon="4.51806">
        <ele>265.603</ele>
        <time>2020-06-14T10:40:09Z</time>
      </trkpt>
      <trkpt lat="46.55275" lon="4.5182">
        <ele>268.603</ele>
        <time>2020-06-14T10:40:14Z</time>
      </trkpt>
      <trkpt lat="46.55274" lon="4.51829">
        <ele>266.603</ele>
        <time>2020-06-14T10:40:20Z</time>
      </trkpt>
      <trkpt lat="46.55273" lon="4.5184">
        <ele>268.603</ele>
        <time>2020-06-14T10:40:27Z</time>
      </trkpt>
      <trkpt lat="46.5527" lon="4.51852">
        <ele>268.603</ele>
        <time>2020-06-14T10:40:32Z</time>
      </trkpt>
      <trkpt lat="46.55269" lon="4.51864">
        <ele>268.603</ele>
        <time>2020-06-14T10:40:37Z</time>
      </trkpt>
      <trkpt lat="46.55268" lon="4.51874">
        <ele>269.603</ele>
        <time>2020-06-14T10:40:48Z</time>
      </trkpt>
      <trkpt lat="46.55266" lon="4.51883">
        <ele>269.603</ele>
        <time>2020-06-14T10:40:53Z</time>
      </trkpt>
      <trkpt lat="46.55265" lon="4.51893">
        <ele>268.603</ele>
        <time>2020-06-14T10:40:58Z</time>
      </trkpt>
      <trkpt lat="46.55266" lon="4.51903">
        <ele>267.603</ele>
        <time>2020-06-14T10:41:03Z</time>
      </trkpt>
      <trkpt lat="46.55265" lon="4.51914">
        <ele>267.603</ele>
        <time>2020-06-14T10:41:08Z</time>
      </trkpt>
      <trkpt lat="46.55266" lon="4.51926">
        <ele>271.603</ele>
        <time>2020-06-14T10:41:15Z</time>
      </trkpt>
      <trkpt lat="46.55265" lon="4.51937">
        <ele>277.603</ele>
        <time>2020-06-14T10:41:22Z</time>
      </trkpt>
      <trkpt lat="46.55265" lon="4.51948">
        <ele>275.603</ele>
        <time>2020-06-14T10:41:29Z</time>
      </trkpt>
      <trkpt lat="46.55265" lon="4.5196">
        <ele>271.603</ele>
        <time>2020-06-14T10:41:34Z</time>
      </trkpt>
      <trkpt lat="46.55261" lon="4.51972">
        <ele>267.603</ele>
        <time>2020-06-14T10:41:39Z</time>
      </trkpt>
      <trkpt lat="46.55259" lon="4.51983">
        <ele>261.603</ele>
        <time>2020-06-14T10:41:44Z</time>
      </trkpt>
      <trkpt lat="46.55257" lon="4.51993">
        <ele>264.603</ele>
        <time>2020-06-14T10:41:49Z</time>
      </trkpt>
      <trkpt lat="46.55258" lon="4.52003">
        <ele>267.603</ele>
        <time>2020-06-14T10:41:55Z</time>
      </trkpt>
      <trkpt lat="46.55259" lon="4.52013">
        <ele>269.603</ele>
        <time>2020-06-14T10:42:00Z</time>
      </trkpt>
      <trkpt lat="46.55255" lon="4.52022">
        <ele>265.603</ele>
        <time>2020-06-14T10:42:05Z</time>
      </trkpt>
      <trkpt lat="46.55253" lon="4.52033">
        <ele>263.603</ele>
        <time>2020-06-14T10:42:12Z</time>
      </trkpt>
      <trkpt lat="46.55249" lon="4.52047">
        <ele>262.603</ele>
        <time>2020-06-14T10:42:17Z</time>
      </trkpt>
      <trkpt lat="46.55247" lon="4.52058">
        <ele>265.603</ele>
        <time>2020-06-14T10:42:22Z</time>
      </trkpt>
      <trkpt lat="46.55245" lon="4.5207">
        <ele>265.603</ele>
        <time>2020-06-14T10:42:27Z</time>
      </trkpt>
      <trkpt lat="46.55246" lon="4.52081">
        <ele>262.603</ele>
        <time>2020-06-14T10:42:33Z</time>
      </trkpt>
      <trkpt lat="46.55244" lon="4.52093">
        <ele>262.603</ele>
        <time>2020-06-14T10:42:38Z</time>
      </trkpt>
      <trkpt lat="46.55245" lon="4.52104">
        <ele>261.603</ele>
        <time>2020-06-14T10:42:43Z</time>
      </trkpt>
      <trkpt lat="46.55244" lon="4.52116">
        <ele>261.603</ele>
        <time>2020-06-14T10:42:48Z</time>
      </trkpt>
      <trkpt lat="46.55242" lon="4.52127">
        <ele>265.603</ele>
        <time>2020-06-14T10:42:54Z</time>
      </trkpt>
      <trkpt lat="46.5524" lon="4.52141">
        <ele>266.603</ele>
        <time>2020-06-14T10:42:59Z</time>
      </trkpt>
      <trkpt lat="46.5524" lon="4.52154">
        <ele>267.603</ele>
        <time>2020-06-14T10:43:04Z</time>
      </trkpt>
      <trkpt lat="46.55241" lon="4.52167">
        <ele>265.603</ele>
        <time>2020-06-14T10:43:09Z</time>
      </trkpt>
      <trkpt lat="46.55243" lon="4.52178">
        <ele>260.603</ele>
        <time>2020-06-14T10:43:14Z</time>
      </trkpt>
      <trkpt lat="46.55244" lon="4.5219">
        <ele>261.604</ele>
        <time>2020-06-14T10:43:19Z</time>
      </trkpt>
      <trkpt lat="46.55243" lon="4.52201">
        <ele>262.604</ele>
        <time>2020-06-14T10:43:25Z</time>
      </trkpt>
      <trkpt lat="46.55243" lon="4.52212">
        <ele>261.604</ele>
        <time>2020-06-14T10:43:32Z</time>
      </trkpt>
      <trkpt lat="46.55242" lon="4.52223">
        <ele>259.604</ele>
        <time>2020-06-14T10:43:37Z</time>
      </trkpt>
      <trkpt lat="46.55243" lon="4.52233">
        <ele>257.604</ele>
        <time>2020-06-14T10:43:42Z</time>
      </trkpt>
      <trkpt lat="46.55244" lon="4.52243">
        <ele>258.604</ele>
        <time>2020-06-14T10:43:47Z</time>
      </trkpt>
      <trkpt lat="46.55246" lon="4.52254">
        <ele>254.604</ele>
        <time>2020-06-14T10:43:52Z</time>
      </trkpt>
      <trkpt lat="46.55245" lon="4.52267">
        <ele>253.604</ele>
        <time>2020-06-14T10:43:57Z</time>
      </trkpt>
      <trkpt lat="46.55244" lon="4.52284">
        <ele>255.604</ele>
        <time>2020-06-14T10:44:02Z</time>
      </trkpt>
      <trkpt lat="46.55243" lon="4.52294">
        <ele>257.604</ele>
        <time>2020-06-14T10:44:07Z</time>
      </trkpt>
      <trkpt lat="46.55244" lon="4.52305">
        <ele>256.604</ele>
        <time>2020-06-14T10:44:13Z</time>
      </trkpt>
      <trkpt lat="46.55244" lon="4.52315">
        <ele>259.604</ele>
        <time>2020-06-14T10:44:18Z</time>
      </trkpt>
      <trkpt lat="46.55243" lon="4.52325">
        <ele>259.604</ele>
        <time>2020-06-14T10:44:24Z</time>
      </trkpt>
      <trkpt lat="46.55243" lon="4.52337">
        <ele>257.604</ele>
        <time>2020-06-14T10:44:30Z</time>
      </trkpt>
      <trkpt lat="46.5524" lon="4.5235">
        <ele>258.604</ele>
        <time>2020-06-14T10:44:35Z</time>
      </trkpt>
      <trkpt lat="46.55239" lon="4.52362">
        <ele>256.604</ele>
        <time>2020-06-14T10:44:40Z</time>
      </trkpt>
      <trkpt lat="46.55239" lon="4.52374">
        <ele>256.604</ele>
        <time>2020-06-14T10:44:45Z</time>
      </trkpt>
      <trkpt lat="46.55239" lon="4.52384">
        <ele>253.604</ele>
        <time>2020-06-14T10:44:50Z</time>
      </trkpt>
      <trkpt lat="46.55236" lon="4.52394">
        <ele>251.604</ele>
        <time>2020-06-14T10:44:55Z</time>
      </trkpt>
      <trkpt lat="46.55233" lon="4.52403">
        <ele>253.604</ele>
        <time>2020-06-14T10:45:00Z</time>
      </trkpt>
      <trkpt lat="46.5523" lon="4.52412">
        <ele>252.604</ele>
        <time>2020-06-14T10:45:07Z</time>
      </trkpt>
      <trkpt lat="46.55221" lon="4.52422">
        <ele>251.604</ele>
        <time>2020-06-14T10:45:12Z</time>
      </trkpt>
      <trkpt lat="46.55218" lon="4.5243">
        <ele>251.604</ele>
        <time>2020-06-14T10:45:17Z</time>
      </trkpt>
      <trkpt lat="46.55209" lon="4.52439">
        <ele>253.604</ele>
        <time>2020-06-14T10:45:22Z</time>
      </trkpt>
      <trkpt lat="46.55203" lon="4.52444">
        <ele>249.604</ele>
        <time>2020-06-14T10:45:28Z</time>
      </trkpt>
      <trkpt lat="46.55196" lon="4.52449">
        <ele>249.604</ele>
        <time>2020-06-14T10:45:35Z</time>
      </trkpt>
      <trkpt lat="46.5519" lon="4.52453">
        <ele>248.604</ele>
        <time>2020-06-14T10:45:40Z</time>
      </trkpt>
      <trkpt lat="46.55183" lon="4.52457">
        <ele>247.604</ele>
        <time>2020-06-14T10:45:45Z</time>
      </trkpt>
      <trkpt lat="46.55175" lon="4.52464">
        <ele>246.604</ele>
        <time>2020-06-14T10:45:50Z</time>
      </trkpt>
      <trkpt lat="46.55168" lon="4.52467">
        <ele>245.604</ele>
        <time>2020-06-14T10:45:55Z</time>
      </trkpt>
      <trkpt lat="46.55161" lon="4.5247">
        <ele>246.603</ele>
        <time>2020-06-14T10:46:00Z</time>
      </trkpt>
      <trkpt lat="46.55154" lon="4.52475">
        <ele>243.603</ele>
        <time>2020-06-14T10:46:05Z</time>
      </trkpt>
      <trkpt lat="46.55147" lon="4.52481">
        <ele>243.603</ele>
        <time>2020-06-14T10:46:10Z</time>
      </trkpt>
      <trkpt lat="46.55141" lon="4.52485">
        <ele>246.603</ele>
        <time>2020-06-14T10:46:15Z</time>
      </trkpt>
      <trkpt lat="46.55133" lon="4.52491">
        <ele>247.603</ele>
        <time>2020-06-14T10:46:20Z</time>
      </trkpt>
      <trkpt lat="46.55125" lon="4.52496">
        <ele>248.603</ele>
        <time>2020-06-14T10:46:26Z</time>
      </trkpt>
      <trkpt lat="46.55118" lon="4.525">
        <ele>246.603</ele>
        <time>2020-06-14T10:46:33Z</time>
      </trkpt>
      <trkpt lat="46.55108" lon="4.52503">
        <ele>246.603</ele>
        <time>2020-06-14T10:46:40Z</time>
      </trkpt>
      <trkpt lat="46.55097" lon="4.52507">
        <ele>245.603</ele>
        <time>2020-06-14T10:46:45Z</time>
      </trkpt>
      <trkpt lat="46.55089" lon="4.52513">
        <ele>243.603</ele>
        <time>2020-06-14T10:46:50Z</time>
      </trkpt>
      <trkpt lat="46.55083" lon="4.52518">
        <ele>243.603</ele>
        <time>2020-06-14T10:46:59Z</time>
      </trkpt>
      <trkpt lat="46.55078" lon="4.52526">
        <ele>244.603</ele>
        <time>2020-06-14T10:47:04Z</time>
      </trkpt>
      <trkpt lat="46.55071" lon="4.52532">
        <ele>245.603</ele>
        <time>2020-06-14T10:47:09Z</time>
      </trkpt>
      <trkpt lat="46.55064" lon="4.52542">
        <ele>246.603</ele>
        <time>2020-06-14T10:47:14Z</time>
      </trkpt>
      <trkpt lat="46.55061" lon="4.52551">
        <ele>245.603</ele>
        <time>2020-06-14T10:47:23Z</time>
      </trkpt>
      <trkpt lat="46.55053" lon="4.52557">
        <ele>245.603</ele>
        <time>2020-06-14T10:47:28Z</time>
      </trkpt>
      <trkpt lat="46.55046" lon="4.52563">
        <ele>247.603</ele>
        <time>2020-06-14T10:47:33Z</time>
      </trkpt>
      <trkpt lat="46.55038" lon="4.52568">
        <ele>248.603</ele>
        <time>2020-06-14T10:47:40Z</time>
      </trkpt>
      <trkpt lat="46.55033" lon="4.52573">
        <ele>249.603</ele>
        <time>2020-06-14T10:47:46Z</time>
      </trkpt>
      <trkpt lat="46.55027" lon="4.52577">
        <ele>249.603</ele>
        <time>2020-06-14T10:47:51Z</time>
      </trkpt>
      <trkpt lat="46.55022" lon="4.52584">
        <ele>252.603</ele>
        <time>2020-06-14T10:47:56Z</time>
      </trkpt>
      <trkpt lat="46.55015" lon="4.52589">
        <ele>252.603</ele>
        <time>2020-06-14T10:48:01Z</time>
      </trkpt>
      <trkpt lat="46.5501" lon="4.52595">
        <ele>253.603</ele>
        <time>2020-06-14T10:48:08Z</time>
      </trkpt>
      <trkpt lat="46.55004" lon="4.52599">
        <ele>254.603</ele>
        <time>2020-06-14T10:48:13Z</time>
      </trkpt>
      <trkpt lat="46.54999" lon="4.52607">
        <ele>255.603</ele>
        <time>2020-06-14T10:48:18Z</time>
      </trkpt>
      <trkpt lat="46.54993" lon="4.52614">
        <ele>255.603</ele>
        <time>2020-06-14T10:48:23Z</time>
      </trkpt>
      <trkpt lat="46.54991" lon="4.52625">
        <ele>257.603</ele>
        <time>2020-06-14T10:48:28Z</time>
      </trkpt>
      <trkpt lat="46.54988" lon="4.52634">
        <ele>254.603</ele>
        <time>2020-06-14T10:48:34Z</time>
      </trkpt>
      <trkpt lat="46.54982" lon="4.52647">
        <ele>250.603</ele>
        <time>2020-06-14T10:48:39Z</time>
      </trkpt>
      <trkpt lat="46.54976" lon="4.52656">
        <ele>252.603</ele>
        <time>2020-06-14T10:48:44Z</time>
      </trkpt>
      <trkpt lat="46.54973" lon="4.52666">
        <ele>252.603</ele>
        <time>2020-06-14T10:48:49Z</time>
      </trkpt>
      <trkpt lat="46.5497" lon="4.52675">
        <ele>249.603</ele>
        <time>2020-06-14T10:48:57Z</time>
      </trkpt>
      <trkpt lat="46.54967" lon="4.52684">
        <ele>250.603</ele>
        <time>2020-06-14T10:49:02Z</time>
      </trkpt>
      <trkpt lat="46.54962" lon="4.52692">
        <ele>247.603</ele>
        <time>2020-06-14T10:49:08Z</time>
      </trkpt>
      <trkpt lat="46.54958" lon="4.52704">
        <ele>247.603</ele>
        <time>2020-06-14T10:49:13Z</time>
      </trkpt>
      <trkpt lat="46.54954" lon="4.52712">
        <ele>251.603</ele>
        <time>2020-06-14T10:49:18Z</time>
      </trkpt>
      <trkpt lat="46.54948" lon="4.5272">
        <ele>251.603</ele>
        <time>2020-06-14T10:49:23Z</time>
      </trkpt>
      <trkpt lat="46.54941" lon="4.52727">
        <ele>254.603</ele>
        <time>2020-06-14T10:49:28Z</time>
      </trkpt>
      <trkpt lat="46.54933" lon="4.52732">
        <ele>253.603</ele>
        <time>2020-06-14T10:49:33Z</time>
      </trkpt>
      <trkpt lat="46.54926" lon="4.52737">
        <ele>253.603</ele>
        <time>2020-06-14T10:49:38Z</time>
      </trkpt>
      <trkpt lat="46.54921" lon="4.52743">
        <ele>253.603</ele>
        <time>2020-06-14T10:49:43Z</time>
      </trkpt>
      <trkpt lat="46.54912" lon="4.52747">
        <ele>255.603</ele>
        <time>2020-06-14T10:49:48Z</time>
      </trkpt>
      <trkpt lat="46.54906" lon="4.52754">
        <ele>255.603</ele>
        <time>2020-06-14T10:49:53Z</time>
      </trkpt>
      <trkpt lat="46.549" lon="4.52761">
        <ele>257.603</ele>
        <time>2020-06-14T10:49:58Z</time>
      </trkpt>
      <trkpt lat="46.54895" lon="4.52767">
        <ele>252.603</ele>
        <time>2020-06-14T10:50:05Z</time>
      </trkpt>
      <trkpt lat="46.54889" lon="4.52774">
        <ele>248.603</ele>
        <time>2020-06-14T10:50:11Z</time>
      </trkpt>
      <trkpt lat="46.5488" lon="4.52777">
        <ele>248.603</ele>
        <time>2020-06-14T10:50:16Z</time>
      </trkpt>
      <trkpt lat="46.54874" lon="4.52784">
        <ele>245.603</ele>
        <time>2020-06-14T10:50:21Z</time>
      </trkpt>
      <trkpt lat="46.54869" lon="4.52794">
        <ele>246.603</ele>
        <time>2020-06-14T10:50:26Z</time>
      </trkpt>
      <trkpt lat="46.54864" lon="4.52802">
        <ele>248.603</ele>
        <time>2020-06-14T10:50:34Z</time>
      </trkpt>
      <trkpt lat="46.54857" lon="4.52807">
        <ele>247.603</ele>
        <time>2020-06-14T10:50:40Z</time>
      </trkpt>
      <trkpt lat="46.54849" lon="4.52812">
        <ele>246.603</ele>
        <time>2020-06-14T10:50:45Z</time>
      </trkpt>
      <trkpt lat="46.54841" lon="4.52819">
        <ele>246.603</ele>
        <time>2020-06-14T10:50:50Z</time>
      </trkpt>
      <trkpt lat="46.54833" lon="4.52824">
        <ele>244.603</ele>
        <time>2020-06-14T10:50:55Z</time>
      </trkpt>
      <trkpt lat="46.54827" lon="4.52831">
        <ele>245.603</ele>
        <time>2020-06-14T10:51:00Z</time>
      </trkpt>
      <trkpt lat="46.54819" lon="4.52836">
        <ele>243.603</ele>
        <time>2020-06-14T10:51:05Z</time>
      </trkpt>
      <trkpt lat="46.54811" lon="4.5284">
        <ele>240.603</ele>
        <time>2020-06-14T10:51:10Z</time>
      </trkpt>
      <trkpt lat="46.54804" lon="4.5285">
        <ele>241.603</ele>
        <time>2020-06-14T10:51:15Z</time>
      </trkpt>
      <trkpt lat="46.54797" lon="4.52857">
        <ele>243.603</ele>
        <time>2020-06-14T10:51:20Z</time>
      </trkpt>
      <trkpt lat="46.54791" lon="4.5286">
        <ele>244.603</ele>
        <time>2020-06-14T10:51:25Z</time>
      </trkpt>
      <trkpt lat="46.54785" lon="4.52866">
        <ele>242.603</ele>
        <time>2020-06-14T10:51:32Z</time>
      </trkpt>
      <trkpt lat="46.54779" lon="4.52869">
        <ele>245.603</ele>
        <time>2020-06-14T10:51:37Z</time>
      </trkpt>
      <trkpt lat="46.5477" lon="4.52875">
        <ele>240.603</ele>
        <time>2020-06-14T10:51:42Z</time>
      </trkpt>
      <trkpt lat="46.54763" lon="4.52881">
        <ele>240.603</ele>
        <time>2020-06-14T10:51:48Z</time>
      </trkpt>
      <trkpt lat="46.54757" lon="4.52889">
        <ele>236.603</ele>
        <time>2020-06-14T10:51:53Z</time>
      </trkpt>
      <trkpt lat="46.54749" lon="4.52895">
        <ele>234.603</ele>
        <time>2020-06-14T10:51:58Z</time>
      </trkpt>
      <trkpt lat="46.54739" lon="4.529">
        <ele>232.603</ele>
        <time>2020-06-14T10:52:03Z</time>
      </trkpt>
      <trkpt lat="46.54735" lon="4.52907">
        <ele>236.603</ele>
        <time>2020-06-14T10:52:08Z</time>
      </trkpt>
      <trkpt lat="46.54727" lon="4.52911">
        <ele>235.603</ele>
        <time>2020-06-14T10:52:13Z</time>
      </trkpt>
      <trkpt lat="46.54723" lon="4.52919">
        <ele>238.603</ele>
        <time>2020-06-14T10:52:18Z</time>
      </trkpt>
      <trkpt lat="46.54716" lon="4.52922">
        <ele>236.603</ele>
        <time>2020-06-14T10:52:23Z</time>
      </trkpt>
      <trkpt lat="46.54708" lon="4.52926">
        <ele>237.603</ele>
        <time>2020-06-14T10:52:29Z</time>
      </trkpt>
      <trkpt lat="46.54702" lon="4.5293">
        <ele>236.603</ele>
        <time>2020-06-14T10:52:34Z</time>
      </trkpt>
      <trkpt lat="46.54694" lon="4.52934">
        <ele>235.603</ele>
        <time>2020-06-14T10:52:39Z</time>
      </trkpt>
      <trkpt lat="46.54687" lon="4.5294">
        <ele>234.603</ele>
        <time>2020-06-14T10:52:44Z</time>
      </trkpt>
      <trkpt lat="46.54684" lon="4.52949">
        <ele>232.603</ele>
        <time>2020-06-14T10:52:50Z</time>
      </trkpt>
      <trkpt lat="46.54677" lon="4.52949">
        <ele>233.603</ele>
        <time>2020-06-14T10:53:49Z</time>
      </trkpt>
      <trkpt lat="46.54672" lon="4.52955">
        <ele>232.602</ele>
        <time>2020-06-14T10:53:54Z</time>
      </trkpt>
      <trkpt lat="46.54665" lon="4.5296">
        <ele>231.602</ele>
        <time>2020-06-14T10:53:59Z</time>
      </trkpt>
      <trkpt lat="46.54659" lon="4.52966">
        <ele>235.602</ele>
        <time>2020-06-14T10:54:04Z</time>
      </trkpt>
      <trkpt lat="46.54653" lon="4.52972">
        <ele>235.602</ele>
        <time>2020-06-14T10:54:10Z</time>
      </trkpt>
      <trkpt lat="46.54646" lon="4.52978">
        <ele>233.602</ele>
        <time>2020-06-14T10:54:16Z</time>
      </trkpt>
      <trkpt lat="46.54639" lon="4.52983">
        <ele>232.602</ele>
        <time>2020-06-14T10:54:21Z</time>
      </trkpt>
      <trkpt lat="46.54634" lon="4.52991">
        <ele>233.602</ele>
        <time>2020-06-14T10:54:28Z</time>
      </trkpt>
      <trkpt lat="46.5463" lon="4.52998">
        <ele>235.602</ele>
        <time>2020-06-14T10:54:33Z</time>
      </trkpt>
      <trkpt lat="46.54622" lon="4.53003">
        <ele>235.602</ele>
        <time>2020-06-14T10:54:38Z</time>
      </trkpt>
      <trkpt lat="46.54614" lon="4.53007">
        <ele>234.602</ele>
        <time>2020-06-14T10:54:43Z</time>
      </trkpt>
      <trkpt lat="46.54609" lon="4.53014">
        <ele>234.602</ele>
        <time>2020-06-14T10:54:48Z</time>
      </trkpt>
      <trkpt lat="46.54603" lon="4.53018">
        <ele>233.602</ele>
        <time>2020-06-14T10:54:55Z</time>
      </trkpt>
      <trkpt lat="46.54596" lon="4.53022">
        <ele>233.602</ele>
        <time>2020-06-14T10:55:00Z</time>
      </trkpt>
      <trkpt lat="46.54591" lon="4.5303">
        <ele>232.602</ele>
        <time>2020-06-14T10:55:05Z</time>
      </trkpt>
      <trkpt lat="46.54584" lon="4.53036">
        <ele>229.602</ele>
        <time>2020-06-14T10:55:10Z</time>
      </trkpt>
      <trkpt lat="46.54578" lon="4.53041">
        <ele>231.602</ele>
        <time>2020-06-14T10:55:17Z</time>
      </trkpt>
      <trkpt lat="46.54571" lon="4.53043">
        <ele>237.602</ele>
        <time>2020-06-14T10:55:22Z</time>
      </trkpt>
      <trkpt lat="46.54564" lon="4.53047">
        <ele>239.602</ele>
        <time>2020-06-14T10:55:27Z</time>
      </trkpt>
      <trkpt lat="46.54558" lon="4.53051">
        <ele>238.602</ele>
        <time>2020-06-14T10:55:34Z</time>
      </trkpt>
      <trkpt lat="46.54552" lon="4.5306">
        <ele>236.602</ele>
        <time>2020-06-14T10:55:42Z</time>
      </trkpt>
      <trkpt lat="46.54546" lon="4.53064">
        <ele>233.602</ele>
        <time>2020-06-14T10:55:47Z</time>
      </trkpt>
      <trkpt lat="46.54538" lon="4.53067">
        <ele>234.602</ele>
        <time>2020-06-14T10:55:52Z</time>
      </trkpt>
      <trkpt lat="46.54532" lon="4.53073">
        <ele>232.602</ele>
        <time>2020-06-14T10:56:01Z</time>
      </trkpt>
      <trkpt lat="46.54523" lon="4.5308">
        <ele>235.602</ele>
        <time>2020-06-14T10:56:06Z</time>
      </trkpt>
      <trkpt lat="46.54513" lon="4.53086">
        <ele>237.602</ele>
        <time>2020-06-14T10:56:11Z</time>
      </trkpt>
      <trkpt lat="46.54507" lon="4.53092">
        <ele>234.602</ele>
        <time>2020-06-14T10:56:16Z</time>
      </trkpt>
      <trkpt lat="46.54498" lon="4.53098">
        <ele>232.602</ele>
        <time>2020-06-14T10:56:21Z</time>
      </trkpt>
      <trkpt lat="46.5449" lon="4.53103">
        <ele>229.602</ele>
        <time>2020-06-14T10:56:26Z</time>
      </trkpt>
      <trkpt lat="46.54479" lon="4.53105">
        <ele>229.602</ele>
        <time>2020-06-14T10:56:31Z</time>
      </trkpt>
      <trkpt lat="46.54473" lon="4.53112">
        <ele>229.602</ele>
        <time>2020-06-14T10:56:36Z</time>
      </trkpt>
      <trkpt lat="46.54464" lon="4.53116">
        <ele>229.602</ele>
        <time>2020-06-14T10:56:41Z</time>
      </trkpt>
      <trkpt lat="46.54457" lon="4.5312">
        <ele>233.602</ele>
        <time>2020-06-14T10:56:46Z</time>
      </trkpt>
      <trkpt lat="46.5445" lon="4.53121">
        <ele>232.602</ele>
        <time>2020-06-14T10:56:51Z</time>
      </trkpt>
      <trkpt lat="46.54442" lon="4.53125">
        <ele>231.602</ele>
        <time>2020-06-14T10:56:56Z</time>
      </trkpt>
      <trkpt lat="46.54436" lon="4.53131">
        <ele>231.602</ele>
        <time>2020-06-14T10:57:01Z</time>
      </trkpt>
      <trkpt lat="46.54427" lon="4.53135">
        <ele>233.602</ele>
        <time>2020-06-14T10:57:06Z</time>
      </trkpt>
      <trkpt lat="46.5442" lon="4.53141">
        <ele>235.602</ele>
        <time>2020-06-14T10:57:13Z</time>
      </trkpt>
      <trkpt lat="46.54411" lon="4.53146">
        <ele>234.602</ele>
        <time>2020-06-14T10:57:18Z</time>
      </trkpt>
      <trkpt lat="46.54405" lon="4.53153">
        <ele>236.602</ele>
        <time>2020-06-14T10:57:24Z</time>
      </trkpt>
      <trkpt lat="46.54398" lon="4.53156">
        <ele>237.602</ele>
        <time>2020-06-14T10:57:29Z</time>
      </trkpt>
      <trkpt lat="46.54392" lon="4.53159">
        <ele>239.602</ele>
        <time>2020-06-14T10:57:34Z</time>
      </trkpt>
      <trkpt lat="46.54386" lon="4.53165">
        <ele>241.602</ele>
        <time>2020-06-14T10:57:39Z</time>
      </trkpt>
      <trkpt lat="46.54378" lon="4.53167">
        <ele>238.602</ele>
        <time>2020-06-14T10:57:44Z</time>
      </trkpt>
      <trkpt lat="46.5437" lon="4.53174">
        <ele>235.602</ele>
        <time>2020-06-14T10:57:49Z</time>
      </trkpt>
      <trkpt lat="46.54363" lon="4.53179">
        <ele>234.602</ele>
        <time>2020-06-14T10:57:54Z</time>
      </trkpt>
      <trkpt lat="46.54354" lon="4.53183">
        <ele>234.602</ele>
        <time>2020-06-14T10:57:59Z</time>
      </trkpt>
      <trkpt lat="46.54347" lon="4.53189">
        <ele>235.602</ele>
        <time>2020-06-14T10:58:04Z</time>
      </trkpt>
      <trkpt lat="46.54343" lon="4.53198">
        <ele>234.602</ele>
        <time>2020-06-14T10:58:10Z</time>
      </trkpt>
      <trkpt lat="46.54336" lon="4.53202">
        <ele>235.602</ele>
        <time>2020-06-14T10:58:15Z</time>
      </trkpt>
      <trkpt lat="46.5433" lon="4.53208">
        <ele>237.602</ele>
        <time>2020-06-14T10:58:21Z</time>
      </trkpt>
      <trkpt lat="46.54322" lon="4.53211">
        <ele>237.602</ele>
        <time>2020-06-14T10:58:27Z</time>
      </trkpt>
      <trkpt lat="46.54315" lon="4.53218">
        <ele>233.602</ele>
        <time>2020-06-14T10:58:32Z</time>
      </trkpt>
      <trkpt lat="46.54308" lon="4.53223">
        <ele>233.602</ele>
        <time>2020-06-14T10:58:37Z</time>
      </trkpt>
      <trkpt lat="46.54301" lon="4.53228">
        <ele>232.602</ele>
        <time>2020-06-14T10:58:42Z</time>
      </trkpt>
      <trkpt lat="46.54294" lon="4.53235">
        <ele>231.602</ele>
        <time>2020-06-14T10:58:47Z</time>
      </trkpt>
      <trkpt lat="46.54289" lon="4.53241">
        <ele>230.602</ele>
        <time>2020-06-14T10:58:52Z</time>
      </trkpt>
      <trkpt lat="46.54283" lon="4.53246">
        <ele>231.602</ele>
        <time>2020-06-14T10:58:58Z</time>
      </trkpt>
      <trkpt lat="46.54275" lon="4.53256">
        <ele>232.602</ele>
        <time>2020-06-14T10:59:03Z</time>
      </trkpt>
      <trkpt lat="46.54268" lon="4.53262">
        <ele>231.602</ele>
        <time>2020-06-14T10:59:08Z</time>
      </trkpt>
      <trkpt lat="46.54264" lon="4.53271">
        <ele>230.602</ele>
        <time>2020-06-14T10:59:13Z</time>
      </trkpt>
      <trkpt lat="46.54262" lon="4.53281">
        <ele>232.602</ele>
        <time>2020-06-14T10:59:19Z</time>
      </trkpt>
      <trkpt lat="46.54254" lon="4.53289">
        <ele>234.602</ele>
        <time>2020-06-14T10:59:24Z</time>
      </trkpt>
      <trkpt lat="46.54249" lon="4.53298">
        <ele>235.602</ele>
        <time>2020-06-14T10:59:29Z</time>
      </trkpt>
      <trkpt lat="46.54242" lon="4.53304">
        <ele>234.602</ele>
        <time>2020-06-14T10:59:34Z</time>
      </trkpt>
      <trkpt lat="46.54235" lon="4.53309">
        <ele>234.602</ele>
        <time>2020-06-14T10:59:39Z</time>
      </trkpt>
      <trkpt lat="46.54229" lon="4.53311">
        <ele>237.602</ele>
        <time>2020-06-14T10:59:44Z</time>
      </trkpt>
      <trkpt lat="46.54222" lon="4.53318">
        <ele>234.602</ele>
        <time>2020-06-14T10:59:51Z</time>
      </trkpt>
      <trkpt lat="46.54216" lon="4.53323">
        <ele>235.602</ele>
        <time>2020-06-14T10:59:56Z</time>
      </trkpt>
      <trkpt lat="46.54209" lon="4.53328">
        <ele>231.602</ele>
        <time>2020-06-14T11:00:03Z</time>
      </trkpt>
      <trkpt lat="46.54202" lon="4.53334">
        <ele>230.601</ele>
        <time>2020-06-14T11:00:08Z</time>
      </trkpt>
      <trkpt lat="46.54192" lon="4.53341">
        <ele>227.601</ele>
        <time>2020-06-14T11:00:13Z</time>
      </trkpt>
      <trkpt lat="46.54184" lon="4.53345">
        <ele>225.601</ele>
        <time>2020-06-14T11:00:18Z</time>
      </trkpt>
      <trkpt lat="46.54175" lon="4.53351">
        <ele>222.601</ele>
        <time>2020-06-14T11:00:23Z</time>
      </trkpt>
      <trkpt lat="46.54167" lon="4.53358">
        <ele>224.601</ele>
        <time>2020-06-14T11:00:28Z</time>
      </trkpt>
      <trkpt lat="46.54161" lon="4.53363">
        <ele>227.601</ele>
        <time>2020-06-14T11:00:33Z</time>
      </trkpt>
      <trkpt lat="46.54154" lon="4.5337">
        <ele>227.601</ele>
        <time>2020-06-14T11:00:39Z</time>
      </trkpt>
      <trkpt lat="46.54151" lon="4.53382">
        <ele>228.601</ele>
        <time>2020-06-14T11:00:44Z</time>
      </trkpt>
      <trkpt lat="46.54146" lon="4.53389">
        <ele>225.601</ele>
        <time>2020-06-14T11:00:49Z</time>
      </trkpt>
      <trkpt lat="46.54142" lon="4.53399">
        <ele>226.601</ele>
        <time>2020-06-14T11:00:57Z</time>
      </trkpt>
      <trkpt lat="46.54137" lon="4.53406">
        <ele>229.601</ele>
        <time>2020-06-14T11:01:02Z</time>
      </trkpt>
      <trkpt lat="46.5413" lon="4.53413">
        <ele>229.601</ele>
        <time>2020-06-14T11:01:07Z</time>
      </trkpt>
      <trkpt lat="46.54124" lon="4.53421">
        <ele>228.601</ele>
        <time>2020-06-14T11:01:12Z</time>
      </trkpt>
      <trkpt lat="46.54116" lon="4.53429">
        <ele>228.601</ele>
        <time>2020-06-14T11:01:17Z</time>
      </trkpt>
      <trkpt lat="46.54109" lon="4.53437">
        <ele>229.601</ele>
        <time>2020-06-14T11:01:22Z</time>
      </trkpt>
      <trkpt lat="46.54104" lon="4.53444">
        <ele>230.601</ele>
        <time>2020-06-14T11:01:27Z</time>
      </trkpt>
      <trkpt lat="46.54098" lon="4.53452">
        <ele>226.601</ele>
        <time>2020-06-14T11:01:34Z</time>
      </trkpt>
      <trkpt lat="46.54091" lon="4.53453">
        <ele>227.601</ele>
        <time>2020-06-14T11:01:41Z</time>
      </trkpt>
      <trkpt lat="46.54083" lon="4.53452">
        <ele>227.601</ele>
        <time>2020-06-14T11:01:47Z</time>
      </trkpt>
      <trkpt lat="46.54076" lon="4.53452">
        <ele>226.601</ele>
        <time>2020-06-14T11:01:52Z</time>
      </trkpt>
      <trkpt lat="46.54068" lon="4.53452">
        <ele>229.601</ele>
        <time>2020-06-14T11:01:58Z</time>
      </trkpt>
      <trkpt lat="46.54062" lon="4.53445">
        <ele>231.601</ele>
        <time>2020-06-14T11:02:03Z</time>
      </trkpt>
      <trkpt lat="46.54055" lon="4.53446">
        <ele>231.601</ele>
        <time>2020-06-14T11:02:08Z</time>
      </trkpt>
      <trkpt lat="46.54048" lon="4.53443">
        <ele>231.601</ele>
        <time>2020-06-14T11:02:13Z</time>
      </trkpt>
      <trkpt lat="46.54041" lon="4.53441">
        <ele>231.601</ele>
        <time>2020-06-14T11:02:18Z</time>
      </trkpt>
      <trkpt lat="46.54034" lon="4.53439">
        <ele>230.601</ele>
        <time>2020-06-14T11:02:23Z</time>
      </trkpt>
      <trkpt lat="46.54028" lon="4.53444">
        <ele>225.601</ele>
        <time>2020-06-14T11:02:29Z</time>
      </trkpt>
      <trkpt lat="46.5402" lon="4.53446">
        <ele>222.601</ele>
        <time>2020-06-14T11:02:35Z</time>
      </trkpt>
      <trkpt lat="46.54014" lon="4.5345">
        <ele>220.601</ele>
        <time>2020-06-14T11:02:40Z</time>
      </trkpt>
      <trkpt lat="46.54007" lon="4.53448">
        <ele>224.601</ele>
        <time>2020-06-14T11:02:46Z</time>
      </trkpt>
      <trkpt lat="46.54001" lon="4.53447">
        <ele>228.601</ele>
        <time>2020-06-14T11:02:52Z</time>
      </trkpt>
      <trkpt lat="46.53991" lon="4.53444">
        <ele>230.601</ele>
        <time>2020-06-14T11:02:57Z</time>
      </trkpt>
      <trkpt lat="46.53983" lon="4.53442">
        <ele>228.601</ele>
        <time>2020-06-14T11:03:02Z</time>
      </trkpt>
      <trkpt lat="46.53976" lon="4.53438">
        <ele>227.601</ele>
        <time>2020-06-14T11:03:07Z</time>
      </trkpt>
      <trkpt lat="46.53968" lon="4.53436">
        <ele>228.601</ele>
        <time>2020-06-14T11:03:12Z</time>
      </trkpt>
      <trkpt lat="46.53959" lon="4.5343">
        <ele>231.601</ele>
        <time>2020-06-14T11:03:17Z</time>
      </trkpt>
      <trkpt lat="46.53951" lon="4.53428">
        <ele>232.601</ele>
        <time>2020-06-14T11:03:22Z</time>
      </trkpt>
      <trkpt lat="46.53944" lon="4.53425">
        <ele>236.601</ele>
        <time>2020-06-14T11:03:28Z</time>
      </trkpt>
      <trkpt lat="46.53937" lon="4.5342">
        <ele>238.601</ele>
        <time>2020-06-14T11:03:33Z</time>
      </trkpt>
      <trkpt lat="46.5393" lon="4.53418">
        <ele>236.601</ele>
        <time>2020-06-14T11:03:38Z</time>
      </trkpt>
      <trkpt lat="46.53923" lon="4.53414">
        <ele>233.601</ele>
        <time>2020-06-14T11:03:43Z</time>
      </trkpt>
      <trkpt lat="46.53916" lon="4.53412">
        <ele>232.601</ele>
        <time>2020-06-14T11:03:49Z</time>
      </trkpt>
      <trkpt lat="46.53906" lon="4.53409">
        <ele>231.601</ele>
        <time>2020-06-14T11:03:54Z</time>
      </trkpt>
      <trkpt lat="46.53902" lon="4.53402">
        <ele>233.601</ele>
        <time>2020-06-14T11:03:59Z</time>
      </trkpt>
      <trkpt lat="46.53895" lon="4.53399">
        <ele>234.601</ele>
        <time>2020-06-14T11:04:04Z</time>
      </trkpt>
      <trkpt lat="46.53888" lon="4.53401">
        <ele>233.601</ele>
        <time>2020-06-14T11:04:10Z</time>
      </trkpt>
      <trkpt lat="46.53881" lon="4.53398">
        <ele>233.601</ele>
        <time>2020-06-14T11:04:15Z</time>
      </trkpt>
      <trkpt lat="46.53872" lon="4.53395">
        <ele>233.601</ele>
        <time>2020-06-14T11:04:20Z</time>
      </trkpt>
      <trkpt lat="46.53865" lon="4.53392">
        <ele>236.601</ele>
        <time>2020-06-14T11:04:26Z</time>
      </trkpt>
      <trkpt lat="46.53857" lon="4.53387">
        <ele>236.601</ele>
        <time>2020-06-14T11:04:31Z</time>
      </trkpt>
      <trkpt lat="46.53849" lon="4.53381">
        <ele>237.601</ele>
        <time>2020-06-14T11:04:36Z</time>
      </trkpt>
      <trkpt lat="46.53843" lon="4.53376">
        <ele>241.601</ele>
        <time>2020-06-14T11:04:43Z</time>
      </trkpt>
      <trkpt lat="46.53837" lon="4.53371">
        <ele>238.601</ele>
        <time>2020-06-14T11:04:48Z</time>
      </trkpt>
      <trkpt lat="46.5383" lon="4.53369">
        <ele>240.6</ele>
        <time>2020-06-14T11:04:53Z</time>
      </trkpt>
      <trkpt lat="46.53821" lon="4.53363">
        <ele>241.6</ele>
        <time>2020-06-14T11:04:58Z</time>
      </trkpt>
      <trkpt lat="46.53814" lon="4.53357">
        <ele>239.6</ele>
        <time>2020-06-14T11:05:03Z</time>
      </trkpt>
      <trkpt lat="46.53809" lon="4.53352">
        <ele>238.6</ele>
        <time>2020-06-14T11:05:08Z</time>
      </trkpt>
      <trkpt lat="46.53801" lon="4.53351">
        <ele>237.6</ele>
        <time>2020-06-14T11:05:15Z</time>
      </trkpt>
      <trkpt lat="46.53794" lon="4.53342">
        <ele>236.6</ele>
        <time>2020-06-14T11:05:20Z</time>
      </trkpt>
      <trkpt lat="46.53785" lon="4.53333">
        <ele>237.6</ele>
        <time>2020-06-14T11:05:25Z</time>
      </trkpt>
      <trkpt lat="46.53778" lon="4.5333">
        <ele>239.6</ele>
        <time>2020-06-14T11:05:30Z</time>
      </trkpt>
      <trkpt lat="46.53773" lon="4.53321">
        <ele>241.6</ele>
        <time>2020-06-14T11:05:35Z</time>
      </trkpt>
      <trkpt lat="46.53765" lon="4.53326">
        <ele>244.6</ele>
        <time>2020-06-14T11:05:43Z</time>
      </trkpt>
      <trkpt lat="46.53766" lon="4.53337">
        <ele>243.6</ele>
        <time>2020-06-14T11:05:48Z</time>
      </trkpt>
      <trkpt lat="46.53767" lon="4.53348">
        <ele>244.6</ele>
        <time>2020-06-14T11:05:55Z</time>
      </trkpt>
      <trkpt lat="46.53766" lon="4.53358">
        <ele>242.6</ele>
        <time>2020-06-14T11:06:01Z</time>
      </trkpt>
      <trkpt lat="46.53776" lon="4.53358">
        <ele>241.6</ele>
        <time>2020-06-14T11:06:06Z</time>
      </trkpt>
      <trkpt lat="46.53784" lon="4.5336">
        <ele>241.6</ele>
        <time>2020-06-14T11:06:24Z</time>
      </trkpt>
      <trkpt lat="46.5378" lon="4.53368">
        <ele>243.6</ele>
        <time>2020-06-14T11:07:40Z</time>
      </trkpt>
    </trkseg>
  </trk>
</gpx>